Wetterdaten: Dienstag, 07.02.2017
Datum Zeit Temp. A. Temp. A. max Feuchte A. Luftdruck Regen Wind Richtung Richtung Sonnenschein ET UV Solar Taupunkt Windchill Windböen
07.02.2017 00:00 0,3 °C 0,3 °C 91 % 1018,9 hPa 0,0 mm 4,4 km/h (1 Bft) S-SW 200 ° 0 min 0,000 mm 0,0 UV-I 0 W/m² -1,0 °C 0,3 °C 6,4 km/h (2 Bft)
07.02.2017 00:01 0,3 °C 0,3 °C 91 % 1018,9 hPa 0,0 mm 3,6 km/h (1 Bft) S-SW 200 ° 0 min 0,000 mm 0,0 UV-I 0 W/m² -1,0 °C 0,3 °C 4,8 km/h (1 Bft)
07.02.2017 00:02 0,3 °C 0,3 °C 91 % 1018,9 hPa 0,0 mm 3,4 km/h (1 Bft) S-SW 200 ° 0 min 0,000 mm 0,0 UV-I 0 W/m² -1,0 °C 0,3 °C 4,8 km/h (1 Bft)
07.02.2017 00:03 0,3 °C 0,3 °C 91 % 1018,9 hPa 0,0 mm 5,0 km/h (1 Bft) S 190 ° 0 min 0,000 mm 0,0 UV-I 0 W/m² -1,0 °C -1,2 °C 6,4 km/h (2 Bft)
07.02.2017 00:04 0,3 °C 0,3 °C 91 % 1018,9 hPa 0,0 mm 3,8 km/h (1 Bft) S 190 ° 0 min 0,000 mm 0,0 UV-I 0 W/m² -1,0 °C 0,3 °C 6,4 km/h (2 Bft)
07.02.2017 00:05 0,3 °C 0,3 °C 91 % 1018,8 hPa 0,0 mm 4,2 km/h (1 Bft) S 190 ° 0 min 0,000 mm 0,0 UV-I 0 W/m² -1,0 °C 0,3 °C 4,8 km/h (1 Bft)
07.02.2017 00:06 0,3 °C 0,3 °C 91 % 1018,8 hPa 0,0 mm 4,6 km/h (1 Bft) S 190 ° 0 min 0,000 mm 0,0 UV-I 0 W/m² -1,0 °C -1,1 °C 6,4 km/h (2 Bft)
07.02.2017 00:07 0,3 °C 0,3 °C 91 % 1018,8 hPa 0,0 mm 3,0 km/h (1 Bft) S 190 ° 0 min 0,000 mm 0,0 UV-I 0 W/m² -1,0 °C 0,3 °C 4,8 km/h (1 Bft)
07.02.2017 00:08 0,3 °C 0,3 °C 91 % 1018,8 hPa 0,0 mm 1,9 km/h (1 Bft) S 190 ° 0 min 0,000 mm 0,0 UV-I 0 W/m² -1,0 °C 0,3 °C 3,2 km/h (1 Bft)
07.02.2017 00:09 0,3 °C 0,3 °C 91 % 1018,8 hPa 0,0 mm 3,2 km/h (1 Bft) S 190 ° 0 min 0,000 mm 0,0 UV-I 0 W/m² -1,0 °C 0,3 °C 4,8 km/h (1 Bft)
07.02.2017 00:10 0,3 °C 0,3 °C 91 % 1018,8 hPa 0,0 mm 4,2 km/h (1 Bft) S 190 ° 0 min 0,000 mm 0,0 UV-I 0 W/m² -1,0 °C 0,3 °C 4,8 km/h (1 Bft)
07.02.2017 00:11 0,3 °C 0,3 °C 91 % 1018,8 hPa 0,0 mm 4,4 km/h (1 Bft) S-SW 198 ° 0 min 0,000 mm 0,0 UV-I 0 W/m² -1,0 °C 0,3 °C 4,8 km/h (1 Bft)
07.02.2017 00:12 0,3 °C 0,3 °C 91 % 1018,8 hPa 0,0 mm 5,6 km/h (1 Bft) S-SW 194 ° 0 min 0,000 mm 0,0 UV-I 0 W/m² -1,0 °C -1,5 °C 6,4 km/h (2 Bft)
07.02.2017 00:13 0,3 °C 0,3 °C 91 % 1018,8 hPa 0,0 mm 6,2 km/h (2 Bft) S-SW 194 ° 0 min 0,000 mm 0,0 UV-I 0 W/m² -1,0 °C -1,8 °C 8,0 km/h (2 Bft)
07.02.2017 00:14 0,3 °C 0,3 °C 91 % 1018,8 hPa 0,0 mm 5,7 km/h (1 Bft) S-SW 206 ° 0 min 0,000 mm 0,0 UV-I 0 W/m² -1,0 °C -1,6 °C 8,0 km/h (2 Bft)
07.02.2017 00:15 0,3 °C 0,3 °C 91 % 1018,8 hPa 0,0 mm 6,0 km/h (2 Bft) S-SW 202 ° 0 min 0,000 mm 0,0 UV-I 0 W/m² -1,0 °C -1,7 °C 8,0 km/h (2 Bft)
07.02.2017 00:16 0,3 °C 0,3 °C 91 % 1018,8 hPa 0,0 mm 4,9 km/h (1 Bft) S-SW 213 ° 0 min 0,000 mm 0,0 UV-I 0 W/m² -1,0 °C -1,2 °C 6,4 km/h (2 Bft)
07.02.2017 00:17 0,3 °C 0,3 °C 91 % 1018,8 hPa 0,0 mm 5,3 km/h (1 Bft) S-SW 210 ° 0 min 0,000 mm 0,0 UV-I 0 W/m² -1,0 °C -1,4 °C 8,0 km/h (2 Bft)
07.02.2017 00:18 0,3 °C 0,3 °C 91 % 1018,8 hPa 0,0 mm 5,2 km/h (1 Bft) S 188 ° 0 min 0,000 mm 0,0 UV-I 0 W/m² -1,0 °C -1,3 °C 6,4 km/h (2 Bft)
07.02.2017 00:19 0,3 °C 0,3 °C 91 % 1018,8 hPa 0,0 mm 5,0 km/h (1 Bft) S-SW 209 ° 0 min 0,000 mm 0,0 UV-I 0 W/m² -1,0 °C -1,2 °C 6,4 km/h (2 Bft)
07.02.2017 00:20 0,3 °C 0,3 °C 91 % 1018,8 hPa 0,0 mm 4,0 km/h (1 Bft) S-SW 205 ° 0 min 0,000 mm 0,0 UV-I 0 W/m² -1,0 °C 0,3 °C 6,4 km/h (2 Bft)
07.02.2017 00:21 0,3 °C 0,3 °C 91 % 1018,7 hPa 0,0 mm 3,9 km/h (1 Bft) S-SW 203 ° 0 min 0,000 mm 0,0 UV-I 0 W/m² -1,0 °C 0,3 °C 6,4 km/h (2 Bft)
07.02.2017 00:22 0,3 °C 0,3 °C 91 % 1018,7 hPa 0,0 mm 4,3 km/h (1 Bft) S-SW 192 ° 0 min 0,000 mm 0,0 UV-I 0 W/m² -1,0 °C 0,3 °C 6,4 km/h (2 Bft)
07.02.2017 00:23 0,3 °C 0,3 °C 91 % 1018,8 hPa 0,0 mm 3,5 km/h (1 Bft) S-SW 193 ° 0 min 0,000 mm 0,0 UV-I 0 W/m² -1,0 °C 0,3 °C 4,8 km/h (1 Bft)
07.02.2017 00:24 0,3 °C 0,3 °C 91 % 1018,8 hPa 0,0 mm 3,5 km/h (1 Bft) S-SW 193 ° 0 min 0,000 mm 0,0 UV-I 0 W/m² -1,0 °C 0,3 °C 6,4 km/h (2 Bft)
07.02.2017 00:25 0,3 °C 0,3 °C 91 % 1018,7 hPa 0,0 mm 4,6 km/h (1 Bft) S-SW 194 ° 0 min 0,000 mm 0,0 UV-I 0 W/m² -1,0 °C -1,1 °C 8,0 km/h (2 Bft)
07.02.2017 00:26 0,3 °C 0,3 °C 91 % 1018,7 hPa 0,0 mm 2,0 km/h (1 Bft) S-SW 194 ° 0 min 0,000 mm 0,0 UV-I 0 W/m² -1,0 °C 0,3 °C 3,2 km/h (1 Bft)
07.02.2017 00:27 0,3 °C 0,3 °C 91 % 1018,8 hPa 0,0 mm 1,7 km/h (1 Bft) S-SW 194 ° 0 min 0,000 mm 0,0 UV-I 0 W/m² -1,0 °C 0,3 °C 3,2 km/h (1 Bft)
07.02.2017 00:28 0,3 °C 0,3 °C 91 % 1018,7 hPa 0,0 mm 2,1 km/h (1 Bft) S-SW 208 ° 0 min 0,000 mm 0,0 UV-I 0 W/m² -1,0 °C 0,3 °C 6,4 km/h (2 Bft)
07.02.2017 00:29 0,3 °C 0,3 °C 91 % 1018,7 hPa 0,0 mm 3,4 km/h (1 Bft) S-SW 207 ° 0 min 0,000 mm 0,0 UV-I 0 W/m² -1,0 °C 0,3 °C 4,8 km/h (1 Bft)
07.02.2017 00:30 0,3 °C 0,3 °C 91 % 1018,7 hPa 0,0 mm 3,6 km/h (1 Bft) S-SW 202 ° 0 min 0,000 mm 0,0 UV-I 0 W/m² -1,0 °C 0,3 °C 4,8 km/h (1 Bft)
07.02.2017 00:31 0,3 °C 0,3 °C 91 % 1018,7 hPa 0,0 mm 3,3 km/h (1 Bft) S-SW 202 ° 0 min 0,000 mm 0,0 UV-I 0 W/m² -1,0 °C 0,3 °C 4,8 km/h (1 Bft)
07.02.2017 00:32 0,3 °C 0,3 °C 91 % 1018,7 hPa 0,0 mm 2,4 km/h (1 Bft) S-SW 202 ° 0 min 0,000 mm 0,0 UV-I 0 W/m² -1,0 °C 0,3 °C 4,8 km/h (1 Bft)
07.02.2017 00:33 0,3 °C 0,3 °C 91 % 1018,8 hPa 0,0 mm 4,1 km/h (1 Bft) S-SW 212 ° 0 min 0,000 mm 0,0 UV-I 0 W/m² -1,0 °C 0,3 °C 6,4 km/h (2 Bft)
07.02.2017 00:34 0,3 °C 0,3 °C 91 % 1018,7 hPa 0,0 mm 4,2 km/h (1 Bft) S-SW 205 ° 0 min 0,000 mm 0,0 UV-I 0 W/m² -1,0 °C 0,3 °C 4,8 km/h (1 Bft)
07.02.2017 00:35 0,3 °C 0,3 °C 91 % 1018,7 hPa 0,0 mm 2,8 km/h (1 Bft) S-SW 205 ° 0 min 0,000 mm 0,0 UV-I 0 W/m² -1,0 °C 0,3 °C 4,8 km/h (1 Bft)
07.02.2017 00:36 0,3 °C 0,3 °C 91 % 1018,8 hPa 0,0 mm 2,7 km/h (1 Bft) S-SW 202 ° 0 min 0,000 mm 0,0 UV-I 0 W/m² -1,0 °C 0,3 °C 4,8 km/h (1 Bft)
07.02.2017 00:37 0,3 °C 0,3 °C 91 % 1018,7 hPa 0,0 mm 2,4 km/h (1 Bft) S-SW 202 ° 0 min 0,000 mm 0,0 UV-I 0 W/m² -1,0 °C 0,3 °C 3,2 km/h (1 Bft)
07.02.2017 00:38 0,3 °C 0,3 °C 91 % 1018,7 hPa 0,0 mm 2,0 km/h (1 Bft) S-SW 202 ° 0 min 0,000 mm 0,0 UV-I 0 W/m² -1,0 °C 0,3 °C 4,8 km/h (1 Bft)
07.02.2017 00:39 0,3 °C 0,3 °C 91 % 1018,7 hPa 0,0 mm 0,5 km/h (0 Bft) S-SW 202 ° 0 min 0,000 mm 0,0 UV-I 0 W/m² -1,0 °C 0,3 °C 1,6 km/h (1 Bft)
07.02.2017 00:40 0,3 °C 0,3 °C 91 % 1018,7 hPa 0,0 mm 0,0 km/h (0 Bft) S-SW 202 ° 0 min 0,000 mm 0,0 UV-I 0 W/m² -1,0 °C 0,3 °C 0,0 km/h (0 Bft)
07.02.2017 00:41 0,2 °C 0,3 °C 91 % 1018,7 hPa 0,0 mm 0,0 km/h (0 Bft) S-SW 202 ° 0 min 0,000 mm 0,0 UV-I 0 W/m² -1,1 °C 0,2 °C 0,0 km/h (0 Bft)
07.02.2017 00:42 0,3 °C 0,3 °C 91 % 1018,7 hPa 0,0 mm 0,1 km/h (0 Bft) S-SW 202 ° 0 min 0,000 mm 0,0 UV-I 0 W/m² -1,0 °C 0,3 °C 1,6 km/h (1 Bft)
07.02.2017 00:43 0,3 °C 0,3 °C 91 % 1018,7 hPa 0,0 mm 0,9 km/h (0 Bft) S-SW 202 ° 0 min 0,000 mm 0,0 UV-I 0 W/m² -1,0 °C 0,3 °C 1,6 km/h (1 Bft)
07.02.2017 00:44 0,3 °C 0,3 °C 91 % 1018,7 hPa 0,0 mm 0,1 km/h (0 Bft) S-SW 202 ° 0 min 0,000 mm 0,0 UV-I 0 W/m² -1,0 °C 0,3 °C 1,6 km/h (1 Bft)
07.02.2017 00:45 0,2 °C 0,3 °C 91 % 1018,7 hPa 0,0 mm 0,0 km/h (0 Bft) S-SW 202 ° 0 min 0,000 mm 0,0 UV-I 0 W/m² -1,1 °C 0,2 °C 0,0 km/h (0 Bft)
07.02.2017 00:46 0,2 °C 0,3 °C 91 % 1018,7 hPa 0,0 mm 0,0 km/h (0 Bft) S-SW 202 ° 0 min 0,000 mm 0,0 UV-I 0 W/m² -1,1 °C 0,2 °C 0,0 km/h (0 Bft)
07.02.2017 00:47 0,3 °C 0,3 °C 91 % 1018,7 hPa 0,0 mm 0,5 km/h (0 Bft) S-SW 202 ° 0 min 0,000 mm 0,0 UV-I 0 W/m² -1,0 °C 0,3 °C 1,6 km/h (1 Bft)
07.02.2017 00:48 0,2 °C 0,3 °C 91 % 1018,7 hPa 0,0 mm 1,8 km/h (1 Bft) S-SW 202 ° 0 min 0,000 mm 0,0 UV-I 0 W/m² -1,1 °C 0,2 °C 3,2 km/h (1 Bft)
07.02.2017 00:49 0,2 °C 0,3 °C 91 % 1018,7 hPa 0,0 mm 1,6 km/h (1 Bft) S-SW 202 ° 0 min 0,000 mm 0,0 UV-I 0 W/m² -1,1 °C 0,2 °C 3,2 km/h (1 Bft)
07.02.2017 00:50 0,2 °C 0,2 °C 91 % 1018,7 hPa 0,0 mm 2,9 km/h (1 Bft) S-SW 199 ° 0 min 0,000 mm 0,0 UV-I 0 W/m² -1,1 °C 0,2 °C 3,2 km/h (1 Bft)
07.02.2017 00:51 0,2 °C 0,2 °C 91 % 1018,7 hPa 0,0 mm 1,3 km/h (1 Bft) S-SW 199 ° 0 min 0,000 mm 0,0 UV-I 0 W/m² -1,1 °C 0,2 °C 3,2 km/h (1 Bft)
07.02.2017 00:52 0,2 °C 0,3 °C 91 % 1018,7 hPa 0,0 mm 1,1 km/h (1 Bft) S-SW 199 ° 0 min 0,000 mm 0,0 UV-I 0 W/m² -1,1 °C 0,2 °C 1,6 km/h (1 Bft)
07.02.2017 00:53 0,2 °C 0,3 °C 91 % 1018,7 hPa 0,0 mm 0,7 km/h (0 Bft) S-SW 199 ° 0 min 0,000 mm 0,0 UV-I 0 W/m² -1,1 °C 0,2 °C 1,6 km/h (1 Bft)
07.02.2017 00:54 0,2 °C 0,2 °C 91 % 1018,7 hPa 0,0 mm 1,1 km/h (1 Bft) S-SW 199 ° 0 min 0,000 mm 0,0 UV-I 0 W/m² -1,1 °C 0,2 °C 1,6 km/h (1 Bft)
07.02.2017 00:55 0,2 °C 0,2 °C 91 % 1018,7 hPa 0,0 mm 0,2 km/h (0 Bft) S-SW 199 ° 0 min 0,000 mm 0,0 UV-I 0 W/m² -1,1 °C 0,2 °C 1,6 km/h (1 Bft)
07.02.2017 00:56 0,2 °C 0,2 °C 91 % 1018,7 hPa 0,0 mm 0,0 km/h (0 Bft) S-SW 199 ° 0 min 0,000 mm 0,0 UV-I 0 W/m² -1,1 °C 0,2 °C 0,0 km/h (0 Bft)
07.02.2017 00:57 0,2 °C 0,2 °C 91 % 1018,7 hPa 0,0 mm 0,0 km/h (0 Bft) S-SW 199 ° 0 min 0,000 mm 0,0 UV-I 0 W/m² -1,1 °C 0,2 °C 0,0 km/h (0 Bft)
07.02.2017 00:58 0,2 °C 0,2 °C 91 % 1018,8 hPa 0,0 mm 0,0 km/h (0 Bft) S-SW 199 ° 0 min 0,000 mm 0,0 UV-I 0 W/m² -1,1 °C 0,2 °C 0,0 km/h (0 Bft)
07.02.2017 00:59 0,2 °C 0,2 °C 91 % 1018,7 hPa 0,0 mm 0,1 km/h (0 Bft) S-SW 199 ° 0 min 0,000 mm 0,0 UV-I 0 W/m² -1,1 °C 0,2 °C 1,6 km/h (1 Bft)
07.02.2017 01:00 0,2 °C 0,2 °C 91 % 1018,7 hPa 0,0 mm 0,3 km/h (0 Bft) S-SW 199 ° 0 min 0,000 mm 0,0 UV-I 0 W/m² -1,1 °C 0,2 °C 1,6 km/h (1 Bft)
07.02.2017 01:01 0,2 °C 0,2 °C 91 % 1018,7 hPa 0,0 mm 0,7 km/h (0 Bft) S-SW 199 ° 0 min 0,000 mm 0,0 UV-I 0 W/m² -1,1 °C 0,2 °C 1,6 km/h (1 Bft)
07.02.2017 01:02 0,2 °C 0,2 °C 91 % 1018,7 hPa 0,0 mm 0,8 km/h (0 Bft) S-SW 199 ° 0 min 0,000 mm 0,0 UV-I 0 W/m² -1,1 °C 0,2 °C 1,6 km/h (1 Bft)
07.02.2017 01:03 0,2 °C 0,2 °C 91 % 1018,7 hPa 0,0 mm 0,0 km/h (0 Bft) S-SW 199 ° 0 min 0,000 mm 0,0 UV-I 0 W/m² -1,1 °C 0,2 °C 0,0 km/h (0 Bft)
07.02.2017 01:04 0,2 °C 0,2 °C 91 % 1018,7 hPa 0,0 mm 0,0 km/h (0 Bft) S-SW 199 ° 0 min 0,000 mm 0,0 UV-I 0 W/m² -1,1 °C 0,2 °C 0,0 km/h (0 Bft)
07.02.2017 01:05 0,2 °C 0,2 °C 91 % 1018,6 hPa 0,0 mm 1,2 km/h (1 Bft) S-SW 199 ° 0 min 0,000 mm 0,0 UV-I 0 W/m² -1,1 °C 0,2 °C 1,6 km/h (1 Bft)
07.02.2017 01:06 0,2 °C 0,2 °C 91 % 1018,6 hPa 0,0 mm 0,3 km/h (0 Bft) S-SW 199 ° 0 min 0,000 mm 0,0 UV-I 0 W/m² -1,1 °C 0,2 °C 1,6 km/h (1 Bft)
07.02.2017 01:07 0,2 °C 0,2 °C 91 % 1018,7 hPa 0,0 mm 1,0 km/h (0 Bft) S-SW 199 ° 0 min 0,000 mm 0,0 UV-I 0 W/m² -1,1 °C 0,2 °C 1,6 km/h (1 Bft)
07.02.2017 01:08 0,2 °C 0,2 °C 91 % 1018,7 hPa 0,0 mm 0,1 km/h (0 Bft) S-SW 199 ° 0 min 0,000 mm 0,0 UV-I 0 W/m² -1,1 °C 0,2 °C 1,6 km/h (1 Bft)
07.02.2017 01:09 0,2 °C 0,2 °C 91 % 1018,6 hPa 0,0 mm 0,0 km/h (0 Bft) S-SW 199 ° 0 min 0,000 mm 0,0 UV-I 0 W/m² -1,1 °C 0,2 °C 0,0 km/h (0 Bft)
07.02.2017 01:10 0,2 °C 0,2 °C 91 % 1018,6 hPa 0,0 mm 0,0 km/h (0 Bft) S-SW 199 ° 0 min 0,000 mm 0,0 UV-I 0 W/m² -1,1 °C 0,2 °C 0,0 km/h (0 Bft)
07.02.2017 01:11 0,2 °C 0,2 °C 91 % 1018,6 hPa 0,0 mm 0,0 km/h (0 Bft) S-SW 199 ° 0 min 0,000 mm 0,0 UV-I 0 W/m² -1,1 °C 0,2 °C 0,0 km/h (0 Bft)
07.02.2017 01:12 0,2 °C 0,2 °C 91 % 1018,6 hPa 0,0 mm 0,0 km/h (0 Bft) S-SW 199 ° 0 min 0,000 mm 0,0 UV-I 0 W/m² -1,1 °C 0,2 °C 0,0 km/h (0 Bft)
07.02.2017 01:13 0,2 °C 0,2 °C 91 % 1018,7 hPa 0,0 mm 0,0 km/h (0 Bft) S-SW 199 ° 0 min 0,000 mm 0,0 UV-I 0 W/m² -1,1 °C 0,2 °C 0,0 km/h (0 Bft)
07.02.2017 01:14 0,2 °C 0,2 °C 91 % 1018,7 hPa 0,0 mm 0,2 km/h (0 Bft) S-SW 199 ° 0 min 0,000 mm 0,0 UV-I 0 W/m² -1,1 °C 0,2 °C 1,6 km/h (1 Bft)
07.02.2017 01:15 0,2 °C 0,2 °C 91 % 1018,7 hPa 0,0 mm 0,7 km/h (0 Bft) S-SW 199 ° 0 min 0,000 mm 0,0 UV-I 0 W/m² -1,1 °C 0,2 °C 1,6 km/h (1 Bft)
07.02.2017 01:16 0,2 °C 0,2 °C 91 % 1018,7 hPa 0,0 mm 0,0 km/h (0 Bft) S-SW 199 ° 0 min 0,000 mm 0,0 UV-I 0 W/m² -1,1 °C 0,2 °C 0,0 km/h (0 Bft)
07.02.2017 01:17 0,2 °C 0,2 °C 91 % 1018,7 hPa 0,0 mm 0,0 km/h (0 Bft) S-SW 199 ° 0 min 0,000 mm 0,0 UV-I 0 W/m² -1,1 °C 0,2 °C 0,0 km/h (0 Bft)
07.02.2017 01:18 0,2 °C 0,2 °C 91 % 1018,7 hPa 0,0 mm 0,0 km/h (0 Bft) S-SW 199 ° 0 min 0,000 mm 0,0 UV-I 0 W/m² -1,1 °C 0,2 °C 0,0 km/h (0 Bft)
07.02.2017 01:19 0,2 °C 0,2 °C 91 % 1018,7 hPa 0,0 mm 0,2 km/h (0 Bft) S-SW 199 ° 0 min 0,000 mm 0,0 UV-I 0 W/m² -1,1 °C 0,2 °C 1,6 km/h (1 Bft)
07.02.2017 01:20 0,2 °C 0,2 °C 91 % 1018,7 hPa 0,0 mm 0,1 km/h (0 Bft) S-SW 199 ° 0 min 0,000 mm 0,0 UV-I 0 W/m² -1,1 °C 0,2 °C 1,6 km/h (1 Bft)
07.02.2017 01:21 0,1 °C 0,2 °C 91 % 1018,7 hPa 0,0 mm 0,0 km/h (0 Bft) S-SW 199 ° 0 min 0,000 mm 0,0 UV-I 0 W/m² -1,2 °C 0,1 °C 0,0 km/h (0 Bft)
07.02.2017 01:22 0,2 °C 0,2 °C 91 % 1018,7 hPa 0,0 mm 0,0 km/h (0 Bft) S-SW 199 ° 0 min 0,000 mm 0,0 UV-I 0 W/m² -1,1 °C 0,2 °C 0,0 km/h (0 Bft)
07.02.2017 01:23 0,2 °C 0,2 °C 91 % 1018,7 hPa 0,0 mm 0,0 km/h (0 Bft) S-SW 199 ° 0 min 0,000 mm 0,0 UV-I 0 W/m² -1,1 °C 0,2 °C 0,0 km/h (0 Bft)
07.02.2017 01:24 0,2 °C 0,2 °C 91 % 1018,7 hPa 0,0 mm 0,0 km/h (0 Bft) S-SW 199 ° 0 min 0,000 mm 0,0 UV-I 0 W/m² -1,1 °C 0,2 °C 0,0 km/h (0 Bft)
07.02.2017 01:25 0,2 °C 0,2 °C 91 % 1018,7 hPa 0,0 mm 0,0 km/h (0 Bft) S-SW 199 ° 0 min 0,000 mm 0,0 UV-I 0 W/m² -1,1 °C 0,2 °C 0,0 km/h (0 Bft)
07.02.2017 01:26 0,2 °C 0,2 °C 91 % 1018,7 hPa 0,0 mm 0,0 km/h (0 Bft) S-SW 199 ° 0 min 0,000 mm 0,0 UV-I 0 W/m² -1,1 °C 0,2 °C 0,0 km/h (0 Bft)
07.02.2017 01:27 0,2 °C 0,2 °C 91 % 1018,6 hPa 0,0 mm 0,0 km/h (0 Bft) S-SW 199 ° 0 min 0,000 mm 0,0 UV-I 0 W/m² -1,1 °C 0,2 °C 0,0 km/h (0 Bft)
07.02.2017 01:28 0,2 °C 0,2 °C 91 % 1018,6 hPa 0,0 mm 0,3 km/h (0 Bft) S-SW 199 ° 0 min 0,000 mm 0,0 UV-I 0 W/m² -1,1 °C 0,2 °C 1,6 km/h (1 Bft)
07.02.2017 01:29 0,1 °C 0,2 °C 91 % 1018,6 hPa 0,0 mm 1,7 km/h (1 Bft) S-SW 199 ° 0 min 0,000 mm 0,0 UV-I 0 W/m² -1,2 °C 0,1 °C 3,2 km/h (1 Bft)
07.02.2017 01:30 0,1 °C 0,1 °C 91 % 1018,6 hPa 0,0 mm 1,7 km/h (1 Bft) S-SW 199 ° 0 min 0,000 mm 0,0 UV-I 0 W/m² -1,2 °C 0,1 °C 3,2 km/h (1 Bft)
07.02.2017 01:31 0,1 °C 0,1 °C 91 % 1018,6 hPa 0,0 mm 1,6 km/h (1 Bft) S-SW 199 ° 0 min 0,000 mm 0,0 UV-I 0 W/m² -1,2 °C 0,1 °C 1,6 km/h (1 Bft)
07.02.2017 01:32 0,1 °C 0,1 °C 91 % 1018,6 hPa 0,0 mm 1,0 km/h (0 Bft) S-SW 199 ° 0 min 0,000 mm 0,0 UV-I 0 W/m² -1,2 °C 0,1 °C 1,6 km/h (1 Bft)
07.02.2017 01:33 0,1 °C 0,2 °C 91 % 1018,5 hPa 0,0 mm 1,0 km/h (0 Bft) S-SW 199 ° 0 min 0,000 mm 0,0 UV-I 0 W/m² -1,2 °C 0,1 °C 1,6 km/h (1 Bft)
07.02.2017 01:34 0,1 °C 0,1 °C 91 % 1018,5 hPa 0,0 mm 0,4 km/h (0 Bft) S-SW 199 ° 0 min 0,000 mm 0,0 UV-I 0 W/m² -1,2 °C 0,1 °C 1,6 km/h (1 Bft)
07.02.2017 01:35 0,1 °C 0,1 °C 91 % 1018,6 hPa 0,0 mm 0,0 km/h (0 Bft) S-SW 199 ° 0 min 0,000 mm 0,0 UV-I 0 W/m² -1,2 °C 0,1 °C 0,0 km/h (0 Bft)
07.02.2017 01:36 0,1 °C 0,1 °C 91 % 1018,6 hPa 0,0 mm 0,1 km/h (0 Bft) S-SW 199 ° 0 min 0,000 mm 0,0 UV-I 0 W/m² -1,2 °C 0,1 °C 1,6 km/h (1 Bft)
07.02.2017 01:37 0,1 °C 0,1 °C 91 % 1018,6 hPa 0,0 mm 1,3 km/h (1 Bft) S-SW 199 ° 0 min 0,000 mm 0,0 UV-I 0 W/m² -1,2 °C 0,1 °C 1,6 km/h (1 Bft)
07.02.2017 01:38 0,1 °C 0,1 °C 91 % 1018,6 hPa 0,0 mm 0,4 km/h (0 Bft) S-SW 199 ° 0 min 0,000 mm 0,0 UV-I 0 W/m² -1,2 °C 0,1 °C 1,6 km/h (1 Bft)
07.02.2017 01:39 0,1 °C 0,1 °C 91 % 1018,6 hPa 0,0 mm 0,3 km/h (0 Bft) S-SW 199 ° 0 min 0,000 mm 0,0 UV-I 0 W/m² -1,2 °C 0,1 °C 1,6 km/h (1 Bft)
07.02.2017 01:40 0,1 °C 0,1 °C 91 % 1018,6 hPa 0,0 mm 0,5 km/h (0 Bft) S-SW 199 ° 0 min 0,000 mm 0,0 UV-I 0 W/m² -1,2 °C 0,1 °C 1,6 km/h (1 Bft)
07.02.2017 01:41 0,1 °C 0,1 °C 91 % 1018,6 hPa 0,0 mm 0,0 km/h (0 Bft) S-SW 199 ° 0 min 0,000 mm 0,0 UV-I 0 W/m² -1,2 °C 0,1 °C 0,0 km/h (0 Bft)
07.02.2017 01:42 0,1 °C 0,1 °C 91 % 1018,6 hPa 0,0 mm 0,1 km/h (0 Bft) S-SW 199 ° 0 min 0,000 mm 0,0 UV-I 0 W/m² -1,2 °C 0,1 °C 1,6 km/h (1 Bft)
07.02.2017 01:43 0,1 °C 0,1 °C 91 % 1018,6 hPa 0,0 mm 0,0 km/h (0 Bft) S-SW 199 ° 0 min 0,000 mm 0,0 UV-I 0 W/m² -1,2 °C 0,1 °C 0,0 km/h (0 Bft)
07.02.2017 01:44 0,1 °C 0,1 °C 91 % 1018,6 hPa 0,0 mm 0,0 km/h (0 Bft) S-SW 199 ° 0 min 0,000 mm 0,0 UV-I 0 W/m² -1,2 °C 0,1 °C 0,0 km/h (0 Bft)
07.02.2017 01:45 0,1 °C 0,1 °C 91 % 1018,6 hPa 0,0 mm 0,0 km/h (0 Bft) S-SW 199 ° 0 min 0,000 mm 0,0 UV-I 0 W/m² -1,2 °C 0,1 °C 0,0 km/h (0 Bft)
07.02.2017 01:46 0,1 °C 0,1 °C 91 % 1018,6 hPa 0,0 mm 0,0 km/h (0 Bft) S-SW 199 ° 0 min 0,000 mm 0,0 UV-I 0 W/m² -1,2 °C 0,1 °C 0,0 km/h (0 Bft)
07.02.2017 01:47 0,1 °C 0,1 °C 91 % 1018,6 hPa 0,0 mm 0,0 km/h (0 Bft) S-SW 199 ° 0 min 0,000 mm 0,0 UV-I 0 W/m² -1,2 °C 0,1 °C 0,0 km/h (0 Bft)
07.02.2017 01:48 0,1 °C 0,1 °C 91 % 1018,6 hPa 0,0 mm 0,0 km/h (0 Bft) S-SW 199 ° 0 min 0,000 mm 0,0 UV-I 0 W/m² -1,2 °C 0,1 °C 0,0 km/h (0 Bft)
07.02.2017 01:49 0,1 °C 0,1 °C 91 % 1018,6 hPa 0,0 mm 0,0 km/h (0 Bft) S-SW 199 ° 0 min 0,000 mm 0,0 UV-I 0 W/m² -1,2 °C 0,1 °C 0,0 km/h (0 Bft)
07.02.2017 01:50 0,1 °C 0,1 °C 91 % 1018,7 hPa 0,0 mm 0,0 km/h (0 Bft) S-SW 199 ° 0 min 0,000 mm 0,0 UV-I 0 W/m² -1,2 °C 0,1 °C 0,0 km/h (0 Bft)
07.02.2017 01:51 0,1 °C 0,1 °C 91 % 1018,7 hPa 0,0 mm 0,0 km/h (0 Bft) S-SW 199 ° 0 min 0,000 mm 0,0 UV-I 0 W/m² -1,2 °C 0,1 °C 0,0 km/h (0 Bft)
07.02.2017 01:52 0,1 °C 0,1 °C 91 % 1018,7 hPa 0,0 mm 0,0 km/h (0 Bft) S-SW 199 ° 0 min 0,000 mm 0,0 UV-I 0 W/m² -1,2 °C 0,1 °C 0,0 km/h (0 Bft)
07.02.2017 01:53 0,1 °C 0,1 °C 91 % 1018,7 hPa 0,0 mm 0,0 km/h (0 Bft) S-SW 199 ° 0 min 0,000 mm 0,0 UV-I 0 W/m² -1,2 °C 0,1 °C 0,0 km/h (0 Bft)
07.02.2017 01:54 0,1 °C 0,1 °C 91 % 1018,6 hPa 0,0 mm 0,0 km/h (0 Bft) S-SW 199 ° 0 min 0,000 mm 0,0 UV-I 0 W/m² -1,2 °C 0,1 °C 0,0 km/h (0 Bft)
07.02.2017 01:55 0,1 °C 0,1 °C 91 % 1018,6 hPa 0,0 mm 0,0 km/h (0 Bft) S-SW 199 ° 0 min 0,000 mm 0,0 UV-I 0 W/m² -1,2 °C 0,1 °C 0,0 km/h (0 Bft)
07.02.2017 01:56 0,1 °C 0,1 °C 91 % 1018,6 hPa 0,0 mm 0,0 km/h (0 Bft) S-SW 199 ° 0 min 0,000 mm 0,0 UV-I 0 W/m² -1,2 °C 0,1 °C 0,0 km/h (0 Bft)
07.02.2017 01:57 0,1 °C 0,1 °C 91 % 1018,6 hPa 0,0 mm 0,0 km/h (0 Bft) S-SW 199 ° 0 min 0,000 mm 0,0 UV-I 0 W/m² -1,2 °C 0,1 °C 0,0 km/h (0 Bft)
07.02.2017 01:58 0,1 °C 0,1 °C 91 % 1018,6 hPa 0,0 mm 0,1 km/h (0 Bft) S-SW 199 ° 0 min 0,000 mm 0,0 UV-I 0 W/m² -1,2 °C 0,1 °C 1,6 km/h (1 Bft)
07.02.2017 01:59 0,1 °C 0,1 °C 91 % 1018,6 hPa 0,0 mm 0,1 km/h (0 Bft) S-SW 199 ° 0 min 0,000 mm 0,0 UV-I 0 W/m² -1,2 °C 0,1 °C 1,6 km/h (1 Bft)
07.02.2017 02:00 0,1 °C 0,1 °C 91 % 1018,6 hPa 0,0 mm 0,0 km/h (0 Bft) S-SW 199 ° 0 min 0,000 mm 0,0 UV-I 0 W/m² -1,2 °C 0,1 °C 0,0 km/h (0 Bft)
07.02.2017 02:01 0,1 °C 0,1 °C 91 % 1018,5 hPa 0,0 mm 0,0 km/h (0 Bft) S-SW 199 ° 0 min 0,000 mm 0,0 UV-I 0 W/m² -1,2 °C 0,1 °C 0,0 km/h (0 Bft)
07.02.2017 02:02 0,1 °C 0,1 °C 91 % 1018,5 hPa 0,0 mm 0,0 km/h (0 Bft) S-SW 199 ° 0 min 0,000 mm 0,0 UV-I 0 W/m² -1,2 °C 0,1 °C 0,0 km/h (0 Bft)
07.02.2017 02:03 0,1 °C 0,1 °C 91 % 1018,5 hPa 0,0 mm 0,0 km/h (0 Bft) S-SW 199 ° 0 min 0,000 mm 0,0 UV-I 0 W/m² -1,2 °C 0,1 °C 0,0 km/h (0 Bft)
07.02.2017 02:04 0,1 °C 0,1 °C 91 % 1018,5 hPa 0,0 mm 0,0 km/h (0 Bft) S-SW 199 ° 0 min 0,000 mm 0,0 UV-I 0 W/m² -1,2 °C 0,1 °C 0,0 km/h (0 Bft)
07.02.2017 02:05 0,1 °C 0,1 °C 91 % 1018,5 hPa 0,0 mm 0,0 km/h (0 Bft) S-SW 199 ° 0 min 0,000 mm 0,0 UV-I 0 W/m² -1,2 °C 0,1 °C 0,0 km/h (0 Bft)
07.02.2017 02:06 0,1 °C 0,1 °C 91 % 1018,5 hPa 0,0 mm 0,0 km/h (0 Bft) S-SW 199 ° 0 min 0,000 mm 0,0 UV-I 0 W/m² -1,2 °C 0,1 °C 0,0 km/h (0 Bft)
07.02.2017 02:07 0,0 °C 0,1 °C 91 % 1018,5 hPa 0,0 mm 0,0 km/h (0 Bft) S-SW 199 ° 0 min 0,000 mm 0,0 UV-I 0 W/m² -1,3 °C 0,0 °C 0,0 km/h (0 Bft)
07.02.2017 02:08 0,1 °C 0,1 °C 91 % 1018,5 hPa 0,0 mm 0,0 km/h (0 Bft) S-SW 199 ° 0 min 0,000 mm 0,0 UV-I 0 W/m² -1,2 °C 0,1 °C 0,0 km/h (0 Bft)
07.02.2017 02:09 0,1 °C 0,1 °C 91 % 1018,5 hPa 0,0 mm 0,0 km/h (0 Bft) S-SW 199 ° 0 min 0,000 mm 0,0 UV-I 0 W/m² -1,2 °C 0,1 °C 0,0 km/h (0 Bft)
07.02.2017 02:10 0,0 °C 0,1 °C 91 % 1018,5 hPa 0,0 mm 0,0 km/h (0 Bft) S-SW 199 ° 0 min 0,000 mm 0,0 UV-I 0 W/m² -1,3 °C 0,0 °C 0,0 km/h (0 Bft)
07.02.2017 02:11 0,0 °C 0,1 °C 91 % 1018,5 hPa 0,0 mm 0,0 km/h (0 Bft) S-SW 199 ° 0 min 0,000 mm 0,0 UV-I 0 W/m² -1,3 °C 0,0 °C 0,0 km/h (0 Bft)
07.02.2017 02:12 0,0 °C 0,0 °C 91 % 1018,5 hPa 0,0 mm 0,0 km/h (0 Bft) S-SW 199 ° 0 min 0,000 mm 0,0 UV-I 0 W/m² -1,3 °C 0,0 °C 0,0 km/h (0 Bft)
07.02.2017 02:13 0,0 °C 0,0 °C 91 % 1018,5 hPa 0,0 mm 0,0 km/h (0 Bft) S-SW 199 ° 0 min 0,000 mm 0,0 UV-I 0 W/m² -1,3 °C 0,0 °C 0,0 km/h (0 Bft)
07.02.2017 02:14 0,0 °C 0,0 °C 91 % 1018,5 hPa 0,0 mm 0,0 km/h (0 Bft) S-SW 199 ° 0 min 0,000 mm 0,0 UV-I 0 W/m² -1,3 °C 0,0 °C 0,0 km/h (0 Bft)
07.02.2017 02:15 0,0 °C 0,0 °C 91 % 1018,5 hPa 0,0 mm 0,0 km/h (0 Bft) S-SW 199 ° 0 min 0,000 mm 0,0 UV-I 0 W/m² -1,3 °C 0,0 °C 0,0 km/h (0 Bft)
07.02.2017 02:16 0,0 °C 0,0 °C 91 % 1018,5 hPa 0,0 mm 0,0 km/h (0 Bft) S-SW 199 ° 0 min 0,000 mm 0,0 UV-I 0 W/m² -1,3 °C 0,0 °C 0,0 km/h (0 Bft)
07.02.2017 02:17 0,0 °C 0,0 °C 91 % 1018,5 hPa 0,0 mm 0,0 km/h (0 Bft) S-SW 199 ° 0 min 0,000 mm 0,0 UV-I 0 W/m² -1,3 °C 0,0 °C 0,0 km/h (0 Bft)
07.02.2017 02:18 0,0 °C 0,0 °C 91 % 1018,5 hPa 0,0 mm 0,0 km/h (0 Bft) S-SW 199 ° 0 min 0,000 mm 0,0 UV-I 0 W/m² -1,3 °C 0,0 °C 0,0 km/h (0 Bft)
07.02.2017 02:19 -0,1 °C 0,0 °C 91 % 1018,5 hPa 0,0 mm 0,0 km/h (0 Bft) S-SW 199 ° 0 min 0,000 mm 0,0 UV-I 0 W/m² -1,4 °C -0,1 °C 0,0 km/h (0 Bft)
07.02.2017 02:20 0,0 °C 0,0 °C 91 % 1018,5 hPa 0,0 mm 0,0 km/h (0 Bft) S-SW 199 ° 0 min 0,000 mm 0,0 UV-I 0 W/m² -1,3 °C 0,0 °C 0,0 km/h (0 Bft)
07.02.2017 02:21 -0,1 °C 0,0 °C 91 % 1018,5 hPa 0,0 mm 0,0 km/h (0 Bft) S-SW 199 ° 0 min 0,000 mm 0,0 UV-I 0 W/m² -1,4 °C -0,1 °C 0,0 km/h (0 Bft)
07.02.2017 02:22 0,0 °C 0,0 °C 92 % 1018,5 hPa 0,0 mm 0,0 km/h (0 Bft) S-SW 199 ° 0 min 0,000 mm 0,0 UV-I 0 W/m² -1,1 °C 0,0 °C 0,0 km/h (0 Bft)
07.02.2017 02:23 -0,1 °C 0,0 °C 91 % 1018,5 hPa 0,0 mm 0,0 km/h (0 Bft) S-SW 199 ° 0 min 0,000 mm 0,0 UV-I 0 W/m² -1,4 °C -0,1 °C 0,0 km/h (0 Bft)
07.02.2017 02:24 0,0 °C 0,0 °C 91 % 1018,5 hPa 0,0 mm 0,0 km/h (0 Bft) S-SW 199 ° 0 min 0,000 mm 0,0 UV-I 0 W/m² -1,3 °C 0,0 °C 0,0 km/h (0 Bft)
07.02.2017 02:25 -0,1 °C 0,0 °C 92 % 1018,5 hPa 0,0 mm 0,0 km/h (0 Bft) S-SW 199 ° 0 min 0,000 mm 0,0 UV-I 0 W/m² -1,2 °C -0,1 °C 0,0 km/h (0 Bft)
07.02.2017 02:26 -0,1 °C -0,1 °C 92 % 1018,5 hPa 0,0 mm 0,0 km/h (0 Bft) S-SW 199 ° 0 min 0,000 mm 0,0 UV-I 0 W/m² -1,2 °C -0,1 °C 0,0 km/h (0 Bft)
07.02.2017 02:27 -0,1 °C -0,1 °C 92 % 1018,5 hPa 0,0 mm 0,0 km/h (0 Bft) S-SW 199 ° 0 min 0,000 mm 0,0 UV-I 0 W/m² -1,2 °C -0,1 °C 0,0 km/h (0 Bft)
07.02.2017 02:28 -0,1 °C -0,1 °C 92 % 1018,5 hPa 0,0 mm 0,0 km/h (0 Bft) S-SW 199 ° 0 min 0,000 mm 0,0 UV-I 0 W/m² -1,2 °C -0,1 °C 0,0 km/h (0 Bft)
07.02.2017 02:29 -0,1 °C -0,1 °C 92 % 1018,4 hPa 0,0 mm 0,0 km/h (0 Bft) S-SW 199 ° 0 min 0,000 mm 0,0 UV-I 0 W/m² -1,2 °C -0,1 °C 0,0 km/h (0 Bft)
07.02.2017 02:30 -0,1 °C -0,1 °C 92 % 1018,5 hPa 0,0 mm 0,0 km/h (0 Bft) S-SW 199 ° 0 min 0,000 mm 0,0 UV-I 0 W/m² -1,2 °C -0,1 °C 0,0 km/h (0 Bft)
07.02.2017 02:31 -0,1 °C -0,1 °C 92 % 1018,4 hPa 0,0 mm 0,0 km/h (0 Bft) S-SW 199 ° 0 min 0,000 mm 0,0 UV-I 0 W/m² -1,2 °C -0,1 °C 0,0 km/h (0 Bft)
07.02.2017 02:32 -0,1 °C -0,1 °C 92 % 1018,4 hPa 0,0 mm 0,0 km/h (0 Bft) S-SW 199 ° 0 min 0,000 mm 0,0 UV-I 0 W/m² -1,2 °C -0,1 °C 0,0 km/h (0 Bft)
07.02.2017 02:33 -0,1 °C -0,1 °C 92 % 1018,4 hPa 0,0 mm 0,0 km/h (0 Bft) S-SW 199 ° 0 min 0,000 mm 0,0 UV-I 0 W/m² -1,2 °C -0,1 °C 0,0 km/h (0 Bft)
07.02.2017 02:34 -0,1 °C -0,1 °C 91 % 1018,5 hPa 0,0 mm 0,0 km/h (0 Bft) S-SW 199 ° 0 min 0,000 mm 0,0 UV-I 0 W/m² -1,4 °C -0,1 °C 0,0 km/h (0 Bft)
07.02.2017 02:35 -0,1 °C -0,1 °C 91 % 1018,5 hPa 0,0 mm 0,0 km/h (0 Bft) S-SW 199 ° 0 min 0,000 mm 0,0 UV-I 0 W/m² -1,4 °C -0,1 °C 0,0 km/h (0 Bft)
07.02.2017 02:36 -0,1 °C -0,1 °C 91 % 1018,5 hPa 0,0 mm 0,0 km/h (0 Bft) S-SW 199 ° 0 min 0,000 mm 0,0 UV-I 0 W/m² -1,4 °C -0,1 °C 0,0 km/h (0 Bft)
07.02.2017 02:37 -0,1 °C -0,1 °C 91 % 1018,4 hPa 0,0 mm 0,0 km/h (0 Bft) S-SW 199 ° 0 min 0,000 mm 0,0 UV-I 0 W/m² -1,4 °C -0,1 °C 0,0 km/h (0 Bft)
07.02.2017 02:38 -0,1 °C -0,1 °C 91 % 1018,4 hPa 0,0 mm 0,0 km/h (0 Bft) S-SW 199 ° 0 min 0,000 mm 0,0 UV-I 0 W/m² -1,4 °C -0,1 °C 0,0 km/h (0 Bft)
07.02.2017 02:39 -0,1 °C -0,1 °C 91 % 1018,4 hPa 0,0 mm 0,0 km/h (0 Bft) S-SW 199 ° 0 min 0,000 mm 0,0 UV-I 0 W/m² -1,4 °C -0,1 °C 0,0 km/h (0 Bft)
07.02.2017 02:40 -0,1 °C -0,1 °C 91 % 1018,4 hPa 0,0 mm 0,0 km/h (0 Bft) S-SW 199 ° 0 min 0,000 mm 0,0 UV-I 0 W/m² -1,4 °C -0,1 °C 0,0 km/h (0 Bft)
07.02.2017 02:41 -0,1 °C -0,1 °C 91 % 1018,4 hPa 0,0 mm 0,0 km/h (0 Bft) S-SW 199 ° 0 min 0,000 mm 0,0 UV-I 0 W/m² -1,4 °C -0,1 °C 0,0 km/h (0 Bft)
07.02.2017 02:42 -0,1 °C -0,1 °C 91 % 1018,4 hPa 0,0 mm 0,0 km/h (0 Bft) S-SW 199 ° 0 min 0,000 mm 0,0 UV-I 0 W/m² -1,4 °C -0,1 °C 0,0 km/h (0 Bft)
07.02.2017 02:43 -0,2 °C -0,1 °C 91 % 1018,4 hPa 0,0 mm 0,0 km/h (0 Bft) S-SW 199 ° 0 min 0,000 mm 0,0 UV-I 0 W/m² -1,5 °C -0,2 °C 0,0 km/h (0 Bft)
07.02.2017 02:44 -0,1 °C -0,1 °C 92 % 1018,4 hPa 0,0 mm 0,1 km/h (0 Bft) S-SW 199 ° 0 min 0,000 mm 0,0 UV-I 0 W/m² -1,2 °C -0,1 °C 1,6 km/h (1 Bft)
07.02.2017 02:45 -0,2 °C -0,1 °C 92 % 1018,4 hPa 0,0 mm 0,8 km/h (0 Bft) S-SW 199 ° 0 min 0,000 mm 0,0 UV-I 0 W/m² -1,3 °C -0,2 °C 1,6 km/h (1 Bft)
07.02.2017 02:46 -0,2 °C -0,1 °C 92 % 1018,4 hPa 0,0 mm 0,8 km/h (0 Bft) S-SW 199 ° 0 min 0,000 mm 0,0 UV-I 0 W/m² -1,3 °C -0,2 °C 1,6 km/h (1 Bft)
07.02.2017 02:47 -0,2 °C -0,1 °C 92 % 1018,4 hPa 0,0 mm 0,2 km/h (0 Bft) S-SW 199 ° 0 min 0,000 mm 0,0 UV-I 0 W/m² -1,3 °C -0,2 °C 1,6 km/h (1 Bft)
07.02.2017 02:48 -0,2 °C -0,1 °C 92 % 1018,5 hPa 0,0 mm 0,0 km/h (0 Bft) S-SW 199 ° 0 min 0,000 mm 0,0 UV-I 0 W/m² -1,3 °C -0,2 °C 0,0 km/h (0 Bft)
07.02.2017 02:49 -0,2 °C -0,2 °C 92 % 1018,5 hPa 0,0 mm 0,0 km/h (0 Bft) S-SW 199 ° 0 min 0,000 mm 0,0 UV-I 0 W/m² -1,3 °C -0,2 °C 0,0 km/h (0 Bft)
07.02.2017 02:50 -0,2 °C -0,1 °C 92 % 1018,5 hPa 0,0 mm 0,0 km/h (0 Bft) S-SW 199 ° 0 min 0,000 mm 0,0 UV-I 0 W/m² -1,3 °C -0,2 °C 0,0 km/h (0 Bft)
07.02.2017 02:51 -0,2 °C -0,2 °C 92 % 1018,5 hPa 0,0 mm 0,0 km/h (0 Bft) S-SW 199 ° 0 min 0,000 mm 0,0 UV-I 0 W/m² -1,3 °C -0,2 °C 0,0 km/h (0 Bft)
07.02.2017 02:52 -0,2 °C -0,2 °C 92 % 1018,4 hPa 0,0 mm 0,0 km/h (0 Bft) S-SW 199 ° 0 min 0,000 mm 0,0 UV-I 0 W/m² -1,3 °C -0,2 °C 0,0 km/h (0 Bft)
07.02.2017 02:53 -0,2 °C -0,2 °C 92 % 1018,4 hPa 0,0 mm 0,0 km/h (0 Bft) S-SW 199 ° 0 min 0,000 mm 0,0 UV-I 0 W/m² -1,3 °C -0,2 °C 0,0 km/h (0 Bft)
07.02.2017 02:54 -0,2 °C -0,2 °C 92 % 1018,4 hPa 0,0 mm 0,0 km/h (0 Bft) S-SW 199 ° 0 min 0,000 mm 0,0 UV-I 0 W/m² -1,3 °C -0,2 °C 0,0 km/h (0 Bft)
07.02.2017 02:55 -0,2 °C -0,2 °C 92 % 1018,4 hPa 0,0 mm 0,0 km/h (0 Bft) S-SW 199 ° 0 min 0,000 mm 0,0 UV-I 0 W/m² -1,3 °C -0,2 °C 0,0 km/h (0 Bft)
07.02.2017 02:56 -0,2 °C -0,2 °C 92 % 1018,5 hPa 0,0 mm 0,0 km/h (0 Bft) S-SW 199 ° 0 min 0,000 mm 0,0 UV-I 0 W/m² -1,3 °C -0,2 °C 0,0 km/h (0 Bft)
07.02.2017 02:57 -0,2 °C -0,2 °C 92 % 1018,4 hPa 0,0 mm 0,0 km/h (0 Bft) S-SW 199 ° 0 min 0,000 mm 0,0 UV-I 0 W/m² -1,3 °C -0,2 °C 0,0 km/h (0 Bft)
07.02.2017 02:58 -0,2 °C -0,2 °C 92 % 1018,4 hPa 0,0 mm 0,0 km/h (0 Bft) S-SW 199 ° 0 min 0,000 mm 0,0 UV-I 0 W/m² -1,3 °C -0,2 °C 0,0 km/h (0 Bft)
07.02.2017 02:59 -0,2 °C -0,2 °C 92 % 1018,5 hPa 0,0 mm 0,0 km/h (0 Bft) S-SW 199 ° 0 min 0,000 mm 0,0 UV-I 0 W/m² -1,3 °C -0,2 °C 0,0 km/h (0 Bft)
07.02.2017 03:00 -0,2 °C -0,2 °C 92 % 1018,4 hPa 0,0 mm 0,0 km/h (0 Bft) S-SW 199 ° 0 min 0,000 mm 0,0 UV-I 0 W/m² -1,3 °C -0,2 °C 0,0 km/h (0 Bft)
07.02.2017 03:01 -0,2 °C -0,2 °C 92 % 1018,4 hPa 0,0 mm 0,0 km/h (0 Bft) S-SW 199 ° 0 min 0,000 mm 0,0 UV-I 0 W/m² -1,3 °C -0,2 °C 0,0 km/h (0 Bft)
07.02.2017 03:02 -0,2 °C -0,2 °C 92 % 1018,4 hPa 0,0 mm 0,1 km/h (0 Bft) S-SW 199 ° 0 min 0,000 mm 0,0 UV-I 0 W/m² -1,3 °C -0,2 °C 1,6 km/h (1 Bft)
07.02.2017 03:03 -0,2 °C -0,2 °C 92 % 1018,4 hPa 0,0 mm 0,2 km/h (0 Bft) S-SW 199 ° 0 min 0,000 mm 0,0 UV-I 0 W/m² -1,3 °C -0,2 °C 1,6 km/h (1 Bft)
07.02.2017 03:04 -0,2 °C -0,2 °C 92 % 1018,4 hPa 0,0 mm 0,0 km/h (0 Bft) S-SW 199 ° 0 min 0,000 mm 0,0 UV-I 0 W/m² -1,3 °C -0,2 °C 0,0 km/h (0 Bft)
07.02.2017 03:05 -0,2 °C -0,2 °C 92 % 1018,4 hPa 0,0 mm 1,0 km/h (0 Bft) S-SW 199 ° 0 min 0,000 mm 0,0 UV-I 0 W/m² -1,3 °C -0,2 °C 1,6 km/h (1 Bft)
07.02.2017 03:06 -0,2 °C -0,2 °C 92 % 1018,3 hPa 0,0 mm 1,0 km/h (0 Bft) S-SW 199 ° 0 min 0,000 mm 0,0 UV-I 0 W/m² -1,3 °C -0,2 °C 1,6 km/h (1 Bft)
07.02.2017 03:07 -0,2 °C -0,2 °C 92 % 1018,3 hPa 0,0 mm 0,7 km/h (0 Bft) S-SW 199 ° 0 min 0,000 mm 0,0 UV-I 0 W/m² -1,3 °C -0,2 °C 1,6 km/h (1 Bft)
07.02.2017 03:08 -0,2 °C -0,2 °C 92 % 1018,3 hPa 0,0 mm 0,1 km/h (0 Bft) S-SW 199 ° 0 min 0,000 mm 0,0 UV-I 0 W/m² -1,3 °C -0,2 °C 1,6 km/h (1 Bft)
07.02.2017 03:09 -0,2 °C -0,2 °C 92 % 1018,3 hPa 0,0 mm 0,2 km/h (0 Bft) S-SW 199 ° 0 min 0,000 mm 0,0 UV-I 0 W/m² -1,3 °C -0,2 °C 1,6 km/h (1 Bft)
07.02.2017 03:10 -0,2 °C -0,2 °C 92 % 1018,3 hPa 0,0 mm 0,5 km/h (0 Bft) S-SW 199 ° 0 min 0,000 mm 0,0 UV-I 0 W/m² -1,3 °C -0,2 °C 1,6 km/h (1 Bft)
07.02.2017 03:11 -0,3 °C -0,2 °C 92 % 1018,3 hPa 0,0 mm 0,0 km/h (0 Bft) S-SW 199 ° 0 min 0,000 mm 0,0 UV-I 0 W/m² -1,4 °C -0,3 °C 0,0 km/h (0 Bft)
07.02.2017 03:12 -0,2 °C -0,2 °C 92 % 1018,3 hPa 0,0 mm 0,0 km/h (0 Bft) S-SW 199 ° 0 min 0,000 mm 0,0 UV-I 0 W/m² -1,3 °C -0,2 °C 0,0 km/h (0 Bft)
07.02.2017 03:13 -0,2 °C -0,2 °C 92 % 1018,3 hPa 0,0 mm 0,0 km/h (0 Bft) S-SW 199 ° 0 min 0,000 mm 0,0 UV-I 0 W/m² -1,3 °C -0,2 °C 0,0 km/h (0 Bft)
07.02.2017 03:14 -0,2 °C -0,2 °C 92 % 1018,3 hPa 0,0 mm 0,0 km/h (0 Bft) S-SW 199 ° 0 min 0,000 mm 0,0 UV-I 0 W/m² -1,3 °C -0,2 °C 0,0 km/h (0 Bft)
07.02.2017 03:15 -0,2 °C -0,2 °C 92 % 1018,4 hPa 0,0 mm 0,0 km/h (0 Bft) S-SW 199 ° 0 min 0,000 mm 0,0 UV-I 0 W/m² -1,3 °C -0,2 °C 0,0 km/h (0 Bft)
07.02.2017 03:16 -0,2 °C -0,2 °C 92 % 1018,4 hPa 0,0 mm 0,0 km/h (0 Bft) S-SW 199 ° 0 min 0,000 mm 0,0 UV-I 0 W/m² -1,3 °C -0,2 °C 0,0 km/h (0 Bft)
07.02.2017 03:17 -0,2 °C -0,2 °C 92 % 1018,3 hPa 0,0 mm 1,1 km/h (1 Bft) S-SW 199 ° 0 min 0,000 mm 0,0 UV-I 0 W/m² -1,3 °C -0,2 °C 3,2 km/h (1 Bft)
07.02.2017 03:18 -0,2 °C -0,2 °C 92 % 1018,3 hPa 0,0 mm 1,9 km/h (1 Bft) S-SW 199 ° 0 min 0,000 mm 0,0 UV-I 0 W/m² -1,3 °C -0,2 °C 3,2 km/h (1 Bft)
07.02.2017 03:19 -0,2 °C -0,2 °C 92 % 1018,3 hPa 0,0 mm 1,7 km/h (1 Bft) S-SW 199 ° 0 min 0,000 mm 0,0 UV-I 0 W/m² -1,3 °C -0,2 °C 3,2 km/h (1 Bft)
07.02.2017 03:20 -0,3 °C -0,2 °C 92 % 1018,3 hPa 0,0 mm 1,2 km/h (1 Bft) S-SW 199 ° 0 min 0,000 mm 0,0 UV-I 0 W/m² -1,4 °C -0,3 °C 3,2 km/h (1 Bft)
07.02.2017 03:21 -0,2 °C -0,2 °C 92 % 1018,3 hPa 0,0 mm 0,1 km/h (0 Bft) S-SW 199 ° 0 min 0,000 mm 0,0 UV-I 0 W/m² -1,3 °C -0,2 °C 1,6 km/h (1 Bft)
07.02.2017 03:22 -0,2 °C -0,2 °C 92 % 1018,3 hPa 0,0 mm 0,0 km/h (0 Bft) S-SW 199 ° 0 min 0,000 mm 0,0 UV-I 0 W/m² -1,3 °C -0,2 °C 0,0 km/h (0 Bft)
07.02.2017 03:23 -0,2 °C -0,2 °C 92 % 1018,3 hPa 0,0 mm 0,5 km/h (0 Bft) S-SW 199 ° 0 min 0,000 mm 0,0 UV-I 0 W/m² -1,3 °C -0,2 °C 1,6 km/h (1 Bft)
07.02.2017 03:24 -0,2 °C -0,2 °C 92 % 1018,3 hPa 0,0 mm 1,6 km/h (1 Bft) S-SW 199 ° 0 min 0,000 mm 0,0 UV-I 0 W/m² -1,3 °C -0,2 °C 3,2 km/h (1 Bft)
07.02.2017 03:25 -0,2 °C -0,2 °C 92 % 1018,3 hPa 0,0 mm 3,4 km/h (1 Bft) S-SW 199 ° 0 min 0,000 mm 0,0 UV-I 0 W/m² -1,3 °C -0,2 °C 4,8 km/h (1 Bft)
07.02.2017 03:26 -0,2 °C -0,2 °C 92 % 1018,3 hPa 0,0 mm 4,2 km/h (1 Bft) S-SW 199 ° 0 min 0,000 mm 0,0 UV-I 0 W/m² -1,3 °C -0,2 °C 4,8 km/h (1 Bft)
07.02.2017 03:27 -0,2 °C -0,2 °C 92 % 1018,3 hPa 0,0 mm 4,8 km/h (1 Bft) S-SW 199 ° 0 min 0,000 mm 0,0 UV-I 0 W/m² -1,3 °C -1,7 °C 6,4 km/h (2 Bft)
07.02.2017 03:28 -0,2 °C -0,2 °C 92 % 1018,3 hPa 0,0 mm 4,3 km/h (1 Bft) S-SW 199 ° 0 min 0,000 mm 0,0 UV-I 0 W/m² -1,3 °C -0,2 °C 6,4 km/h (2 Bft)
07.02.2017 03:29 -0,2 °C -0,2 °C 92 % 1018,4 hPa 0,0 mm 4,1 km/h (1 Bft) S-SW 199 ° 0 min 0,000 mm 0,0 UV-I 0 W/m² -1,3 °C -0,2 °C 6,4 km/h (2 Bft)
07.02.2017 03:30 -0,2 °C -0,2 °C 92 % 1018,4 hPa 0,0 mm 4,0 km/h (1 Bft) S-SW 197 ° 0 min 0,000 mm 0,0 UV-I 0 W/m² -1,3 °C -0,2 °C 4,8 km/h (1 Bft)
07.02.2017 03:31 -0,2 °C -0,2 °C 92 % 1018,4 hPa 0,0 mm 5,9 km/h (2 Bft) S-SW 198 ° 0 min 0,000 mm 0,0 UV-I 0 W/m² -1,3 °C -2,2 °C 8,0 km/h (2 Bft)
07.02.2017 03:32 -0,2 °C -0,2 °C 91 % 1018,4 hPa 0,0 mm 5,2 km/h (1 Bft) S 186 ° 0 min 0,000 mm 0,0 UV-I 0 W/m² -1,5 °C -1,9 °C 6,4 km/h (2 Bft)
07.02.2017 03:33 -0,2 °C -0,2 °C 91 % 1018,4 hPa 0,0 mm 2,8 km/h (1 Bft) S 186 ° 0 min 0,000 mm 0,0 UV-I 0 W/m² -1,5 °C -0,2 °C 4,8 km/h (1 Bft)
07.02.2017 03:34 -0,2 °C -0,2 °C 92 % 1018,4 hPa 0,0 mm 3,4 km/h (1 Bft) S 182 ° 0 min 0,000 mm 0,0 UV-I 0 W/m² -1,3 °C -0,2 °C 4,8 km/h (1 Bft)
07.02.2017 03:35 -0,2 °C -0,1 °C 91 % 1018,4 hPa 0,0 mm 1,8 km/h (1 Bft) S 182 ° 0 min 0,000 mm 0,0 UV-I 0 W/m² -1,5 °C -0,2 °C 3,2 km/h (1 Bft)
07.02.2017 03:36 -0,2 °C -0,1 °C 91 % 1018,4 hPa 0,0 mm 1,1 km/h (1 Bft) S 182 ° 0 min 0,000 mm 0,0 UV-I 0 W/m² -1,5 °C -0,2 °C 3,2 km/h (1 Bft)
07.02.2017 03:37 -0,2 °C -0,1 °C 91 % 1018,4 hPa 0,0 mm 2,2 km/h (1 Bft) S 182 ° 0 min 0,000 mm 0,0 UV-I 0 W/m² -1,5 °C -0,2 °C 3,2 km/h (1 Bft)
07.02.2017 03:38 -0,1 °C -0,1 °C 91 % 1018,4 hPa 0,0 mm 0,6 km/h (0 Bft) S 182 ° 0 min 0,000 mm 0,0 UV-I 0 W/m² -1,4 °C -0,1 °C 1,6 km/h (1 Bft)
07.02.2017 03:39 -0,1 °C -0,1 °C 91 % 1018,4 hPa 0,0 mm 0,4 km/h (0 Bft) S 182 ° 0 min 0,000 mm 0,0 UV-I 0 W/m² -1,4 °C -0,1 °C 1,6 km/h (1 Bft)
07.02.2017 03:40 -0,1 °C -0,1 °C 91 % 1018,4 hPa 0,0 mm 1,2 km/h (1 Bft) S 182 ° 0 min 0,000 mm 0,0 UV-I 0 W/m² -1,4 °C -0,1 °C 1,6 km/h (1 Bft)
07.02.2017 03:41 -0,1 °C -0,1 °C 91 % 1018,4 hPa 0,0 mm 1,1 km/h (1 Bft) S 182 ° 0 min 0,000 mm 0,0 UV-I 0 W/m² -1,4 °C -0,1 °C 1,6 km/h (1 Bft)
07.02.2017 03:42 -0,1 °C -0,1 °C 91 % 1018,4 hPa 0,0 mm 1,5 km/h (1 Bft) S 182 ° 0 min 0,000 mm 0,0 UV-I 0 W/m² -1,4 °C -0,1 °C 3,2 km/h (1 Bft)
07.02.2017 03:43 -0,1 °C -0,1 °C 91 % 1018,4 hPa 0,0 mm 1,7 km/h (1 Bft) S 182 ° 0 min 0,000 mm 0,0 UV-I 0 W/m² -1,4 °C -0,1 °C 3,2 km/h (1 Bft)
07.02.2017 03:44 -0,1 °C -0,1 °C 91 % 1018,4 hPa 0,0 mm 1,8 km/h (1 Bft) S 182 ° 0 min 0,000 mm 0,0 UV-I 0 W/m² -1,4 °C -0,1 °C 3,2 km/h (1 Bft)
07.02.2017 03:45 -0,1 °C -0,1 °C 91 % 1018,4 hPa 0,0 mm 2,0 km/h (1 Bft) S 182 ° 0 min 0,000 mm 0,0 UV-I 0 W/m² -1,4 °C -0,1 °C 3,2 km/h (1 Bft)
07.02.2017 03:46 -0,1 °C -0,1 °C 91 % 1018,3 hPa 0,0 mm 2,7 km/h (1 Bft) S 182 ° 0 min 0,000 mm 0,0 UV-I 0 W/m² -1,4 °C -0,1 °C 4,8 km/h (1 Bft)
07.02.2017 03:47 -0,1 °C 0,0 °C 91 % 1018,4 hPa 0,0 mm 3,8 km/h (1 Bft) S 182 ° 0 min 0,000 mm 0,0 UV-I 0 W/m² -1,4 °C -0,1 °C 4,8 km/h (1 Bft)
07.02.2017 03:48 0,0 °C 0,0 °C 91 % 1018,4 hPa 0,0 mm 2,9 km/h (1 Bft) S 183 ° 0 min 0,000 mm 0,0 UV-I 0 W/m² -1,3 °C 0,0 °C 4,8 km/h (1 Bft)
07.02.2017 03:49 -0,1 °C 0,0 °C 91 % 1018,3 hPa 0,0 mm 4,2 km/h (1 Bft) S 184 ° 0 min 0,000 mm 0,0 UV-I 0 W/m² -1,4 °C -0,1 °C 4,8 km/h (1 Bft)
07.02.2017 03:50 0,0 °C 0,0 °C 91 % 1018,4 hPa 0,0 mm 2,8 km/h (1 Bft) S 184 ° 0 min 0,000 mm 0,0 UV-I 0 W/m² -1,3 °C 0,0 °C 4,8 km/h (1 Bft)
07.02.2017 03:51 0,0 °C 0,0 °C 91 % 1018,4 hPa 0,0 mm 2,0 km/h (1 Bft) S 184 ° 0 min 0,000 mm 0,0 UV-I 0 W/m² -1,3 °C 0,0 °C 3,2 km/h (1 Bft)
07.02.2017 03:52 0,0 °C 0,0 °C 91 % 1018,4 hPa 0,0 mm 2,0 km/h (1 Bft) S 184 ° 0 min 0,000 mm 0,0 UV-I 0 W/m² -1,3 °C 0,0 °C 3,2 km/h (1 Bft)
07.02.2017 03:53 0,0 °C 0,0 °C 91 % 1018,4 hPa 0,0 mm 1,8 km/h (1 Bft) S 184 ° 0 min 0,000 mm 0,0 UV-I 0 W/m² -1,3 °C 0,0 °C 3,2 km/h (1 Bft)
07.02.2017 03:54 0,0 °C 0,0 °C 91 % 1018,4 hPa 0,0 mm 3,4 km/h (1 Bft) S 184 ° 0 min 0,000 mm 0,0 UV-I 0 W/m² -1,3 °C 0,0 °C 4,8 km/h (1 Bft)
07.02.2017 03:55 0,0 °C 0,0 °C 90 % 1018,4 hPa 0,0 mm 2,9 km/h (1 Bft) S 184 ° 0 min 0,000 mm 0,0 UV-I 0 W/m² -1,4 °C 0,0 °C 4,8 km/h (1 Bft)
07.02.2017 03:56 0,1 °C 0,1 °C 91 % 1018,4 hPa 0,0 mm 2,0 km/h (1 Bft) S 180 ° 0 min 0,000 mm 0,0 UV-I 0 W/m² -1,2 °C 0,1 °C 3,2 km/h (1 Bft)
07.02.2017 03:57 0,1 °C 0,1 °C 91 % 1018,3 hPa 0,0 mm 2,9 km/h (1 Bft) SO 132 ° 0 min 0,000 mm 0,0 UV-I 0 W/m² -1,2 °C 0,1 °C 4,8 km/h (1 Bft)
07.02.2017 03:58 0,0 °C 0,1 °C 91 % 1018,3 hPa 0,0 mm 4,7 km/h (1 Bft) O-SO 112 ° 0 min 0,000 mm 0,0 UV-I 0 W/m² -1,3 °C -1,4 °C 4,8 km/h (1 Bft)
07.02.2017 03:59 0,0 °C 0,0 °C 91 % 1018,3 hPa 0,0 mm 3,1 km/h (1 Bft) O-SO 112 ° 0 min 0,000 mm 0,0 UV-I 0 W/m² -1,3 °C 0,0 °C 4,8 km/h (1 Bft)
07.02.2017 04:00 0,0 °C 0,1 °C 91 % 1018,3 hPa 0,0 mm 2,1 km/h (1 Bft) SW 234 ° 0 min 0,000 mm 0,0 UV-I 0 W/m² -1,3 °C 0,0 °C 3,2 km/h (1 Bft)
07.02.2017 04:01 0,0 °C 0,0 °C 91 % 1018,3 hPa 0,0 mm 4,0 km/h (1 Bft) SW 234 ° 0 min 0,000 mm 0,0 UV-I 0 W/m² -1,3 °C 0,0 °C 4,8 km/h (1 Bft)
07.02.2017 04:02 0,0 °C 0,0 °C 91 % 1018,3 hPa 0,0 mm 3,2 km/h (1 Bft) SW 225 ° 0 min 0,000 mm 0,0 UV-I 0 W/m² -1,3 °C 0,0 °C 3,2 km/h (1 Bft)
07.02.2017 04:03 0,0 °C 0,1 °C 91 % 1018,3 hPa 0,0 mm 3,2 km/h (1 Bft) SW 225 ° 0 min 0,000 mm 0,0 UV-I 0 W/m² -1,3 °C 0,0 °C 4,8 km/h (1 Bft)
07.02.2017 04:04 0,0 °C 0,1 °C 90 % 1018,3 hPa 0,0 mm 4,8 km/h (1 Bft) S-SW 202 ° 0 min 0,000 mm 0,0 UV-I 0 W/m² -1,4 °C -1,5 °C 6,4 km/h (2 Bft)
07.02.2017 04:05 0,0 °C 0,0 °C 91 % 1018,3 hPa 0,0 mm 3,2 km/h (1 Bft) S-SW 202 ° 0 min 0,000 mm 0,0 UV-I 0 W/m² -1,3 °C 0,0 °C 4,8 km/h (1 Bft)
07.02.2017 04:06 0,0 °C 0,0 °C 91 % 1018,3 hPa 0,0 mm 1,6 km/h (1 Bft) S-SW 202 ° 0 min 0,000 mm 0,0 UV-I 0 W/m² -1,3 °C 0,0 °C 3,2 km/h (1 Bft)
07.02.2017 04:07 0,0 °C 0,0 °C 90 % 1018,3 hPa 0,0 mm 1,6 km/h (1 Bft) S-SW 202 ° 0 min 0,000 mm 0,0 UV-I 0 W/m² -1,4 °C 0,0 °C 3,2 km/h (1 Bft)
07.02.2017 04:08 0,0 °C 0,1 °C 91 % 1018,3 hPa 0,0 mm 1,6 km/h (1 Bft) S-SW 202 ° 0 min 0,000 mm 0,0 UV-I 0 W/m² -1,3 °C 0,0 °C 3,2 km/h (1 Bft)
07.02.2017 04:09 0,0 °C 0,0 °C 91 % 1018,3 hPa 0,0 mm 0,0 km/h (0 Bft) N 0 ° 0 min 0,000 mm 0,0 UV-I 0 W/m² -1,3 °C 0,0 °C 0,0 km/h (0 Bft)
07.02.2017 04:10 0,0 °C 0,0 °C 91 % 1018,3 hPa 0,0 mm 0,0 km/h (0 Bft) S-SW 202 ° 0 min 0,000 mm 0,0 UV-I 0 W/m² -1,3 °C 0,0 °C 1,6 km/h (1 Bft)
07.02.2017 04:11 0,0 °C 0,0 °C 91 % 1018,3 hPa 0,0 mm 0,0 km/h (0 Bft) N 0 ° 0 min 0,000 mm 0,0 UV-I 0 W/m² -1,3 °C 0,0 °C 0,0 km/h (0 Bft)
07.02.2017 04:12 0,0 °C 0,0 °C 91 % 1018,3 hPa 0,0 mm 0,0 km/h (0 Bft) N 0 ° 0 min 0,000 mm 0,0 UV-I 0 W/m² -1,3 °C 0,0 °C 0,0 km/h (0 Bft)
07.02.2017 04:13 0,0 °C 0,0 °C 91 % 1018,3 hPa 0,0 mm 0,0 km/h (0 Bft) S-SW 202 ° 0 min 0,000 mm 0,0 UV-I 0 W/m² -1,3 °C 0,0 °C 1,6 km/h (1 Bft)
07.02.2017 04:14 0,0 °C 0,0 °C 91 % 1018,3 hPa 0,0 mm 1,6 km/h (1 Bft) S-SW 202 ° 0 min 0,000 mm 0,0 UV-I 0 W/m² -1,3 °C 0,0 °C 3,2 km/h (1 Bft)
07.02.2017 04:15 0,0 °C 0,0 °C 91 % 1018,3 hPa 0,0 mm 0,0 km/h (0 Bft) S-SW 202 ° 0 min 0,000 mm 0,0 UV-I 0 W/m² -1,3 °C 0,0 °C 1,6 km/h (1 Bft)
07.02.2017 04:16 0,0 °C 0,0 °C 91 % 1018,3 hPa 0,0 mm 0,0 km/h (0 Bft) S-SW 202 ° 0 min 0,000 mm 0,0 UV-I 0 W/m² -1,3 °C 0,0 °C 1,6 km/h (1 Bft)
07.02.2017 04:17 0,0 °C 0,0 °C 91 % 1018,3 hPa 0,0 mm 0,0 km/h (0 Bft) S-SW 202 ° 0 min 0,000 mm 0,0 UV-I 0 W/m² -1,3 °C 0,0 °C 1,6 km/h (1 Bft)
07.02.2017 04:18 0,0 °C 0,0 °C 91 % 1018,3 hPa 0,0 mm 1,6 km/h (1 Bft) S-SW 202 ° 0 min 0,000 mm 0,0 UV-I 0 W/m² -1,3 °C 0,0 °C 3,2 km/h (1 Bft)
07.02.2017 04:19 0,0 °C 0,0 °C 91 % 1018,3 hPa 0,0 mm 1,6 km/h (1 Bft) S-SW 202 ° 0 min 0,000 mm 0,0 UV-I 0 W/m² -1,3 °C 0,0 °C 3,2 km/h (1 Bft)
07.02.2017 04:20 0,0 °C 0,0 °C 91 % 1018,3 hPa 0,0 mm 1,6 km/h (1 Bft) S-SW 202 ° 0 min 0,000 mm 0,0 UV-I 0 W/m² -1,3 °C 0,0 °C 3,2 km/h (1 Bft)
07.02.2017 04:21 -0,1 °C 0,0 °C 91 % 1018,3 hPa 0,0 mm 1,6 km/h (1 Bft) S-SW 202 ° 0 min 0,000 mm 0,0 UV-I 0 W/m² -1,4 °C -0,1 °C 1,6 km/h (1 Bft)
07.02.2017 04:22 0,0 °C 0,0 °C 91 % 1018,3 hPa 0,0 mm 1,6 km/h (1 Bft) S-SW 202 ° 0 min 0,000 mm 0,0 UV-I 0 W/m² -1,3 °C 0,0 °C 1,6 km/h (1 Bft)
07.02.2017 04:23 -0,1 °C -0,1 °C 91 % 1018,3 hPa 0,0 mm 0,0 km/h (0 Bft) S-SW 202 ° 0 min 0,000 mm 0,0 UV-I 0 W/m² -1,4 °C -0,1 °C 1,6 km/h (1 Bft)
07.02.2017 04:24 -0,1 °C 0,0 °C 91 % 1018,3 hPa 0,0 mm 0,0 km/h (0 Bft) N 0 ° 0 min 0,000 mm 0,0 UV-I 0 W/m² -1,4 °C -0,1 °C 0,0 km/h (0 Bft)
07.02.2017 04:25 -0,1 °C -0,1 °C 90 % 1018,3 hPa 0,0 mm 0,0 km/h (0 Bft) S-SW 202 ° 0 min 0,000 mm 0,0 UV-I 0 W/m² -1,5 °C -0,1 °C 1,6 km/h (1 Bft)
07.02.2017 04:26 -0,1 °C -0,1 °C 91 % 1018,2 hPa 0,0 mm 0,0 km/h (0 Bft) S-SW 202 ° 0 min 0,000 mm 0,0 UV-I 0 W/m² -1,4 °C -0,1 °C 1,6 km/h (1 Bft)
07.02.2017 04:27 -0,1 °C -0,1 °C 91 % 1018,3 hPa 0,0 mm 1,6 km/h (1 Bft) S-SW 202 ° 0 min 0,000 mm 0,0 UV-I 0 W/m² -1,4 °C -0,1 °C 1,6 km/h (1 Bft)
07.02.2017 04:28 -0,1 °C -0,1 °C 91 % 1018,2 hPa 0,0 mm 0,0 km/h (0 Bft) S-SW 202 ° 0 min 0,000 mm 0,0 UV-I 0 W/m² -1,4 °C -0,1 °C 1,6 km/h (1 Bft)
07.02.2017 04:29 -0,1 °C -0,1 °C 90 % 1018,3 hPa 0,0 mm 0,0 km/h (0 Bft) S-SW 202 ° 0 min 0,000 mm 0,0 UV-I 0 W/m² -1,5 °C -0,1 °C 1,6 km/h (1 Bft)
07.02.2017 04:30 -0,1 °C -0,1 °C 91 % 1018,3 hPa 0,0 mm 0,0 km/h (0 Bft) S-SW 202 ° 0 min 0,000 mm 0,0 UV-I 0 W/m² -1,4 °C -0,1 °C 1,6 km/h (1 Bft)
07.02.2017 04:31 -0,1 °C -0,1 °C 90 % 1018,3 hPa 0,0 mm 0,0 km/h (0 Bft) S-SW 202 ° 0 min 0,000 mm 0,0 UV-I 0 W/m² -1,5 °C -0,1 °C 1,6 km/h (1 Bft)
07.02.2017 04:32 -0,1 °C -0,1 °C 90 % 1018,3 hPa 0,0 mm 0,0 km/h (0 Bft) S-SW 202 ° 0 min 0,000 mm 0,0 UV-I 0 W/m² -1,5 °C -0,1 °C 1,6 km/h (1 Bft)
07.02.2017 04:33 -0,1 °C -0,1 °C 90 % 1018,3 hPa 0,0 mm 0,0 km/h (0 Bft) S-SW 202 ° 0 min 0,000 mm 0,0 UV-I 0 W/m² -1,5 °C -0,1 °C 1,6 km/h (1 Bft)
07.02.2017 04:34 -0,1 °C -0,1 °C 90 % 1018,3 hPa 0,0 mm 1,6 km/h (1 Bft) S-SW 202 ° 0 min 0,000 mm 0,0 UV-I 0 W/m² -1,5 °C -0,1 °C 1,6 km/h (1 Bft)
07.02.2017 04:35 -0,1 °C -0,1 °C 90 % 1018,3 hPa 0,0 mm 0,0 km/h (0 Bft) S-SW 202 ° 0 min 0,000 mm 0,0 UV-I 0 W/m² -1,5 °C -0,1 °C 1,6 km/h (1 Bft)
07.02.2017 04:36 -0,1 °C -0,1 °C 90 % 1018,3 hPa 0,0 mm 0,0 km/h (0 Bft) N 0 ° 0 min 0,000 mm 0,0 UV-I 0 W/m² -1,5 °C -0,1 °C 0,0 km/h (0 Bft)
07.02.2017 04:37 -0,1 °C -0,1 °C 90 % 1018,3 hPa 0,0 mm 0,0 km/h (0 Bft) N 0 ° 0 min 0,000 mm 0,0 UV-I 0 W/m² -1,5 °C -0,1 °C 0,0 km/h (0 Bft)
07.02.2017 04:38 -0,2 °C -0,1 °C 90 % 1018,4 hPa 0,0 mm 0,0 km/h (0 Bft) N 0 ° 0 min 0,000 mm 0,0 UV-I 0 W/m² -1,6 °C -0,2 °C 0,0 km/h (0 Bft)
07.02.2017 04:39 -0,1 °C -0,1 °C 90 % 1018,4 hPa 0,0 mm 0,0 km/h (0 Bft) N 0 ° 0 min 0,000 mm 0,0 UV-I 0 W/m² -1,5 °C -0,1 °C 0,0 km/h (0 Bft)
07.02.2017 04:40 -0,2 °C -0,2 °C 90 % 1018,4 hPa 0,0 mm 0,0 km/h (0 Bft) N 0 ° 0 min 0,000 mm 0,0 UV-I 0 W/m² -1,6 °C -0,2 °C 0,0 km/h (0 Bft)
07.02.2017 04:41 -0,2 °C -0,1 °C 90 % 1018,4 hPa 0,0 mm 0,0 km/h (0 Bft) N 0 ° 0 min 0,000 mm 0,0 UV-I 0 W/m² -1,6 °C -0,2 °C 0,0 km/h (0 Bft)
07.02.2017 04:42 -0,2 °C -0,2 °C 90 % 1018,4 hPa 0,0 mm 0,0 km/h (0 Bft) N 0 ° 0 min 0,000 mm 0,0 UV-I 0 W/m² -1,6 °C -0,2 °C 0,0 km/h (0 Bft)
07.02.2017 04:43 -0,2 °C -0,2 °C 90 % 1018,4 hPa 0,0 mm 0,0 km/h (0 Bft) N 0 ° 0 min 0,000 mm 0,0 UV-I 0 W/m² -1,6 °C -0,2 °C 0,0 km/h (0 Bft)
07.02.2017 04:44 -0,2 °C -0,2 °C 90 % 1018,4 hPa 0,0 mm 0,0 km/h (0 Bft) N 0 ° 0 min 0,000 mm 0,0 UV-I 0 W/m² -1,6 °C -0,2 °C 0,0 km/h (0 Bft)
07.02.2017 04:45 -0,2 °C -0,2 °C 90 % 1018,5 hPa 0,0 mm 0,0 km/h (0 Bft) N 0 ° 0 min 0,000 mm 0,0 UV-I 0 W/m² -1,6 °C -0,2 °C 0,0 km/h (0 Bft)
07.02.2017 04:46 -0,2 °C -0,2 °C 90 % 1018,4 hPa 0,0 mm 0,0 km/h (0 Bft) N 0 ° 0 min 0,000 mm 0,0 UV-I 0 W/m² -1,6 °C -0,2 °C 0,0 km/h (0 Bft)
07.02.2017 04:47 -0,2 °C -0,2 °C 90 % 1018,4 hPa 0,0 mm 0,0 km/h (0 Bft) S-SW 202 ° 0 min 0,000 mm 0,0 UV-I 0 W/m² -1,6 °C -0,2 °C 1,6 km/h (1 Bft)
07.02.2017 04:48 -0,2 °C -0,2 °C 90 % 1018,5 hPa 0,0 mm 0,0 km/h (0 Bft) N 0 ° 0 min 0,000 mm 0,0 UV-I 0 W/m² -1,6 °C -0,2 °C 0,0 km/h (0 Bft)
07.02.2017 04:49 -0,2 °C -0,2 °C 90 % 1018,4 hPa 0,0 mm 0,0 km/h (0 Bft) N 0 ° 0 min 0,000 mm 0,0 UV-I 0 W/m² -1,6 °C -0,2 °C 0,0 km/h (0 Bft)
07.02.2017 04:50 -0,2 °C -0,2 °C 90 % 1018,4 hPa 0,0 mm 0,0 km/h (0 Bft) S-SW 202 ° 0 min 0,000 mm 0,0 UV-I 0 W/m² -1,6 °C -0,2 °C 1,6 km/h (1 Bft)
07.02.2017 04:51 -0,2 °C -0,2 °C 90 % 1018,4 hPa 0,0 mm 0,0 km/h (0 Bft) S-SW 202 ° 0 min 0,000 mm 0,0 UV-I 0 W/m² -1,6 °C -0,2 °C 1,6 km/h (1 Bft)
07.02.2017 04:52 -0,2 °C -0,2 °C 91 % 1018,4 hPa 0,0 mm 1,6 km/h (1 Bft) S-SW 202 ° 0 min 0,000 mm 0,0 UV-I 0 W/m² -1,5 °C -0,2 °C 1,6 km/h (1 Bft)
07.02.2017 04:53 -0,3 °C -0,2 °C 91 % 1018,4 hPa 0,0 mm 0,0 km/h (0 Bft) S-SW 202 ° 0 min 0,000 mm 0,0 UV-I 0 W/m² -1,6 °C -0,3 °C 1,6 km/h (1 Bft)
07.02.2017 04:54 -0,3 °C -0,3 °C 91 % 1018,4 hPa 0,0 mm 0,0 km/h (0 Bft) S-SW 202 ° 0 min 0,000 mm 0,0 UV-I 0 W/m² -1,6 °C -0,3 °C 1,6 km/h (1 Bft)
07.02.2017 04:55 -0,3 °C -0,3 °C 91 % 1018,4 hPa 0,0 mm 0,0 km/h (0 Bft) N 0 ° 0 min 0,000 mm 0,0 UV-I 0 W/m² -1,6 °C -0,3 °C 0,0 km/h (0 Bft)
07.02.2017 04:56 -0,3 °C -0,3 °C 91 % 1018,4 hPa 0,0 mm 0,0 km/h (0 Bft) N 0 ° 0 min 0,000 mm 0,0 UV-I 0 W/m² -1,6 °C -0,3 °C 0,0 km/h (0 Bft)
07.02.2017 04:57 -0,3 °C -0,3 °C 91 % 1018,5 hPa 0,0 mm 0,0 km/h (0 Bft) N 0 ° 0 min 0,000 mm 0,0 UV-I 0 W/m² -1,6 °C -0,3 °C 0,0 km/h (0 Bft)
07.02.2017 04:58 -0,3 °C -0,3 °C 91 % 1018,4 hPa 0,0 mm 0,0 km/h (0 Bft) N 0 ° 0 min 0,000 mm 0,0 UV-I 0 W/m² -1,6 °C -0,3 °C 0,0 km/h (0 Bft)
07.02.2017 04:59 -0,3 °C -0,3 °C 91 % 1018,4 hPa 0,0 mm 0,0 km/h (0 Bft) N 0 ° 0 min 0,000 mm 0,0 UV-I 0 W/m² -1,6 °C -0,3 °C 0,0 km/h (0 Bft)
07.02.2017 05:00 -0,3 °C -0,3 °C 91 % 1018,4 hPa 0,0 mm 0,0 km/h (0 Bft) N 0 ° 0 min 0,000 mm 0,0 UV-I 0 W/m² -1,6 °C -0,3 °C 0,0 km/h (0 Bft)
07.02.2017 05:01 -0,3 °C -0,3 °C 91 % 1018,5 hPa 0,0 mm 0,0 km/h (0 Bft) N 0 ° 0 min 0,000 mm 0,0 UV-I 0 W/m² -1,6 °C -0,3 °C 0,0 km/h (0 Bft)
07.02.2017 05:02 -0,3 °C -0,3 °C 91 % 1018,4 hPa 0,0 mm 0,0 km/h (0 Bft) N 0 ° 0 min 0,000 mm 0,0 UV-I 0 W/m² -1,6 °C -0,3 °C 0,0 km/h (0 Bft)
07.02.2017 05:03 -0,3 °C -0,3 °C 91 % 1018,4 hPa 0,0 mm 1,6 km/h (1 Bft) S-SW 202 ° 0 min 0,000 mm 0,0 UV-I 0 W/m² -1,6 °C -0,3 °C 1,6 km/h (1 Bft)
07.02.2017 05:04 -0,3 °C -0,3 °C 91 % 1018,4 hPa 0,0 mm 0,0 km/h (0 Bft) S-SW 202 ° 0 min 0,000 mm 0,0 UV-I 0 W/m² -1,6 °C -0,3 °C 1,6 km/h (1 Bft)
07.02.2017 05:05 -0,3 °C -0,3 °C 91 % 1018,5 hPa 0,0 mm 0,0 km/h (0 Bft) S-SW 202 ° 0 min 0,000 mm 0,0 UV-I 0 W/m² -1,6 °C -0,3 °C 1,6 km/h (1 Bft)
07.02.2017 05:06 -0,4 °C -0,3 °C 91 % 1018,5 hPa 0,0 mm 0,0 km/h (0 Bft) N 0 ° 0 min 0,000 mm 0,0 UV-I 0 W/m² -1,7 °C -0,4 °C 0,0 km/h (0 Bft)
07.02.2017 05:07 -0,4 °C -0,4 °C 91 % 1018,5 hPa 0,0 mm 0,0 km/h (0 Bft) S-SW 202 ° 0 min 0,000 mm 0,0 UV-I 0 W/m² -1,7 °C -0,4 °C 1,6 km/h (1 Bft)
07.02.2017 05:08 -0,4 °C -0,3 °C 91 % 1018,5 hPa 0,0 mm 0,0 km/h (0 Bft) S-SW 202 ° 0 min 0,000 mm 0,0 UV-I 0 W/m² -1,7 °C -0,4 °C 1,6 km/h (1 Bft)
07.02.2017 05:09 -0,4 °C -0,4 °C 91 % 1018,5 hPa 0,0 mm 0,0 km/h (0 Bft) S-SW 202 ° 0 min 0,000 mm 0,0 UV-I 0 W/m² -1,7 °C -0,4 °C 1,6 km/h (1 Bft)
07.02.2017 05:10 -0,4 °C -0,4 °C 91 % 1018,5 hPa 0,0 mm 0,0 km/h (0 Bft) N 0 ° 0 min 0,000 mm 0,0 UV-I 0 W/m² -1,7 °C -0,4 °C 0,0 km/h (0 Bft)
07.02.2017 05:11 -0,4 °C -0,4 °C 91 % 1018,5 hPa 0,0 mm 0,0 km/h (0 Bft) N 0 ° 0 min 0,000 mm 0,0 UV-I 0 W/m² -1,7 °C -0,4 °C 0,0 km/h (0 Bft)
07.02.2017 05:12 -0,4 °C -0,4 °C 91 % 1018,5 hPa 0,0 mm 0,0 km/h (0 Bft) N 0 ° 0 min 0,000 mm 0,0 UV-I 0 W/m² -1,7 °C -0,4 °C 0,0 km/h (0 Bft)
07.02.2017 05:13 -0,4 °C -0,4 °C 91 % 1018,5 hPa 0,0 mm 0,0 km/h (0 Bft) N 0 ° 0 min 0,000 mm 0,0 UV-I 0 W/m² -1,7 °C -0,4 °C 0,0 km/h (0 Bft)
07.02.2017 05:14 -0,4 °C -0,4 °C 91 % 1018,5 hPa 0,0 mm 0,0 km/h (0 Bft) N 0 ° 0 min 0,000 mm 0,0 UV-I 0 W/m² -1,7 °C -0,4 °C 0,0 km/h (0 Bft)
07.02.2017 05:15 -0,4 °C -0,4 °C 91 % 1018,5 hPa 0,0 mm 0,0 km/h (0 Bft) N 0 ° 0 min 0,000 mm 0,0 UV-I 0 W/m² -1,7 °C -0,4 °C 0,0 km/h (0 Bft)
07.02.2017 05:16 -0,4 °C -0,4 °C 91 % 1018,5 hPa 0,0 mm 0,0 km/h (0 Bft) N 0 ° 0 min 0,000 mm 0,0 UV-I 0 W/m² -1,7 °C -0,4 °C 0,0 km/h (0 Bft)
07.02.2017 05:17 -0,4 °C -0,4 °C 91 % 1018,5 hPa 0,0 mm 0,0 km/h (0 Bft) N 0 ° 0 min 0,000 mm 0,0 UV-I 0 W/m² -1,7 °C -0,4 °C 0,0 km/h (0 Bft)
07.02.2017 05:18 -0,4 °C -0,4 °C 91 % 1018,4 hPa 0,0 mm 0,0 km/h (0 Bft) N 0 ° 0 min 0,000 mm 0,0 UV-I 0 W/m² -1,7 °C -0,4 °C 0,0 km/h (0 Bft)
07.02.2017 05:19 -0,5 °C -0,4 °C 91 % 1018,5 hPa 0,0 mm 0,0 km/h (0 Bft) N 0 ° 0 min 0,000 mm 0,0 UV-I 0 W/m² -1,8 °C -0,5 °C 0,0 km/h (0 Bft)
07.02.2017 05:20 -0,4 °C -0,4 °C 91 % 1018,5 hPa 0,0 mm 0,0 km/h (0 Bft) N 0 ° 0 min 0,000 mm 0,0 UV-I 0 W/m² -1,7 °C -0,4 °C 0,0 km/h (0 Bft)
07.02.2017 05:21 -0,4 °C -0,4 °C 91 % 1018,5 hPa 0,0 mm 0,0 km/h (0 Bft) N 0 ° 0 min 0,000 mm 0,0 UV-I 0 W/m² -1,7 °C -0,4 °C 0,0 km/h (0 Bft)
07.02.2017 05:22 -0,5 °C -0,4 °C 91 % 1018,5 hPa 0,0 mm 0,0 km/h (0 Bft) N 0 ° 0 min 0,000 mm 0,0 UV-I 0 W/m² -1,8 °C -0,5 °C 0,0 km/h (0 Bft)
07.02.2017 05:23 -0,5 °C -0,5 °C 91 % 1018,5 hPa 0,0 mm 0,0 km/h (0 Bft) N 0 ° 0 min 0,000 mm 0,0 UV-I 0 W/m² -1,8 °C -0,5 °C 0,0 km/h (0 Bft)
07.02.2017 05:24 -0,5 °C -0,4 °C 91 % 1018,5 hPa 0,0 mm 0,0 km/h (0 Bft) N 0 ° 0 min 0,000 mm 0,0 UV-I 0 W/m² -1,8 °C -0,5 °C 0,0 km/h (0 Bft)
07.02.2017 05:25 -0,5 °C -0,5 °C 91 % 1018,5 hPa 0,0 mm 0,0 km/h (0 Bft) N 0 ° 0 min 0,000 mm 0,0 UV-I 0 W/m² -1,8 °C -0,5 °C 0,0 km/h (0 Bft)
07.02.2017 05:26 -0,5 °C -0,5 °C 91 % 1018,5 hPa 0,0 mm 0,0 km/h (0 Bft) N 0 ° 0 min 0,000 mm 0,0 UV-I 0 W/m² -1,8 °C -0,5 °C 0,0 km/h (0 Bft)
07.02.2017 05:27 -0,5 °C -0,5 °C 91 % 1018,5 hPa 0,0 mm 0,0 km/h (0 Bft) S-SW 202 ° 0 min 0,000 mm 0,0 UV-I 0 W/m² -1,8 °C -0,5 °C 1,6 km/h (1 Bft)
07.02.2017 05:28 -0,6 °C -0,5 °C 91 % 1018,5 hPa 0,0 mm 0,0 km/h (0 Bft) N 0 ° 0 min 0,000 mm 0,0 UV-I 0 W/m² -1,9 °C -0,6 °C 0,0 km/h (0 Bft)
07.02.2017 05:29 -0,6 °C -0,5 °C 91 % 1018,5 hPa 0,0 mm 0,0 km/h (0 Bft) N 0 ° 0 min 0,000 mm 0,0 UV-I 0 W/m² -1,9 °C -0,6 °C 0,0 km/h (0 Bft)
07.02.2017 05:30 -0,6 °C -0,5 °C 91 % 1018,4 hPa 0,0 mm 0,0 km/h (0 Bft) N 0 ° 0 min 0,000 mm 0,0 UV-I 0 W/m² -1,9 °C -0,6 °C 0,0 km/h (0 Bft)
07.02.2017 05:31 -0,6 °C -0,6 °C 91 % 1018,5 hPa 0,0 mm 0,0 km/h (0 Bft) N 0 ° 0 min 0,000 mm 0,0 UV-I 0 W/m² -1,9 °C -0,6 °C 0,0 km/h (0 Bft)
07.02.2017 05:32 -0,6 °C -0,6 °C 91 % 1018,4 hPa 0,0 mm 0,0 km/h (0 Bft) S-SW 202 ° 0 min 0,000 mm 0,0 UV-I 0 W/m² -1,9 °C -0,6 °C 1,6 km/h (1 Bft)
07.02.2017 05:33 -0,6 °C -0,6 °C 91 % 1018,5 hPa 0,0 mm 0,0 km/h (0 Bft) S-SW 202 ° 0 min 0,000 mm 0,0 UV-I 0 W/m² -1,9 °C -0,6 °C 1,6 km/h (1 Bft)
07.02.2017 05:34 -0,6 °C -0,6 °C 91 % 1018,4 hPa 0,0 mm 0,0 km/h (0 Bft) S-SW 202 ° 0 min 0,000 mm 0,0 UV-I 0 W/m² -1,9 °C -0,6 °C 1,6 km/h (1 Bft)
07.02.2017 05:35 -0,6 °C -0,6 °C 91 % 1018,4 hPa 0,0 mm 0,0 km/h (0 Bft) S-SW 202 ° 0 min 0,000 mm 0,0 UV-I 0 W/m² -1,9 °C -0,6 °C 1,6 km/h (1 Bft)
07.02.2017 05:36 -0,6 °C -0,6 °C 91 % 1018,4 hPa 0,0 mm 1,6 km/h (1 Bft) S-SW 202 ° 0 min 0,000 mm 0,0 UV-I 0 W/m² -1,9 °C -0,6 °C 1,6 km/h (1 Bft)
07.02.2017 05:37 -0,6 °C -0,6 °C 91 % 1018,4 hPa 0,0 mm 0,0 km/h (0 Bft) S-SW 202 ° 0 min 0,000 mm 0,0 UV-I 0 W/m² -1,9 °C -0,6 °C 1,6 km/h (1 Bft)
07.02.2017 05:38 -0,6 °C -0,6 °C 91 % 1018,4 hPa 0,0 mm 0,0 km/h (0 Bft) N 0 ° 0 min 0,000 mm 0,0 UV-I 0 W/m² -1,9 °C -0,6 °C 0,0 km/h (0 Bft)
07.02.2017 05:39 -0,6 °C -0,6 °C 91 % 1018,5 hPa 0,0 mm 0,0 km/h (0 Bft) N 0 ° 0 min 0,000 mm 0,0 UV-I 0 W/m² -1,9 °C -0,6 °C 0,0 km/h (0 Bft)
07.02.2017 05:40 -0,6 °C -0,6 °C 91 % 1018,4 hPa 0,0 mm 0,0 km/h (0 Bft) N 0 ° 0 min 0,000 mm 0,0 UV-I 0 W/m² -1,9 °C -0,6 °C 0,0 km/h (0 Bft)
07.02.2017 05:41 -0,6 °C -0,6 °C 91 % 1018,5 hPa 0,0 mm 1,6 km/h (1 Bft) S-SW 202 ° 0 min 0,000 mm 0,0 UV-I 0 W/m² -1,9 °C -0,6 °C 1,6 km/h (1 Bft)
07.02.2017 05:42 -0,7 °C -0,6 °C 91 % 1018,5 hPa 0,0 mm 0,0 km/h (0 Bft) S-SW 202 ° 0 min 0,000 mm 0,0 UV-I 0 W/m² -2,0 °C -0,7 °C 1,6 km/h (1 Bft)
07.02.2017 05:43 -0,6 °C -0,6 °C 91 % 1018,5 hPa 0,0 mm 0,0 km/h (0 Bft) S-SW 202 ° 0 min 0,000 mm 0,0 UV-I 0 W/m² -1,9 °C -0,6 °C 1,6 km/h (1 Bft)
07.02.2017 05:44 -0,6 °C -0,6 °C 91 % 1018,5 hPa 0,0 mm 0,0 km/h (0 Bft) S-SW 202 ° 0 min 0,000 mm 0,0 UV-I 0 W/m² -1,9 °C -0,6 °C 1,6 km/h (1 Bft)
07.02.2017 05:45 -0,6 °C -0,6 °C 91 % 1018,5 hPa 0,0 mm 0,0 km/h (0 Bft) N 0 ° 0 min 0,000 mm 0,0 UV-I 0 W/m² -1,9 °C -0,6 °C 0,0 km/h (0 Bft)
07.02.2017 05:46 -0,7 °C -0,6 °C 91 % 1018,5 hPa 0,0 mm 0,0 km/h (0 Bft) S-SW 202 ° 0 min 0,000 mm 0,0 UV-I 0 W/m² -2,0 °C -0,7 °C 1,6 km/h (1 Bft)
07.02.2017 05:47 -0,7 °C -0,6 °C 92 % 1018,5 hPa 0,0 mm 0,0 km/h (0 Bft) N 0 ° 0 min 0,000 mm 0,0 UV-I 0 W/m² -1,8 °C -0,7 °C 0,0 km/h (0 Bft)
07.02.2017 05:48 -0,7 °C -0,6 °C 92 % 1018,5 hPa 0,0 mm 0,0 km/h (0 Bft) N 0 ° 0 min 0,000 mm 0,0 UV-I 0 W/m² -1,8 °C -0,7 °C 0,0 km/h (0 Bft)
07.02.2017 05:49 -0,6 °C -0,6 °C 92 % 1018,5 hPa 0,0 mm 0,0 km/h (0 Bft) N 0 ° 0 min 0,000 mm 0,0 UV-I 0 W/m² -1,7 °C -0,6 °C 0,0 km/h (0 Bft)
07.02.2017 05:50 -0,7 °C -0,7 °C 92 % 1018,5 hPa 0,0 mm 0,0 km/h (0 Bft) N 0 ° 0 min 0,000 mm 0,0 UV-I 0 W/m² -1,8 °C -0,7 °C 0,0 km/h (0 Bft)
07.02.2017 05:51 -0,7 °C -0,7 °C 92 % 1018,4 hPa 0,0 mm 0,0 km/h (0 Bft) N 0 ° 0 min 0,000 mm 0,0 UV-I 0 W/m² -1,8 °C -0,7 °C 0,0 km/h (0 Bft)
07.02.2017 05:52 -0,7 °C -0,7 °C 92 % 1018,5 hPa 0,0 mm 0,0 km/h (0 Bft) N 0 ° 0 min 0,000 mm 0,0 UV-I 0 W/m² -1,8 °C -0,7 °C 0,0 km/h (0 Bft)
07.02.2017 05:53 -0,7 °C -0,7 °C 92 % 1018,5 hPa 0,0 mm 0,0 km/h (0 Bft) N 0 ° 0 min 0,000 mm 0,0 UV-I 0 W/m² -1,8 °C -0,7 °C 0,0 km/h (0 Bft)
07.02.2017 05:54 -0,7 °C -0,7 °C 92 % 1018,4 hPa 0,0 mm 0,0 km/h (0 Bft) N 0 ° 0 min 0,000 mm 0,0 UV-I 0 W/m² -1,8 °C -0,7 °C 0,0 km/h (0 Bft)
07.02.2017 05:55 -0,6 °C -0,6 °C 92 % 1018,4 hPa 0,0 mm 0,0 km/h (0 Bft) N 0 ° 0 min 0,000 mm 0,0 UV-I 0 W/m² -1,7 °C -0,6 °C 0,0 km/h (0 Bft)
07.02.2017 05:56 -0,7 °C -0,7 °C 92 % 1018,4 hPa 0,0 mm 0,0 km/h (0 Bft) N 0 ° 0 min 0,000 mm 0,0 UV-I 0 W/m² -1,8 °C -0,7 °C 0,0 km/h (0 Bft)
07.02.2017 05:57 -0,7 °C -0,7 °C 92 % 1018,4 hPa 0,0 mm 0,0 km/h (0 Bft) S-SW 202 ° 0 min 0,000 mm 0,0 UV-I 0 W/m² -1,8 °C -0,7 °C 1,6 km/h (1 Bft)
07.02.2017 05:58 -0,7 °C -0,7 °C 92 % 1018,4 hPa 0,0 mm 0,0 km/h (0 Bft) S-SW 202 ° 0 min 0,000 mm 0,0 UV-I 0 W/m² -1,8 °C -0,7 °C 1,6 km/h (1 Bft)
07.02.2017 05:59 -0,7 °C -0,7 °C 92 % 1018,4 hPa 0,0 mm 0,0 km/h (0 Bft) S-SW 202 ° 0 min 0,000 mm 0,0 UV-I 0 W/m² -1,8 °C -0,7 °C 1,6 km/h (1 Bft)
07.02.2017 06:00 -0,7 °C -0,7 °C 92 % 1018,4 hPa 0,0 mm 1,6 km/h (1 Bft) S-SW 202 ° 0 min 0,000 mm 0,0 UV-I 0 W/m² -1,8 °C -0,7 °C 1,6 km/h (1 Bft)
07.02.2017 06:01 -0,7 °C -0,7 °C 92 % 1018,4 hPa 0,0 mm 0,0 km/h (0 Bft) S-SW 202 ° 0 min 0,000 mm 0,0 UV-I 0 W/m² -1,8 °C -0,7 °C 1,6 km/h (1 Bft)
07.02.2017 06:02 -0,7 °C -0,7 °C 92 % 1018,4 hPa 0,0 mm 1,6 km/h (1 Bft) S-SW 202 ° 0 min 0,000 mm 0,0 UV-I 0 W/m² -1,8 °C -0,7 °C 1,6 km/h (1 Bft)
07.02.2017 06:03 -0,7 °C -0,7 °C 92 % 1018,4 hPa 0,0 mm 1,6 km/h (1 Bft) S-SW 202 ° 0 min 0,000 mm 0,0 UV-I 0 W/m² -1,8 °C -0,7 °C 1,6 km/h (1 Bft)
07.02.2017 06:04 -0,7 °C -0,7 °C 92 % 1018,4 hPa 0,0 mm 1,6 km/h (1 Bft) S-SW 202 ° 0 min 0,000 mm 0,0 UV-I 0 W/m² -1,8 °C -0,7 °C 3,2 km/h (1 Bft)
07.02.2017 06:05 -0,7 °C -0,7 °C 92 % 1018,4 hPa 0,0 mm 1,6 km/h (1 Bft) S-SW 202 ° 0 min 0,000 mm 0,0 UV-I 0 W/m² -1,8 °C -0,7 °C 3,2 km/h (1 Bft)
07.02.2017 06:06 -0,7 °C -0,7 °C 92 % 1018,4 hPa 0,0 mm 1,6 km/h (1 Bft) S-SW 202 ° 0 min 0,000 mm 0,0 UV-I 0 W/m² -1,8 °C -0,7 °C 3,2 km/h (1 Bft)
07.02.2017 06:07 -0,7 °C -0,7 °C 92 % 1018,4 hPa 0,0 mm 0,0 km/h (0 Bft) S-SW 202 ° 0 min 0,000 mm 0,0 UV-I 0 W/m² -1,8 °C -0,7 °C 1,6 km/h (1 Bft)
07.02.2017 06:08 -0,7 °C -0,7 °C 92 % 1018,4 hPa 0,0 mm 0,0 km/h (0 Bft) S-SW 202 ° 0 min 0,000 mm 0,0 UV-I 0 W/m² -1,8 °C -0,7 °C 1,6 km/h (1 Bft)
07.02.2017 06:09 -0,7 °C -0,7 °C 92 % 1018,4 hPa 0,0 mm 0,0 km/h (0 Bft) N 0 ° 0 min 0,000 mm 0,0 UV-I 0 W/m² -1,8 °C -0,7 °C 0,0 km/h (0 Bft)
07.02.2017 06:10 -0,7 °C -0,7 °C 92 % 1018,4 hPa 0,0 mm 0,0 km/h (0 Bft) N 0 ° 0 min 0,000 mm 0,0 UV-I 0 W/m² -1,8 °C -0,7 °C 0,0 km/h (0 Bft)
07.02.2017 06:11 -0,7 °C -0,7 °C 92 % 1018,5 hPa 0,0 mm 0,0 km/h (0 Bft) S-SW 202 ° 0 min 0,000 mm 0,0 UV-I 0 W/m² -1,8 °C -0,7 °C 1,6 km/h (1 Bft)
07.02.2017 06:12 -0,7 °C -0,7 °C 92 % 1018,4 hPa 0,0 mm 0,0 km/h (0 Bft) N 0 ° 0 min 0,000 mm 0,0 UV-I 0 W/m² -1,8 °C -0,7 °C 0,0 km/h (0 Bft)
07.02.2017 06:13 -0,7 °C -0,7 °C 92 % 1018,4 hPa 0,0 mm 0,0 km/h (0 Bft) S-SW 202 ° 0 min 0,000 mm 0,0 UV-I 0 W/m² -1,8 °C -0,7 °C 1,6 km/h (1 Bft)
07.02.2017 06:14 -0,7 °C -0,7 °C 92 % 1018,4 hPa 0,0 mm 0,0 km/h (0 Bft) N 0 ° 0 min 0,000 mm 0,0 UV-I 0 W/m² -1,8 °C -0,7 °C 0,0 km/h (0 Bft)
07.02.2017 06:15 -0,7 °C -0,7 °C 92 % 1018,4 hPa 0,0 mm 0,0 km/h (0 Bft) S-SW 202 ° 0 min 0,000 mm 0,0 UV-I 0 W/m² -1,8 °C -0,7 °C 1,6 km/h (1 Bft)
07.02.2017 06:16 -0,7 °C -0,7 °C 92 % 1018,3 hPa 0,0 mm 1,6 km/h (1 Bft) S-SW 202 ° 0 min 0,000 mm 0,0 UV-I 0 W/m² -1,8 °C -0,7 °C 1,6 km/h (1 Bft)
07.02.2017 06:17 -0,7 °C -0,7 °C 92 % 1018,3 hPa 0,0 mm 0,0 km/h (0 Bft) S-SW 202 ° 0 min 0,000 mm 0,0 UV-I 0 W/m² -1,8 °C -0,7 °C 1,6 km/h (1 Bft)
07.02.2017 06:18 -0,7 °C -0,7 °C 92 % 1018,3 hPa 0,0 mm 0,0 km/h (0 Bft) N 0 ° 0 min 0,000 mm 0,0 UV-I 0 W/m² -1,8 °C -0,7 °C 0,0 km/h (0 Bft)
07.02.2017 06:19 -0,7 °C -0,7 °C 92 % 1018,3 hPa 0,0 mm 0,0 km/h (0 Bft) N 0 ° 0 min 0,000 mm 0,0 UV-I 0 W/m² -1,8 °C -0,7 °C 0,0 km/h (0 Bft)
07.02.2017 06:20 -0,7 °C -0,7 °C 92 % 1018,4 hPa 0,0 mm 0,0 km/h (0 Bft) N 0 ° 0 min 0,000 mm 0,0 UV-I 0 W/m² -1,8 °C -0,7 °C 0,0 km/h (0 Bft)
07.02.2017 06:21 -0,7 °C -0,7 °C 92 % 1018,4 hPa 0,0 mm 0,0 km/h (0 Bft) N 0 ° 0 min 0,000 mm 0,0 UV-I 0 W/m² -1,8 °C -0,7 °C 0,0 km/h (0 Bft)
07.02.2017 06:22 -0,7 °C -0,7 °C 92 % 1018,3 hPa 0,0 mm 0,0 km/h (0 Bft) S-SW 202 ° 0 min 0,000 mm 0,0 UV-I 0 W/m² -1,8 °C -0,7 °C 1,6 km/h (1 Bft)
07.02.2017 06:23 -0,7 °C -0,7 °C 92 % 1018,3 hPa 0,0 mm 1,6 km/h (1 Bft) S-SW 202 ° 0 min 0,000 mm 0,0 UV-I 0 W/m² -1,8 °C -0,7 °C 3,2 km/h (1 Bft)
07.02.2017 06:24 -0,7 °C -0,7 °C 92 % 1018,3 hPa 0,0 mm 0,0 km/h (0 Bft) N 0 ° 0 min 0,000 mm 0,0 UV-I 0 W/m² -1,8 °C -0,7 °C 0,0 km/h (0 Bft)
07.02.2017 06:25 -0,7 °C -0,7 °C 92 % 1018,3 hPa 0,0 mm 0,0 km/h (0 Bft) N 0 ° 0 min 0,000 mm 0,0 UV-I 0 W/m² -1,8 °C -0,7 °C 0,0 km/h (0 Bft)
07.02.2017 06:26 -0,7 °C -0,7 °C 92 % 1018,3 hPa 0,0 mm 0,0 km/h (0 Bft) N 0 ° 0 min 0,000 mm 0,0 UV-I 0 W/m² -1,8 °C -0,7 °C 0,0 km/h (0 Bft)
07.02.2017 06:27 -0,7 °C -0,7 °C 92 % 1018,3 hPa 0,0 mm 0,0 km/h (0 Bft) N 0 ° 0 min 0,000 mm 0,0 UV-I 0 W/m² -1,8 °C -0,7 °C 0,0 km/h (0 Bft)
07.02.2017 06:28 -0,7 °C -0,7 °C 92 % 1018,3 hPa 0,0 mm 1,6 km/h (1 Bft) S-SW 202 ° 0 min 0,000 mm 0,0 UV-I 0 W/m² -1,8 °C -0,7 °C 1,6 km/h (1 Bft)
07.02.2017 06:29 -0,8 °C -0,7 °C 92 % 1018,3 hPa 0,0 mm 1,6 km/h (1 Bft) W-NW 292 ° 0 min 0,000 mm 0,0 UV-I 0 W/m² -1,9 °C -0,8 °C 1,6 km/h (1 Bft)
07.02.2017 06:30 -0,7 °C -0,7 °C 92 % 1018,3 hPa 0,0 mm 0,0 km/h (0 Bft) W-NW 292 ° 0 min 0,000 mm 0,0 UV-I 0 W/m² -1,8 °C -0,7 °C 1,6 km/h (1 Bft)
07.02.2017 06:31 -0,7 °C -0,7 °C 92 % 1018,3 hPa 0,0 mm 0,0 km/h (0 Bft) W-NW 292 ° 0 min 0,000 mm 0,0 UV-I 0 W/m² -1,8 °C -0,7 °C 1,6 km/h (1 Bft)
07.02.2017 06:32 -0,7 °C -0,7 °C 92 % 1018,3 hPa 0,0 mm 0,0 km/h (0 Bft) N 0 ° 0 min 0,000 mm 0,0 UV-I 0 W/m² -1,8 °C -0,7 °C 0,0 km/h (0 Bft)
07.02.2017 06:33 -0,8 °C -0,8 °C 92 % 1018,3 hPa 0,0 mm 0,0 km/h (0 Bft) N 0 ° 0 min 0,000 mm 0,0 UV-I 0 W/m² -1,9 °C -0,8 °C 0,0 km/h (0 Bft)
07.02.2017 06:34 -0,8 °C -0,8 °C 92 % 1018,3 hPa 0,0 mm 0,0 km/h (0 Bft) W-NW 292 ° 0 min 0,000 mm 0,0 UV-I 0 W/m² -1,9 °C -0,8 °C 3,2 km/h (1 Bft)
07.02.2017 06:35 -0,8 °C -0,8 °C 92 % 1018,3 hPa 0,0 mm 1,6 km/h (1 Bft) W-NW 292 ° 0 min 0,000 mm 0,0 UV-I 0 W/m² -1,9 °C -0,8 °C 3,2 km/h (1 Bft)
07.02.2017 06:36 -0,8 °C -0,8 °C 92 % 1018,3 hPa 0,0 mm 0,0 km/h (0 Bft) W-NW 292 ° 0 min 0,000 mm 0,0 UV-I 0 W/m² -1,9 °C -0,8 °C 1,6 km/h (1 Bft)
07.02.2017 06:37 -0,8 °C -0,8 °C 91 % 1018,3 hPa 0,0 mm 0,0 km/h (0 Bft) W-NW 292 ° 0 min 0,000 mm 0,0 UV-I 0 W/m² -2,1 °C -0,8 °C 1,6 km/h (1 Bft)
07.02.2017 06:38 -0,8 °C -0,8 °C 91 % 1018,3 hPa 0,0 mm 0,0 km/h (0 Bft) N 0 ° 0 min 0,000 mm 0,0 UV-I 0 W/m² -2,1 °C -0,8 °C 0,0 km/h (0 Bft)
07.02.2017 06:39 -0,8 °C -0,8 °C 91 % 1018,2 hPa 0,0 mm 0,0 km/h (0 Bft) W-NW 292 ° 0 min 0,000 mm 0,0 UV-I 0 W/m² -2,1 °C -0,8 °C 1,6 km/h (1 Bft)
07.02.2017 06:40 -0,8 °C -0,8 °C 91 % 1018,3 hPa 0,0 mm 0,0 km/h (0 Bft) W-NW 292 ° 0 min 0,000 mm 0,0 UV-I 0 W/m² -2,1 °C -0,8 °C 1,6 km/h (1 Bft)
07.02.2017 06:41 -0,8 °C -0,8 °C 91 % 1018,3 hPa 0,0 mm 0,0 km/h (0 Bft) N 0 ° 0 min 0,000 mm 0,0 UV-I 0 W/m² -2,1 °C -0,8 °C 0,0 km/h (0 Bft)
07.02.2017 06:42 -0,8 °C -0,8 °C 91 % 1018,3 hPa 0,0 mm 0,0 km/h (0 Bft) N 0 ° 0 min 0,000 mm 0,0 UV-I 0 W/m² -2,1 °C -0,8 °C 0,0 km/h (0 Bft)
07.02.2017 06:43 -0,8 °C -0,8 °C 91 % 1018,2 hPa 0,0 mm 0,0 km/h (0 Bft) N 0 ° 0 min 0,000 mm 0,0 UV-I 0 W/m² -2,1 °C -0,8 °C 0,0 km/h (0 Bft)
07.02.2017 06:44 -0,8 °C -0,8 °C 91 % 1018,2 hPa 0,0 mm 0,0 km/h (0 Bft) N 0 ° 0 min 0,000 mm 0,0 UV-I 0 W/m² -2,1 °C -0,8 °C 0,0 km/h (0 Bft)
07.02.2017 06:45 -0,8 °C -0,8 °C 91 % 1018,2 hPa 0,0 mm 0,0 km/h (0 Bft) N 0 ° 0 min 0,000 mm 0,0 UV-I 0 W/m² -2,1 °C -0,8 °C 0,0 km/h (0 Bft)
07.02.2017 06:46 -0,8 °C -0,8 °C 91 % 1018,2 hPa 0,0 mm 0,0 km/h (0 Bft) N 0 ° 0 min 0,000 mm 0,0 UV-I 0 W/m² -2,1 °C -0,8 °C 0,0 km/h (0 Bft)
07.02.2017 06:47 -0,8 °C -0,8 °C 91 % 1018,2 hPa 0,0 mm 0,0 km/h (0 Bft) N 0 ° 0 min 0,000 mm 0,0 UV-I 0 W/m² -2,1 °C -0,8 °C 0,0 km/h (0 Bft)
07.02.2017 06:48 -0,8 °C -0,8 °C 91 % 1018,2 hPa 0,0 mm 0,0 km/h (0 Bft) N 0 ° 0 min 0,000 mm 0,0 UV-I 0 W/m² -2,1 °C -0,8 °C 0,0 km/h (0 Bft)
07.02.2017 06:49 -0,8 °C -0,8 °C 91 % 1018,2 hPa 0,0 mm 0,0 km/h (0 Bft) N 0 ° 0 min 0,000 mm 0,0 UV-I 0 W/m² -2,1 °C -0,8 °C 0,0 km/h (0 Bft)
07.02.2017 06:50 -0,8 °C -0,8 °C 91 % 1018,2 hPa 0,0 mm 0,0 km/h (0 Bft) N 0 ° 0 min 0,000 mm 0,0 UV-I 0 W/m² -2,1 °C -0,8 °C 0,0 km/h (0 Bft)
07.02.2017 06:51 -0,8 °C -0,8 °C 91 % 1018,2 hPa 0,0 mm 0,0 km/h (0 Bft) W-NW 292 ° 0 min 0,000 mm 0,0 UV-I 0 W/m² -2,1 °C -0,8 °C 1,6 km/h (1 Bft)
07.02.2017 06:52 -0,8 °C -0,8 °C 91 % 1018,2 hPa 0,0 mm 0,0 km/h (0 Bft) W-NW 292 ° 0 min 0,000 mm 0,0 UV-I 0 W/m² -2,1 °C -0,8 °C 1,6 km/h (1 Bft)
07.02.2017 06:53 -0,8 °C -0,8 °C 91 % 1018,2 hPa 0,0 mm 0,0 km/h (0 Bft) W-NW 292 ° 0 min 0,000 mm 0,0 UV-I 0 W/m² -2,1 °C -0,8 °C 1,6 km/h (1 Bft)
07.02.2017 06:54 -0,8 °C -0,8 °C 91 % 1018,3 hPa 0,0 mm 1,6 km/h (1 Bft) W-NW 292 ° 0 min 0,000 mm 0,0 UV-I 0 W/m² -2,1 °C -0,8 °C 3,2 km/h (1 Bft)
07.02.2017 06:55 -0,8 °C -0,8 °C 91 % 1018,3 hPa 0,0 mm 3,2 km/h (1 Bft) W-NW 292 ° 0 min 0,000 mm 0,0 UV-I 0 W/m² -2,1 °C -0,8 °C 4,8 km/h (1 Bft)
07.02.2017 06:56 -0,8 °C -0,8 °C 91 % 1018,3 hPa 0,0 mm 3,2 km/h (1 Bft) W-NW 292 ° 0 min 0,000 mm 0,0 UV-I 0 W/m² -2,1 °C -0,8 °C 4,8 km/h (1 Bft)
07.02.2017 06:57 -0,9 °C -0,8 °C 91 % 1018,3 hPa 0,0 mm 1,6 km/h (1 Bft) W-NW 292 ° 0 min 0,000 mm 0,0 UV-I 0 W/m² -2,2 °C -0,9 °C 3,2 km/h (1 Bft)
07.02.2017 06:58 -0,9 °C -0,9 °C 90 % 1018,3 hPa 0,0 mm 3,2 km/h (1 Bft) W-NW 292 ° 0 min 0,000 mm 0,0 UV-I 0 W/m² -2,3 °C -0,9 °C 4,8 km/h (1 Bft)
07.02.2017 06:59 -0,9 °C -0,9 °C 90 % 1018,3 hPa 0,0 mm 3,2 km/h (1 Bft) W-NW 292 ° 0 min 0,000 mm 0,0 UV-I 0 W/m² -2,3 °C -0,9 °C 4,8 km/h (1 Bft)
07.02.2017 07:00 -0,9 °C -0,9 °C 90 % 1018,3 hPa 0,0 mm 3,2 km/h (1 Bft) W-NW 292 ° 0 min 0,000 mm 0,0 UV-I 0 W/m² -2,3 °C -0,9 °C 3,2 km/h (1 Bft)
07.02.2017 07:01 -0,9 °C -0,9 °C 90 % 1018,3 hPa 0,0 mm 1,6 km/h (1 Bft) W-NW 292 ° 0 min 0,000 mm 0,0 UV-I 0 W/m² -2,3 °C -0,9 °C 3,2 km/h (1 Bft)
07.02.2017 07:02 -0,9 °C -0,9 °C 90 % 1018,4 hPa 0,0 mm 1,6 km/h (1 Bft) W-NW 292 ° 0 min 0,000 mm 0,0 UV-I 0 W/m² -2,3 °C -0,9 °C 3,2 km/h (1 Bft)
07.02.2017 07:03 -0,9 °C -0,9 °C 90 % 1018,4 hPa 0,0 mm 1,6 km/h (1 Bft) W-NW 292 ° 0 min 0,000 mm 0,0 UV-I 0 W/m² -2,3 °C -0,9 °C 3,2 km/h (1 Bft)
07.02.2017 07:04 -0,9 °C -0,9 °C 90 % 1018,5 hPa 0,0 mm 1,6 km/h (1 Bft) W-NW 292 ° 0 min 0,000 mm 0,0 UV-I 0 W/m² -2,3 °C -0,9 °C 3,2 km/h (1 Bft)
07.02.2017 07:05 -0,9 °C -0,9 °C 90 % 1018,5 hPa 0,0 mm 1,6 km/h (1 Bft) W-NW 292 ° 0 min 0,000 mm 0,0 UV-I 0 W/m² -2,3 °C -0,9 °C 1,6 km/h (1 Bft)
07.02.2017 07:06 -0,9 °C -0,9 °C 90 % 1018,5 hPa 0,0 mm 0,0 km/h (0 Bft) W-NW 292 ° 0 min 0,000 mm 0,0 UV-I 0 W/m² -2,3 °C -0,9 °C 1,6 km/h (1 Bft)
07.02.2017 07:07 -0,9 °C -0,9 °C 90 % 1018,5 hPa 0,0 mm 0,0 km/h (0 Bft) N 0 ° 0 min 0,000 mm 0,0 UV-I 0 W/m² -2,3 °C -0,9 °C 0,0 km/h (0 Bft)
07.02.2017 07:08 -0,9 °C -0,9 °C 90 % 1018,5 hPa 0,0 mm 0,0 km/h (0 Bft) W-NW 292 ° 0 min 0,000 mm 0,0 UV-I 0 W/m² -2,3 °C -0,9 °C 1,6 km/h (1 Bft)
07.02.2017 07:09 -0,9 °C -0,9 °C 90 % 1018,5 hPa 0,0 mm 0,0 km/h (0 Bft) W-NW 292 ° 0 min 0,000 mm 0,0 UV-I 0 W/m² -2,3 °C -0,9 °C 1,6 km/h (1 Bft)
07.02.2017 07:10 -0,9 °C -0,9 °C 90 % 1018,5 hPa 0,0 mm 0,0 km/h (0 Bft) N 0 ° 0 min 0,000 mm 0,0 UV-I 0 W/m² -2,3 °C -0,9 °C 0,0 km/h (0 Bft)
07.02.2017 07:11 -0,9 °C -0,9 °C 90 % 1018,5 hPa 0,0 mm 0,0 km/h (0 Bft) N 0 ° 0 min 0,000 mm 0,0 UV-I 0 W/m² -2,3 °C -0,9 °C 0,0 km/h (0 Bft)
07.02.2017 07:12 -0,9 °C -0,9 °C 90 % 1018,5 hPa 0,0 mm 0,0 km/h (0 Bft) N 0 ° 0 min 0,000 mm 0,0 UV-I 0 W/m² -2,3 °C -0,9 °C 0,0 km/h (0 Bft)
07.02.2017 07:13 -0,9 °C -0,9 °C 90 % 1018,5 hPa 0,0 mm 0,0 km/h (0 Bft) N 0 ° 0 min 0,000 mm 0,0 UV-I 0 W/m² -2,3 °C -0,9 °C 0,0 km/h (0 Bft)
07.02.2017 07:14 -0,9 °C -0,9 °C 90 % 1018,6 hPa 0,0 mm 0,0 km/h (0 Bft) N 0 ° 0 min 0,000 mm 0,0 UV-I 0 W/m² -2,3 °C -0,9 °C 0,0 km/h (0 Bft)
07.02.2017 07:15 -0,9 °C -0,9 °C 90 % 1018,6 hPa 0,0 mm 0,0 km/h (0 Bft) N 0 ° 0 min 0,000 mm 0,0 UV-I 0 W/m² -2,3 °C -0,9 °C 0,0 km/h (0 Bft)
07.02.2017 07:16 -0,9 °C -0,9 °C 90 % 1018,6 hPa 0,0 mm 0,0 km/h (0 Bft) N 0 ° 0 min 0,000 mm 0,0 UV-I 0 W/m² -2,3 °C -0,9 °C 0,0 km/h (0 Bft)
07.02.2017 07:17 -0,9 °C -0,9 °C 90 % 1018,6 hPa 0,0 mm 0,0 km/h (0 Bft) N 0 ° 0 min 0,000 mm 0,0 UV-I 0 W/m² -2,3 °C -0,9 °C 0,0 km/h (0 Bft)
07.02.2017 07:18 -0,9 °C -0,9 °C 90 % 1018,6 hPa 0,0 mm 0,0 km/h (0 Bft) N 0 ° 0 min 0,000 mm 0,0 UV-I 0 W/m² -2,3 °C -0,9 °C 0,0 km/h (0 Bft)
07.02.2017 07:19 -0,9 °C -0,9 °C 90 % 1018,6 hPa 0,0 mm 0,0 km/h (0 Bft) N 0 ° 0 min 0,000 mm 0,0 UV-I 0 W/m² -2,3 °C -0,9 °C 0,0 km/h (0 Bft)
07.02.2017 07:20 -0,9 °C -0,9 °C 90 % 1018,6 hPa 0,0 mm 0,0 km/h (0 Bft) N 0 ° 0 min 0,000 mm 0,0 UV-I 0 W/m² -2,3 °C -0,9 °C 0,0 km/h (0 Bft)
07.02.2017 07:21 -0,9 °C -0,9 °C 91 % 1018,6 hPa 0,0 mm 0,0 km/h (0 Bft) N 0 ° 0 min 0,000 mm 0,0 UV-I 0 W/m² -2,2 °C -0,9 °C 0,0 km/h (0 Bft)
07.02.2017 07:22 -0,9 °C -0,9 °C 90 % 1018,6 hPa 0,0 mm 0,0 km/h (0 Bft) N 0 ° 0 min 0,000 mm 0,0 UV-I 0 W/m² -2,3 °C -0,9 °C 0,0 km/h (0 Bft)
07.02.2017 07:23 -0,9 °C -0,9 °C 90 % 1018,6 hPa 0,0 mm 0,0 km/h (0 Bft) W-NW 292 ° 0 min 0,000 mm 0,0 UV-I 0 W/m² -2,3 °C -0,9 °C 1,6 km/h (1 Bft)
07.02.2017 07:24 -0,9 °C -0,9 °C 90 % 1018,6 hPa 0,0 mm 0,0 km/h (0 Bft) W-NW 292 ° 0 min 0,000 mm 0,0 UV-I 0 W/m² -2,3 °C -0,9 °C 1,6 km/h (1 Bft)
07.02.2017 07:25 -0,9 °C -0,9 °C 90 % 1018,6 hPa 0,0 mm 0,0 km/h (0 Bft) N 0 ° 0 min 0,000 mm 0,0 UV-I 0 W/m² -2,3 °C -0,9 °C 0,0 km/h (0 Bft)
07.02.2017 07:26 -0,9 °C -0,9 °C 90 % 1018,6 hPa 0,0 mm 0,0 km/h (0 Bft) N 0 ° 0 min 0,000 mm 0,0 UV-I 0 W/m² -2,3 °C -0,9 °C 0,0 km/h (0 Bft)
07.02.2017 07:27 -0,9 °C -0,9 °C 90 % 1018,6 hPa 0,0 mm 0,0 km/h (0 Bft) N 0 ° 0 min 0,000 mm 0,0 UV-I 0 W/m² -2,3 °C -0,9 °C 0,0 km/h (0 Bft)
07.02.2017 07:28 -0,9 °C -0,9 °C 90 % 1018,6 hPa 0,0 mm 0,0 km/h (0 Bft) N 0 ° 0 min 0,000 mm 0,0 UV-I 0 W/m² -2,3 °C -0,9 °C 0,0 km/h (0 Bft)
07.02.2017 07:29 -0,9 °C -0,9 °C 90 % 1018,6 hPa 0,0 mm 0,0 km/h (0 Bft) N 0 ° 0 min 0,000 mm 0,0 UV-I 0 W/m² -2,3 °C -0,9 °C 0,0 km/h (0 Bft)
07.02.2017 07:30 -0,9 °C -0,9 °C 90 % 1018,6 hPa 0,0 mm 0,0 km/h (0 Bft) N 0 ° 0 min 0,000 mm 0,0 UV-I 0 W/m² -2,3 °C -0,9 °C 0,0 km/h (0 Bft)
07.02.2017 07:31 -1,0 °C -0,9 °C 90 % 1018,6 hPa 0,0 mm 0,0 km/h (0 Bft) N 0 ° 0 min 0,000 mm 0,0 UV-I 0 W/m² -2,4 °C -1,0 °C 0,0 km/h (0 Bft)
07.02.2017 07:32 -1,0 °C -1,0 °C 90 % 1018,6 hPa 0,0 mm 0,0 km/h (0 Bft) N 0 ° 0 min 0,000 mm 0,0 UV-I 0 W/m² -2,4 °C -1,0 °C 0,0 km/h (0 Bft)
07.02.2017 07:33 -1,0 °C -1,0 °C 90 % 1018,6 hPa 0,0 mm 0,0 km/h (0 Bft) N 0 ° 0 min 0,000 mm 0,0 UV-I 0 W/m² -2,4 °C -1,0 °C 0,0 km/h (0 Bft)
07.02.2017 07:34 -1,0 °C -1,0 °C 90 % 1018,6 hPa 0,0 mm 0,0 km/h (0 Bft) W-NW 292 ° 0 min 0,000 mm 0,0 UV-I 0 W/m² -2,4 °C -1,0 °C 1,6 km/h (1 Bft)
07.02.2017 07:35 -1,1 °C -1,0 °C 90 % 1018,6 hPa 0,0 mm 1,6 km/h (1 Bft) W-NW 292 ° 0 min 0,000 mm 0,0 UV-I 0 W/m² -2,5 °C -1,1 °C 3,2 km/h (1 Bft)
07.02.2017 07:36 -1,1 °C -1,1 °C 90 % 1018,6 hPa 0,0 mm 1,6 km/h (1 Bft) W-NW 292 ° 0 min 0,000 mm 0,0 UV-I 0 W/m² -2,5 °C -1,1 °C 1,6 km/h (1 Bft)
07.02.2017 07:37 -1,1 °C -1,1 °C 90 % 1018,6 hPa 0,0 mm 0,0 km/h (0 Bft) W-NW 292 ° 0 min 0,000 mm 0,0 UV-I 0 W/m² -2,5 °C -1,1 °C 1,6 km/h (1 Bft)
07.02.2017 07:38 -1,1 °C -1,1 °C 90 % 1018,6 hPa 0,0 mm 1,6 km/h (1 Bft) W-NW 292 ° 0 min 0,000 mm 0,0 UV-I 0 W/m² -2,5 °C -1,1 °C 1,6 km/h (1 Bft)
07.02.2017 07:39 -1,1 °C -1,1 °C 90 % 1018,6 hPa 0,0 mm 1,6 km/h (1 Bft) W-NW 292 ° 0 min 0,000 mm 0,0 UV-I 5 W/m² -2,5 °C -1,1 °C 3,2 km/h (1 Bft)
07.02.2017 07:40 -1,1 °C -1,1 °C 89 % 1018,6 hPa 0,0 mm 0,0 km/h (0 Bft) W-NW 292 ° 0 min 0,000 mm 0,0 UV-I 5 W/m² -2,7 °C -1,1 °C 1,6 km/h (1 Bft)
07.02.2017 07:41 -1,1 °C -1,1 °C 89 % 1018,6 hPa 0,0 mm 0,0 km/h (0 Bft) N 0 ° 0 min 0,000 mm 0,0 UV-I 5 W/m² -2,7 °C -1,1 °C 0,0 km/h (0 Bft)
07.02.2017 07:42 -1,1 °C -1,1 °C 89 % 1018,6 hPa 0,0 mm 0,0 km/h (0 Bft) N 0 ° 0 min 0,000 mm 0,0 UV-I 5 W/m² -2,7 °C -1,1 °C 0,0 km/h (0 Bft)
07.02.2017 07:43 -1,1 °C -1,1 °C 89 % 1018,6 hPa 0,0 mm 0,0 km/h (0 Bft) N 0 ° 0 min 0,000 mm 0,0 UV-I 5 W/m² -2,7 °C -1,1 °C 0,0 km/h (0 Bft)
07.02.2017 07:44 -1,1 °C -1,1 °C 89 % 1018,6 hPa 0,0 mm 0,0 km/h (0 Bft) N 0 ° 0 min 0,000 mm 0,0 UV-I 7 W/m² -2,7 °C -1,1 °C 0,0 km/h (0 Bft)
07.02.2017 07:45 -1,1 °C -1,1 °C 89 % 1018,6 hPa 0,0 mm 0,0 km/h (0 Bft) N 0 ° 0 min 0,000 mm 0,0 UV-I 7 W/m² -2,7 °C -1,1 °C 0,0 km/h (0 Bft)
07.02.2017 07:46 -1,1 °C -1,1 °C 89 % 1018,6 hPa 0,0 mm 0,0 km/h (0 Bft) N 0 ° 0 min 0,000 mm 0,0 UV-I 9 W/m² -2,7 °C -1,1 °C 0,0 km/h (0 Bft)
07.02.2017 07:47 -1,1 °C -1,1 °C 89 % 1018,6 hPa 0,0 mm 0,0 km/h (0 Bft) N 0 ° 0 min 0,000 mm 0,0 UV-I 9 W/m² -2,7 °C -1,1 °C 0,0 km/h (0 Bft)
07.02.2017 07:48 -1,1 °C -1,1 °C 89 % 1018,6 hPa 0,0 mm 0,0 km/h (0 Bft) N 0 ° 0 min 0,000 mm 0,0 UV-I 9 W/m² -2,7 °C -1,1 °C 0,0 km/h (0 Bft)
07.02.2017 07:49 -1,1 °C -1,1 °C 89 % 1018,6 hPa 0,0 mm 0,0 km/h (0 Bft) N 0 ° 0 min 0,000 mm 0,0 UV-I 11 W/m² -2,7 °C -1,1 °C 0,0 km/h (0 Bft)
07.02.2017 07:50 -1,2 °C -1,1 °C 89 % 1018,5 hPa 0,0 mm 0,0 km/h (0 Bft) N 0 ° 0 min 0,000 mm 0,0 UV-I 11 W/m² -2,8 °C -1,2 °C 0,0 km/h (0 Bft)
07.02.2017 07:51 -1,2 °C -1,2 °C 89 % 1018,6 hPa 0,0 mm 0,0 km/h (0 Bft) W-NW 292 ° 0 min 0,000 mm 0,0 UV-I 11 W/m² -2,8 °C -1,2 °C 1,6 km/h (1 Bft)
07.02.2017 07:52 -1,2 °C -1,2 °C 89 % 1018,6 hPa 0,0 mm 1,6 km/h (1 Bft) W-NW 292 ° 0 min 0,000 mm 0,0 UV-I 12 W/m² -2,8 °C -1,2 °C 1,6 km/h (1 Bft)
07.02.2017 07:53 -1,2 °C -1,2 °C 89 % 1018,6 hPa 0,0 mm 1,6 km/h (1 Bft) W-NW 292 ° 0 min 0,000 mm 0,0 UV-I 12 W/m² -2,8 °C -1,2 °C 3,2 km/h (1 Bft)
07.02.2017 07:54 -1,2 °C -1,2 °C 89 % 1018,6 hPa 0,0 mm 1,6 km/h (1 Bft) W-NW 292 ° 0 min 0,000 mm 0,0 UV-I 12 W/m² -2,8 °C -1,2 °C 3,2 km/h (1 Bft)
07.02.2017 07:55 -1,3 °C -1,2 °C 89 % 1018,6 hPa 0,0 mm 1,6 km/h (1 Bft) W-NW 292 ° 0 min 0,000 mm 0,0 UV-I 14 W/m² -2,9 °C -1,3 °C 3,2 km/h (1 Bft)
07.02.2017 07:56 -1,3 °C -1,3 °C 89 % 1018,6 hPa 0,0 mm 1,6 km/h (1 Bft) W-NW 292 ° 0 min 0,000 mm 0,0 UV-I 14 W/m² -2,9 °C -1,3 °C 3,2 km/h (1 Bft)
07.02.2017 07:57 -1,3 °C -1,3 °C 89 % 1018,6 hPa 0,0 mm 1,6 km/h (1 Bft) W-NW 292 ° 0 min 0,000 mm 0,0 UV-I 16 W/m² -2,9 °C -1,3 °C 3,2 km/h (1 Bft)
07.02.2017 07:58 -1,3 °C -1,3 °C 89 % 1018,6 hPa 0,0 mm 1,6 km/h (1 Bft) W-NW 292 ° 0 min 0,000 mm 0,0 UV-I 16 W/m² -2,9 °C -1,3 °C 3,2 km/h (1 Bft)
07.02.2017 07:59 -1,4 °C -1,3 °C 89 % 1018,6 hPa 0,0 mm 3,2 km/h (1 Bft) W-NW 292 ° 0 min 0,000 mm 0,0 UV-I 18 W/m² -3,0 °C -1,4 °C 3,2 km/h (1 Bft)
07.02.2017 08:00 -1,4 °C -1,4 °C 89 % 1018,6 hPa 0,0 mm 1,6 km/h (1 Bft) W-NW 292 ° 0 min 0,000 mm 0,0 UV-I 18 W/m² -3,0 °C -1,4 °C 4,8 km/h (1 Bft)
07.02.2017 08:01 -1,4 °C -1,4 °C 89 % 1018,6 hPa 0,0 mm 0,0 km/h (0 Bft) W-NW 292 ° 0 min 0,000 mm 0,0 UV-I 18 W/m² -3,0 °C -1,4 °C 1,6 km/h (1 Bft)
07.02.2017 08:02 -1,4 °C -1,4 °C 89 % 1018,6 hPa 0,0 mm 1,6 km/h (1 Bft) W-NW 292 ° 0 min 0,000 mm 0,0 UV-I 18 W/m² -3,0 °C -1,4 °C 1,6 km/h (1 Bft)
07.02.2017 08:03 -1,4 °C -1,4 °C 89 % 1018,6 hPa 0,0 mm 1,6 km/h (1 Bft) W-NW 292 ° 0 min 0,000 mm 0,0 UV-I 18 W/m² -3,0 °C -1,4 °C 1,6 km/h (1 Bft)
07.02.2017 08:04 -1,4 °C -1,4 °C 90 % 1018,6 hPa 0,0 mm 0,0 km/h (0 Bft) W-NW 292 ° 0 min 0,000 mm 0,0 UV-I 18 W/m² -2,8 °C -1,4 °C 1,6 km/h (1 Bft)
07.02.2017 08:05 -1,4 °C -1,4 °C 89 % 1018,6 hPa 0,0 mm 0,0 km/h (0 Bft) W-NW 292 ° 0 min 0,000 mm 0,0 UV-I 19 W/m² -3,0 °C -1,4 °C 1,6 km/h (1 Bft)
07.02.2017 08:06 -1,4 °C -1,4 °C 89 % 1018,5 hPa 0,0 mm 0,0 km/h (0 Bft) N 0 ° 0 min 0,000 mm 0,0 UV-I 19 W/m² -3,0 °C -1,4 °C 0,0 km/h (0 Bft)
07.02.2017 08:07 -1,5 °C -1,4 °C 89 % 1018,5 hPa 0,0 mm 0,0 km/h (0 Bft) N 0 ° 0 min 0,000 mm 0,0 UV-I 19 W/m² -3,1 °C -1,5 °C 0,0 km/h (0 Bft)
07.02.2017 08:08 -1,4 °C -1,4 °C 89 % 1018,6 hPa 0,0 mm 0,0 km/h (0 Bft) N 0 ° 0 min 0,000 mm 0,0 UV-I 21 W/m² -3,0 °C -1,4 °C 0,0 km/h (0 Bft)
07.02.2017 08:09 -1,4 °C -1,4 °C 89 % 1018,5 hPa 0,0 mm 0,0 km/h (0 Bft) N 0 ° 0 min 0,000 mm 0,0 UV-I 23 W/m² -3,0 °C -1,4 °C 0,0 km/h (0 Bft)
07.02.2017 08:10 -1,4 °C -1,4 °C 89 % 1018,5 hPa 0,0 mm 0,0 km/h (0 Bft) N 0 ° 0 min 0,000 mm 0,0 UV-I 23 W/m² -3,0 °C -1,4 °C 0,0 km/h (0 Bft)
07.02.2017 08:11 -1,5 °C -1,5 °C 90 % 1018,5 hPa 0,0 mm 0,0 km/h (0 Bft) N 0 ° 0 min 0,000 mm 0,0 UV-I 25 W/m² -2,9 °C -1,5 °C 0,0 km/h (0 Bft)
07.02.2017 08:12 -1,4 °C -1,4 °C 90 % 1018,5 hPa 0,0 mm 0,0 km/h (0 Bft) N 0 ° 0 min 0,000 mm 0,0 UV-I 25 W/m² -2,8 °C -1,4 °C 0,0 km/h (0 Bft)
07.02.2017 08:13 -1,5 °C -1,5 °C 90 % 1018,5 hPa 0,0 mm 0,0 km/h (0 Bft) N 0 ° 0 min 0,000 mm 0,0 UV-I 26 W/m² -2,9 °C -1,5 °C 0,0 km/h (0 Bft)
07.02.2017 08:14 -1,5 °C -1,4 °C 90 % 1018,5 hPa 0,0 mm 0,0 km/h (0 Bft) N 0 ° 0 min 0,000 mm 0,0 UV-I 26 W/m² -2,9 °C -1,5 °C 0,0 km/h (0 Bft)
07.02.2017 08:15 -1,5 °C -1,5 °C 90 % 1018,4 hPa 0,0 mm 0,0 km/h (0 Bft) N 0 ° 0 min 0,000 mm 0,0 UV-I 26 W/m² -2,9 °C -1,5 °C 0,0 km/h (0 Bft)
07.02.2017 08:16 -1,5 °C -1,5 °C 90 % 1018,4 hPa 0,0 mm 0,0 km/h (0 Bft) N 0 ° 0 min 0,000 mm 0,0 UV-I 26 W/m² -2,9 °C -1,5 °C 0,0 km/h (0 Bft)
07.02.2017 08:17 -1,5 °C -1,5 °C 90 % 1018,4 hPa 0,0 mm 0,0 km/h (0 Bft) N 0 ° 0 min 0,000 mm 0,0 UV-I 26 W/m² -2,9 °C -1,5 °C 0,0 km/h (0 Bft)
07.02.2017 08:18 -1,5 °C -1,5 °C 90 % 1018,4 hPa 0,0 mm 0,0 km/h (0 Bft) N 0 ° 0 min 0,000 mm 0,0 UV-I 26 W/m² -2,9 °C -1,5 °C 0,0 km/h (0 Bft)
07.02.2017 08:19 -1,5 °C -1,5 °C 90 % 1018,4 hPa 0,0 mm 0,0 km/h (0 Bft) N 0 ° 0 min 0,000 mm 0,0 UV-I 26 W/m² -2,9 °C -1,5 °C 0,0 km/h (0 Bft)
07.02.2017 08:20 -1,5 °C -1,5 °C 90 % 1018,4 hPa 0,0 mm 0,0 km/h (0 Bft) N 0 ° 0 min 0,000 mm 0,0 UV-I 26 W/m² -2,9 °C -1,5 °C 0,0 km/h (0 Bft)
07.02.2017 08:21 -1,6 °C -1,5 °C 90 % 1018,4 hPa 0,0 mm 0,0 km/h (0 Bft) W-NW 292 ° 0 min 0,000 mm 0,0 UV-I 26 W/m² -3,0 °C -1,6 °C 1,6 km/h (1 Bft)
07.02.2017 08:22 -1,6 °C -1,5 °C 90 % 1018,5 hPa 0,0 mm 0,0 km/h (0 Bft) W-NW 292 ° 0 min 0,000 mm 0,0 UV-I 26 W/m² -3,0 °C -1,6 °C 1,6 km/h (1 Bft)
07.02.2017 08:23 -1,6 °C -1,6 °C 90 % 1018,4 hPa 0,0 mm 0,0 km/h (0 Bft) W-NW 292 ° 0 min 0,000 mm 0,0 UV-I 26 W/m² -3,0 °C -1,6 °C 1,6 km/h (1 Bft)
07.02.2017 08:24 -1,6 °C -1,6 °C 90 % 1018,4 hPa 0,0 mm 0,0 km/h (0 Bft) W-NW 292 ° 0 min 0,000 mm 0,0 UV-I 26 W/m² -3,0 °C -1,6 °C 1,6 km/h (1 Bft)
07.02.2017 08:25 -1,6 °C -1,6 °C 90 % 1018,4 hPa 0,0 mm 0,0 km/h (0 Bft) N 0 ° 0 min 0,000 mm 0,0 UV-I 28 W/m² -3,0 °C -1,6 °C 0,0 km/h (0 Bft)
07.02.2017 08:26 -1,6 °C -1,6 °C 90 % 1018,4 hPa 0,0 mm 0,0 km/h (0 Bft) N 0 ° 0 min 0,000 mm 0,0 UV-I 28 W/m² -3,0 °C -1,6 °C 0,0 km/h (0 Bft)
07.02.2017 08:27 -1,6 °C -1,6 °C 90 % 1018,4 hPa 0,0 mm 0,0 km/h (0 Bft) N 0 ° 0 min 0,000 mm 0,0 UV-I 28 W/m² -3,0 °C -1,6 °C 0,0 km/h (0 Bft)
07.02.2017 08:28 -1,6 °C -1,6 °C 90 % 1018,4 hPa 0,0 mm 0,0 km/h (0 Bft) N 0 ° 0 min 0,000 mm 0,0 UV-I 26 W/m² -3,0 °C -1,6 °C 0,0 km/h (0 Bft)
07.02.2017 08:29 -1,6 °C -1,6 °C 90 % 1018,4 hPa 0,0 mm 0,0 km/h (0 Bft) N 0 ° 0 min 0,000 mm 0,0 UV-I 26 W/m² -3,0 °C -1,6 °C 0,0 km/h (0 Bft)
07.02.2017 08:30 -1,6 °C -1,6 °C 90 % 1018,4 hPa 0,0 mm 0,0 km/h (0 Bft) N 0 ° 0 min 0,000 mm 0,0 UV-I 26 W/m² -3,0 °C -1,6 °C 0,0 km/h (0 Bft)
07.02.2017 08:31 -1,6 °C -1,6 °C 90 % 1018,4 hPa 0,0 mm 0,0 km/h (0 Bft) N 0 ° 0 min 0,000 mm 0,0 UV-I 26 W/m² -3,0 °C -1,6 °C 0,0 km/h (0 Bft)
07.02.2017 08:32 -1,6 °C -1,6 °C 90 % 1018,4 hPa 0,0 mm 0,0 km/h (0 Bft) N 0 ° 0 min 0,000 mm 0,0 UV-I 26 W/m² -3,0 °C -1,6 °C 0,0 km/h (0 Bft)
07.02.2017 08:33 -1,6 °C -1,6 °C 90 % 1018,4 hPa 0,0 mm 0,0 km/h (0 Bft) N 0 ° 0 min 0,000 mm 0,0 UV-I 26 W/m² -3,0 °C -1,6 °C 0,0 km/h (0 Bft)
07.02.2017 08:34 -1,7 °C -1,6 °C 90 % 1018,4 hPa 0,0 mm 0,0 km/h (0 Bft) N 0 ° 0 min 0,000 mm 0,0 UV-I 28 W/m² -3,1 °C -1,7 °C 0,0 km/h (0 Bft)
07.02.2017 08:35 -1,7 °C -1,6 °C 90 % 1018,3 hPa 0,0 mm 1,6 km/h (1 Bft) W-NW 292 ° 0 min 0,000 mm 0,0 UV-I 26 W/m² -3,1 °C -1,7 °C 3,2 km/h (1 Bft)
07.02.2017 08:36 -1,7 °C -1,6 °C 90 % 1018,3 hPa 0,0 mm 1,6 km/h (1 Bft) W-NW 292 ° 0 min 0,000 mm 0,0 UV-I 28 W/m² -3,1 °C -1,7 °C 1,6 km/h (1 Bft)
07.02.2017 08:37 -1,7 °C -1,7 °C 90 % 1018,3 hPa 0,0 mm 0,0 km/h (0 Bft) W-NW 292 ° 0 min 0,000 mm 0,0 UV-I 28 W/m² -3,1 °C -1,7 °C 1,6 km/h (1 Bft)
07.02.2017 08:38 -1,7 °C -1,7 °C 90 % 1018,3 hPa 0,0 mm 0,0 km/h (0 Bft) N 0 ° 0 min 0,000 mm 0,0 UV-I 28 W/m² -3,1 °C -1,7 °C 0,0 km/h (0 Bft)
07.02.2017 08:39 -1,7 °C -1,7 °C 90 % 1018,3 hPa 0,0 mm 0,0 km/h (0 Bft) N 0 ° 0 min 0,000 mm 0,0 UV-I 28 W/m² -3,1 °C -1,7 °C 0,0 km/h (0 Bft)
07.02.2017 08:40 -1,7 °C -1,7 °C 90 % 1018,3 hPa 0,0 mm 0,0 km/h (0 Bft) N 0 ° 0 min 0,000 mm 0,0 UV-I 28 W/m² -3,1 °C -1,7 °C 0,0 km/h (0 Bft)
07.02.2017 08:41 -1,7 °C -1,7 °C 90 % 1018,3 hPa 0,0 mm 0,0 km/h (0 Bft) N 0 ° 0 min 0,000 mm 0,0 UV-I 28 W/m² -3,1 °C -1,7 °C 0,0 km/h (0 Bft)
07.02.2017 08:42 -1,7 °C -1,7 °C 90 % 1018,3 hPa 0,0 mm 0,0 km/h (0 Bft) N 0 ° 0 min 0,000 mm 0,0 UV-I 28 W/m² -3,1 °C -1,7 °C 0,0 km/h (0 Bft)
07.02.2017 08:43 -1,7 °C -1,7 °C 90 % 1018,3 hPa 0,0 mm 0,0 km/h (0 Bft) N 0 ° 0 min 0,000 mm 0,0 UV-I 28 W/m² -3,1 °C -1,7 °C 0,0 km/h (0 Bft)
07.02.2017 08:44 -1,7 °C -1,7 °C 90 % 1018,3 hPa 0,0 mm 0,0 km/h (0 Bft) N 0 ° 0 min 0,000 mm 0,0 UV-I 28 W/m² -3,1 °C -1,7 °C 0,0 km/h (0 Bft)
07.02.2017 08:45 -1,7 °C -1,7 °C 90 % 1018,3 hPa 0,0 mm 0,0 km/h (0 Bft) N 0 ° 0 min 0,000 mm 0,0 UV-I 28 W/m² -3,1 °C -1,7 °C 0,0 km/h (0 Bft)
07.02.2017 08:46 -1,7 °C -1,7 °C 90 % 1018,3 hPa 0,0 mm 0,0 km/h (0 Bft) N 0 ° 0 min 0,000 mm 0,0 UV-I 28 W/m² -3,1 °C -1,7 °C 0,0 km/h (0 Bft)
07.02.2017 08:47 -1,8 °C -1,7 °C 90 % 1018,4 hPa 0,0 mm 0,0 km/h (0 Bft) N 0 ° 0 min 0,000 mm 0,0 UV-I 28 W/m² -3,2 °C -1,8 °C 0,0 km/h (0 Bft)
07.02.2017 08:48 -1,8 °C -1,7 °C 90 % 1018,4 hPa 0,0 mm 0,0 km/h (0 Bft) N 0 ° 0 min 0,000 mm 0,0 UV-I 28 W/m² -3,2 °C -1,8 °C 0,0 km/h (0 Bft)
07.02.2017 08:49 -1,8 °C -1,7 °C 91 % 1018,4 hPa 0,0 mm 0,0 km/h (0 Bft) N 0 ° 0 min 0,000 mm 0,0 UV-I 28 W/m² -3,1 °C -1,8 °C 0,0 km/h (0 Bft)
07.02.2017 08:50 -1,8 °C -1,7 °C 91 % 1018,4 hPa 0,0 mm 0,0 km/h (0 Bft) N 0 ° 0 min 0,000 mm 0,0 UV-I 28 W/m² -3,1 °C -1,8 °C 0,0 km/h (0 Bft)
07.02.2017 08:51 -1,8 °C -1,7 °C 91 % 1018,4 hPa 0,0 mm 0,0 km/h (0 Bft) N 0 ° 0 min 0,000 mm 0,0 UV-I 28 W/m² -3,1 °C -1,8 °C 0,0 km/h (0 Bft)
07.02.2017 08:52 -1,8 °C -1,7 °C 91 % 1018,4 hPa 0,0 mm 0,0 km/h (0 Bft) N 0 ° 0 min 0,000 mm 0,0 UV-I 28 W/m² -3,1 °C -1,8 °C 0,0 km/h (0 Bft)
07.02.2017 08:53 -1,8 °C -1,8 °C 91 % 1018,4 hPa 0,0 mm 0,0 km/h (0 Bft) N 0 ° 0 min 0,000 mm 0,0 UV-I 30 W/m² -3,1 °C -1,8 °C 0,0 km/h (0 Bft)
07.02.2017 08:54 -1,8 °C -1,8 °C 91 % 1018,4 hPa 0,0 mm 1,6 km/h (1 Bft) W-NW 292 ° 0 min 0,000 mm 0,0 UV-I 30 W/m² -3,1 °C -1,8 °C 1,6 km/h (1 Bft)
07.02.2017 08:55 -1,8 °C -1,8 °C 91 % 1018,4 hPa 0,0 mm 1,6 km/h (1 Bft) W-NW 292 ° 0 min 0,000 mm 0,0 UV-I 32 W/m² -3,1 °C -1,8 °C 1,6 km/h (1 Bft)
07.02.2017 08:56 -1,7 °C -1,7 °C 91 % 1018,4 hPa 0,0 mm 1,6 km/h (1 Bft) W-NW 292 ° 0 min 0,000 mm 0,0 UV-I 32 W/m² -3,0 °C -1,7 °C 3,2 km/h (1 Bft)
07.02.2017 08:57 -1,8 °C -1,7 °C 91 % 1018,5 hPa 0,0 mm 1,6 km/h (1 Bft) W-NW 292 ° 0 min 0,000 mm 0,0 UV-I 32 W/m² -3,1 °C -1,8 °C 3,2 km/h (1 Bft)
07.02.2017 08:58 -1,7 °C -1,7 °C 91 % 1018,4 hPa 0,0 mm 0,0 km/h (0 Bft) W-NW 292 ° 0 min 0,000 mm 0,0 UV-I 32 W/m² -3,0 °C -1,7 °C 1,6 km/h (1 Bft)
07.02.2017 08:59 -1,7 °C -1,7 °C 91 % 1018,4 hPa 0,0 mm 0,0 km/h (0 Bft) N 0 ° 0 min 0,000 mm 0,0 UV-I 32 W/m² -3,0 °C -1,7 °C 0,0 km/h (0 Bft)
07.02.2017 09:00 -1,7 °C -1,7 °C 91 % 1018,4 hPa 0,0 mm 0,0 km/h (0 Bft) N 0 ° 0 min 0,000 mm 0,0 UV-I 32 W/m² -3,0 °C -1,7 °C 0,0 km/h (0 Bft)
07.02.2017 09:01 -1,7 °C -1,7 °C 91 % 1018,4 hPa 0,0 mm 0,0 km/h (0 Bft) N 0 ° 0 min 0,000 mm 0,0 UV-I 32 W/m² -3,0 °C -1,7 °C 0,0 km/h (0 Bft)
07.02.2017 09:02 -1,7 °C -1,7 °C 91 % 1018,4 hPa 0,0 mm 0,0 km/h (0 Bft) W-NW 292 ° 0 min 0,000 mm 0,0 UV-I 30 W/m² -3,0 °C -1,7 °C 1,6 km/h (1 Bft)
07.02.2017 09:03 -1,7 °C -1,7 °C 91 % 1018,4 hPa 0,0 mm 1,6 km/h (1 Bft) W-NW 292 ° 0 min 0,000 mm 0,0 UV-I 30 W/m² -3,0 °C -1,7 °C 1,6 km/h (1 Bft)
07.02.2017 09:04 -1,7 °C -1,7 °C 91 % 1018,3 hPa 0,0 mm 0,0 km/h (0 Bft) W-NW 292 ° 0 min 0,000 mm 0,0 UV-I 32 W/m² -3,0 °C -1,7 °C 1,6 km/h (1 Bft)
07.02.2017 09:05 -1,7 °C -1,7 °C 91 % 1018,3 hPa 0,0 mm 0,0 km/h (0 Bft) N 0 ° 0 min 0,000 mm 0,0 UV-I 32 W/m² -3,0 °C -1,7 °C 0,0 km/h (0 Bft)
07.02.2017 09:06 -1,7 °C -1,7 °C 91 % 1018,3 hPa 0,0 mm 0,0 km/h (0 Bft) N 0 ° 0 min 0,000 mm 0,0 UV-I 32 W/m² -3,0 °C -1,7 °C 0,0 km/h (0 Bft)
07.02.2017 09:07 -1,7 °C -1,7 °C 91 % 1018,3 hPa 0,0 mm 0,0 km/h (0 Bft) W-NW 292 ° 0 min 0,000 mm 0,0 UV-I 32 W/m² -3,0 °C -1,7 °C 1,6 km/h (1 Bft)
07.02.2017 09:09 -1,7 °C -1,6 °C 91 % 1018,2 hPa 0,0 mm 1,1 km/h (1 Bft) W-NW 294 ° 0 min 0,000 mm 0,0 UV-I 32 W/m² -3,0 °C -1,7 °C 1,6 km/h (1 Bft)
07.02.2017 09:10 -1,6 °C -1,6 °C 91 % 1018,2 hPa 0,0 mm 1,3 km/h (1 Bft) W-NW 294 ° 0 min 0,000 mm 0,0 UV-I 32 W/m² -2,9 °C -1,6 °C 3,2 km/h (1 Bft)
07.02.2017 09:11 -1,6 °C -1,6 °C 91 % 1018,2 hPa 0,0 mm 0,1 km/h (0 Bft) W-NW 294 ° 0 min 0,000 mm 0,0 UV-I 32 W/m² -2,9 °C -1,6 °C 1,6 km/h (1 Bft)
07.02.2017 09:12 -1,6 °C -1,6 °C 91 % 1018,2 hPa 0,0 mm 0,0 km/h (0 Bft) W-NW 294 ° 0 min 0,000 mm 0,0 UV-I 32 W/m² -2,9 °C -1,6 °C 0,0 km/h (0 Bft)
07.02.2017 09:13 -1,6 °C -1,6 °C 91 % 1018,2 hPa 0,0 mm 0,1 km/h (0 Bft) W-NW 294 ° 0 min 0,000 mm 0,0 UV-I 32 W/m² -2,9 °C -1,6 °C 1,6 km/h (1 Bft)
07.02.2017 09:14 -1,6 °C -1,6 °C 91 % 1018,2 hPa 0,0 mm 0,3 km/h (0 Bft) W-NW 294 ° 0 min 0,000 mm 0,0 UV-I 32 W/m² -2,9 °C -1,6 °C 1,6 km/h (1 Bft)
07.02.2017 09:15 -1,6 °C -1,6 °C 91 % 1018,2 hPa 0,0 mm 0,0 km/h (0 Bft) W-NW 294 ° 0 min 0,000 mm 0,0 UV-I 33 W/m² -2,9 °C -1,6 °C 0,0 km/h (0 Bft)
07.02.2017 09:16 -1,5 °C -1,5 °C 91 % 1018,2 hPa 0,0 mm 0,0 km/h (0 Bft) W-NW 294 ° 0 min 0,000 mm 0,0 UV-I 33 W/m² -2,8 °C -1,5 °C 0,0 km/h (0 Bft)
07.02.2017 09:17 -1,5 °C -1,5 °C 91 % 1018,1 hPa 0,0 mm 0,2 km/h (0 Bft) W-NW 294 ° 0 min 0,000 mm 0,0 UV-I 32 W/m² -2,8 °C -1,5 °C 1,6 km/h (1 Bft)
07.02.2017 09:18 -1,5 °C -1,5 °C 91 % 1018,1 hPa 0,0 mm 0,1 km/h (0 Bft) W-NW 294 ° 0 min 0,000 mm 0,0 UV-I 35 W/m² -2,8 °C -1,5 °C 1,6 km/h (1 Bft)
07.02.2017 09:19 -1,5 °C -1,4 °C 91 % 1018,2 hPa 0,0 mm 0,0 km/h (0 Bft) W-NW 294 ° 0 min 0,000 mm 0,0 UV-I 35 W/m² -2,8 °C -1,5 °C 0,0 km/h (0 Bft)
07.02.2017 09:20 -1,4 °C -1,4 °C 91 % 1018,1 hPa 0,0 mm 0,0 km/h (0 Bft) W-NW 294 ° 0 min 0,000 mm 0,0 UV-I 33 W/m² -2,7 °C -1,4 °C 0,0 km/h (0 Bft)
07.02.2017 09:21 -1,4 °C -1,4 °C 91 % 1018,0 hPa 0,0 mm 0,0 km/h (0 Bft) W-NW 294 ° 0 min 0,000 mm 0,0 UV-I 33 W/m² -2,7 °C -1,4 °C 0,0 km/h (0 Bft)
07.02.2017 09:22 -1,4 °C -1,4 °C 92 % 1018,0 hPa 0,0 mm 0,0 km/h (0 Bft) W-NW 294 ° 0 min 0,000 mm 0,0 UV-I 35 W/m² -2,5 °C -1,4 °C 0,0 km/h (0 Bft)
07.02.2017 09:23 -1,4 °C -1,4 °C 92 % 1018,0 hPa 0,0 mm 0,0 km/h (0 Bft) W-NW 294 ° 0 min 0,000 mm 0,0 UV-I 37 W/m² -2,5 °C -1,4 °C 0,0 km/h (0 Bft)
07.02.2017 09:24 -1,4 °C -1,4 °C 92 % 1018,0 hPa 0,0 mm 0,0 km/h (0 Bft) W-NW 294 ° 0 min 0,000 mm 0,0 UV-I 32 W/m² -2,5 °C -1,4 °C 0,0 km/h (0 Bft)
07.02.2017 09:25 -1,4 °C -1,4 °C 91 % 1018,0 hPa 0,0 mm 0,0 km/h (0 Bft) W-NW 294 ° 0 min 0,000 mm 0,0 UV-I 32 W/m² -2,7 °C -1,4 °C 0,0 km/h (0 Bft)
07.02.2017 09:26 -1,4 °C -1,4 °C 91 % 1017,9 hPa 0,0 mm 0,0 km/h (0 Bft) W-NW 294 ° 0 min 0,000 mm 0,0 UV-I 32 W/m² -2,7 °C -1,4 °C 0,0 km/h (0 Bft)
07.02.2017 09:27 -1,3 °C -1,3 °C 91 % 1017,9 hPa 0,0 mm 0,3 km/h (0 Bft) W-NW 294 ° 0 min 0,000 mm 0,0 UV-I 32 W/m² -2,6 °C -1,3 °C 1,6 km/h (1 Bft)
07.02.2017 09:28 -1,3 °C -1,3 °C 91 % 1017,9 hPa 0,0 mm 1,5 km/h (1 Bft) W-NW 294 ° 0 min 0,000 mm 0,0 UV-I 32 W/m² -2,6 °C -1,3 °C 1,6 km/h (1 Bft)
07.02.2017 09:29 -1,3 °C -1,3 °C 91 % 1017,9 hPa 0,0 mm 0,8 km/h (0 Bft) W-NW 294 ° 0 min 0,000 mm 0,0 UV-I 32 W/m² -2,6 °C -1,3 °C 1,6 km/h (1 Bft)
07.02.2017 09:30 -1,3 °C -1,3 °C 91 % 1017,9 hPa 0,0 mm 0,1 km/h (0 Bft) W-NW 294 ° 0 min 0,000 mm 0,0 UV-I 33 W/m² -2,6 °C -1,3 °C 1,6 km/h (1 Bft)
07.02.2017 09:31 -1,3 °C -1,3 °C 91 % 1017,8 hPa 0,0 mm 0,0 km/h (0 Bft) W-NW 294 ° 0 min 0,000 mm 0,0 UV-I 35 W/m² -2,6 °C -1,3 °C 0,0 km/h (0 Bft)
07.02.2017 09:32 -1,3 °C -1,3 °C 91 % 1017,8 hPa 0,0 mm 0,0 km/h (0 Bft) W-NW 294 ° 0 min 0,000 mm 0,0 UV-I 35 W/m² -2,6 °C -1,3 °C 0,0 km/h (0 Bft)
07.02.2017 09:33 -1,2 °C -1,2 °C 91 % 1017,8 hPa 0,0 mm 0,4 km/h (0 Bft) W-NW 294 ° 0 min 0,000 mm 0,0 UV-I 33 W/m² -2,5 °C -1,2 °C 1,6 km/h (1 Bft)
07.02.2017 09:34 -1,2 °C -1,2 °C 91 % 1017,8 hPa 0,0 mm 0,5 km/h (0 Bft) W-NW 294 ° 0 min 0,000 mm 0,0 UV-I 33 W/m² -2,5 °C -1,2 °C 1,6 km/h (1 Bft)
07.02.2017 09:35 -1,2 °C -1,2 °C 91 % 1017,8 hPa 0,0 mm 0,0 km/h (0 Bft) W-NW 294 ° 0 min 0,000 mm 0,0 UV-I 35 W/m² -2,5 °C -1,2 °C 0,0 km/h (0 Bft)
07.02.2017 09:36 -1,2 °C -1,2 °C 91 % 1017,8 hPa 0,0 mm 0,0 km/h (0 Bft) W-NW 294 ° 0 min 0,000 mm 0,0 UV-I 40 W/m² -2,5 °C -1,2 °C 0,0 km/h (0 Bft)
07.02.2017 09:37 -1,2 °C -1,2 °C 91 % 1017,9 hPa 0,0 mm 0,0 km/h (0 Bft) W-NW 294 ° 0 min 0,000 mm 0,0 UV-I 39 W/m² -2,5 °C -1,2 °C 0,0 km/h (0 Bft)
07.02.2017 09:38 -1,2 °C -1,1 °C 91 % 1017,9 hPa 0,0 mm 0,0 km/h (0 Bft) W-NW 294 ° 0 min 0,000 mm 0,0 UV-I 39 W/m² -2,5 °C -1,2 °C 0,0 km/h (0 Bft)
07.02.2017 09:39 -1,1 °C -1,1 °C 91 % 1017,8 hPa 0,0 mm 0,5 km/h (0 Bft) W-NW 294 ° 0 min 0,000 mm 0,0 UV-I 37 W/m² -2,4 °C -1,1 °C 1,6 km/h (1 Bft)
07.02.2017 09:40 -1,1 °C -1,1 °C 91 % 1017,8 hPa 0,0 mm 0,2 km/h (0 Bft) W-NW 294 ° 0 min 0,000 mm 0,0 UV-I 35 W/m² -2,4 °C -1,1 °C 1,6 km/h (1 Bft)
07.02.2017 09:41 -1,1 °C -1,1 °C 91 % 1017,9 hPa 0,0 mm 0,0 km/h (0 Bft) W-NW 294 ° 0 min 0,000 mm 0,0 UV-I 35 W/m² -2,4 °C -1,1 °C 0,0 km/h (0 Bft)
07.02.2017 09:42 -1,1 °C -1,1 °C 91 % 1017,9 hPa 0,0 mm 0,0 km/h (0 Bft) W-NW 294 ° 0 min 0,000 mm 0,0 UV-I 35 W/m² -2,4 °C -1,1 °C 0,0 km/h (0 Bft)
07.02.2017 09:43 -1,1 °C -1,1 °C 90 % 1017,9 hPa 0,0 mm 0,0 km/h (0 Bft) W-NW 294 ° 0 min 0,000 mm 0,0 UV-I 35 W/m² -2,5 °C -1,1 °C 0,0 km/h (0 Bft)
07.02.2017 09:44 -1,1 °C -1,1 °C 90 % 1017,9 hPa 0,0 mm 0,0 km/h (0 Bft) W-NW 294 ° 0 min 0,000 mm 0,0 UV-I 35 W/m² -2,5 °C -1,1 °C 0,0 km/h (0 Bft)
07.02.2017 09:45 -1,1 °C -1,1 °C 90 % 1017,9 hPa 0,0 mm 0,0 km/h (0 Bft) W-NW 294 ° 0 min 0,000 mm 0,0 UV-I 35 W/m² -2,5 °C -1,1 °C 0,0 km/h (0 Bft)
07.02.2017 09:46 -1,1 °C -1,1 °C 90 % 1017,9 hPa 0,0 mm 0,0 km/h (0 Bft) W-NW 294 ° 0 min 0,000 mm 0,0 UV-I 37 W/m² -2,5 °C -1,1 °C 0,0 km/h (0 Bft)
07.02.2017 09:47 -1,0 °C -1,0 °C 90 % 1017,9 hPa 0,0 mm 0,1 km/h (0 Bft) W-NW 294 ° 0 min 0,000 mm 0,0 UV-I 37 W/m² -2,4 °C -1,0 °C 1,6 km/h (1 Bft)
07.02.2017 09:48 -0,9 °C -0,9 °C 90 % 1017,9 hPa 0,0 mm 0,0 km/h (0 Bft) W-NW 294 ° 0 min 0,000 mm 0,0 UV-I 39 W/m² -2,3 °C -0,9 °C 0,0 km/h (0 Bft)
07.02.2017 09:49 -0,9 °C -0,9 °C 90 % 1017,9 hPa 0,0 mm 0,0 km/h (0 Bft) W-NW 294 ° 0 min 0,000 mm 0,0 UV-I 39 W/m² -2,3 °C -0,9 °C 0,0 km/h (0 Bft)
07.02.2017 09:50 -0,9 °C -0,9 °C 90 % 1017,9 hPa 0,0 mm 0,2 km/h (0 Bft) W-NW 294 ° 0 min 0,000 mm 0,0 UV-I 40 W/m² -2,3 °C -0,9 °C 1,6 km/h (1 Bft)
07.02.2017 09:51 -0,9 °C -0,9 °C 90 % 1017,9 hPa 0,0 mm 0,0 km/h (0 Bft) W-NW 294 ° 0 min 0,000 mm 0,0 UV-I 42 W/m² -2,3 °C -0,9 °C 0,0 km/h (0 Bft)
07.02.2017 09:52 -0,8 °C -0,8 °C 90 % 1017,9 hPa 0,0 mm 0,1 km/h (0 Bft) W-NW 294 ° 0 min 0,000 mm 0,0 UV-I 44 W/m² -2,2 °C -0,8 °C 1,6 km/h (1 Bft)
07.02.2017 09:53 -0,8 °C -0,8 °C 89 % 1017,9 hPa 0,0 mm 0,0 km/h (0 Bft) W-NW 294 ° 0 min 0,000 mm 0,0 UV-I 47 W/m² -2,4 °C -0,8 °C 0,0 km/h (0 Bft)
07.02.2017 09:54 -0,8 °C -0,8 °C 89 % 1017,9 hPa 0,0 mm 0,0 km/h (0 Bft) W-NW 294 ° 0 min 0,000 mm 0,0 UV-I 47 W/m² -2,4 °C -0,8 °C 0,0 km/h (0 Bft)
07.02.2017 09:55 -0,8 °C -0,7 °C 89 % 1017,9 hPa 0,0 mm 0,0 km/h (0 Bft) W-NW 294 ° 0 min 0,000 mm 0,0 UV-I 46 W/m² -2,4 °C -0,8 °C 0,0 km/h (0 Bft)
07.02.2017 09:56 -0,7 °C -0,7 °C 89 % 1017,9 hPa 0,0 mm 0,0 km/h (0 Bft) W-NW 294 ° 0 min 0,000 mm 0,0 UV-I 44 W/m² -2,3 °C -0,7 °C 0,0 km/h (0 Bft)
07.02.2017 09:57 -0,7 °C -0,7 °C 89 % 1017,9 hPa 0,0 mm 0,0 km/h (0 Bft) W-NW 294 ° 0 min 0,000 mm 0,0 UV-I 44 W/m² -2,3 °C -0,7 °C 0,0 km/h (0 Bft)
07.02.2017 09:58 -0,7 °C -0,7 °C 89 % 1017,9 hPa 0,0 mm 0,0 km/h (0 Bft) W-NW 294 ° 0 min 0,000 mm 0,0 UV-I 35 W/m² -2,3 °C -0,7 °C 0,0 km/h (0 Bft)
07.02.2017 09:59 -0,7 °C -0,7 °C 89 % 1017,9 hPa 0,0 mm 0,6 km/h (0 Bft) W-NW 294 ° 0 min 0,000 mm 0,0 UV-I 33 W/m² -2,3 °C -0,7 °C 1,6 km/h (1 Bft)
07.02.2017 10:00 -0,7 °C -0,7 °C 89 % 1017,8 hPa 0,0 mm 0,3 km/h (0 Bft) W-NW 294 ° 0 min 0,000 mm 0,0 UV-I 35 W/m² -2,3 °C -0,7 °C 1,6 km/h (1 Bft)
07.02.2017 10:01 -0,6 °C -0,6 °C 89 % 1017,8 hPa 0,0 mm 0,0 km/h (0 Bft) W-NW 294 ° 0 min 0,000 mm 0,0 UV-I 35 W/m² -2,2 °C -0,6 °C 0,0 km/h (0 Bft)
07.02.2017 10:02 -0,6 °C -0,6 °C 89 % 1017,8 hPa 0,0 mm 0,0 km/h (0 Bft) W-NW 294 ° 0 min 0,000 mm 0,0 UV-I 35 W/m² -2,2 °C -0,6 °C 0,0 km/h (0 Bft)
07.02.2017 10:03 -0,6 °C -0,6 °C 88 % 1017,8 hPa 0,0 mm 0,0 km/h (0 Bft) W-NW 294 ° 0 min 0,000 mm 0,0 UV-I 35 W/m² -2,3 °C -0,6 °C 0,0 km/h (0 Bft)
07.02.2017 10:04 -0,6 °C -0,6 °C 88 % 1017,8 hPa 0,0 mm 0,0 km/h (0 Bft) W-NW 294 ° 0 min 0,000 mm 0,0 UV-I 35 W/m² -2,3 °C -0,6 °C 0,0 km/h (0 Bft)
07.02.2017 10:05 -0,5 °C -0,5 °C 88 % 1017,8 hPa 0,0 mm 0,0 km/h (0 Bft) W-NW 294 ° 0 min 0,000 mm 0,0 UV-I 35 W/m² -2,2 °C -0,5 °C 0,0 km/h (0 Bft)
07.02.2017 10:06 -0,5 °C -0,5 °C 88 % 1017,8 hPa 0,0 mm 0,0 km/h (0 Bft) W-NW 294 ° 0 min 0,000 mm 0,0 UV-I 37 W/m² -2,2 °C -0,5 °C 0,0 km/h (0 Bft)
07.02.2017 10:07 -0,4 °C -0,4 °C 88 % 1017,8 hPa 0,0 mm 0,0 km/h (0 Bft) W-NW 294 ° 0 min 0,000 mm 0,0 UV-I 37 W/m² -2,1 °C -0,4 °C 0,0 km/h (0 Bft)
07.02.2017 10:08 -0,4 °C -0,4 °C 88 % 1017,8 hPa 0,0 mm 0,0 km/h (0 Bft) W-NW 294 ° 0 min 0,000 mm 0,0 UV-I 40 W/m² -2,1 °C -0,4 °C 0,0 km/h (0 Bft)
07.02.2017 10:09 -0,4 °C -0,4 °C 88 % 1017,8 hPa 0,0 mm 0,0 km/h (0 Bft) W-NW 294 ° 0 min 0,000 mm 0,0 UV-I 42 W/m² -2,1 °C -0,4 °C 0,0 km/h (0 Bft)
07.02.2017 10:10 -0,4 °C -0,4 °C 88 % 1017,7 hPa 0,0 mm 0,0 km/h (0 Bft) W-NW 294 ° 0 min 0,000 mm 0,0 UV-I 40 W/m² -2,1 °C -0,4 °C 0,0 km/h (0 Bft)
07.02.2017 10:11 -0,3 °C -0,3 °C 88 % 1017,7 hPa 0,0 mm 0,0 km/h (0 Bft) W-NW 294 ° 0 min 0,000 mm 0,0 UV-I 37 W/m² -2,0 °C -0,3 °C 0,0 km/h (0 Bft)
07.02.2017 10:12 -0,3 °C -0,3 °C 87 % 1017,7 hPa 0,0 mm 0,0 km/h (0 Bft) W-NW 294 ° 0 min 0,000 mm 0,0 UV-I 37 W/m² -2,2 °C -0,3 °C 0,0 km/h (0 Bft)
07.02.2017 10:13 -0,3 °C -0,3 °C 87 % 1017,7 hPa 0,0 mm 0,0 km/h (0 Bft) W-NW 294 ° 0 min 0,000 mm 0,0 UV-I 35 W/m² -2,2 °C -0,3 °C 0,0 km/h (0 Bft)
07.02.2017 10:14 -0,3 °C -0,3 °C 87 % 1017,7 hPa 0,0 mm 0,0 km/h (0 Bft) W-NW 294 ° 0 min 0,000 mm 0,0 UV-I 37 W/m² -2,2 °C -0,3 °C 0,0 km/h (0 Bft)
07.02.2017 10:15 -0,3 °C -0,3 °C 87 % 1017,7 hPa 0,0 mm 0,0 km/h (0 Bft) W-NW 294 ° 0 min 0,000 mm 0,0 UV-I 39 W/m² -2,2 °C -0,3 °C 0,0 km/h (0 Bft)
07.02.2017 10:16 -0,3 °C -0,3 °C 87 % 1017,7 hPa 0,0 mm 0,7 km/h (0 Bft) W-NW 294 ° 0 min 0,000 mm 0,0 UV-I 37 W/m² -2,2 °C -0,3 °C 1,6 km/h (1 Bft)
07.02.2017 10:17 -0,3 °C -0,3 °C 87 % 1017,6 hPa 0,0 mm 0,1 km/h (0 Bft) W-NW 294 ° 0 min 0,000 mm 0,0 UV-I 40 W/m² -2,2 °C -0,3 °C 1,6 km/h (1 Bft)
07.02.2017 10:18 -0,3 °C -0,3 °C 87 % 1017,6 hPa 0,0 mm 0,0 km/h (0 Bft) W-NW 294 ° 0 min 0,000 mm 0,0 UV-I 42 W/m² -2,2 °C -0,3 °C 0,0 km/h (0 Bft)
07.02.2017 10:19 -0,3 °C -0,3 °C 87 % 1017,6 hPa 0,0 mm 0,1 km/h (0 Bft) W-NW 294 ° 0 min 0,000 mm 0,0 UV-I 49 W/m² -2,2 °C -0,3 °C 1,6 km/h (1 Bft)
07.02.2017 10:20 -0,3 °C -0,2 °C 87 % 1017,6 hPa 0,0 mm 0,6 km/h (0 Bft) W-NW 294 ° 0 min 0,000 mm 0,0 UV-I 51 W/m² -2,2 °C -0,3 °C 1,6 km/h (1 Bft)
07.02.2017 10:21 -0,1 °C -0,1 °C 86 % 1017,6 hPa 0,0 mm 0,5 km/h (0 Bft) W-NW 294 ° 0 min 0,000 mm 0,0 UV-I 54 W/m² -2,2 °C -0,1 °C 1,6 km/h (1 Bft)
07.02.2017 10:22 0,0 °C 0,0 °C 86 % 1017,6 hPa 0,0 mm 0,0 km/h (0 Bft) W-NW 294 ° 0 min 0,000 mm 0,0 UV-I 49 W/m² -2,1 °C 0,0 °C 0,0 km/h (0 Bft)
07.02.2017 10:23 0,2 °C 0,2 °C 85 % 1017,5 hPa 0,0 mm 0,0 km/h (0 Bft) W-NW 294 ° 0 min 0,000 mm 0,0 UV-I 40 W/m² -2,0 °C 0,2 °C 0,0 km/h (0 Bft)
07.02.2017 10:24 0,4 °C 0,4 °C 85 % 1017,5 hPa 0,0 mm 0,7 km/h (0 Bft) W-NW 294 ° 0 min 0,000 mm 0,0 UV-I 40 W/m² -1,8 °C 0,4 °C 3,2 km/h (1 Bft)
07.02.2017 10:25 0,5 °C 0,5 °C 84 % 1017,5 hPa 0,0 mm 1,9 km/h (1 Bft) W-NW 296 ° 0 min 0,000 mm 0,0 UV-I 40 W/m² -1,9 °C 0,5 °C 3,2 km/h (1 Bft)
07.02.2017 10:26 0,6 °C 0,6 °C 84 % 1017,5 hPa 0,0 mm 1,5 km/h (1 Bft) W-NW 296 ° 0 min 0,000 mm 0,0 UV-I 37 W/m² -1,8 °C 0,6 °C 3,2 km/h (1 Bft)
07.02.2017 10:27 0,7 °C 0,7 °C 83 % 1017,4 hPa 0,0 mm 0,3 km/h (0 Bft) W-NW 296 ° 0 min 0,000 mm 0,0 UV-I 37 W/m² -1,8 °C 0,7 °C 1,6 km/h (1 Bft)
07.02.2017 10:28 0,8 °C 0,8 °C 83 % 1017,4 hPa 0,0 mm 0,8 km/h (0 Bft) NW 309 ° 0 min 0,000 mm 0,0 UV-I 35 W/m² -1,8 °C 0,8 °C 3,2 km/h (1 Bft)
07.02.2017 10:29 0,8 °C 0,8 °C 82 % 1017,4 hPa 0,0 mm 1,7 km/h (1 Bft) NW 309 ° 0 min 0,000 mm 0,0 UV-I 37 W/m² -1,9 °C 0,8 °C 3,2 km/h (1 Bft)
07.02.2017 10:30 0,8 °C 0,8 °C 82 % 1017,4 hPa 0,0 mm 1,5 km/h (1 Bft) NO 41 ° 0 min 0,000 mm 0,0 UV-I 37 W/m² -1,9 °C 0,8 °C 3,2 km/h (1 Bft)
07.02.2017 10:31 0,8 °C 0,8 °C 82 % 1017,4 hPa 0,0 mm 1,7 km/h (1 Bft) NO 41 ° 0 min 0,000 mm 0,0 UV-I 39 W/m² -1,9 °C 0,8 °C 3,2 km/h (1 Bft)
07.02.2017 10:32 0,8 °C 0,8 °C 82 % 1017,4 hPa 0,0 mm 2,5 km/h (1 Bft) O 82 ° 0 min 0,000 mm 0,0 UV-I 39 W/m² -1,9 °C 0,8 °C 3,2 km/h (1 Bft)
07.02.2017 10:33 0,9 °C 0,9 °C 82 % 1017,4 hPa 0,0 mm 1,9 km/h (1 Bft) NO 49 ° 0 min 0,000 mm 0,0 UV-I 39 W/m² -1,8 °C 0,9 °C 8,0 km/h (2 Bft)
07.02.2017 10:34 0,9 °C 0,9 °C 82 % 1017,4 hPa 0,0 mm 4,8 km/h (1 Bft) SO 136 ° 0 min 0,000 mm 0,0 UV-I 37 W/m² -1,8 °C -0,5 °C 8,0 km/h (2 Bft)
07.02.2017 10:35 0,9 °C 0,9 °C 82 % 1017,4 hPa 0,0 mm 4,1 km/h (1 Bft) O-NO 61 ° 0 min 0,000 mm 0,0 UV-I 37 W/m² -1,8 °C 0,9 °C 9,7 km/h (2 Bft)
07.02.2017 10:36 1,0 °C 1,1 °C 82 % 1017,3 hPa 0,0 mm 8,0 km/h (2 Bft) SO 132 ° 0 min 0,000 mm 0,0 UV-I 37 W/m² -1,7 °C -1,6 °C 11,3 km/h (2 Bft)
07.02.2017 10:37 1,1 °C 1,1 °C 82 % 1017,3 hPa 0,0 mm 7,4 km/h (2 Bft) O-NO 74 ° 0 min 0,000 mm 0,0 UV-I 37 W/m² -1,6 °C -1,3 °C 11,3 km/h (2 Bft)
07.02.2017 10:38 1,1 °C 1,1 °C 82 % 1017,3 hPa 0,0 mm 6,0 km/h (2 Bft) NO 51 ° 0 min 0,000 mm 0,0 UV-I 35 W/m² -1,6 °C -0,8 °C 9,7 km/h (2 Bft)
07.02.2017 10:39 1,1 °C 1,1 °C 81 % 1017,3 hPa 0,0 mm 7,4 km/h (2 Bft) O-NO 72 ° 0 min 0,000 mm 0,0 UV-I 37 W/m² -1,8 °C -1,3 °C 12,9 km/h (3 Bft)
07.02.2017 10:40 1,1 °C 1,1 °C 81 % 1017,3 hPa 0,0 mm 5,7 km/h (1 Bft) O-NO 74 ° 0 min 0,000 mm 0,0 UV-I 35 W/m² -1,8 °C -0,6 °C 11,3 km/h (2 Bft)
07.02.2017 10:41 1,1 °C 1,1 °C 82 % 1017,4 hPa 0,0 mm 5,2 km/h (1 Bft) O-NO 59 ° 0 min 0,000 mm 0,0 UV-I 35 W/m² -1,6 °C -0,4 °C 6,4 km/h (2 Bft)
07.02.2017 10:42 1,0 °C 1,1 °C 82 % 1017,3 hPa 0,0 mm 3,9 km/h (1 Bft) O-NO 76 ° 0 min 0,000 mm 0,0 UV-I 35 W/m² -1,7 °C 1,0 °C 6,4 km/h (2 Bft)
07.02.2017 10:43 1,0 °C 1,0 °C 82 % 1017,3 hPa 0,0 mm 5,7 km/h (1 Bft) NO 42 ° 0 min 0,000 mm 0,0 UV-I 35 W/m² -1,7 °C -0,8 °C 8,0 km/h (2 Bft)
07.02.2017 10:44 0,9 °C 1,0 °C 82 % 1017,3 hPa 0,0 mm 4,6 km/h (1 Bft) O-SO 111 ° 0 min 0,000 mm 0,0 UV-I 35 W/m² -1,8 °C -0,4 °C 6,4 km/h (2 Bft)
07.02.2017 10:45 1,0 °C 1,0 °C 82 % 1017,3 hPa 0,0 mm 2,5 km/h (1 Bft) O 96 ° 0 min 0,000 mm 0,0 UV-I 35 W/m² -1,7 °C 1,0 °C 4,8 km/h (1 Bft)
07.02.2017 10:46 1,0 °C 1,0 °C 82 % 1017,3 hPa 0,0 mm 2,1 km/h (1 Bft) O-NO 78 ° 0 min 0,000 mm 0,0 UV-I 35 W/m² -1,7 °C 1,0 °C 3,2 km/h (1 Bft)
07.02.2017 10:47 1,1 °C 1,1 °C 82 % 1017,4 hPa 0,0 mm 4,2 km/h (1 Bft) O-NO 76 ° 0 min 0,000 mm 0,0 UV-I 35 W/m² -1,6 °C 1,1 °C 6,4 km/h (2 Bft)
07.02.2017 10:48 1,1 °C 1,1 °C 81 % 1017,4 hPa 0,0 mm 1,0 km/h (0 Bft) O-NO 76 ° 0 min 0,000 mm 0,0 UV-I 35 W/m² -1,8 °C 1,1 °C 3,2 km/h (1 Bft)
07.02.2017 10:49 1,1 °C 1,1 °C 81 % 1017,3 hPa 0,0 mm 1,5 km/h (1 Bft) O-NO 76 ° 0 min 0,000 mm 0,0 UV-I 35 W/m² -1,8 °C 1,1 °C 3,2 km/h (1 Bft)
07.02.2017 10:50 1,2 °C 1,2 °C 81 % 1017,4 hPa 0,0 mm 5,4 km/h (1 Bft) O-NO 71 ° 0 min 0,000 mm 0,0 UV-I 35 W/m² -1,7 °C -0,4 °C 8,0 km/h (2 Bft)
07.02.2017 10:51 1,2 °C 1,2 °C 81 % 1017,4 hPa 0,0 mm 1,9 km/h (1 Bft) O-NO 71 ° 0 min 0,000 mm 0,0 UV-I 35 W/m² -1,7 °C 1,2 °C 3,2 km/h (1 Bft)
07.02.2017 10:52 1,3 °C 1,3 °C 81 % 1017,4 hPa 0,0 mm 5,0 km/h (1 Bft) O-NO 59 ° 0 min 0,000 mm 0,0 UV-I 35 W/m² -1,6 °C -0,1 °C 8,0 km/h (2 Bft)
07.02.2017 10:53 1,3 °C 1,3 °C 81 % 1017,4 hPa 0,0 mm 4,9 km/h (1 Bft) NO 56 ° 0 min 0,000 mm 0,0 UV-I 35 W/m² -1,6 °C -0,1 °C 8,0 km/h (2 Bft)
07.02.2017 10:54 1,3 °C 1,3 °C 80 % 1017,4 hPa 0,0 mm 4,9 km/h (1 Bft) O 82 ° 0 min 0,000 mm 0,0 UV-I 35 W/m² -1,8 °C -0,1 °C 8,0 km/h (2 Bft)
07.02.2017 10:55 1,4 °C 1,4 °C 80 % 1017,4 hPa 0,0 mm 5,2 km/h (1 Bft) O-NO 76 ° 0 min 0,000 mm 0,0 UV-I 35 W/m² -1,7 °C -0,1 °C 8,0 km/h (2 Bft)
07.02.2017 10:56 1,4 °C 1,4 °C 80 % 1017,4 hPa 0,0 mm 5,4 km/h (1 Bft) O-NO 59 ° 0 min 0,000 mm 0,0 UV-I 35 W/m² -1,7 °C -0,2 °C 8,0 km/h (2 Bft)
07.02.2017 10:57 1,4 °C 1,4 °C 80 % 1017,4 hPa 0,0 mm 3,7 km/h (1 Bft) N-NO 26 ° 0 min 0,000 mm 0,0 UV-I 35 W/m² -1,7 °C 1,4 °C 6,4 km/h (2 Bft)
07.02.2017 10:58 1,4 °C 1,4 °C 80 % 1017,4 hPa 0,0 mm 3,9 km/h (1 Bft) O-NO 63 ° 0 min 0,000 mm 0,0 UV-I 35 W/m² -1,7 °C 1,4 °C 6,4 km/h (2 Bft)
07.02.2017 10:59 1,4 °C 1,4 °C 80 % 1017,4 hPa 0,0 mm 4,5 km/h (1 Bft) O-NO 74 ° 0 min 0,000 mm 0,0 UV-I 35 W/m² -1,7 °C 1,4 °C 8,0 km/h (2 Bft)
07.02.2017 11:00 1,4 °C 1,4 °C 80 % 1017,4 hPa 0,0 mm 4,9 km/h (1 Bft) O-NO 71 ° 0 min 0,000 mm 0,0 UV-I 35 W/m² -1,7 °C 0,0 °C 6,4 km/h (2 Bft)
07.02.2017 11:01 1,3 °C 1,4 °C 80 % 1017,3 hPa 0,0 mm 6,2 km/h (2 Bft) O-NO 67 ° 0 min 0,025 mm 0,0 UV-I 37 W/m² -1,8 °C -0,6 °C 8,0 km/h (2 Bft)
07.02.2017 11:02 1,3 °C 1,3 °C 81 % 1017,4 hPa 0,0 mm 2,7 km/h (1 Bft) O-NO 72 ° 0 min 0,000 mm 0,0 UV-I 39 W/m² -1,6 °C 1,3 °C 4,8 km/h (1 Bft)
07.02.2017 11:03 1,3 °C 1,3 °C 80 % 1017,3 hPa 0,0 mm 4,1 km/h (1 Bft) O 92 ° 0 min 0,000 mm 0,0 UV-I 72 W/m² -1,8 °C 1,3 °C 4,8 km/h (1 Bft)
07.02.2017 11:04 1,4 °C 1,4 °C 80 % 1017,3 hPa 0,0 mm 8,0 km/h (2 Bft) NO 52 ° 0 min 0,000 mm 1,2 UV-I 77 W/m² -1,7 °C -1,1 °C 14,5 km/h (3 Bft)
07.02.2017 11:05 1,5 °C 1,5 °C 80 % 1017,3 hPa 0,0 mm 6,1 km/h (2 Bft) NO 43 ° 0 min 0,000 mm 1,3 UV-I 72 W/m² -1,6 °C -0,3 °C 8,0 km/h (2 Bft)
07.02.2017 11:06 1,6 °C 1,6 °C 80 % 1017,3 hPa 0,0 mm 5,1 km/h (1 Bft) N-NO 21 ° 0 min 0,000 mm 1,3 UV-I 72 W/m² -1,5 °C 0,2 °C 6,4 km/h (2 Bft)
07.02.2017 11:07 1,7 °C 1,7 °C 80 % 1017,3 hPa 0,0 mm 5,4 km/h (1 Bft) NO 49 ° 0 min 0,000 mm 1,3 UV-I 70 W/m² -1,4 °C 0,2 °C 11,3 km/h (2 Bft)
07.02.2017 11:08 1,7 °C 1,7 °C 80 % 1017,3 hPa 0,0 mm 5,0 km/h (1 Bft) NO 43 ° 0 min 0,000 mm 1,3 UV-I 72 W/m² -1,4 °C 0,3 °C 8,0 km/h (2 Bft)
07.02.2017 11:09 1,7 °C 1,7 °C 80 % 1017,2 hPa 0,0 mm 3,8 km/h (1 Bft) NO 53 ° 0 min 0,000 mm 1,2 UV-I 90 W/m² -1,4 °C 1,7 °C 6,4 km/h (2 Bft)
07.02.2017 11:10 1,7 °C 1,7 °C 80 % 1017,3 hPa 0,0 mm 2,7 km/h (1 Bft) NO 53 ° 0 min 0,000 mm 1,3 UV-I 132 W/m² -1,4 °C 1,7 °C 4,8 km/h (1 Bft)
07.02.2017 11:11 1,6 °C 1,7 °C 80 % 1017,3 hPa 0,0 mm 2,9 km/h (1 Bft) NO 53 ° 0 min 0,000 mm 1,3 UV-I 104 W/m² -1,5 °C 1,6 °C 4,8 km/h (1 Bft)
07.02.2017 11:12 1,6 °C 1,7 °C 80 % 1017,3 hPa 0,0 mm 6,6 km/h (2 Bft) NO 48 ° 0 min 0,000 mm 1,3 UV-I 67 W/m² -1,5 °C -0,4 °C 11,3 km/h (2 Bft)
07.02.2017 11:13 1,6 °C 1,7 °C 79 % 1017,2 hPa 0,0 mm 6,4 km/h (2 Bft) O-NO 69 ° 0 min 0,000 mm 0,0 UV-I 46 W/m² -1,6 °C -0,3 °C 9,7 km/h (2 Bft)
07.02.2017 11:14 1,7 °C 1,7 °C 79 % 1017,2 hPa 0,0 mm 6,9 km/h (2 Bft) O-NO 60 ° 0 min 0,000 mm 0,0 UV-I 37 W/m² -1,5 °C -0,4 °C 11,3 km/h (2 Bft)
07.02.2017 11:15 1,7 °C 1,7 °C 79 % 1017,2 hPa 0,0 mm 6,9 km/h (2 Bft) NO 40 ° 0 min 0,000 mm 0,0 UV-I 35 W/m² -1,5 °C -0,4 °C 9,7 km/h (2 Bft)
07.02.2017 11:16 1,8 °C 1,8 °C 79 % 1017,2 hPa 0,0 mm 6,4 km/h (2 Bft) O 79 ° 0 min 0,000 mm 0,0 UV-I 35 W/m² -1,4 °C -0,1 °C 8,0 km/h (2 Bft)
07.02.2017 11:17 1,8 °C 1,8 °C 79 % 1017,2 hPa 0,0 mm 7,1 km/h (2 Bft) O 82 ° 0 min 0,000 mm 0,0 UV-I 35 W/m² -1,4 °C -0,3 °C 11,3 km/h (2 Bft)
07.02.2017 11:18 1,8 °C 1,8 °C 78 % 1017,2 hPa 0,0 mm 6,8 km/h (2 Bft) NO 43 ° 0 min 0,000 mm 0,0 UV-I 35 W/m² -1,6 °C -0,2 °C 9,7 km/h (2 Bft)
07.02.2017 11:19 1,9 °C 1,9 °C 78 % 1017,2 hPa 0,0 mm 3,7 km/h (1 Bft) O-NO 58 ° 0 min 0,000 mm 0,0 UV-I 35 W/m² -1,5 °C 1,9 °C 6,4 km/h (2 Bft)
07.02.2017 11:20 1,9 °C 1,9 °C 78 % 1017,2 hPa 0,0 mm 7,0 km/h (2 Bft) O-NO 59 ° 0 min 0,000 mm 0,0 UV-I 35 W/m² -1,5 °C -0,2 °C 14,5 km/h (3 Bft)
07.02.2017 11:21 1,8 °C 1,9 °C 79 % 1017,2 hPa 0,0 mm 10,3 km/h (2 Bft) O-NO 78 ° 0 min 0,000 mm 0,0 UV-I 35 W/m² -1,4 °C -1,2 °C 14,5 km/h (3 Bft)
07.02.2017 11:22 1,9 °C 1,9 °C 79 % 1017,2 hPa 0,0 mm 5,4 km/h (1 Bft) O-NO 67 ° 0 min 0,000 mm 0,0 UV-I 35 W/m² -1,3 °C 0,4 °C 9,7 km/h (2 Bft)
07.02.2017 11:23 1,9 °C 1,9 °C 79 % 1017,2 hPa 0,0 mm 3,9 km/h (1 Bft) O-NO 64 ° 0 min 0,000 mm 0,0 UV-I 35 W/m² -1,3 °C 1,9 °C 4,8 km/h (1 Bft)
07.02.2017 11:24 1,9 °C 1,9 °C 78 % 1017,2 hPa 0,0 mm 3,6 km/h (1 Bft) NO 49 ° 0 min 0,000 mm 0,0 UV-I 35 W/m² -1,5 °C 1,9 °C 12,9 km/h (3 Bft)
07.02.2017 11:25 1,9 °C 1,9 °C 79 % 1017,2 hPa 0,0 mm 6,7 km/h (2 Bft) N 5 ° 0 min 0,000 mm 0,0 UV-I 35 W/m² -1,3 °C -0,1 °C 11,3 km/h (2 Bft)
07.02.2017 11:26 1,9 °C 1,9 °C 79 % 1017,2 hPa 0,0 mm 9,1 km/h (2 Bft) O-NO 69 ° 0 min 0,000 mm 0,0 UV-I 35 W/m² -1,3 °C -0,8 °C 12,9 km/h (3 Bft)
07.02.2017 11:27 1,9 °C 1,9 °C 79 % 1017,2 hPa 0,0 mm 3,7 km/h (1 Bft) O-NO 67 ° 0 min 0,000 mm 0,0 UV-I 35 W/m² -1,3 °C 1,9 °C 6,4 km/h (2 Bft)
07.02.2017 11:28 1,9 °C 1,9 °C 79 % 1017,1 hPa 0,0 mm 5,3 km/h (1 Bft) N-NO 22 ° 0 min 0,000 mm 0,0 UV-I 35 W/m² -1,3 °C 0,4 °C 6,4 km/h (2 Bft)
07.02.2017 11:29 2,0 °C 2,0 °C 79 % 1017,1 hPa 0,0 mm 3,0 km/h (1 Bft) O-NO 60 ° 0 min 0,000 mm 0,0 UV-I 35 W/m² -1,2 °C 2,0 °C 6,4 km/h (2 Bft)
07.02.2017 11:30 2,1 °C 2,1 °C 79 % 1017,1 hPa 0,0 mm 5,3 km/h (1 Bft) N-NO 22 ° 0 min 0,000 mm 0,0 UV-I 35 W/m² -1,2 °C 0,7 °C 8,0 km/h (2 Bft)
07.02.2017 11:31 2,0 °C 2,1 °C 78 % 1017,1 hPa 0,0 mm 9,1 km/h (2 Bft) NO 46 ° 0 min 0,000 mm 0,0 UV-I 35 W/m² -1,4 °C -0,7 °C 14,5 km/h (3 Bft)
07.02.2017 11:32 2,0 °C 2,0 °C 79 % 1017,1 hPa 0,0 mm 6,1 km/h (2 Bft) O-NO 64 ° 0 min 0,000 mm 0,0 UV-I 35 W/m² -1,2 °C 0,2 °C 9,7 km/h (2 Bft)
07.02.2017 11:33 1,9 °C 2,0 °C 78 % 1017,1 hPa 0,0 mm 7,8 km/h (2 Bft) NO 40 ° 0 min 0,000 mm 0,0 UV-I 35 W/m² -1,5 °C -0,4 °C 14,5 km/h (3 Bft)
07.02.2017 11:34 2,1 °C 2,1 °C 79 % 1017,1 hPa 0,0 mm 9,2 km/h (2 Bft) NO 42 ° 0 min 0,000 mm 0,0 UV-I 35 W/m² -1,2 °C -0,6 °C 14,5 km/h (3 Bft)
07.02.2017 11:35 2,1 °C 2,1 °C 79 % 1017,1 hPa 0,0 mm 8,4 km/h (2 Bft) NO 48 ° 0 min 0,000 mm 0,0 UV-I 35 W/m² -1,2 °C -0,4 °C 12,9 km/h (3 Bft)
07.02.2017 11:36 2,1 °C 2,1 °C 79 % 1017,0 hPa 0,0 mm 4,8 km/h (1 Bft) NO 49 ° 0 min 0,000 mm 0,0 UV-I 35 W/m² -1,2 °C 0,9 °C 6,4 km/h (2 Bft)
07.02.2017 11:37 2,1 °C 2,1 °C 79 % 1017,0 hPa 0,0 mm 6,2 km/h (2 Bft) NO 47 ° 0 min 0,000 mm 0,0 UV-I 35 W/m² -1,2 °C 0,3 °C 8,0 km/h (2 Bft)
07.02.2017 11:38 2,1 °C 2,1 °C 79 % 1017,0 hPa 0,0 mm 6,2 km/h (2 Bft) O 80 ° 0 min 0,000 mm 0,0 UV-I 35 W/m² -1,2 °C 0,3 °C 8,0 km/h (2 Bft)
07.02.2017 11:39 2,1 °C 2,1 °C 79 % 1017,0 hPa 0,0 mm 5,2 km/h (1 Bft) O 80 ° 0 min 0,000 mm 0,0 UV-I 35 W/m² -1,2 °C 0,7 °C 6,4 km/h (2 Bft)
07.02.2017 11:40 2,1 °C 2,1 °C 79 % 1017,0 hPa 0,0 mm 6,0 km/h (2 Bft) NO 49 ° 0 min 0,000 mm 0,0 UV-I 35 W/m² -1,2 °C 0,4 °C 8,0 km/h (2 Bft)
07.02.2017 11:41 2,1 °C 2,1 °C 79 % 1017,0 hPa 0,0 mm 5,9 km/h (2 Bft) NO 51 ° 0 min 0,000 mm 0,0 UV-I 35 W/m² -1,2 °C 0,4 °C 8,0 km/h (2 Bft)
07.02.2017 11:42 2,1 °C 2,1 °C 79 % 1017,0 hPa 0,0 mm 7,1 km/h (2 Bft) O-NO 76 ° 0 min 0,000 mm 0,0 UV-I 35 W/m² -1,2 °C 0,0 °C 12,9 km/h (3 Bft)
07.02.2017 11:43 2,1 °C 2,1 °C 79 % 1016,9 hPa 0,0 mm 7,0 km/h (2 Bft) O-NO 69 ° 0 min 0,000 mm 0,0 UV-I 35 W/m² -1,2 °C 0,0 °C 11,3 km/h (2 Bft)
07.02.2017 11:44 2,2 °C 2,2 °C 78 % 1017,0 hPa 0,0 mm 5,2 km/h (1 Bft) O 93 ° 0 min 0,000 mm 0,0 UV-I 35 W/m² -1,2 °C 0,8 °C 6,4 km/h (2 Bft)
07.02.2017 11:45 2,1 °C 2,2 °C 79 % 1016,9 hPa 0,0 mm 3,1 km/h (1 Bft) O 79 ° 0 min 0,000 mm 0,0 UV-I 35 W/m² -1,2 °C 2,1 °C 6,4 km/h (2 Bft)
07.02.2017 11:46 2,1 °C 2,2 °C 78 % 1016,9 hPa 0,0 mm 2,5 km/h (1 Bft) O 79 ° 0 min 0,000 mm 0,0 UV-I 35 W/m² -1,3 °C 2,1 °C 3,2 km/h (1 Bft)
07.02.2017 11:47 2,1 °C 2,1 °C 78 % 1016,9 hPa 0,0 mm 5,0 km/h (1 Bft) O 86 ° 0 min 0,000 mm 0,0 UV-I 35 W/m² -1,3 °C 0,8 °C 9,7 km/h (2 Bft)
07.02.2017 11:48 2,1 °C 2,1 °C 78 % 1016,9 hPa 0,0 mm 8,4 km/h (2 Bft) O 82 ° 0 min 0,000 mm 0,0 UV-I 35 W/m² -1,3 °C -0,4 °C 11,3 km/h (2 Bft)
07.02.2017 11:49 2,1 °C 2,1 °C 78 % 1016,9 hPa 0,0 mm 6,5 km/h (2 Bft) O-NO 57 ° 0 min 0,000 mm 0,0 UV-I 35 W/m² -1,3 °C 0,2 °C 8,0 km/h (2 Bft)
07.02.2017 11:50 2,1 °C 2,1 °C 78 % 1016,9 hPa 0,0 mm 2,2 km/h (1 Bft) O-NO 57 ° 0 min 0,000 mm 0,0 UV-I 35 W/m² -1,3 °C 2,1 °C 4,8 km/h (1 Bft)
07.02.2017 11:51 2,1 °C 2,1 °C 78 % 1016,9 hPa 0,0 mm 3,6 km/h (1 Bft) O-NO 63 ° 0 min 0,000 mm 0,0 UV-I 35 W/m² -1,3 °C 2,1 °C 6,4 km/h (2 Bft)
07.02.2017 11:52 2,2 °C 2,2 °C 78 % 1016,9 hPa 0,0 mm 4,9 km/h (1 Bft) O-NO 63 ° 0 min 0,000 mm 0,0 UV-I 35 W/m² -1,2 °C 1,0 °C 8,0 km/h (2 Bft)
07.02.2017 11:53 2,2 °C 2,2 °C 78 % 1016,9 hPa 0,0 mm 4,9 km/h (1 Bft) N-NO 15 ° 0 min 0,000 mm 0,0 UV-I 35 W/m² -1,2 °C 1,0 °C 6,4 km/h (2 Bft)
07.02.2017 11:54 2,3 °C 2,3 °C 78 % 1016,8 hPa 0,0 mm 4,4 km/h (1 Bft) N-NO 30 ° 0 min 0,000 mm 0,0 UV-I 35 W/m² -1,1 °C 2,3 °C 6,4 km/h (2 Bft)
07.02.2017 11:55 2,3 °C 2,3 °C 78 % 1016,8 hPa 0,0 mm 4,8 km/h (1 Bft) O-NO 69 ° 0 min 0,000 mm 0,0 UV-I 35 W/m² -1,1 °C 1,1 °C 6,4 km/h (2 Bft)
07.02.2017 11:56 2,3 °C 2,3 °C 77 % 1016,8 hPa 0,0 mm 6,4 km/h (2 Bft) NO 56 ° 0 min 0,000 mm 0,0 UV-I 35 W/m² -1,3 °C 0,5 °C 9,7 km/h (2 Bft)
07.02.2017 11:57 2,3 °C 2,3 °C 77 % 1016,8 hPa 0,0 mm 6,5 km/h (2 Bft) O-NO 77 ° 0 min 0,000 mm 0,0 UV-I 35 W/m² -1,3 °C 0,4 °C 9,7 km/h (2 Bft)
07.02.2017 11:58 2,2 °C 2,3 °C 77 % 1016,8 hPa 0,0 mm 3,9 km/h (1 Bft) O-NO 61 ° 0 min 0,000 mm 0,0 UV-I 35 W/m² -1,4 °C 2,2 °C 6,4 km/h (2 Bft)
07.02.2017 11:59 2,2 °C 2,2 °C 77 % 1016,8 hPa 0,0 mm 5,5 km/h (1 Bft) O 81 ° 0 min 0,000 mm 0,0 UV-I 35 W/m² -1,4 °C 0,7 °C 8,0 km/h (2 Bft)
07.02.2017 12:00 2,1 °C 2,2 °C 77 % 1016,8 hPa 0,0 mm 7,0 km/h (2 Bft) NO 44 ° 0 min 0,000 mm 0,0 UV-I 35 W/m² -1,5 °C 0,0 °C 11,3 km/h (2 Bft)
07.02.2017 12:01 2,2 °C 2,2 °C 77 % 1016,8 hPa 0,0 mm 6,3 km/h (2 Bft) NO 49 ° 0 min 0,026 mm 0,0 UV-I 35 W/m² -1,4 °C 0,4 °C 9,7 km/h (2 Bft)
07.02.2017 12:02 2,2 °C 2,2 °C 77 % 1016,8 hPa 0,0 mm 8,4 km/h (2 Bft) N-NO 27 ° 0 min 0,000 mm 0,0 UV-I 35 W/m² -1,4 °C -0,3 °C 14,5 km/h (3 Bft)
07.02.2017 12:03 2,2 °C 2,2 °C 77 % 1016,8 hPa 0,0 mm 5,4 km/h (1 Bft) N-NO 33 ° 0 min 0,000 mm 0,0 UV-I 35 W/m² -1,4 °C 0,7 °C 8,0 km/h (2 Bft)
07.02.2017 12:04 2,3 °C 2,3 °C 77 % 1016,8 hPa 0,0 mm 6,5 km/h (2 Bft) O-NO 61 ° 0 min 0,000 mm 0,0 UV-I 35 W/m² -1,3 °C 0,4 °C 9,7 km/h (2 Bft)
07.02.2017 12:05 2,4 °C 2,4 °C 77 % 1016,8 hPa 0,0 mm 6,1 km/h (2 Bft) O-NO 69 ° 0 min 0,000 mm 0,0 UV-I 35 W/m² -1,2 °C 0,7 °C 8,0 km/h (2 Bft)
07.02.2017 12:06 2,4 °C 2,4 °C 77 % 1016,8 hPa 0,0 mm 4,1 km/h (1 Bft) NO 34 ° 0 min 0,000 mm 0,0 UV-I 35 W/m² -1,2 °C 2,4 °C 4,8 km/h (1 Bft)
07.02.2017 12:07 2,4 °C 2,4 °C 76 % 1016,8 hPa 0,0 mm 6,2 km/h (2 Bft) NO 43 ° 0 min 0,000 mm 0,0 UV-I 37 W/m² -1,4 °C 0,7 °C 9,7 km/h (2 Bft)
07.02.2017 12:08 2,4 °C 2,4 °C 76 % 1016,8 hPa 0,0 mm 5,0 km/h (1 Bft) NO 38 ° 0 min 0,000 mm 0,0 UV-I 35 W/m² -1,4 °C 1,1 °C 6,4 km/h (2 Bft)
07.02.2017 12:09 2,5 °C 2,5 °C 76 % 1016,7 hPa 0,0 mm 5,7 km/h (1 Bft) NO 36 ° 0 min 0,000 mm 0,0 UV-I 37 W/m² -1,3 °C 1,0 °C 8,0 km/h (2 Bft)
07.02.2017 12:10 2,6 °C 2,6 °C 76 % 1016,7 hPa 0,0 mm 5,0 km/h (1 Bft) NO 48 ° 0 min 0,000 mm 0,0 UV-I 37 W/m² -1,2 °C 1,4 °C 8,0 km/h (2 Bft)
07.02.2017 12:11 2,6 °C 2,6 °C 75 % 1016,7 hPa 0,0 mm 4,1 km/h (1 Bft) N-NO 31 ° 0 min 0,000 mm 0,0 UV-I 37 W/m² -1,4 °C 2,6 °C 4,8 km/h (1 Bft)
07.02.2017 12:12 2,6 °C 2,6 °C 75 % 1016,7 hPa 0,0 mm 7,3 km/h (2 Bft) N 360 ° 0 min 0,000 mm 0,0 UV-I 37 W/m² -1,4 °C 0,5 °C 11,3 km/h (2 Bft)
07.02.2017 12:13 2,6 °C 2,6 °C 75 % 1016,6 hPa 0,0 mm 6,6 km/h (2 Bft) NO 48 ° 0 min 0,000 mm 0,0 UV-I 35 W/m² -1,4 °C 0,8 °C 9,7 km/h (2 Bft)
07.02.2017 12:14 2,6 °C 2,6 °C 75 % 1016,7 hPa 0,0 mm 8,4 km/h (2 Bft) O 80 ° 0 min 0,000 mm 0,0 UV-I 35 W/m² -1,4 °C 0,2 °C 12,9 km/h (3 Bft)
07.02.2017 12:15 2,7 °C 2,7 °C 75 % 1016,7 hPa 0,0 mm 7,8 km/h (2 Bft) NO 44 ° 0 min 0,000 mm 0,0 UV-I 35 W/m² -1,3 °C 0,5 °C 12,9 km/h (3 Bft)
07.02.2017 12:16 2,7 °C 2,7 °C 75 % 1016,7 hPa 0,0 mm 5,8 km/h (2 Bft) N 5 ° 0 min 0,000 mm 0,0 UV-I 35 W/m² -1,3 °C 1,2 °C 8,0 km/h (2 Bft)
07.02.2017 12:17 2,7 °C 2,7 °C 75 % 1016,6 hPa 0,0 mm 5,5 km/h (1 Bft) N 360 ° 0 min 0,000 mm 0,0 UV-I 35 W/m² -1,3 °C 1,3 °C 8,0 km/h (2 Bft)
07.02.2017 12:18 2,8 °C 2,8 °C 74 % 1016,6 hPa 0,0 mm 5,5 km/h (1 Bft) NO 51 ° 0 min 0,000 mm 0,0 UV-I 35 W/m² -1,4 °C 1,4 °C 8,0 km/h (2 Bft)
07.02.2017 12:19 2,8 °C 2,8 °C 74 % 1016,6 hPa 0,0 mm 4,7 km/h (1 Bft) N 5 ° 0 min 0,000 mm 0,0 UV-I 37 W/m² -1,4 °C 1,7 °C 6,4 km/h (2 Bft)
07.02.2017 12:20 2,8 °C 2,8 °C 74 % 1016,6 hPa 0,0 mm 6,8 km/h (2 Bft) N 360 ° 0 min 0,000 mm 0,0 UV-I 37 W/m² -1,4 °C 0,9 °C 8,0 km/h (2 Bft)
07.02.2017 12:21 2,8 °C 2,8 °C 74 % 1016,6 hPa 0,0 mm 7,6 km/h (2 Bft) N-NO 28 ° 0 min 0,000 mm 0,0 UV-I 37 W/m² -1,4 °C 0,7 °C 12,9 km/h (3 Bft)
07.02.2017 12:22 2,8 °C 2,9 °C 74 % 1016,6 hPa 0,0 mm 5,2 km/h (1 Bft) N 5 ° 0 min 0,000 mm 0,0 UV-I 39 W/m² -1,4 °C 1,5 °C 8,0 km/h (2 Bft)
07.02.2017 12:23 2,9 °C 2,9 °C 74 % 1016,6 hPa 0,0 mm 4,4 km/h (1 Bft) N-NO 30 ° 0 min 0,000 mm 0,0 UV-I 39 W/m² -1,3 °C 2,9 °C 6,4 km/h (2 Bft)
07.02.2017 12:24 2,9 °C 2,9 °C 74 % 1016,6 hPa 0,0 mm 4,7 km/h (1 Bft) NO 53 ° 0 min 0,000 mm 0,0 UV-I 40 W/m² -1,3 °C 1,8 °C 8,0 km/h (2 Bft)
07.02.2017 12:25 2,9 °C 3,0 °C 74 % 1016,6 hPa 0,0 mm 3,6 km/h (1 Bft) O 100 ° 0 min 0,000 mm 0,0 UV-I 40 W/m² -1,3 °C 2,9 °C 6,4 km/h (2 Bft)
07.02.2017 12:26 2,9 °C 2,9 °C 74 % 1016,6 hPa 0,0 mm 6,2 km/h (2 Bft) O-NO 78 ° 0 min 0,000 mm 0,0 UV-I 39 W/m² -1,3 °C 1,2 °C 9,7 km/h (2 Bft)
07.02.2017 12:27 2,9 °C 2,9 °C 74 % 1016,6 hPa 0,0 mm 6,0 km/h (2 Bft) N-NO 22 ° 0 min 0,000 mm 0,0 UV-I 40 W/m² -1,3 °C 1,3 °C 8,0 km/h (2 Bft)
07.02.2017 12:28 2,9 °C 2,9 °C 73 % 1016,6 hPa 0,0 mm 7,2 km/h (2 Bft) NO 41 ° 0 min 0,000 mm 0,0 UV-I 42 W/m² -1,5 °C 0,9 °C 11,3 km/h (2 Bft)
07.02.2017 12:29 2,9 °C 2,9 °C 73 % 1016,6 hPa 0,0 mm 7,5 km/h (2 Bft) O 84 ° 0 min 0,000 mm 0,0 UV-I 44 W/m² -1,5 °C 0,8 °C 11,3 km/h (2 Bft)
07.02.2017 12:30 2,8 °C 2,9 °C 73 % 1016,6 hPa 0,0 mm 4,0 km/h (1 Bft) O-NO 61 ° 0 min 0,000 mm 0,0 UV-I 44 W/m² -1,5 °C 2,8 °C 4,8 km/h (1 Bft)
07.02.2017 12:31 2,8 °C 2,8 °C 73 % 1016,6 hPa 0,0 mm 4,2 km/h (1 Bft) O-NO 61 ° 0 min 0,000 mm 0,0 UV-I 47 W/m² -1,5 °C 2,8 °C 4,8 km/h (1 Bft)
07.02.2017 12:32 2,8 °C 2,8 °C 74 % 1016,6 hPa 0,0 mm 7,0 km/h (2 Bft) NO 48 ° 0 min 0,000 mm 0,0 UV-I 47 W/m² -1,4 °C 0,9 °C 11,3 km/h (2 Bft)
07.02.2017 12:33 2,7 °C 2,8 °C 74 % 1016,6 hPa 0,0 mm 6,4 km/h (2 Bft) O-NO 74 ° 0 min 0,000 mm 0,0 UV-I 47 W/m² -1,5 °C 0,9 °C 8,0 km/h (2 Bft)
07.02.2017 12:34 2,8 °C 2,8 °C 74 % 1016,6 hPa 0,0 mm 3,5 km/h (1 Bft) O 91 ° 0 min 0,000 mm 0,0 UV-I 49 W/m² -1,4 °C 2,8 °C 6,4 km/h (2 Bft)
07.02.2017 12:35 2,7 °C 2,8 °C 73 % 1016,6 hPa 0,0 mm 4,0 km/h (1 Bft) O-NO 68 ° 0 min 0,000 mm 0,0 UV-I 49 W/m² -1,6 °C 2,7 °C 4,8 km/h (1 Bft)
07.02.2017 12:36 2,7 °C 2,7 °C 73 % 1016,6 hPa 0,0 mm 4,5 km/h (1 Bft) O-NO 68 ° 0 min 0,000 mm 0,0 UV-I 51 W/m² -1,6 °C 2,7 °C 6,4 km/h (2 Bft)
07.02.2017 12:37 2,7 °C 2,7 °C 73 % 1016,5 hPa 0,0 mm 2,8 km/h (1 Bft) O-NO 68 ° 0 min 0,000 mm 0,0 UV-I 53 W/m² -1,6 °C 2,7 °C 4,8 km/h (1 Bft)
07.02.2017 12:38 2,8 °C 2,8 °C 73 % 1016,5 hPa 0,0 mm 2,5 km/h (1 Bft) O-NO 68 ° 0 min 0,000 mm 1,4 UV-I 58 W/m² -1,5 °C 2,8 °C 4,8 km/h (1 Bft)
07.02.2017 12:39 2,8 °C 2,8 °C 73 % 1016,5 hPa 0,0 mm 2,9 km/h (1 Bft) O-NO 64 ° 0 min 0,000 mm 1,4 UV-I 60 W/m² -1,5 °C 2,8 °C 4,8 km/h (1 Bft)
07.02.2017 12:40 2,8 °C 2,8 °C 73 % 1016,5 hPa 0,0 mm 2,7 km/h (1 Bft) NO 42 ° 0 min 0,000 mm 1,4 UV-I 63 W/m² -1,5 °C 2,8 °C 4,8 km/h (1 Bft)
07.02.2017 12:41 2,8 °C 2,8 °C 74 % 1016,5 hPa 0,0 mm 2,9 km/h (1 Bft) NO 42 ° 0 min 0,000 mm 1,4 UV-I 65 W/m² -1,4 °C 2,8 °C 4,8 km/h (1 Bft)
07.02.2017 12:42 2,8 °C 2,8 °C 73 % 1016,5 hPa 0,0 mm 0,6 km/h (0 Bft) NO 42 ° 0 min 0,000 mm 1,4 UV-I 67 W/m² -1,5 °C 2,8 °C 3,2 km/h (1 Bft)
07.02.2017 12:43 2,8 °C 2,8 °C 73 % 1016,5 hPa 0,0 mm 0,3 km/h (0 Bft) NO 42 ° 0 min 0,000 mm 1,4 UV-I 72 W/m² -1,5 °C 2,8 °C 1,6 km/h (1 Bft)
07.02.2017 12:44 2,8 °C 2,8 °C 73 % 1016,5 hPa 0,0 mm 1,4 km/h (1 Bft) NO 42 ° 0 min 0,000 mm 1,4 UV-I 72 W/m² -1,5 °C 2,8 °C 1,6 km/h (1 Bft)
07.02.2017 12:45 2,8 °C 2,8 °C 73 % 1016,5 hPa 0,0 mm 3,6 km/h (1 Bft) NO 40 ° 0 min 0,000 mm 1,4 UV-I 72 W/m² -1,5 °C 2,8 °C 8,0 km/h (2 Bft)
07.02.2017 12:46 2,9 °C 2,9 °C 73 % 1016,5 hPa 0,0 mm 7,0 km/h (2 Bft) NO 40 ° 0 min 0,000 mm 1,4 UV-I 69 W/m² -1,5 °C 1,0 °C 8,0 km/h (2 Bft)
07.02.2017 12:47 2,9 °C 2,9 °C 73 % 1016,6 hPa 0,0 mm 4,2 km/h (1 Bft) O-NO 71 ° 0 min 0,000 mm 1,4 UV-I 65 W/m² -1,5 °C 2,9 °C 6,4 km/h (2 Bft)
07.02.2017 12:48 3,0 °C 3,0 °C 73 % 1016,5 hPa 0,0 mm 2,1 km/h (1 Bft) NO 53 ° 0 min 0,000 mm 1,4 UV-I 62 W/m² -1,4 °C 3,0 °C 3,2 km/h (1 Bft)
07.02.2017 12:49 3,1 °C 3,1 °C 72 % 1016,5 hPa 0,0 mm 4,4 km/h (1 Bft) O-NO 73 ° 0 min 0,000 mm 1,4 UV-I 56 W/m² -1,4 °C 3,1 °C 6,4 km/h (2 Bft)
07.02.2017 12:50 3,1 °C 3,1 °C 72 % 1016,5 hPa 0,0 mm 5,5 km/h (1 Bft) O 84 ° 0 min 0,000 mm 1,4 UV-I 53 W/m² -1,4 °C 1,7 °C 8,0 km/h (2 Bft)
07.02.2017 12:51 3,0 °C 3,1 °C 72 % 1016,5 hPa 0,0 mm 3,1 km/h (1 Bft) O 88 ° 0 min 0,000 mm 0,0 UV-I 51 W/m² -1,5 °C 3,0 °C 4,8 km/h (1 Bft)
07.02.2017 12:52 3,0 °C 3,0 °C 72 % 1016,5 hPa 0,0 mm 1,4 km/h (1 Bft) O 88 ° 0 min 0,000 mm 0,0 UV-I 47 W/m² -1,5 °C 3,0 °C 3,2 km/h (1 Bft)
07.02.2017 12:53 3,0 °C 3,0 °C 72 % 1016,4 hPa 0,0 mm 3,1 km/h (1 Bft) O-NO 71 ° 0 min 0,000 mm 0,0 UV-I 46 W/m² -1,5 °C 3,0 °C 6,4 km/h (2 Bft)
07.02.2017 12:54 2,9 °C 3,0 °C 72 % 1016,4 hPa 0,0 mm 4,0 km/h (1 Bft) O-NO 71 ° 0 min 0,000 mm 0,0 UV-I 42 W/m² -1,6 °C 2,9 °C 6,4 km/h (2 Bft)
07.02.2017 12:55 2,9 °C 2,9 °C 72 % 1016,4 hPa 0,0 mm 2,1 km/h (1 Bft) O-NO 71 ° 0 min 0,000 mm 0,0 UV-I 40 W/m² -1,6 °C 2,9 °C 3,2 km/h (1 Bft)
07.02.2017 12:56 2,9 °C 2,9 °C 72 % 1016,4 hPa 0,0 mm 4,9 km/h (1 Bft) O-NO 65 ° 0 min 0,000 mm 0,0 UV-I 39 W/m² -1,6 °C 1,7 °C 8,0 km/h (2 Bft)
07.02.2017 12:57 3,0 °C 3,0 °C 72 % 1016,5 hPa 0,0 mm 5,5 km/h (1 Bft) O-NO 74 ° 0 min 0,000 mm 0,0 UV-I 39 W/m² -1,5 °C 1,6 °C 8,0 km/h (2 Bft)
07.02.2017 12:58 3,0 °C 3,0 °C 73 % 1016,4 hPa 0,0 mm 2,9 km/h (1 Bft) O-NO 74 ° 0 min 0,000 mm 0,0 UV-I 39 W/m² -1,4 °C 3,0 °C 4,8 km/h (1 Bft)
07.02.2017 12:59 3,0 °C 3,0 °C 72 % 1016,4 hPa 0,0 mm 2,2 km/h (1 Bft) O-NO 74 ° 0 min 0,000 mm 0,0 UV-I 37 W/m² -1,5 °C 3,0 °C 3,2 km/h (1 Bft)
07.02.2017 13:00 3,1 °C 3,1 °C 72 % 1016,4 hPa 0,0 mm 2,3 km/h (1 Bft) O-NO 74 ° 0 min 0,025 mm 0,0 UV-I 37 W/m² -1,4 °C 3,1 °C 3,2 km/h (1 Bft)
07.02.2017 13:01 3,1 °C 3,1 °C 72 % 1016,5 hPa 0,0 mm 3,7 km/h (1 Bft) N-NO 24 ° 0 min 0,000 mm 0,0 UV-I 37 W/m² -1,4 °C 3,1 °C 4,8 km/h (1 Bft)
07.02.2017 13:02 3,1 °C 3,1 °C 72 % 1016,5 hPa 0,0 mm 2,3 km/h (1 Bft) N-NO 24 ° 0 min 0,000 mm 0,0 UV-I 35 W/m² -1,4 °C 3,1 °C 3,2 km/h (1 Bft)
07.02.2017 13:03 3,0 °C 3,1 °C 73 % 1016,5 hPa 0,0 mm 0,5 km/h (0 Bft) N-NO 24 ° 0 min 0,000 mm 0,0 UV-I 35 W/m² -1,4 °C 3,0 °C 1,6 km/h (1 Bft)
07.02.2017 13:04 3,0 °C 3,0 °C 72 % 1016,5 hPa 0,0 mm 0,4 km/h (0 Bft) N-NO 24 ° 0 min 0,000 mm 0,0 UV-I 37 W/m² -1,5 °C 3,0 °C 1,6 km/h (1 Bft)
07.02.2017 13:05 3,0 °C 3,0 °C 72 % 1016,5 hPa 0,0 mm 2,3 km/h (1 Bft) N-NO 24 ° 0 min 0,000 mm 0,0 UV-I 37 W/m² -1,5 °C 3,0 °C 4,8 km/h (1 Bft)
07.02.2017 13:06 3,0 °C 3,0 °C 72 % 1016,5 hPa 0,0 mm 2,2 km/h (1 Bft) N-NO 24 ° 0 min 0,000 mm 0,0 UV-I 37 W/m² -1,5 °C 3,0 °C 3,2 km/h (1 Bft)
07.02.2017 13:07 2,9 °C 3,0 °C 72 % 1016,4 hPa 0,0 mm 3,6 km/h (1 Bft) NO 40 ° 0 min 0,000 mm 0,0 UV-I 37 W/m² -1,6 °C 2,9 °C 6,4 km/h (2 Bft)
07.02.2017 13:08 3,0 °C 3,0 °C 72 % 1016,5 hPa 0,0 mm 2,7 km/h (1 Bft) NO 56 ° 0 min 0,000 mm 0,0 UV-I 37 W/m² -1,5 °C 3,0 °C 4,8 km/h (1 Bft)
07.02.2017 13:09 3,0 °C 3,0 °C 73 % 1016,5 hPa 0,0 mm 4,7 km/h (1 Bft) O-NO 76 ° 0 min 0,000 mm 0,0 UV-I 35 W/m² -1,4 °C 1,9 °C 6,4 km/h (2 Bft)
07.02.2017 13:10 3,1 °C 3,1 °C 72 % 1016,5 hPa 0,0 mm 3,5 km/h (1 Bft) O-NO 76 ° 0 min 0,000 mm 0,0 UV-I 35 W/m² -1,4 °C 3,1 °C 4,8 km/h (1 Bft)
07.02.2017 13:11 3,1 °C 3,1 °C 72 % 1016,4 hPa 0,0 mm 0,8 km/h (0 Bft) O-NO 76 ° 0 min 0,000 mm 0,0 UV-I 35 W/m² -1,4 °C 3,1 °C 1,6 km/h (1 Bft)
07.02.2017 13:12 3,1 °C 3,1 °C 72 % 1016,3 hPa 0,0 mm 1,0 km/h (0 Bft) N 360 ° 0 min 0,000 mm 0,0 UV-I 35 W/m² -1,4 °C 3,1 °C 3,2 km/h (1 Bft)
07.02.2017 13:13 3,0 °C 3,1 °C 72 % 1016,4 hPa 0,0 mm 3,9 km/h (1 Bft) N 355 ° 0 min 0,000 mm 0,0 UV-I 35 W/m² -1,5 °C 3,0 °C 4,8 km/h (1 Bft)
07.02.2017 13:14 3,0 °C 3,1 °C 72 % 1016,3 hPa 0,0 mm 1,9 km/h (1 Bft) N-NO 30 ° 0 min 0,000 mm 0,0 UV-I 35 W/m² -1,5 °C 3,0 °C 3,2 km/h (1 Bft)
07.02.2017 13:15 3,0 °C 3,0 °C 72 % 1016,3 hPa 0,0 mm 3,3 km/h (1 Bft) N 5 ° 0 min 0,000 mm 0,0 UV-I 35 W/m² -1,5 °C 3,0 °C 4,8 km/h (1 Bft)
07.02.2017 13:16 3,0 °C 3,1 °C 72 % 1016,3 hPa 0,0 mm 2,3 km/h (1 Bft) N 5 ° 0 min 0,000 mm 0,0 UV-I 35 W/m² -1,5 °C 3,0 °C 6,4 km/h (2 Bft)
07.02.2017 13:17 3,1 °C 3,1 °C 72 % 1016,2 hPa 0,0 mm 2,0 km/h (1 Bft) O-NO 60 ° 0 min 0,000 mm 0,0 UV-I 35 W/m² -1,4 °C 3,1 °C 3,2 km/h (1 Bft)
07.02.2017 13:18 3,1 °C 3,1 °C 72 % 1016,2 hPa 0,0 mm 2,6 km/h (1 Bft) O-NO 60 ° 0 min 0,000 mm 0,0 UV-I 35 W/m² -1,4 °C 3,1 °C 4,8 km/h (1 Bft)
07.02.2017 13:19 3,1 °C 3,1 °C 72 % 1016,2 hPa 0,0 mm 3,2 km/h (1 Bft) NO 48 ° 0 min 0,000 mm 0,0 UV-I 35 W/m² -1,4 °C 3,1 °C 6,4 km/h (2 Bft)
07.02.2017 13:20 3,0 °C 3,1 °C 72 % 1016,2 hPa 0,0 mm 3,1 km/h (1 Bft) NO 51 ° 0 min 0,000 mm 0,0 UV-I 35 W/m² -1,5 °C 3,0 °C 4,8 km/h (1 Bft)
07.02.2017 13:21 3,0 °C 3,1 °C 72 % 1016,1 hPa 0,0 mm 4,0 km/h (1 Bft) N 355 ° 0 min 0,000 mm 0,0 UV-I 35 W/m² -1,5 °C 3,0 °C 6,4 km/h (2 Bft)
07.02.2017 13:22 3,1 °C 3,1 °C 72 % 1016,2 hPa 0,0 mm 4,7 km/h (1 Bft) NO 45 ° 0 min 0,000 mm 0,0 UV-I 35 W/m² -1,4 °C 2,1 °C 6,4 km/h (2 Bft)
07.02.2017 13:23 3,2 °C 3,2 °C 72 % 1016,1 hPa 0,0 mm 4,0 km/h (1 Bft) NO 45 ° 0 min 0,000 mm 0,0 UV-I 35 W/m² -1,3 °C 3,2 °C 4,8 km/h (1 Bft)
07.02.2017 13:24 3,3 °C 3,3 °C 71 % 1016,1 hPa 0,0 mm 3,0 km/h (1 Bft) N-NO 24 ° 0 min 0,000 mm 0,0 UV-I 33 W/m² -1,4 °C 3,3 °C 4,8 km/h (1 Bft)
07.02.2017 13:25 3,3 °C 3,3 °C 71 % 1016,1 hPa 0,0 mm 3,6 km/h (1 Bft) NO 41 ° 0 min 0,000 mm 0,0 UV-I 33 W/m² -1,4 °C 3,3 °C 8,0 km/h (2 Bft)
07.02.2017 13:26 3,3 °C 3,3 °C 71 % 1016,1 hPa 0,0 mm 4,9 km/h (1 Bft) N-NO 32 ° 0 min 0,000 mm 0,0 UV-I 33 W/m² -1,4 °C 2,2 °C 6,4 km/h (2 Bft)
07.02.2017 13:27 3,4 °C 3,4 °C 71 % 1016,0 hPa 0,0 mm 4,7 km/h (1 Bft) NO 36 ° 0 min 0,000 mm 0,0 UV-I 33 W/m² -1,3 °C 2,4 °C 6,4 km/h (2 Bft)
07.02.2017 13:28 3,4 °C 3,4 °C 71 % 1016,1 hPa 0,0 mm 3,7 km/h (1 Bft) N-NO 22 ° 0 min 0,000 mm 0,0 UV-I 33 W/m² -1,3 °C 3,4 °C 4,8 km/h (1 Bft)
07.02.2017 13:29 3,5 °C 3,5 °C 71 % 1016,0 hPa 0,0 mm 3,0 km/h (1 Bft) O 90 ° 0 min 0,000 mm 0,0 UV-I 33 W/m² -1,3 °C 3,5 °C 6,4 km/h (2 Bft)
07.02.2017 13:30 3,5 °C 3,6 °C 70 % 1016,0 hPa 0,0 mm 7,4 km/h (2 Bft) NO 40 ° 0 min 0,000 mm 0,0 UV-I 33 W/m² -1,4 °C 1,5 °C 9,7 km/h (2 Bft)
07.02.2017 13:31 3,6 °C 3,6 °C 71 % 1016,0 hPa 0,0 mm 7,5 km/h (2 Bft) NO 52 ° 0 min 0,000 mm 0,0 UV-I 33 W/m² -1,2 °C 1,6 °C 11,3 km/h (2 Bft)
07.02.2017 13:32 3,6 °C 3,6 °C 71 % 1015,9 hPa 0,0 mm 5,6 km/h (1 Bft) O-NO 74 ° 0 min 0,000 mm 0,0 UV-I 33 W/m² -1,2 °C 2,3 °C 8,0 km/h (2 Bft)
07.02.2017 13:33 3,5 °C 3,6 °C 70 % 1015,9 hPa 0,0 mm 5,7 km/h (1 Bft) NO 42 ° 0 min 0,000 mm 0,0 UV-I 33 W/m² -1,4 °C 2,1 °C 8,0 km/h (2 Bft)
07.02.2017 13:34 3,6 °C 3,6 °C 71 % 1016,0 hPa 0,0 mm 5,5 km/h (1 Bft) O-NO 74 ° 0 min 0,000 mm 0,0 UV-I 33 W/m² -1,2 °C 2,3 °C 11,3 km/h (2 Bft)
07.02.2017 13:35 3,6 °C 3,6 °C 70 % 1015,9 hPa 0,0 mm 6,8 km/h (2 Bft) O 93 ° 0 min 0,000 mm 0,0 UV-I 33 W/m² -1,3 °C 1,8 °C 11,3 km/h (2 Bft)
07.02.2017 13:36 3,6 °C 3,6 °C 71 % 1015,9 hPa 0,0 mm 5,6 km/h (1 Bft) NO 47 ° 0 min 0,000 mm 0,0 UV-I 33 W/m² -1,2 °C 2,3 °C 9,7 km/h (2 Bft)
07.02.2017 13:37 3,5 °C 3,6 °C 70 % 1015,9 hPa 0,0 mm 6,5 km/h (2 Bft) SO 128 ° 0 min 0,000 mm 0,0 UV-I 33 W/m² -1,4 °C 1,8 °C 8,0 km/h (2 Bft)
07.02.2017 13:38 3,5 °C 3,5 °C 70 % 1015,9 hPa 0,0 mm 3,9 km/h (1 Bft) O-NO 78 ° 0 min 0,000 mm 0,0 UV-I 33 W/m² -1,4 °C 3,5 °C 6,4 km/h (2 Bft)
07.02.2017 13:39 3,4 °C 3,5 °C 70 % 1015,9 hPa 0,0 mm 3,9 km/h (1 Bft) NO 48 ° 0 min 0,000 mm 0,0 UV-I 33 W/m² -1,5 °C 3,4 °C 6,4 km/h (2 Bft)
07.02.2017 13:40 3,4 °C 3,5 °C 70 % 1015,9 hPa 0,0 mm 4,0 km/h (1 Bft) NO 48 ° 0 min 0,000 mm 0,0 UV-I 33 W/m² -1,5 °C 3,4 °C 4,8 km/h (1 Bft)
07.02.2017 13:41 3,5 °C 3,5 °C 70 % 1015,9 hPa 0,0 mm 3,0 km/h (1 Bft) NO 46 ° 0 min 0,000 mm 0,0 UV-I 33 W/m² -1,4 °C 3,5 °C 4,8 km/h (1 Bft)
07.02.2017 13:42 3,6 °C 3,6 °C 70 % 1015,9 hPa 0,0 mm 4,3 km/h (1 Bft) O 86 ° 0 min 0,000 mm 0,0 UV-I 35 W/m² -1,3 °C 3,6 °C 8,0 km/h (2 Bft)
07.02.2017 13:43 3,6 °C 3,6 °C 70 % 1015,9 hPa 0,0 mm 6,0 km/h (2 Bft) O-NO 72 ° 0 min 0,000 mm 0,0 UV-I 37 W/m² -1,3 °C 2,1 °C 9,7 km/h (2 Bft)
07.02.2017 13:44 3,6 °C 3,6 °C 70 % 1015,8 hPa 0,0 mm 6,3 km/h (2 Bft) O-SO 119 ° 0 min 0,000 mm 0,0 UV-I 40 W/m² -1,3 °C 2,0 °C 9,7 km/h (2 Bft)
07.02.2017 13:45 3,6 °C 3,6 °C 70 % 1015,8 hPa 0,0 mm 2,7 km/h (1 Bft) O-NO 65 ° 0 min 0,000 mm 1,4 UV-I 109 W/m² -1,3 °C 3,6 °C 4,8 km/h (1 Bft)
07.02.2017 13:46 3,6 °C 3,6 °C 69 % 1015,8 hPa 0,0 mm 2,8 km/h (1 Bft) O-NO 65 ° 0 min 0,000 mm 1,7 UV-I 109 W/m² -1,5 °C 3,6 °C 6,4 km/h (2 Bft)
07.02.2017 13:47 3,7 °C 3,7 °C 69 % 1015,9 hPa 0,0 mm 4,5 km/h (1 Bft) NO 39 ° 0 min 0,000 mm 1,9 UV-I 109 W/m² -1,4 °C 3,7 °C 6,4 km/h (2 Bft)
07.02.2017 13:48 3,8 °C 3,8 °C 69 % 1015,8 hPa 0,0 mm 3,6 km/h (1 Bft) NO 43 ° 1 min 0,000 mm 1,9 UV-I 408 W/m² -1,4 °C 3,8 °C 4,8 km/h (1 Bft)
07.02.2017 13:49 3,8 °C 3,8 °C 68 % 1015,9 hPa 0,0 mm 6,1 km/h (2 Bft) NO 41 ° 1 min 0,000 mm 1,9 UV-I 406 W/m² -1,6 °C 2,3 °C 9,7 km/h (2 Bft)
07.02.2017 13:50 3,8 °C 3,8 °C 68 % 1015,9 hPa 0,0 mm 2,6 km/h (1 Bft) N 355 ° 1 min 0,000 mm 1,9 UV-I 404 W/m² -1,6 °C 3,8 °C 4,8 km/h (1 Bft)
07.02.2017 13:51 3,9 °C 3,9 °C 68 % 1015,8 hPa 0,0 mm 5,2 km/h (1 Bft) N 11 ° 1 min 0,000 mm 1,9 UV-I 403 W/m² -1,5 °C 2,8 °C 8,0 km/h (2 Bft)
07.02.2017 13:52 3,9 °C 3,9 °C 68 % 1015,8 hPa 0,0 mm 4,6 km/h (1 Bft) NO 56 ° 1 min 0,000 mm 1,9 UV-I 401 W/m² -1,5 °C 3,0 °C 6,4 km/h (2 Bft)
07.02.2017 13:53 3,8 °C 3,9 °C 68 % 1015,8 hPa 0,0 mm 4,9 km/h (1 Bft) O-NO 71 ° 1 min 0,000 mm 1,9 UV-I 401 W/m² -1,6 °C 2,8 °C 8,0 km/h (2 Bft)
07.02.2017 13:54 3,8 °C 3,9 °C 69 % 1015,7 hPa 0,0 mm 1,9 km/h (1 Bft) O-NO 71 ° 1 min 0,000 mm 1,9 UV-I 401 W/m² -1,4 °C 3,8 °C 4,8 km/h (1 Bft)
07.02.2017 13:55 3,7 °C 3,8 °C 68 % 1015,8 hPa 0,0 mm 1,0 km/h (0 Bft) N-NO 17 ° 1 min 0,000 mm 1,8 UV-I 399 W/m² -1,6 °C 3,7 °C 4,8 km/h (1 Bft)
07.02.2017 13:56 3,8 °C 3,8 °C 69 % 1015,8 hPa 0,0 mm 4,1 km/h (1 Bft) NO 53 ° 1 min 0,000 mm 1,8 UV-I 397 W/m² -1,4 °C 3,8 °C 4,8 km/h (1 Bft)
07.02.2017 13:57 3,8 °C 3,8 °C 69 % 1015,8 hPa 0,0 mm 5,6 km/h (1 Bft) NO 46 ° 1 min 0,000 mm 1,8 UV-I 396 W/m² -1,4 °C 2,5 °C 6,4 km/h (2 Bft)
07.02.2017 13:58 3,8 °C 3,8 °C 68 % 1015,8 hPa 0,0 mm 4,5 km/h (1 Bft) NO 43 ° 1 min 0,000 mm 1,8 UV-I 396 W/m² -1,6 °C 3,8 °C 6,4 km/h (2 Bft)
07.02.2017 13:59 3,8 °C 3,9 °C 68 % 1015,8 hPa 0,0 mm 3,8 km/h (1 Bft) O-NO 67 ° 1 min 0,000 mm 1,8 UV-I 394 W/m² -1,6 °C 3,8 °C 8,0 km/h (2 Bft)
07.02.2017 14:00 3,9 °C 3,9 °C 68 % 1015,8 hPa 0,0 mm 3,6 km/h (1 Bft) N-NO 22 ° 1 min 0,051 mm 1,8 UV-I 394 W/m² -1,5 °C 3,9 °C 4,8 km/h (1 Bft)
07.02.2017 14:01 3,9 °C 3,9 °C 68 % 1015,8 hPa 0,0 mm 4,3 km/h (1 Bft) N-NO 32 ° 1 min 0,000 mm 1,8 UV-I 392 W/m² -1,5 °C 3,9 °C 6,4 km/h (2 Bft)
07.02.2017 14:02 4,1 °C 4,1 °C 68 % 1015,8 hPa 0,0 mm 3,8 km/h (1 Bft) N 11 ° 1 min 0,000 mm 1,8 UV-I 390 W/m² -1,3 °C 4,1 °C 4,8 km/h (1 Bft)
07.02.2017 14:03 4,2 °C 4,2 °C 68 % 1015,8 hPa 0,0 mm 6,6 km/h (2 Bft) N 355 ° 1 min 0,000 mm 1,8 UV-I 390 W/m² -1,2 °C 2,6 °C 8,0 km/h (2 Bft)
07.02.2017 14:04 4,3 °C 4,3 °C 68 % 1015,8 hPa 0,0 mm 5,7 km/h (1 Bft) N 355 ° 1 min 0,000 mm 1,8 UV-I 388 W/m² -1,1 °C 3,0 °C 8,0 km/h (2 Bft)
07.02.2017 14:05 4,3 °C 4,3 °C 67 % 1015,8 hPa 0,0 mm 4,1 km/h (1 Bft) O-NO 61 ° 1 min 0,000 mm 1,8 UV-I 387 W/m² -1,3 °C 4,3 °C 6,4 km/h (2 Bft)
07.02.2017 14:06 4,3 °C 4,3 °C 67 % 1015,8 hPa 0,0 mm 5,0 km/h (1 Bft) O 96 ° 1 min 0,000 mm 1,8 UV-I 387 W/m² -1,3 °C 3,3 °C 6,4 km/h (2 Bft)
07.02.2017 14:07 4,2 °C 4,3 °C 67 % 1015,8 hPa 0,0 mm 3,7 km/h (1 Bft) N-NO 15 ° 1 min 0,000 mm 1,7 UV-I 385 W/m² -1,4 °C 4,2 °C 4,8 km/h (1 Bft)
07.02.2017 14:08 4,2 °C 4,2 °C 67 % 1015,8 hPa 0,0 mm 4,1 km/h (1 Bft) O-NO 60 ° 1 min 0,000 mm 1,6 UV-I 311 W/m² -1,4 °C 4,2 °C 8,0 km/h (2 Bft)
07.02.2017 14:09 4,1 °C 4,2 °C 68 % 1015,8 hPa 0,0 mm 5,0 km/h (1 Bft) O-NO 73 ° 1 min 0,000 mm 1,7 UV-I 381 W/m² -1,3 °C 3,1 °C 6,4 km/h (2 Bft)
07.02.2017 14:10 4,0 °C 4,1 °C 68 % 1015,8 hPa 0,0 mm 4,1 km/h (1 Bft) NO 55 ° 1 min 0,000 mm 1,7 UV-I 380 W/m² -1,4 °C 4,0 °C 8,0 km/h (2 Bft)
07.02.2017 14:11 3,8 °C 4,0 °C 69 % 1015,8 hPa 0,0 mm 3,1 km/h (1 Bft) NO 56 ° 1 min 0,000 mm 1,7 UV-I 374 W/m² -1,4 °C 3,8 °C 4,8 km/h (1 Bft)
07.02.2017 14:12 3,9 °C 3,9 °C 69 % 1015,8 hPa 0,0 mm 7,6 km/h (2 Bft) O 84 ° 1 min 0,000 mm 1,7 UV-I 373 W/m² -1,3 °C 2,0 °C 11,3 km/h (2 Bft)
07.02.2017 14:13 3,9 °C 3,9 °C 69 % 1015,8 hPa 0,0 mm 4,3 km/h (1 Bft) O 84 ° 1 min 0,000 mm 1,7 UV-I 373 W/m² -1,3 °C 3,9 °C 6,4 km/h (2 Bft)
07.02.2017 14:14 3,9 °C 3,9 °C 69 % 1015,8 hPa 0,0 mm 2,7 km/h (1 Bft) NO 40 ° 1 min 0,000 mm 1,7 UV-I 371 W/m² -1,3 °C 3,9 °C 4,8 km/h (1 Bft)
07.02.2017 14:15 3,9 °C 3,9 °C 69 % 1015,8 hPa 0,0 mm 2,1 km/h (1 Bft) NO 40 ° 1 min 0,000 mm 1,7 UV-I 369 W/m² -1,3 °C 3,9 °C 3,2 km/h (1 Bft)
07.02.2017 14:16 3,9 °C 3,9 °C 69 % 1015,8 hPa 0,0 mm 2,8 km/h (1 Bft) N-NO 12 ° 1 min 0,000 mm 1,7 UV-I 369 W/m² -1,3 °C 3,9 °C 4,8 km/h (1 Bft)
07.02.2017 14:17 4,0 °C 4,0 °C 69 % 1015,7 hPa 0,0 mm 1,1 km/h (1 Bft) N-NO 12 ° 1 min 0,000 mm 1,7 UV-I 364 W/m² -1,2 °C 4,0 °C 1,6 km/h (1 Bft)
07.02.2017 14:18 4,1 °C 4,1 °C 69 % 1015,8 hPa 0,0 mm 1,1 km/h (1 Bft) N-NO 12 ° 1 min 0,000 mm 1,6 UV-I 360 W/m² -1,1 °C 4,1 °C 3,2 km/h (1 Bft)
07.02.2017 14:19 4,2 °C 4,2 °C 69 % 1015,7 hPa 0,0 mm 1,7 km/h (1 Bft) SO 145 ° 1 min 0,000 mm 1,6 UV-I 359 W/m² -1,0 °C 4,2 °C 4,8 km/h (1 Bft)
07.02.2017 14:20 4,2 °C 4,2 °C 68 % 1015,7 hPa 0,0 mm 2,5 km/h (1 Bft) O-NO 63 ° 1 min 0,000 mm 1,6 UV-I 352 W/m² -1,2 °C 4,2 °C 4,8 km/h (1 Bft)
07.02.2017 14:21 4,2 °C 4,2 °C 69 % 1015,7 hPa 0,0 mm 5,1 km/h (1 Bft) NO 41 ° 1 min 0,000 mm 1,6 UV-I 348 W/m² -1,0 °C 3,1 °C 6,4 km/h (2 Bft)
07.02.2017 14:22 4,2 °C 4,2 °C 68 % 1015,6 hPa 0,0 mm 4,8 km/h (1 Bft) N-NO 26 ° 1 min 0,000 mm 1,6 UV-I 348 W/m² -1,2 °C 3,3 °C 6,4 km/h (2 Bft)
07.02.2017 14:23 4,1 °C 4,2 °C 69 % 1015,7 hPa 0,0 mm 3,8 km/h (1 Bft) O-NO 67 ° 1 min 0,000 mm 1,6 UV-I 353 W/m² -1,1 °C 4,1 °C 6,4 km/h (2 Bft)
07.02.2017 14:24 4,2 °C 4,2 °C 69 % 1015,6 hPa 0,0 mm 4,8 km/h (1 Bft) NO 44 ° 1 min 0,000 mm 1,6 UV-I 353 W/m² -1,0 °C 3,3 °C 8,0 km/h (2 Bft)
07.02.2017 14:25 4,2 °C 4,2 °C 69 % 1015,7 hPa 0,0 mm 6,6 km/h (2 Bft) NO 48 ° 1 min 0,000 mm 1,6 UV-I 352 W/m² -1,0 °C 2,6 °C 8,0 km/h (2 Bft)
07.02.2017 14:26 4,2 °C 4,3 °C 68 % 1015,7 hPa 0,0 mm 5,6 km/h (1 Bft) NO 40 ° 1 min 0,000 mm 1,6 UV-I 353 W/m² -1,2 °C 2,9 °C 8,0 km/h (2 Bft)
07.02.2017 14:27 4,3 °C 4,3 °C 68 % 1015,6 hPa 0,0 mm 7,5 km/h (2 Bft) N-NO 31 ° 1 min 0,000 mm 1,6 UV-I 352 W/m² -1,1 °C 2,5 °C 9,7 km/h (2 Bft)
07.02.2017 14:28 4,4 °C 4,4 °C 68 % 1015,6 hPa 0,0 mm 5,2 km/h (1 Bft) N-NW 331 ° 1 min 0,000 mm 1,6 UV-I 350 W/m² -1,0 °C 3,3 °C 6,4 km/h (2 Bft)
07.02.2017 14:29 4,4 °C 4,4 °C 68 % 1015,6 hPa 0,0 mm 2,7 km/h (1 Bft) NO 52 ° 1 min 0,000 mm 1,5 UV-I 334 W/m² -1,0 °C 4,4 °C 4,8 km/h (1 Bft)
07.02.2017 14:30 4,4 °C 4,5 °C 68 % 1015,6 hPa 0,0 mm 4,2 km/h (1 Bft) NO 40 ° 1 min 0,000 mm 1,5 UV-I 334 W/m² -1,0 °C 4,4 °C 6,4 km/h (2 Bft)
07.02.2017 14:31 4,5 °C 4,5 °C 68 % 1015,6 hPa 0,0 mm 2,7 km/h (1 Bft) NO 40 ° 1 min 0,000 mm 1,5 UV-I 339 W/m² -0,9 °C 4,5 °C 4,8 km/h (1 Bft)
07.02.2017 14:32 4,4 °C 4,5 °C 68 % 1015,6 hPa 0,0 mm 3,4 km/h (1 Bft) O-NO 76 ° 1 min 0,000 mm 1,5 UV-I 339 W/m² -1,0 °C 4,4 °C 4,8 km/h (1 Bft)
07.02.2017 14:33 4,3 °C 4,5 °C 68 % 1015,6 hPa 0,0 mm 4,3 km/h (1 Bft) O 88 ° 1 min 0,000 mm 1,5 UV-I 338 W/m² -1,1 °C 4,3 °C 8,0 km/h (2 Bft)
07.02.2017 14:34 4,2 °C 4,3 °C 68 % 1015,6 hPa 0,0 mm 6,4 km/h (2 Bft) O-SO 115 ° 1 min 0,000 mm 1,5 UV-I 339 W/m² -1,2 °C 2,7 °C 11,3 km/h (2 Bft)
07.02.2017 14:35 4,1 °C 4,2 °C 68 % 1015,6 hPa 0,0 mm 3,5 km/h (1 Bft) O-SO 107 ° 1 min 0,000 mm 1,5 UV-I 338 W/m² -1,3 °C 4,1 °C 9,7 km/h (2 Bft)
07.02.2017 14:36 4,1 °C 4,1 °C 68 % 1015,6 hPa 0,0 mm 0,7 km/h (0 Bft) O-SO 107 ° 1 min 0,000 mm 1,5 UV-I 338 W/m² -1,3 °C 4,1 °C 1,6 km/h (1 Bft)
07.02.2017 14:37 4,1 °C 4,1 °C 68 % 1015,6 hPa 0,0 mm 2,1 km/h (1 Bft) O-SO 107 ° 1 min 0,000 mm 1,4 UV-I 336 W/m² -1,3 °C 4,1 °C 3,2 km/h (1 Bft)
07.02.2017 14:38 4,0 °C 4,1 °C 68 % 1015,6 hPa 0,0 mm 0,9 km/h (0 Bft) O-SO 107 ° 1 min 0,000 mm 1,4 UV-I 334 W/m² -1,4 °C 4,0 °C 3,2 km/h (1 Bft)
07.02.2017 14:39 4,0 °C 4,0 °C 68 % 1015,6 hPa 0,0 mm 3,0 km/h (1 Bft) O-NO 65 ° 1 min 0,000 mm 1,4 UV-I 332 W/m² -1,4 °C 4,0 °C 4,8 km/h (1 Bft)
07.02.2017 14:40 4,0 °C 4,0 °C 68 % 1015,6 hPa 0,0 mm 3,8 km/h (1 Bft) O-NO 65 ° 1 min 0,000 mm 1,4 UV-I 327 W/m² -1,4 °C 4,0 °C 4,8 km/h (1 Bft)
07.02.2017 14:41 4,1 °C 4,1 °C 68 % 1015,7 hPa 0,0 mm 2,8 km/h (1 Bft) O-NO 65 ° 1 min 0,000 mm 1,4 UV-I 322 W/m² -1,3 °C 4,1 °C 4,8 km/h (1 Bft)
07.02.2017 14:42 4,1 °C 4,1 °C 68 % 1015,7 hPa 0,0 mm 4,3 km/h (1 Bft) O-NO 65 ° 1 min 0,000 mm 1,4 UV-I 316 W/m² -1,3 °C 4,1 °C 6,4 km/h (2 Bft)
07.02.2017 14:43 4,2 °C 4,2 °C 68 % 1015,6 hPa 0,0 mm 2,5 km/h (1 Bft) O-NO 63 ° 1 min 0,000 mm 1,4 UV-I 313 W/m² -1,2 °C 4,2 °C 4,8 km/h (1 Bft)
07.02.2017 14:44 4,1 °C 4,2 °C 68 % 1015,6 hPa 0,0 mm 5,2 km/h (1 Bft) NO 46 ° 1 min 0,000 mm 1,3 UV-I 297 W/m² -1,3 °C 3,0 °C 6,4 km/h (2 Bft)
07.02.2017 14:45 4,1 °C 4,2 °C 68 % 1015,6 hPa 0,0 mm 3,7 km/h (1 Bft) NO 47 ° 1 min 0,000 mm 1,3 UV-I 288 W/m² -1,3 °C 4,1 °C 8,0 km/h (2 Bft)
07.02.2017 14:46 4,0 °C 4,1 °C 68 % 1015,7 hPa 0,0 mm 1,9 km/h (1 Bft) NO 47 ° 1 min 0,000 mm 1,3 UV-I 269 W/m² -1,4 °C 4,0 °C 3,2 km/h (1 Bft)
07.02.2017 14:47 3,9 °C 4,0 °C 69 % 1015,6 hPa 0,0 mm 3,4 km/h (1 Bft) NO 47 ° 1 min 0,000 mm 1,3 UV-I 288 W/m² -1,3 °C 3,9 °C 4,8 km/h (1 Bft)
07.02.2017 14:48 3,9 °C 4,0 °C 69 % 1015,6 hPa 0,0 mm 3,1 km/h (1 Bft) O-NO 78 ° 1 min 0,000 mm 1,3 UV-I 309 W/m² -1,3 °C 3,9 °C 4,8 km/h (1 Bft)
07.02.2017 14:49 4,0 °C 4,0 °C 69 % 1015,7 hPa 0,0 mm 1,5 km/h (1 Bft) O 79 ° 1 min 0,000 mm 1,3 UV-I 309 W/m² -1,2 °C 4,0 °C 3,2 km/h (1 Bft)
07.02.2017 14:50 3,9 °C 4,0 °C 69 % 1015,6 hPa 0,0 mm 3,8 km/h (1 Bft) O 80 ° 1 min 0,000 mm 1,3 UV-I 308 W/m² -1,3 °C 3,9 °C 6,4 km/h (2 Bft)
07.02.2017 14:51 3,8 °C 3,9 °C 70 % 1015,6 hPa 0,0 mm 2,4 km/h (1 Bft) O 80 ° 1 min 0,000 mm 1,3 UV-I 309 W/m² -1,2 °C 3,8 °C 3,2 km/h (1 Bft)
07.02.2017 14:52 3,9 °C 3,9 °C 70 % 1015,6 hPa 0,0 mm 1,5 km/h (1 Bft) O 80 ° 1 min 0,000 mm 1,3 UV-I 302 W/m² -1,1 °C 3,9 °C 3,2 km/h (1 Bft)
07.02.2017 14:53 3,9 °C 3,9 °C 69 % 1015,6 hPa 0,0 mm 0,7 km/h (0 Bft) O 80 ° 1 min 0,000 mm 1,2 UV-I 297 W/m² -1,3 °C 3,9 °C 1,6 km/h (1 Bft)
07.02.2017 14:54 3,9 °C 3,9 °C 69 % 1015,6 hPa 0,0 mm 0,6 km/h (0 Bft) O 80 ° 1 min 0,000 mm 1,2 UV-I 297 W/m² -1,3 °C 3,9 °C 1,6 km/h (1 Bft)
07.02.2017 14:55 4,2 °C 4,2 °C 68 % 1015,6 hPa 0,0 mm 4,3 km/h (1 Bft) N 5 ° 1 min 0,000 mm 1,2 UV-I 292 W/m² -1,2 °C 4,2 °C 6,4 km/h (2 Bft)
07.02.2017 14:56 4,3 °C 4,3 °C 68 % 1015,6 hPa 0,0 mm 5,4 km/h (1 Bft) N 5 ° 1 min 0,000 mm 1,2 UV-I 288 W/m² -1,1 °C 3,1 °C 8,0 km/h (2 Bft)
07.02.2017 14:57 4,4 °C 4,4 °C 67 % 1015,7 hPa 0,0 mm 4,6 km/h (1 Bft) N 5 ° 1 min 0,000 mm 1,1 UV-I 257 W/m² -1,2 °C 3,6 °C 6,4 km/h (2 Bft)
07.02.2017 14:58 4,6 °C 4,6 °C 66 % 1015,7 hPa 0,0 mm 2,3 km/h (1 Bft) N 5 ° 1 min 0,000 mm 1,0 UV-I 209 W/m² -1,2 °C 4,6 °C 3,2 km/h (1 Bft)
07.02.2017 14:59 4,5 °C 4,6 °C 66 % 1015,7 hPa 0,0 mm 1,4 km/h (1 Bft) N 5 ° 1 min 0,000 mm 1,1 UV-I 243 W/m² -1,3 °C 4,5 °C 1,6 km/h (1 Bft)
07.02.2017 15:00 4,4 °C 4,5 °C 67 % 1015,7 hPa 0,0 mm 1,8 km/h (1 Bft) N 5 ° 1 min 0,000 mm 1,0 UV-I 227 W/m² -1,2 °C 4,4 °C 3,2 km/h (1 Bft)
07.02.2017 15:01 4,3 °C 4,4 °C 66 % 1015,7 hPa 0,0 mm 0,3 km/h (0 Bft) N 5 ° 1 min 0,127 mm 1,1 UV-I 236 W/m² -1,5 °C 4,3 °C 1,6 km/h (1 Bft)
07.02.2017 15:02 4,3 °C 4,3 °C 67 % 1015,7 hPa 0,0 mm 1,2 km/h (1 Bft) N 5 ° 1 min 0,000 mm 1,1 UV-I 255 W/m² -1,3 °C 4,3 °C 3,2 km/h (1 Bft)
07.02.2017 15:03 4,2 °C 4,3 °C 67 % 1015,7 hPa 0,0 mm 1,3 km/h (1 Bft) NO 44 ° 1 min 0,000 mm 1,0 UV-I 241 W/m² -1,4 °C 4,2 °C 4,8 km/h (1 Bft)
07.02.2017 15:04 4,1 °C 4,2 °C 67 % 1015,7 hPa 0,0 mm 3,0 km/h (1 Bft) NO 44 ° 1 min 0,000 mm 1,0 UV-I 229 W/m² -1,5 °C 4,1 °C 4,8 km/h (1 Bft)
07.02.2017 15:05 3,9 °C 4,1 °C 67 % 1015,7 hPa 0,0 mm 0,8 km/h (0 Bft) NO 44 ° 1 min 0,000 mm 1,0 UV-I 207 W/m² -1,7 °C 3,9 °C 3,2 km/h (1 Bft)
07.02.2017 15:06 3,8 °C 3,9 °C 68 % 1015,6 hPa 0,0 mm 2,4 km/h (1 Bft) NO 45 ° 1 min 0,000 mm 1,0 UV-I 221 W/m² -1,6 °C 3,8 °C 4,8 km/h (1 Bft)
07.02.2017 15:07 3,8 °C 3,8 °C 68 % 1015,6 hPa 0,0 mm 2,1 km/h (1 Bft) NO 44 ° 1 min 0,000 mm 1,0 UV-I 239 W/m² -1,6 °C 3,8 °C 3,2 km/h (1 Bft)
07.02.2017 15:08 3,8 °C 3,8 °C 68 % 1015,7 hPa 0,0 mm 1,3 km/h (1 Bft) NO 44 ° 0 min 0,000 mm 1,0 UV-I 174 W/m² -1,6 °C 3,8 °C 3,2 km/h (1 Bft)
07.02.2017 15:09 3,8 °C 3,8 °C 68 % 1015,6 hPa 0,0 mm 0,7 km/h (0 Bft) NO 45 ° 0 min 0,000 mm 1,0 UV-I 197 W/m² -1,6 °C 3,8 °C 1,6 km/h (1 Bft)
07.02.2017 15:10 3,8 °C 3,8 °C 68 % 1015,7 hPa 0,0 mm 1,3 km/h (1 Bft) NO 44 ° 0 min 0,000 mm 1,0 UV-I 197 W/m² -1,6 °C 3,8 °C 1,6 km/h (1 Bft)
07.02.2017 15:11 3,8 °C 3,9 °C 68 % 1015,7 hPa 0,0 mm 1,9 km/h (1 Bft) NO 45 ° 0 min 0,000 mm 0,9 UV-I 186 W/m² -1,6 °C 3,8 °C 4,8 km/h (1 Bft)
07.02.2017 15:12 3,9 °C 3,9 °C 68 % 1015,7 hPa 0,0 mm 1,7 km/h (1 Bft) O-NO 76 ° 0 min 0,000 mm 0,9 UV-I 188 W/m² -1,5 °C 3,9 °C 6,4 km/h (2 Bft)
07.02.2017 15:13 4,0 °C 4,0 °C 69 % 1015,7 hPa 0,0 mm 4,8 km/h (1 Bft) O-NO 64 ° 0 min 0,000 mm 0,9 UV-I 192 W/m² -1,2 °C 3,0 °C 8,0 km/h (2 Bft)
07.02.2017 15:14 3,9 °C 4,0 °C 68 % 1015,7 hPa 0,0 mm 4,7 km/h (1 Bft) O-NO 73 ° 0 min 0,000 mm 0,9 UV-I 141 W/m² -1,5 °C 3,0 °C 6,4 km/h (2 Bft)
07.02.2017 15:15 3,9 °C 3,9 °C 68 % 1015,7 hPa 0,0 mm 1,4 km/h (1 Bft) O-NO 73 ° 0 min 0,000 mm 0,9 UV-I 132 W/m² -1,5 °C 3,9 °C 3,2 km/h (1 Bft)
07.02.2017 15:16 3,9 °C 3,9 °C 68 % 1015,7 hPa 0,0 mm 1,5 km/h (1 Bft) O-NO 73 ° 0 min 0,000 mm 0,9 UV-I 144 W/m² -1,5 °C 3,9 °C 3,2 km/h (1 Bft)
07.02.2017 15:17 4,0 °C 4,0 °C 68 % 1015,7 hPa 0,0 mm 2,4 km/h (1 Bft) O-NO 73 ° 0 min 0,000 mm 0,9 UV-I 139 W/m² -1,4 °C 4,0 °C 3,2 km/h (1 Bft)
07.02.2017 15:18 4,1 °C 4,1 °C 68 % 1015,7 hPa 0,0 mm 1,1 km/h (1 Bft) O-NO 73 ° 0 min 0,000 mm 0,9 UV-I 142 W/m² -1,3 °C 4,1 °C 1,6 km/h (1 Bft)
07.02.2017 15:19 4,1 °C 4,1 °C 67 % 1015,7 hPa 0,0 mm 0,7 km/h (0 Bft) O-NO 73 ° 0 min 0,000 mm 0,9 UV-I 148 W/m² -1,5 °C 4,1 °C 1,6 km/h (1 Bft)
07.02.2017 15:20 4,2 °C 4,2 °C 67 % 1015,7 hPa 0,0 mm 0,3 km/h (0 Bft) O-NO 73 ° 0 min 0,000 mm 0,9 UV-I 197 W/m² -1,4 °C 4,2 °C 1,6 km/h (1 Bft)
07.02.2017 15:21 4,1 °C 4,2 °C 67 % 1015,7 hPa 0,0 mm 1,4 km/h (1 Bft) O-NO 73 ° 1 min 0,000 mm 0,9 UV-I 202 W/m² -1,5 °C 4,1 °C 3,2 km/h (1 Bft)
07.02.2017 15:22 4,1 °C 4,2 °C 67 % 1015,7 hPa 0,0 mm 0,7 km/h (0 Bft) O-NO 73 ° 0 min 0,000 mm 0,9 UV-I 146 W/m² -1,5 °C 4,1 °C 1,6 km/h (1 Bft)
07.02.2017 15:23 3,9 °C 4,1 °C 67 % 1015,7 hPa 0,0 mm 0,0 km/h (0 Bft) O-NO 73 ° 0 min 0,000 mm 0,8 UV-I 127 W/m² -1,7 °C 3,9 °C 0,0 km/h (0 Bft)
07.02.2017 15:24 3,9 °C 3,9 °C 67 % 1015,7 hPa 0,0 mm 0,2 km/h (0 Bft) O-NO 73 ° 0 min 0,000 mm 0,8 UV-I 125 W/m² -1,7 °C 3,9 °C 1,6 km/h (1 Bft)
07.02.2017 15:25 3,9 °C 3,9 °C 67 % 1015,7 hPa 0,0 mm 1,6 km/h (1 Bft) O-NO 73 ° 0 min 0,000 mm 0,8 UV-I 127 W/m² -1,7 °C 3,9 °C 3,2 km/h (1 Bft)
07.02.2017 15:26 3,9 °C 4,0 °C 67 % 1015,7 hPa 0,0 mm 4,8 km/h (1 Bft) N-NO 32 ° 0 min 0,000 mm 0,8 UV-I 128 W/m² -1,7 °C 2,9 °C 6,4 km/h (2 Bft)
07.02.2017 15:27 3,9 °C 3,9 °C 68 % 1015,6 hPa 0,0 mm 2,3 km/h (1 Bft) N-NO 32 ° 0 min 0,000 mm 0,8 UV-I 141 W/m² -1,5 °C 3,9 °C 3,2 km/h (1 Bft)
07.02.2017 15:28 3,9 °C 3,9 °C 68 % 1015,7 hPa 0,0 mm 3,7 km/h (1 Bft) O-NO 74 ° 0 min 0,000 mm 0,8 UV-I 134 W/m² -1,5 °C 3,9 °C 4,8 km/h (1 Bft)
07.02.2017 15:29 3,9 °C 3,9 °C 69 % 1015,7 hPa 0,0 mm 4,8 km/h (1 Bft) O-NO 74 ° 0 min 0,000 mm 0,8 UV-I 134 W/m² -1,3 °C 2,9 °C 6,4 km/h (2 Bft)
07.02.2017 15:30 3,9 °C 3,9 °C 69 % 1015,7 hPa 0,0 mm 3,0 km/h (1 Bft) O-NO 74 ° 0 min 0,000 mm 0,8 UV-I 123 W/m² -1,3 °C 3,9 °C 6,4 km/h (2 Bft)
07.02.2017 15:31 3,9 °C 3,9 °C 69 % 1015,7 hPa 0,0 mm 5,4 km/h (1 Bft) O-NO 63 ° 0 min 0,000 mm 0,8 UV-I 114 W/m² -1,3 °C 2,7 °C 6,4 km/h (2 Bft)
07.02.2017 15:32 3,9 °C 3,9 °C 69 % 1015,7 hPa 0,0 mm 1,3 km/h (1 Bft) O-NO 63 ° 0 min 0,000 mm 0,8 UV-I 107 W/m² -1,3 °C 3,9 °C 3,2 km/h (1 Bft)
07.02.2017 15:33 3,9 °C 3,9 °C 69 % 1015,7 hPa 0,0 mm 1,5 km/h (1 Bft) O-NO 63 ° 0 min 0,000 mm 0,8 UV-I 105 W/m² -1,3 °C 3,9 °C 3,2 km/h (1 Bft)
07.02.2017 15:34 3,9 °C 3,9 °C 69 % 1015,7 hPa 0,0 mm 4,1 km/h (1 Bft) O-NO 66 ° 0 min 0,000 mm 0,8 UV-I 116 W/m² -1,3 °C 3,9 °C 6,4 km/h (2 Bft)
07.02.2017 15:35 3,9 °C 3,9 °C 69 % 1015,7 hPa 0,0 mm 3,1 km/h (1 Bft) O-NO 66 ° 0 min 0,000 mm 0,8 UV-I 127 W/m² -1,3 °C 3,9 °C 4,8 km/h (1 Bft)
07.02.2017 15:36 3,9 °C 3,9 °C 69 % 1015,7 hPa 0,0 mm 1,7 km/h (1 Bft) O-NO 66 ° 0 min 0,000 mm 0,8 UV-I 125 W/m² -1,3 °C 3,9 °C 4,8 km/h (1 Bft)
07.02.2017 15:37 3,9 °C 3,9 °C 69 % 1015,7 hPa 0,0 mm 2,8 km/h (1 Bft) O-NO 65 ° 0 min 0,000 mm 0,8 UV-I 118 W/m² -1,3 °C 3,9 °C 4,8 km/h (1 Bft)
07.02.2017 15:38 3,9 °C 3,9 °C 69 % 1015,7 hPa 0,0 mm 3,6 km/h (1 Bft) O-NO 57 ° 0 min 0,000 mm 0,7 UV-I 118 W/m² -1,3 °C 3,9 °C 4,8 km/h (1 Bft)
07.02.2017 15:39 4,1 °C 4,1 °C 69 % 1015,7 hPa 0,0 mm 3,4 km/h (1 Bft) NO 55 ° 0 min 0,000 mm 0,7 UV-I 107 W/m² -1,1 °C 4,1 °C 4,8 km/h (1 Bft)
07.02.2017 15:40 4,0 °C 4,1 °C 69 % 1015,7 hPa 0,0 mm 2,2 km/h (1 Bft) NO 55 ° 0 min 0,000 mm 0,7 UV-I 104 W/m² -1,2 °C 4,0 °C 4,8 km/h (1 Bft)
07.02.2017 15:41 4,0 °C 4,0 °C 69 % 1015,8 hPa 0,0 mm 5,3 km/h (1 Bft) O 81 ° 0 min 0,000 mm 0,7 UV-I 100 W/m² -1,2 °C 2,8 °C 8,0 km/h (2 Bft)
07.02.2017 15:42 3,9 °C 4,0 °C 70 % 1015,7 hPa 0,0 mm 5,5 km/h (1 Bft) O-NO 65 ° 0 min 0,000 mm 0,7 UV-I 100 W/m² -1,1 °C 2,6 °C 8,0 km/h (2 Bft)
07.02.2017 15:43 3,9 °C 3,9 °C 69 % 1015,7 hPa 0,0 mm 5,3 km/h (1 Bft) O-NO 65 ° 0 min 0,000 mm 0,7 UV-I 100 W/m² -1,3 °C 2,7 °C 8,0 km/h (2 Bft)
07.02.2017 15:44 3,9 °C 3,9 °C 70 % 1015,8 hPa 0,0 mm 2,6 km/h (1 Bft) O-NO 65 ° 0 min 0,000 mm 0,7 UV-I 98 W/m² -1,1 °C 3,9 °C 3,2 km/h (1 Bft)
07.02.2017 15:45 3,9 °C 3,9 °C 69 % 1015,8 hPa 0,0 mm 3,3 km/h (1 Bft) O-NO 65 ° 0 min 0,000 mm 0,7 UV-I 91 W/m² -1,3 °C 3,9 °C 4,8 km/h (1 Bft)
07.02.2017 15:46 3,9 °C 3,9 °C 69 % 1015,8 hPa 0,0 mm 2,1 km/h (1 Bft) O-NO 65 ° 0 min 0,000 mm 0,6 UV-I 88 W/m² -1,3 °C 3,9 °C 3,2 km/h (1 Bft)
07.02.2017 15:47 3,9 °C 3,9 °C 70 % 1015,8 hPa 0,0 mm 1,4 km/h (1 Bft) O-NO 65 ° 0 min 0,000 mm 0,6 UV-I 86 W/m² -1,1 °C 3,9 °C 3,2 km/h (1 Bft)
07.02.2017 15:48 3,9 °C 3,9 °C 70 % 1015,8 hPa 0,0 mm 2,8 km/h (1 Bft) O-NO 65 ° 0 min 0,000 mm 0,6 UV-I 84 W/m² -1,1 °C 3,9 °C 3,2 km/h (1 Bft)
07.02.2017 15:49 3,8 °C 3,9 °C 71 % 1015,8 hPa 0,0 mm 4,0 km/h (1 Bft) O 91 ° 0 min 0,000 mm 0,6 UV-I 81 W/m² -1,0 °C 3,8 °C 4,8 km/h (1 Bft)
07.02.2017 15:50 3,8 °C 3,8 °C 70 % 1015,8 hPa 0,0 mm 3,2 km/h (1 Bft) O 91 ° 0 min 0,000 mm 0,6 UV-I 79 W/m² -1,2 °C 3,8 °C 4,8 km/h (1 Bft)
07.02.2017 15:51 3,8 °C 3,8 °C 70 % 1015,8 hPa 0,0 mm 2,5 km/h (1 Bft) O-NO 67 ° 0 min 0,000 mm 0,6 UV-I 74 W/m² -1,2 °C 3,8 °C 4,8 km/h (1 Bft)
07.02.2017 15:52 3,8 °C 3,8 °C 70 % 1015,8 hPa 0,0 mm 2,4 km/h (1 Bft) O-NO 71 ° 0 min 0,000 mm 0,6 UV-I 74 W/m² -1,2 °C 3,8 °C 3,2 km/h (1 Bft)
07.02.2017 15:53 3,8 °C 3,8 °C 70 % 1015,8 hPa 0,0 mm 3,2 km/h (1 Bft) O-NO 63 ° 0 min 0,000 mm 0,6 UV-I 72 W/m² -1,2 °C 3,8 °C 6,4 km/h (2 Bft)
07.02.2017 15:54 3,8 °C 3,8 °C 69 % 1015,8 hPa 0,0 mm 2,0 km/h (1 Bft) O-NO 63 ° 0 min 0,000 mm 0,6 UV-I 72 W/m² -1,4 °C 3,8 °C 3,2 km/h (1 Bft)
07.02.2017 15:55 3,9 °C 3,9 °C 69 % 1015,8 hPa 0,0 mm 3,2 km/h (1 Bft) O-NO 63 ° 0 min 0,000 mm 0,5 UV-I 72 W/m² -1,3 °C 3,9 °C 4,8 km/h (1 Bft)
07.02.2017 15:56 3,9 °C 3,9 °C 70 % 1015,8 hPa 0,0 mm 1,1 km/h (1 Bft) O-NO 63 ° 0 min 0,000 mm 0,5 UV-I 72 W/m² -1,1 °C 3,9 °C 1,6 km/h (1 Bft)
07.02.2017 15:57 3,9 °C 3,9 °C 70 % 1015,8 hPa 0,0 mm 0,5 km/h (0 Bft) O-NO 63 ° 0 min 0,000 mm 0,5 UV-I 72 W/m² -1,1 °C 3,9 °C 3,2 km/h (1 Bft)
07.02.2017 15:58 3,9 °C 3,9 °C 70 % 1015,8 hPa 0,0 mm 5,2 km/h (1 Bft) O-NO 67 ° 0 min 0,000 mm 0,5 UV-I 72 W/m² -1,1 °C 2,8 °C 6,4 km/h (2 Bft)
07.02.2017 15:59 3,8 °C 3,9 °C 70 % 1015,9 hPa 0,0 mm 3,2 km/h (1 Bft) O-NO 67 ° 0 min 0,000 mm 0,5 UV-I 72 W/m² -1,2 °C 3,8 °C 4,8 km/h (1 Bft)
07.02.2017 16:00 3,8 °C 3,8 °C 70 % 1015,9 hPa 0,0 mm 2,6 km/h (1 Bft) O-NO 67 ° 0 min 0,051 mm 0,5 UV-I 72 W/m² -1,2 °C 3,8 °C 4,8 km/h (1 Bft)
07.02.2017 16:01 3,8 °C 3,8 °C 70 % 1015,9 hPa 0,0 mm 1,2 km/h (1 Bft) O-NO 67 ° 0 min 0,000 mm 0,5 UV-I 72 W/m² -1,2 °C 3,8 °C 3,2 km/h (1 Bft)
07.02.2017 16:02 3,8 °C 3,8 °C 70 % 1015,9 hPa 0,0 mm 0,5 km/h (0 Bft) O-NO 67 ° 0 min 0,000 mm 0,5 UV-I 72 W/m² -1,2 °C 3,8 °C 1,6 km/h (1 Bft)
07.02.2017 16:03 3,7 °C 3,8 °C 70 % 1015,9 hPa 0,0 mm 0,7 km/h (0 Bft) O-NO 67 ° 0 min 0,000 mm 0,5 UV-I 72 W/m² -1,3 °C 3,7 °C 1,6 km/h (1 Bft)
07.02.2017 16:04 3,7 °C 3,8 °C 70 % 1015,9 hPa 0,0 mm 1,5 km/h (1 Bft) O-NO 67 ° 0 min 0,000 mm 0,5 UV-I 72 W/m² -1,3 °C 3,7 °C 3,2 km/h (1 Bft)
07.02.2017 16:05 3,7 °C 3,7 °C 70 % 1015,9 hPa 0,0 mm 1,5 km/h (1 Bft) O-NO 67 ° 0 min 0,000 mm 0,5 UV-I 74 W/m² -1,3 °C 3,7 °C 3,2 km/h (1 Bft)
07.02.2017 16:06 3,7 °C 3,7 °C 71 % 1015,9 hPa 0,0 mm 1,0 km/h (0 Bft) O-NO 67 ° 0 min 0,000 mm 0,5 UV-I 74 W/m² -1,1 °C 3,7 °C 1,6 km/h (1 Bft)
07.02.2017 16:07 3,6 °C 3,7 °C 71 % 1015,9 hPa 0,0 mm 0,2 km/h (0 Bft) O-NO 67 ° 0 min 0,000 mm 0,0 UV-I 74 W/m² -1,2 °C 3,6 °C 1,6 km/h (1 Bft)
07.02.2017 16:08 3,6 °C 3,6 °C 71 % 1015,9 hPa 0,0 mm 0,3 km/h (0 Bft) O-NO 67 ° 0 min 0,000 mm 0,0 UV-I 74 W/m² -1,2 °C 3,6 °C 1,6 km/h (1 Bft)
07.02.2017 16:09 3,7 °C 3,7 °C 70 % 1015,9 hPa 0,0 mm 0,1 km/h (0 Bft) O-NO 67 ° 0 min 0,000 mm 0,0 UV-I 76 W/m² -1,3 °C 3,7 °C 1,6 km/h (1 Bft)
07.02.2017 16:10 3,7 °C 3,7 °C 70 % 1015,9 hPa 0,0 mm 1,9 km/h (1 Bft) O-NO 67 ° 0 min 0,000 mm 0,0 UV-I 76 W/m² -1,3 °C 3,7 °C 3,2 km/h (1 Bft)
07.02.2017 16:11 3,6 °C 3,7 °C 72 % 1015,9 hPa 0,0 mm 3,7 km/h (1 Bft) O-NO 67 ° 0 min 0,000 mm 0,0 UV-I 76 W/m² -1,0 °C 3,6 °C 4,8 km/h (1 Bft)
07.02.2017 16:12 3,4 °C 3,6 °C 73 % 1015,9 hPa 0,0 mm 2,3 km/h (1 Bft) O-NO 67 ° 0 min 0,000 mm 0,0 UV-I 76 W/m² -1,0 °C 3,4 °C 3,2 km/h (1 Bft)
07.02.2017 16:13 3,3 °C 3,4 °C 73 % 1015,9 hPa 0,0 mm 2,3 km/h (1 Bft) O-NO 67 ° 0 min 0,000 mm 0,0 UV-I 76 W/m² -1,1 °C 3,3 °C 3,2 km/h (1 Bft)
07.02.2017 16:14 3,3 °C 3,3 °C 73 % 1015,9 hPa 0,0 mm 2,9 km/h (1 Bft) O-NO 67 ° 0 min 0,000 mm 0,0 UV-I 77 W/m² -1,1 °C 3,3 °C 4,8 km/h (1 Bft)
07.02.2017 16:15 3,3 °C 3,3 °C 73 % 1015,9 hPa 0,0 mm 0,7 km/h (0 Bft) O-NO 67 ° 0 min 0,000 mm 0,0 UV-I 77 W/m² -1,1 °C 3,3 °C 1,6 km/h (1 Bft)
07.02.2017 16:16 3,4 °C 3,4 °C 72 % 1015,9 hPa 0,0 mm 1,9 km/h (1 Bft) O-NO 67 ° 0 min 0,000 mm 0,0 UV-I 76 W/m² -1,2 °C 3,4 °C 3,2 km/h (1 Bft)
07.02.2017 16:17 3,4 °C 3,5 °C 73 % 1015,9 hPa 0,0 mm 2,9 km/h (1 Bft) O-NO 67 ° 0 min 0,000 mm 0,0 UV-I 76 W/m² -1,0 °C 3,4 °C 4,8 km/h (1 Bft)
07.02.2017 16:18 3,5 °C 3,5 °C 73 % 1015,8 hPa 0,0 mm 2,1 km/h (1 Bft) O-NO 67 ° 0 min 0,000 mm 0,0 UV-I 76 W/m² -0,9 °C 3,5 °C 3,2 km/h (1 Bft)
07.02.2017 16:19 3,5 °C 3,5 °C 72 % 1015,9 hPa 0,0 mm 2,0 km/h (1 Bft) O-NO 67 ° 0 min 0,000 mm 0,0 UV-I 74 W/m² -1,1 °C 3,5 °C 3,2 km/h (1 Bft)
07.02.2017 16:20 3,6 °C 3,6 °C 72 % 1015,9 hPa 0,0 mm 1,9 km/h (1 Bft) O-NO 67 ° 0 min 0,000 mm 0,0 UV-I 72 W/m² -1,0 °C 3,6 °C 3,2 km/h (1 Bft)
07.02.2017 16:21 3,6 °C 3,6 °C 72 % 1015,9 hPa 0,0 mm 1,5 km/h (1 Bft) O-NO 67 ° 0 min 0,000 mm 0,0 UV-I 70 W/m² -1,0 °C 3,6 °C 3,2 km/h (1 Bft)
07.02.2017 16:22 3,6 °C 3,6 °C 72 % 1015,8 hPa 0,0 mm 0,2 km/h (0 Bft) O-NO 67 ° 0 min 0,000 mm 0,0 UV-I 70 W/m² -1,0 °C 3,6 °C 1,6 km/h (1 Bft)
07.02.2017 16:23 3,6 °C 3,6 °C 72 % 1015,9 hPa 0,0 mm 1,0 km/h (0 Bft) O-NO 67 ° 0 min 0,000 mm 0,0 UV-I 67 W/m² -1,0 °C 3,6 °C 1,6 km/h (1 Bft)
07.02.2017 16:24 3,6 °C 3,6 °C 71 % 1015,9 hPa 0,0 mm 1,2 km/h (1 Bft) O-NO 67 ° 0 min 0,000 mm 0,0 UV-I 67 W/m² -1,2 °C 3,6 °C 3,2 km/h (1 Bft)
07.02.2017 16:25 3,7 °C 3,7 °C 72 % 1015,9 hPa 0,0 mm 2,7 km/h (1 Bft) O-NO 67 ° 0 min 0,000 mm 0,0 UV-I 63 W/m² -0,9 °C 3,7 °C 3,2 km/h (1 Bft)
07.02.2017 16:26 3,7 °C 3,7 °C 71 % 1015,9 hPa 0,0 mm 2,2 km/h (1 Bft) O-NO 67 ° 0 min 0,000 mm 0,0 UV-I 62 W/m² -1,1 °C 3,7 °C 3,2 km/h (1 Bft)
07.02.2017 16:27 3,7 °C 3,7 °C 71 % 1015,9 hPa 0,0 mm 1,5 km/h (1 Bft) O-NO 67 ° 0 min 0,000 mm 0,0 UV-I 60 W/m² -1,1 °C 3,7 °C 3,2 km/h (1 Bft)
07.02.2017 16:28 3,7 °C 3,7 °C 71 % 1015,9 hPa 0,0 mm 1,3 km/h (1 Bft) O-NO 67 ° 0 min 0,000 mm 0,0 UV-I 58 W/m² -1,1 °C 3,7 °C 3,2 km/h (1 Bft)
07.02.2017 16:29 3,7 °C 3,7 °C 71 % 1015,9 hPa 0,0 mm 0,0 km/h (0 Bft) O-NO 67 ° 0 min 0,000 mm 0,0 UV-I 56 W/m² -1,1 °C 3,7 °C 0,0 km/h (0 Bft)
07.02.2017 16:30 3,7 °C 3,7 °C 71 % 1015,9 hPa 0,0 mm 0,0 km/h (0 Bft) O-NO 67 ° 0 min 0,000 mm 0,0 UV-I 56 W/m² -1,1 °C 3,7 °C 0,0 km/h (0 Bft)
07.02.2017 16:31 3,7 °C 3,7 °C 71 % 1015,9 hPa 0,0 mm 1,0 km/h (0 Bft) O-NO 67 ° 0 min 0,000 mm 0,0 UV-I 54 W/m² -1,1 °C 3,7 °C 1,6 km/h (1 Bft)
07.02.2017 16:32 3,7 °C 3,7 °C 71 % 1015,9 hPa 0,0 mm 0,1 km/h (0 Bft) O-NO 67 ° 0 min 0,000 mm 0,0 UV-I 53 W/m² -1,1 °C 3,7 °C 1,6 km/h (1 Bft)
07.02.2017 16:33 3,7 °C 3,7 °C 70 % 1015,9 hPa 0,0 mm 0,0 km/h (0 Bft) O-NO 67 ° 0 min 0,000 mm 0,0 UV-I 51 W/m² -1,3 °C 3,7 °C 0,0 km/h (0 Bft)
07.02.2017 16:34 3,7 °C 3,7 °C 70 % 1016,0 hPa 0,0 mm 0,3 km/h (0 Bft) O-NO 67 ° 0 min 0,000 mm 0,0 UV-I 49 W/m² -1,3 °C 3,7 °C 1,6 km/h (1 Bft)
07.02.2017 16:35 3,7 °C 3,7 °C 70 % 1016,0 hPa 0,0 mm 0,1 km/h (0 Bft) O-NO 67 ° 0 min 0,000 mm 0,0 UV-I 47 W/m² -1,3 °C 3,7 °C 1,6 km/h (1 Bft)
07.02.2017 16:36 3,7 °C 3,7 °C 71 % 1016,0 hPa 0,0 mm 0,1 km/h (0 Bft) O-NO 67 ° 0 min 0,000 mm 0,0 UV-I 47 W/m² -1,1 °C 3,7 °C 1,6 km/h (1 Bft)
07.02.2017 16:37 3,7 °C 3,7 °C 71 % 1016,0 hPa 0,0 mm 0,3 km/h (0 Bft) O-NO 67 ° 0 min 0,000 mm 0,0 UV-I 46 W/m² -1,1 °C 3,7 °C 1,6 km/h (1 Bft)
07.02.2017 16:38 3,7 °C 3,7 °C 71 % 1016,0 hPa 0,0 mm 0,0 km/h (0 Bft) O-NO 67 ° 0 min 0,000 mm 0,0 UV-I 44 W/m² -1,1 °C 3,7 °C 0,0 km/h (0 Bft)
07.02.2017 16:39 3,7 °C 3,7 °C 71 % 1016,0 hPa 0,0 mm 0,1 km/h (0 Bft) O-NO 67 ° 0 min 0,000 mm 0,0 UV-I 42 W/m² -1,1 °C 3,7 °C 1,6 km/h (1 Bft)
07.02.2017 16:40 3,7 °C 3,7 °C 71 % 1015,9 hPa 0,0 mm 0,0 km/h (0 Bft) O-NO 67 ° 0 min 0,000 mm 0,0 UV-I 42 W/m² -1,1 °C 3,7 °C 0,0 km/h (0 Bft)
07.02.2017 16:41 3,6 °C 3,7 °C 71 % 1016,0 hPa 0,0 mm 0,1 km/h (0 Bft) O-NO 67 ° 0 min 0,000 mm 0,0 UV-I 42 W/m² -1,2 °C 3,6 °C 1,6 km/h (1 Bft)
07.02.2017 16:42 3,5 °C 3,6 °C 71 % 1016,0 hPa 0,0 mm 0,1 km/h (0 Bft) O-NO 67 ° 0 min 0,000 mm 0,0 UV-I 40 W/m² -1,3 °C 3,5 °C 1,6 km/h (1 Bft)
07.02.2017 16:43 3,6 °C 3,6 °C 72 % 1015,9 hPa 0,0 mm 0,9 km/h (0 Bft) O-NO 67 ° 0 min 0,000 mm 0,0 UV-I 39 W/m² -1,0 °C 3,6 °C 1,6 km/h (1 Bft)
07.02.2017 16:44 3,5 °C 3,6 °C 73 % 1016,0 hPa 0,0 mm 1,7 km/h (1 Bft) O-NO 67 ° 0 min 0,000 mm 0,0 UV-I 39 W/m² -0,9 °C 3,5 °C 3,2 km/h (1 Bft)
07.02.2017 16:45 3,4 °C 3,5 °C 74 % 1015,9 hPa 0,0 mm 3,4 km/h (1 Bft) O-NO 67 ° 0 min 0,000 mm 0,0 UV-I 37 W/m² -0,8 °C 3,4 °C 4,8 km/h (1 Bft)
07.02.2017 16:46 3,3 °C 3,4 °C 74 % 1016,0 hPa 0,0 mm 3,3 km/h (1 Bft) O-NO 68 ° 0 min 0,000 mm 0,0 UV-I 37 W/m² -0,9 °C 3,3 °C 4,8 km/h (1 Bft)
07.02.2017 16:47 3,4 °C 3,4 °C 73 % 1015,9 hPa 0,0 mm 3,0 km/h (1 Bft) O-NO 68 ° 0 min 0,000 mm 0,0 UV-I 35 W/m² -1,0 °C 3,4 °C 4,8 km/h (1 Bft)
07.02.2017 16:48 3,4 °C 3,4 °C 73 % 1016,0 hPa 0,0 mm 2,8 km/h (1 Bft) O-NO 68 ° 0 min 0,000 mm 0,0 UV-I 35 W/m² -1,0 °C 3,4 °C 4,8 km/h (1 Bft)
07.02.2017 16:49 3,3 °C 3,4 °C 74 % 1016,0 hPa 0,0 mm 1,1 km/h (1 Bft) O-NO 68 ° 0 min 0,000 mm 0,0 UV-I 33 W/m² -0,9 °C 3,3 °C 1,6 km/h (1 Bft)
07.02.2017 16:50 3,3 °C 3,3 °C 74 % 1016,0 hPa 0,0 mm 0,9 km/h (0 Bft) O-NO 68 ° 0 min 0,000 mm 0,0 UV-I 32 W/m² -0,9 °C 3,3 °C 1,6 km/h (1 Bft)
07.02.2017 16:51 3,4 °C 3,4 °C 73 % 1016,0 hPa 0,0 mm 0,5 km/h (0 Bft) O-NO 68 ° 0 min 0,000 mm 0,0 UV-I 32 W/m² -1,0 °C 3,4 °C 1,6 km/h (1 Bft)
07.02.2017 16:52 3,4 °C 3,4 °C 74 % 1016,0 hPa 0,0 mm 0,0 km/h (0 Bft) O-NO 68 ° 0 min 0,000 mm 0,0 UV-I 30 W/m² -0,8 °C 3,4 °C 0,0 km/h (0 Bft)
07.02.2017 16:53 3,4 °C 3,4 °C 74 % 1016,0 hPa 0,0 mm 0,3 km/h (0 Bft) O-NO 68 ° 0 min 0,000 mm 0,0 UV-I 30 W/m² -0,8 °C 3,4 °C 1,6 km/h (1 Bft)
07.02.2017 16:54 3,4 °C 3,4 °C 74 % 1016,0 hPa 0,0 mm 0,1 km/h (0 Bft) O-NO 68 ° 0 min 0,000 mm 0,0 UV-I 28 W/m² -0,8 °C 3,4 °C 1,6 km/h (1 Bft)
07.02.2017 16:55 3,4 °C 3,4 °C 73 % 1016,0 hPa 0,0 mm 0,0 km/h (0 Bft) O-NO 68 ° 0 min 0,000 mm 0,0 UV-I 26 W/m² -1,0 °C 3,4 °C 0,0 km/h (0 Bft)
07.02.2017 16:56 3,3 °C 3,4 °C 74 % 1016,1 hPa 0,0 mm 0,3 km/h (0 Bft) O-NO 68 ° 0 min 0,000 mm 0,0 UV-I 26 W/m² -0,9 °C 3,3 °C 1,6 km/h (1 Bft)
07.02.2017 16:57 3,3 °C 3,4 °C 74 % 1016,1 hPa 0,0 mm 1,6 km/h (1 Bft) O-NO 68 ° 0 min 0,000 mm 0,0 UV-I 25 W/m² -0,9 °C 3,3 °C 3,2 km/h (1 Bft)
07.02.2017 16:58 3,3 °C 3,3 °C 74 % 1016,1 hPa 0,0 mm 0,0 km/h (0 Bft) O-NO 68 ° 0 min 0,000 mm 0,0 UV-I 25 W/m² -0,9 °C 3,3 °C 0,0 km/h (0 Bft)
07.02.2017 16:59 3,3 °C 3,3 °C 74 % 1016,1 hPa 0,0 mm 0,1 km/h (0 Bft) O-NO 68 ° 0 min 0,000 mm 0,0 UV-I 25 W/m² -0,9 °C 3,3 °C 1,6 km/h (1 Bft)
07.02.2017 17:00 3,4 °C 3,4 °C 74 % 1016,1 hPa 0,0 mm 0,0 km/h (0 Bft) O-NO 68 ° 0 min 0,000 mm 0,0 UV-I 23 W/m² -0,8 °C 3,4 °C 0,0 km/h (0 Bft)
07.02.2017 17:01 3,3 °C 3,4 °C 74 % 1016,2 hPa 0,0 mm 0,0 km/h (0 Bft) O-NO 68 ° 0 min 0,025 mm 0,0 UV-I 21 W/m² -0,9 °C 3,3 °C 0,0 km/h (0 Bft)
07.02.2017 17:02 3,4 °C 3,4 °C 74 % 1016,1 hPa 0,0 mm 0,0 km/h (0 Bft) O-NO 68 ° 0 min 0,000 mm 0,0 UV-I 21 W/m² -0,8 °C 3,4 °C 0,0 km/h (0 Bft)
07.02.2017 17:03 3,4 °C 3,4 °C 74 % 1016,1 hPa 0,0 mm 0,1 km/h (0 Bft) O-NO 68 ° 0 min 0,000 mm 0,0 UV-I 21 W/m² -0,8 °C 3,4 °C 1,6 km/h (1 Bft)
07.02.2017 17:04 3,3 °C 3,4 °C 75 % 1016,2 hPa 0,0 mm 1,7 km/h (1 Bft) O-NO 68 ° 0 min 0,000 mm 0,0 UV-I 19 W/m² -0,7 °C 3,3 °C 3,2 km/h (1 Bft)
07.02.2017 17:05 3,3 °C 3,3 °C 75 % 1016,1 hPa 0,0 mm 1,9 km/h (1 Bft) O-NO 68 ° 0 min 0,000 mm 0,0 UV-I 19 W/m² -0,7 °C 3,3 °C 3,2 km/h (1 Bft)
07.02.2017 17:06 3,3 °C 3,3 °C 74 % 1016,1 hPa 0,0 mm 0,4 km/h (0 Bft) O-NO 68 ° 0 min 0,000 mm 0,0 UV-I 18 W/m² -0,9 °C 3,3 °C 1,6 km/h (1 Bft)
07.02.2017 17:07 3,3 °C 3,3 °C 75 % 1016,1 hPa 0,0 mm 1,5 km/h (1 Bft) O-NO 68 ° 0 min 0,000 mm 0,0 UV-I 16 W/m² -0,7 °C 3,3 °C 1,6 km/h (1 Bft)
07.02.2017 17:08 3,2 °C 3,3 °C 75 % 1016,1 hPa 0,0 mm 0,3 km/h (0 Bft) O-NO 68 ° 0 min 0,000 mm 0,0 UV-I 16 W/m² -0,8 °C 3,2 °C 1,6 km/h (1 Bft)
07.02.2017 17:09 3,2 °C 3,2 °C 75 % 1016,1 hPa 0,0 mm 0,7 km/h (0 Bft) O-NO 68 ° 0 min 0,000 mm 0,0 UV-I 14 W/m² -0,8 °C 3,2 °C 1,6 km/h (1 Bft)
07.02.2017 17:10 3,2 °C 3,2 °C 75 % 1016,2 hPa 0,0 mm 0,0 km/h (0 Bft) O-NO 68 ° 0 min 0,000 mm 0,0 UV-I 14 W/m² -0,8 °C 3,2 °C 0,0 km/h (0 Bft)
07.02.2017 17:11 3,2 °C 3,2 °C 75 % 1016,1 hPa 0,0 mm 0,0 km/h (0 Bft) O-NO 68 ° 0 min 0,000 mm 0,0 UV-I 12 W/m² -0,8 °C 3,2 °C 0,0 km/h (0 Bft)
07.02.2017 17:12 3,2 °C 3,2 °C 75 % 1016,2 hPa 0,0 mm 0,0 km/h (0 Bft) O-NO 68 ° 0 min 0,000 mm 0,0 UV-I 12 W/m² -0,8 °C 3,2 °C 0,0 km/h (0 Bft)
07.02.2017 17:13 3,2 °C 3,2 °C 75 % 1016,2 hPa 0,0 mm 0,8 km/h (0 Bft) O-NO 68 ° 0 min 0,000 mm 0,0 UV-I 11 W/m² -0,8 °C 3,2 °C 1,6 km/h (1 Bft)
07.02.2017 17:14 3,1 °C 3,2 °C 75 % 1016,2 hPa 0,0 mm 0,7 km/h (0 Bft) O-NO 68 ° 0 min 0,000 mm 0,0 UV-I 11 W/m² -0,9 °C 3,1 °C 1,6 km/h (1 Bft)
07.02.2017 17:15 3,1 °C 3,1 °C 75 % 1016,1 hPa 0,0 mm 0,0 km/h (0 Bft) O-NO 68 ° 0 min 0,000 mm 0,0 UV-I 11 W/m² -0,9 °C 3,1 °C 0,0 km/h (0 Bft)
07.02.2017 17:16 3,1 °C 3,1 °C 75 % 1016,2 hPa 0,0 mm 0,0 km/h (0 Bft) O-NO 68 ° 0 min 0,000 mm 0,0 UV-I 11 W/m² -0,9 °C 3,1 °C 0,0 km/h (0 Bft)
07.02.2017 17:17 3,1 °C 3,1 °C 76 % 1016,2 hPa 0,0 mm 0,0 km/h (0 Bft) O-NO 68 ° 0 min 0,000 mm 0,0 UV-I 9 W/m² -0,7 °C 3,1 °C 0,0 km/h (0 Bft)
07.02.2017 17:18 3,0 °C 3,1 °C 76 % 1016,2 hPa 0,0 mm 0,3 km/h (0 Bft) O-NO 68 ° 0 min 0,000 mm 0,0 UV-I 7 W/m² -0,8 °C 3,0 °C 1,6 km/h (1 Bft)
07.02.2017 17:19 2,9 °C 3,0 °C 76 % 1016,2 hPa 0,0 mm 0,1 km/h (0 Bft) O-NO 68 ° 0 min 0,000 mm 0,0 UV-I 7 W/m² -0,9 °C 2,9 °C 1,6 km/h (1 Bft)
07.02.2017 17:20 2,9 °C 3,0 °C 76 % 1016,2 hPa 0,0 mm 0,0 km/h (0 Bft) O-NO 68 ° 0 min 0,000 mm 0,0 UV-I 7 W/m² -0,9 °C 2,9 °C 0,0 km/h (0 Bft)
07.02.2017 17:21 2,9 °C 2,9 °C 76 % 1016,2 hPa 0,0 mm 0,0 km/h (0 Bft) O-NO 68 ° 0 min 0,000 mm 0,0 UV-I 7 W/m² -0,9 °C 2,9 °C 0,0 km/h (0 Bft)
07.02.2017 17:22 2,9 °C 2,9 °C 76 % 1016,2 hPa 0,0 mm 0,6 km/h (0 Bft) O-NO 68 ° 0 min 0,000 mm 0,0 UV-I 5 W/m² -0,9 °C 2,9 °C 1,6 km/h (1 Bft)
07.02.2017 17:23 2,9 °C 3,0 °C 76 % 1016,2 hPa 0,0 mm 0,7 km/h (0 Bft) O-NO 68 ° 0 min 0,000 mm 0,0 UV-I 5 W/m² -0,9 °C 2,9 °C 1,6 km/h (1 Bft)
07.02.2017 17:24 3,0 °C 3,0 °C 76 % 1016,2 hPa 0,0 mm 1,3 km/h (1 Bft) O-NO 68 ° 0 min 0,000 mm 0,0 UV-I 5 W/m² -0,8 °C 3,0 °C 3,2 km/h (1 Bft)
07.02.2017 17:25 3,0 °C 3,0 °C 76 % 1016,2 hPa 0,0 mm 1,7 km/h (1 Bft) O-NO 68 ° 0 min 0,000 mm 0,0 UV-I 5 W/m² -0,8 °C 3,0 °C 3,2 km/h (1 Bft)
07.02.2017 17:26 3,0 °C 3,0 °C 76 % 1016,2 hPa 0,0 mm 0,8 km/h (0 Bft) O-NO 68 ° 0 min 0,000 mm 0,0 UV-I 5 W/m² -0,8 °C 3,0 °C 1,6 km/h (1 Bft)
07.02.2017 17:27 3,0 °C 3,0 °C 76 % 1016,2 hPa 0,0 mm 0,1 km/h (0 Bft) O-NO 68 ° 0 min 0,000 mm 0,0 UV-I 5 W/m² -0,8 °C 3,0 °C 1,6 km/h (1 Bft)
07.02.2017 17:28 2,9 °C 3,0 °C 76 % 1016,2 hPa 0,0 mm 0,0 km/h (0 Bft) O-NO 68 ° 0 min 0,000 mm 0,0 UV-I 0 W/m² -0,9 °C 2,9 °C 0,0 km/h (0 Bft)
07.02.2017 17:29 2,9 °C 3,0 °C 76 % 1016,2 hPa 0,0 mm 0,0 km/h (0 Bft) O-NO 68 ° 0 min 0,000 mm 0,0 UV-I 0 W/m² -0,9 °C 2,9 °C 0,0 km/h (0 Bft)
07.02.2017 17:30 2,9 °C 3,0 °C 76 % 1016,3 hPa 0,0 mm 0,0 km/h (0 Bft) O-NO 68 ° 0 min 0,000 mm 0,0 UV-I 0 W/m² -0,9 °C 2,9 °C 0,0 km/h (0 Bft)
07.02.2017 17:31 3,0 °C 3,0 °C 76 % 1016,3 hPa 0,0 mm 0,0 km/h (0 Bft) O-NO 68 ° 0 min 0,000 mm 0,0 UV-I 0 W/m² -0,8 °C 3,0 °C 0,0 km/h (0 Bft)
07.02.2017 17:32 3,0 °C 3,0 °C 76 % 1016,3 hPa 0,0 mm 0,0 km/h (0 Bft) O-NO 68 ° 0 min 0,000 mm 0,0 UV-I 0 W/m² -0,8 °C 3,0 °C 0,0 km/h (0 Bft)
07.02.2017 17:33 2,9 °C 3,0 °C 76 % 1016,3 hPa 0,0 mm 0,0 km/h (0 Bft) O-NO 68 ° 0 min 0,000 mm 0,0 UV-I 0 W/m² -0,9 °C 2,9 °C 0,0 km/h (0 Bft)
07.02.2017 17:34 2,9 °C 2,9 °C 76 % 1016,3 hPa 0,0 mm 1,0 km/h (0 Bft) O-NO 68 ° 0 min 0,000 mm 0,0 UV-I 0 W/m² -0,9 °C 2,9 °C 1,6 km/h (1 Bft)
07.02.2017 17:35 2,9 °C 2,9 °C 77 % 1016,4 hPa 0,0 mm 1,0 km/h (0 Bft) O-NO 68 ° 0 min 0,000 mm 0,0 UV-I 0 W/m² -0,7 °C 2,9 °C 1,6 km/h (1 Bft)
07.02.2017 17:36 2,9 °C 2,9 °C 77 % 1016,4 hPa 0,0 mm 1,0 km/h (0 Bft) O-NO 68 ° 0 min 0,000 mm 0,0 UV-I 0 W/m² -0,7 °C 2,9 °C 1,6 km/h (1 Bft)
07.02.2017 17:37 2,9 °C 2,9 °C 76 % 1016,3 hPa 0,0 mm 1,0 km/h (0 Bft) O-NO 68 ° 0 min 0,000 mm 0,0 UV-I 0 W/m² -0,9 °C 2,9 °C 1,6 km/h (1 Bft)
07.02.2017 17:38 2,9 °C 2,9 °C 77 % 1016,4 hPa 0,0 mm 0,8 km/h (0 Bft) O-NO 68 ° 0 min 0,000 mm 0,0 UV-I 0 W/m² -0,7 °C 2,9 °C 1,6 km/h (1 Bft)
07.02.2017 17:39 2,8 °C 2,9 °C 77 % 1016,4 hPa 0,0 mm 0,6 km/h (0 Bft) O-NO 68 ° 0 min 0,000 mm 0,0 UV-I 0 W/m² -0,8 °C 2,8 °C 1,6 km/h (1 Bft)
07.02.2017 17:40 2,8 °C 2,9 °C 77 % 1016,4 hPa 0,0 mm 0,5 km/h (0 Bft) O-NO 68 ° 0 min 0,000 mm 0,0 UV-I 0 W/m² -0,8 °C 2,8 °C 1,6 km/h (1 Bft)
07.02.2017 17:41 2,8 °C 2,8 °C 77 % 1016,4 hPa 0,0 mm 0,5 km/h (0 Bft) O-NO 68 ° 0 min 0,000 mm 0,0 UV-I 0 W/m² -0,8 °C 2,8 °C 1,6 km/h (1 Bft)
07.02.2017 17:42 2,8 °C 2,8 °C 78 % 1016,4 hPa 0,0 mm 1,1 km/h (1 Bft) O-NO 68 ° 0 min 0,000 mm 0,0 UV-I 0 W/m² -0,6 °C 2,8 °C 1,6 km/h (1 Bft)
07.02.2017 17:43 2,8 °C 2,8 °C 77 % 1016,4 hPa 0,0 mm 0,5 km/h (0 Bft) O-NO 68 ° 0 min 0,000 mm 0,0 UV-I 0 W/m² -0,8 °C 2,8 °C 1,6 km/h (1 Bft)
07.02.2017 17:44 2,8 °C 2,8 °C 78 % 1016,4 hPa 0,0 mm 0,9 km/h (0 Bft) O-NO 68 ° 0 min 0,000 mm 0,0 UV-I 0 W/m² -0,6 °C 2,8 °C 1,6 km/h (1 Bft)
07.02.2017 17:45 2,7 °C 2,8 °C 77 % 1016,4 hPa 0,0 mm 1,7 km/h (1 Bft) O-NO 68 ° 0 min 0,000 mm 0,0 UV-I 0 W/m² -0,9 °C 2,7 °C 3,2 km/h (1 Bft)
07.02.2017 17:46 2,7 °C 2,7 °C 78 % 1016,4 hPa 0,0 mm 2,2 km/h (1 Bft) O-NO 68 ° 0 min 0,000 mm 0,0 UV-I 0 W/m² -0,7 °C 2,7 °C 3,2 km/h (1 Bft)
07.02.2017 17:47 2,7 °C 2,7 °C 78 % 1016,4 hPa 0,0 mm 1,9 km/h (1 Bft) O-NO 68 ° 0 min 0,000 mm 0,0 UV-I 0 W/m² -0,7 °C 2,7 °C 3,2 km/h (1 Bft)
07.02.2017 17:48 2,6 °C 2,7 °C 79 % 1016,4 hPa 0,0 mm 1,9 km/h (1 Bft) O-NO 68 ° 0 min 0,000 mm 0,0 UV-I 0 W/m² -0,7 °C 2,6 °C 3,2 km/h (1 Bft)
07.02.2017 17:49 2,6 °C 2,6 °C 79 % 1016,4 hPa 0,0 mm 0,9 km/h (0 Bft) O-NO 68 ° 0 min 0,000 mm 0,0 UV-I 0 W/m² -0,7 °C 2,6 °C 3,2 km/h (1 Bft)
07.02.2017 17:50 2,6 °C 2,6 °C 78 % 1016,5 hPa 0,0 mm 2,3 km/h (1 Bft) O-NO 68 ° 0 min 0,000 mm 0,0 UV-I 0 W/m² -0,8 °C 2,6 °C 3,2 km/h (1 Bft)
07.02.2017 17:51 2,6 °C 2,6 °C 78 % 1016,4 hPa 0,0 mm 0,9 km/h (0 Bft) O-NO 68 ° 0 min 0,000 mm 0,0 UV-I 0 W/m² -0,8 °C 2,6 °C 1,6 km/h (1 Bft)
07.02.2017 17:52 2,6 °C 2,6 °C 78 % 1016,4 hPa 0,0 mm 1,5 km/h (1 Bft) O-NO 68 ° 0 min 0,000 mm 0,0 UV-I 0 W/m² -0,8 °C 2,6 °C 3,2 km/h (1 Bft)
07.02.2017 17:53 2,6 °C 2,7 °C 78 % 1016,4 hPa 0,0 mm 0,9 km/h (0 Bft) O-NO 68 ° 0 min 0,000 mm 0,0 UV-I 0 W/m² -0,8 °C 2,6 °C 1,6 km/h (1 Bft)
07.02.2017 17:54 2,6 °C 2,6 °C 78 % 1016,4 hPa 0,0 mm 0,2 km/h (0 Bft) O-NO 68 ° 0 min 0,000 mm 0,0 UV-I 0 W/m² -0,8 °C 2,6 °C 1,6 km/h (1 Bft)
07.02.2017 17:55 2,6 °C 2,6 °C 78 % 1016,4 hPa 0,0 mm 1,8 km/h (1 Bft) O-NO 68 ° 0 min 0,000 mm 0,0 UV-I 0 W/m² -0,8 °C 2,6 °C 3,2 km/h (1 Bft)
07.02.2017 17:56 2,7 °C 2,7 °C 78 % 1016,4 hPa 0,0 mm 2,1 km/h (1 Bft) O-NO 68 ° 0 min 0,000 mm 0,0 UV-I 0 W/m² -0,7 °C 2,7 °C 3,2 km/h (1 Bft)
07.02.2017 17:57 2,7 °C 2,7 °C 78 % 1016,4 hPa 0,0 mm 1,9 km/h (1 Bft) O-NO 68 ° 0 min 0,000 mm 0,0 UV-I 0 W/m² -0,7 °C 2,7 °C 3,2 km/h (1 Bft)
07.02.2017 17:58 2,7 °C 2,7 °C 78 % 1016,3 hPa 0,0 mm 1,6 km/h (1 Bft) O-NO 68 ° 0 min 0,000 mm 0,0 UV-I 0 W/m² -0,7 °C 2,7 °C 1,6 km/h (1 Bft)
07.02.2017 17:59 2,6 °C 2,7 °C 78 % 1016,4 hPa 0,0 mm 1,7 km/h (1 Bft) O-NO 68 ° 0 min 0,000 mm 0,0 UV-I 0 W/m² -0,8 °C 2,6 °C 3,2 km/h (1 Bft)
07.02.2017 18:00 2,6 °C 2,7 °C 78 % 1016,4 hPa 0,0 mm 0,9 km/h (0 Bft) O-NO 68 ° 0 min 0,000 mm 0,0 UV-I 0 W/m² -0,8 °C 2,6 °C 1,6 km/h (1 Bft)
07.02.2017 18:01 2,6 °C 2,6 °C 78 % 1016,4 hPa 0,0 mm 0,9 km/h (0 Bft) O-NO 68 ° 0 min 0,000 mm 0,0 UV-I 0 W/m² -0,8 °C 2,6 °C 1,6 km/h (1 Bft)
07.02.2017 18:02 2,6 °C 2,6 °C 78 % 1016,4 hPa 0,0 mm 0,5 km/h (0 Bft) O-NO 68 ° 0 min 0,000 mm 0,0 UV-I 0 W/m² -0,8 °C 2,6 °C 1,6 km/h (1 Bft)
07.02.2017 18:03 2,6 °C 2,6 °C 78 % 1016,4 hPa 0,0 mm 0,9 km/h (0 Bft) O-NO 68 ° 0 min 0,000 mm 0,0 UV-I 0 W/m² -0,8 °C 2,6 °C 1,6 km/h (1 Bft)
07.02.2017 18:04 2,6 °C 2,6 °C 79 % 1016,3 hPa 0,0 mm 1,8 km/h (1 Bft) O-NO 68 ° 0 min 0,000 mm 0,0 UV-I 0 W/m² -0,7 °C 2,6 °C 3,2 km/h (1 Bft)
07.02.2017 18:05 2,6 °C 2,6 °C 79 % 1016,4 hPa 0,0 mm 1,3 km/h (1 Bft) O-NO 68 ° 0 min 0,000 mm 0,0 UV-I 0 W/m² -0,7 °C 2,6 °C 1,6 km/h (1 Bft)
07.02.2017 18:06 2,5 °C 2,6 °C 79 % 1016,4 hPa 0,0 mm 1,9 km/h (1 Bft) O-NO 68 ° 0 min 0,000 mm 0,0 UV-I 0 W/m² -0,8 °C 2,5 °C 3,2 km/h (1 Bft)
07.02.2017 18:07 2,4 °C 2,5 °C 79 % 1016,3 hPa 0,0 mm 1,8 km/h (1 Bft) O-NO 68 ° 0 min 0,000 mm 0,0 UV-I 0 W/m² -0,9 °C 2,4 °C 3,2 km/h (1 Bft)
07.02.2017 18:08 2,4 °C 2,5 °C 79 % 1016,3 hPa 0,0 mm 1,9 km/h (1 Bft) O-NO 68 ° 0 min 0,000 mm 0,0 UV-I 0 W/m² -0,9 °C 2,4 °C 3,2 km/h (1 Bft)
07.02.2017 18:09 2,4 °C 2,4 °C 79 % 1016,3 hPa 0,0 mm 0,4 km/h (0 Bft) O-NO 68 ° 0 min 0,000 mm 0,0 UV-I 0 W/m² -0,9 °C 2,4 °C 1,6 km/h (1 Bft)
07.02.2017 18:10 2,4 °C 2,4 °C 79 % 1016,3 hPa 0,0 mm 1,3 km/h (1 Bft) O-NO 68 ° 0 min 0,000 mm 0,0 UV-I 0 W/m² -0,9 °C 2,4 °C 3,2 km/h (1 Bft)
07.02.2017 18:11 2,4 °C 2,4 °C 79 % 1016,4 hPa 0,0 mm 1,4 km/h (1 Bft) O-NO 68 ° 0 min 0,000 mm 0,0 UV-I 0 W/m² -0,9 °C 2,4 °C 3,2 km/h (1 Bft)
07.02.2017 18:12 2,4 °C 2,4 °C 79 % 1016,3 hPa 0,0 mm 0,8 km/h (0 Bft) O-NO 68 ° 0 min 0,000 mm 0,0 UV-I 0 W/m² -0,9 °C 2,4 °C 1,6 km/h (1 Bft)
07.02.2017 18:13 2,4 °C 2,4 °C 79 % 1016,3 hPa 0,0 mm 1,5 km/h (1 Bft) O-NO 68 ° 0 min 0,000 mm 0,0 UV-I 0 W/m² -0,9 °C 2,4 °C 3,2 km/h (1 Bft)
07.02.2017 18:14 2,4 °C 2,4 °C 79 % 1016,3 hPa 0,0 mm 2,3 km/h (1 Bft) O-NO 68 ° 0 min 0,000 mm 0,0 UV-I 0 W/m² -0,9 °C 2,4 °C 3,2 km/h (1 Bft)
07.02.2017 18:15 2,4 °C 2,4 °C 79 % 1016,3 hPa 0,0 mm 0,8 km/h (0 Bft) O-NO 68 ° 0 min 0,000 mm 0,0 UV-I 0 W/m² -0,9 °C 2,4 °C 3,2 km/h (1 Bft)
07.02.2017 18:16 2,3 °C 2,4 °C 79 % 1016,3 hPa 0,0 mm 1,5 km/h (1 Bft) O-NO 68 ° 0 min 0,000 mm 0,0 UV-I 0 W/m² -1,0 °C 2,3 °C 3,2 km/h (1 Bft)
07.02.2017 18:17 2,3 °C 2,4 °C 79 % 1016,3 hPa 0,0 mm 1,6 km/h (1 Bft) O-NO 68 ° 0 min 0,000 mm 0,0 UV-I 0 W/m² -1,0 °C 2,3 °C 1,6 km/h (1 Bft)
07.02.2017 18:18 2,3 °C 2,3 °C 79 % 1016,3 hPa 0,0 mm 2,1 km/h (1 Bft) O-NO 68 ° 0 min 0,000 mm 0,0 UV-I 0 W/m² -1,0 °C 2,3 °C 3,2 km/h (1 Bft)
07.02.2017 18:19 2,3 °C 2,3 °C 79 % 1016,3 hPa 0,0 mm 2,1 km/h (1 Bft) O-NO 68 ° 0 min 0,000 mm 0,0 UV-I 0 W/m² -1,0 °C 2,3 °C 3,2 km/h (1 Bft)
07.02.2017 18:20 2,3 °C 2,3 °C 80 % 1016,3 hPa 0,0 mm 1,9 km/h (1 Bft) O-NO 68 ° 0 min 0,000 mm 0,0 UV-I 0 W/m² -0,8 °C 2,3 °C 3,2 km/h (1 Bft)
07.02.2017 18:21 2,2 °C 2,3 °C 79 % 1016,3 hPa 0,0 mm 0,7 km/h (0 Bft) O-NO 68 ° 0 min 0,000 mm 0,0 UV-I 0 W/m² -1,1 °C 2,2 °C 1,6 km/h (1 Bft)
07.02.2017 18:22 2,2 °C 2,3 °C 80 % 1016,3 hPa 0,0 mm 1,8 km/h (1 Bft) O-NO 68 ° 0 min 0,000 mm 0,0 UV-I 0 W/m² -0,9 °C 2,2 °C 3,2 km/h (1 Bft)
07.02.2017 18:23 2,2 °C 2,2 °C 80 % 1016,3 hPa 0,0 mm 1,9 km/h (1 Bft) O-NO 68 ° 0 min 0,000 mm 0,0 UV-I 0 W/m² -0,9 °C 2,2 °C 3,2 km/h (1 Bft)
07.02.2017 18:24 2,2 °C 2,2 °C 80 % 1016,3 hPa 0,0 mm 0,8 km/h (0 Bft) O-NO 68 ° 0 min 0,000 mm 0,0 UV-I 0 W/m² -0,9 °C 2,2 °C 3,2 km/h (1 Bft)
07.02.2017 18:25 2,1 °C 2,2 °C 80 % 1016,3 hPa 0,0 mm 0,1 km/h (0 Bft) O-NO 68 ° 0 min 0,000 mm 0,0 UV-I 0 W/m² -1,0 °C 2,1 °C 1,6 km/h (1 Bft)
07.02.2017 18:26 2,1 °C 2,1 °C 80 % 1016,3 hPa 0,0 mm 1,3 km/h (1 Bft) O-NO 68 ° 0 min 0,000 mm 0,0 UV-I 0 W/m² -1,0 °C 2,1 °C 3,2 km/h (1 Bft)
07.02.2017 18:27 2,1 °C 2,1 °C 80 % 1016,4 hPa 0,0 mm 0,1 km/h (0 Bft) O-NO 68 ° 0 min 0,000 mm 0,0 UV-I 0 W/m² -1,0 °C 2,1 °C 1,6 km/h (1 Bft)
07.02.2017 18:28 2,1 °C 2,1 °C 80 % 1016,4 hPa 0,0 mm 1,0 km/h (0 Bft) O-NO 68 ° 0 min 0,000 mm 0,0 UV-I 0 W/m² -1,0 °C 2,1 °C 1,6 km/h (1 Bft)
07.02.2017 18:29 2,1 °C 2,1 °C 80 % 1016,4 hPa 0,0 mm 0,6 km/h (0 Bft) O-NO 68 ° 0 min 0,000 mm 0,0 UV-I 0 W/m² -1,0 °C 2,1 °C 1,6 km/h (1 Bft)
07.02.2017 18:30 2,1 °C 2,1 °C 80 % 1016,5 hPa 0,0 mm 0,5 km/h (0 Bft) O-NO 68 ° 0 min 0,000 mm 0,0 UV-I 0 W/m² -1,0 °C 2,1 °C 1,6 km/h (1 Bft)
07.02.2017 18:31 2,1 °C 2,1 °C 80 % 1016,5 hPa 0,0 mm 1,1 km/h (1 Bft) O-NO 68 ° 0 min 0,000 mm 0,0 UV-I 0 W/m² -1,0 °C 2,1 °C 3,2 km/h (1 Bft)
07.02.2017 18:32 2,1 °C 2,1 °C 80 % 1016,5 hPa 0,0 mm 0,7 km/h (0 Bft) O-NO 68 ° 0 min 0,000 mm 0,0 UV-I 0 W/m² -1,0 °C 2,1 °C 1,6 km/h (1 Bft)
07.02.2017 18:33 2,0 °C 2,1 °C 80 % 1016,5 hPa 0,0 mm 1,9 km/h (1 Bft) O-NO 68 ° 0 min 0,000 mm 0,0 UV-I 0 W/m² -1,1 °C 2,0 °C 3,2 km/h (1 Bft)
07.02.2017 18:34 2,0 °C 2,1 °C 81 % 1016,5 hPa 0,0 mm 0,9 km/h (0 Bft) O-NO 68 ° 0 min 0,000 mm 0,0 UV-I 0 W/m² -0,9 °C 2,0 °C 1,6 km/h (1 Bft)
07.02.2017 18:35 2,0 °C 2,0 °C 81 % 1016,5 hPa 0,0 mm 1,4 km/h (1 Bft) O-NO 68 ° 0 min 0,000 mm 0,0 UV-I 0 W/m² -0,9 °C 2,0 °C 1,6 km/h (1 Bft)
07.02.2017 18:36 1,9 °C 2,0 °C 81 % 1016,5 hPa 0,0 mm 0,7 km/h (0 Bft) O-NO 68 ° 0 min 0,000 mm 0,0 UV-I 0 W/m² -1,0 °C 1,9 °C 1,6 km/h (1 Bft)
07.02.2017 18:37 2,0 °C 2,0 °C 81 % 1016,5 hPa 0,0 mm 0,9 km/h (0 Bft) O-NO 68 ° 0 min 0,000 mm 0,0 UV-I 0 W/m² -0,9 °C 2,0 °C 1,6 km/h (1 Bft)
07.02.2017 18:38 1,9 °C 2,0 °C 81 % 1016,5 hPa 0,0 mm 0,5 km/h (0 Bft) O-NO 68 ° 0 min 0,000 mm 0,0 UV-I 0 W/m² -1,0 °C 1,9 °C 1,6 km/h (1 Bft)
07.02.2017 18:39 1,9 °C 1,9 °C 81 % 1016,5 hPa 0,0 mm 1,0 km/h (0 Bft) O-NO 68 ° 0 min 0,000 mm 0,0 UV-I 0 W/m² -1,0 °C 1,9 °C 1,6 km/h (1 Bft)
07.02.2017 18:40 1,9 °C 1,9 °C 81 % 1016,6 hPa 0,0 mm 0,8 km/h (0 Bft) O-NO 68 ° 0 min 0,000 mm 0,0 UV-I 0 W/m² -1,0 °C 1,9 °C 1,6 km/h (1 Bft)
07.02.2017 18:41 1,9 °C 1,9 °C 81 % 1016,6 hPa 0,0 mm 0,0 km/h (0 Bft) O-NO 68 ° 0 min 0,000 mm 0,0 UV-I 0 W/m² -1,0 °C 1,9 °C 0,0 km/h (0 Bft)
07.02.2017 18:42 1,9 °C 1,9 °C 81 % 1016,6 hPa 0,0 mm 0,0 km/h (0 Bft) O-NO 68 ° 0 min 0,000 mm 0,0 UV-I 0 W/m² -1,0 °C 1,9 °C 0,0 km/h (0 Bft)
07.02.2017 18:43 1,9 °C 1,9 °C 81 % 1016,6 hPa 0,0 mm 0,0 km/h (0 Bft) O-NO 68 ° 0 min 0,000 mm 0,0 UV-I 0 W/m² -1,0 °C 1,9 °C 0,0 km/h (0 Bft)
07.02.2017 18:44 1,9 °C 1,9 °C 81 % 1016,5 hPa 0,0 mm 0,0 km/h (0 Bft) O-NO 68 ° 0 min 0,000 mm 0,0 UV-I 0 W/m² -1,0 °C 1,9 °C 0,0 km/h (0 Bft)
07.02.2017 18:45 1,9 °C 1,9 °C 81 % 1016,6 hPa 0,0 mm 0,0 km/h (0 Bft) O-NO 68 ° 0 min 0,000 mm 0,0 UV-I 0 W/m² -1,0 °C 1,9 °C 0,0 km/h (0 Bft)
07.02.2017 18:46 1,8 °C 1,9 °C 81 % 1016,6 hPa 0,0 mm 0,0 km/h (0 Bft) O-NO 68 ° 0 min 0,000 mm 0,0 UV-I 0 W/m² -1,1 °C 1,8 °C 0,0 km/h (0 Bft)
07.02.2017 18:47 1,8 °C 1,8 °C 81 % 1016,6 hPa 0,0 mm 0,0 km/h (0 Bft) O-NO 68 ° 0 min 0,000 mm 0,0 UV-I 0 W/m² -1,1 °C 1,8 °C 0,0 km/h (0 Bft)
07.02.2017 18:48 1,8 °C 1,8 °C 82 % 1016,6 hPa 0,0 mm 0,0 km/h (0 Bft) O-NO 68 ° 0 min 0,000 mm 0,0 UV-I 0 W/m² -0,9 °C 1,8 °C 0,0 km/h (0 Bft)
07.02.2017 18:49 1,8 °C 1,8 °C 82 % 1016,6 hPa 0,0 mm 0,0 km/h (0 Bft) O-NO 68 ° 0 min 0,000 mm 0,0 UV-I 0 W/m² -0,9 °C 1,8 °C 0,0 km/h (0 Bft)
07.02.2017 18:50 1,8 °C 1,8 °C 82 % 1016,6 hPa 0,0 mm 0,0 km/h (0 Bft) O-NO 68 ° 0 min 0,000 mm 0,0 UV-I 0 W/m² -0,9 °C 1,8 °C 0,0 km/h (0 Bft)
07.02.2017 18:51 1,8 °C 1,8 °C 82 % 1016,7 hPa 0,0 mm 0,0 km/h (0 Bft) O-NO 68 ° 0 min 0,000 mm 0,0 UV-I 0 W/m² -0,9 °C 1,8 °C 0,0 km/h (0 Bft)
07.02.2017 18:52 1,8 °C 1,8 °C 82 % 1016,7 hPa 0,0 mm 0,0 km/h (0 Bft) O-NO 68 ° 0 min 0,000 mm 0,0 UV-I 0 W/m² -0,9 °C 1,8 °C 0,0 km/h (0 Bft)
07.02.2017 18:53 1,8 °C 1,8 °C 82 % 1016,6 hPa 0,0 mm 0,0 km/h (0 Bft) O-NO 68 ° 0 min 0,000 mm 0,0 UV-I 0 W/m² -0,9 °C 1,8 °C 0,0 km/h (0 Bft)
07.02.2017 18:54 1,8 °C 1,8 °C 82 % 1016,7 hPa 0,0 mm 0,0 km/h (0 Bft) O-NO 68 ° 0 min 0,000 mm 0,0 UV-I 0 W/m² -0,9 °C 1,8 °C 0,0 km/h (0 Bft)
07.02.2017 18:55 1,8 °C 1,8 °C 82 % 1016,7 hPa 0,0 mm 0,0 km/h (0 Bft) O-NO 68 ° 0 min 0,000 mm 0,0 UV-I 0 W/m² -0,9 °C 1,8 °C 0,0 km/h (0 Bft)
07.02.2017 18:56 1,8 °C 1,8 °C 82 % 1016,7 hPa 0,0 mm 0,0 km/h (0 Bft) O-NO 68 ° 0 min 0,000 mm 0,0 UV-I 0 W/m² -0,9 °C 1,8 °C 0,0 km/h (0 Bft)
07.02.2017 18:57 1,8 °C 1,8 °C 82 % 1016,7 hPa 0,0 mm 0,0 km/h (0 Bft) O-NO 68 ° 0 min 0,000 mm 0,0 UV-I 0 W/m² -0,9 °C 1,8 °C 0,0 km/h (0 Bft)
07.02.2017 18:58 1,8 °C 1,8 °C 82 % 1016,7 hPa 0,0 mm 0,0 km/h (0 Bft) O-NO 68 ° 0 min 0,000 mm 0,0 UV-I 0 W/m² -0,9 °C 1,8 °C 0,0 km/h (0 Bft)
07.02.2017 18:59 1,8 °C 1,8 °C 82 % 1016,7 hPa 0,0 mm 0,0 km/h (0 Bft) O-NO 68 ° 0 min 0,000 mm 0,0 UV-I 0 W/m² -0,9 °C 1,8 °C 0,0 km/h (0 Bft)
07.02.2017 19:00 1,8 °C 1,8 °C 82 % 1016,7 hPa 0,0 mm 0,0 km/h (0 Bft) O-NO 68 ° 0 min 0,000 mm 0,0 UV-I 0 W/m² -0,9 °C 1,8 °C 0,0 km/h (0 Bft)
07.02.2017 19:01 1,8 °C 1,8 °C 82 % 1016,7 hPa 0,0 mm 0,0 km/h (0 Bft) O-NO 68 ° 0 min 0,000 mm 0,0 UV-I 0 W/m² -0,9 °C 1,8 °C 0,0 km/h (0 Bft)
07.02.2017 19:02 1,8 °C 1,8 °C 82 % 1016,7 hPa 0,0 mm 0,0 km/h (0 Bft) O-NO 68 ° 0 min 0,000 mm 0,0 UV-I 0 W/m² -0,9 °C 1,8 °C 0,0 km/h (0 Bft)
07.02.2017 19:03 1,8 °C 1,8 °C 82 % 1016,7 hPa 0,0 mm 0,0 km/h (0 Bft) O-NO 68 ° 0 min 0,000 mm 0,0 UV-I 0 W/m² -0,9 °C 1,8 °C 0,0 km/h (0 Bft)
07.02.2017 19:04 1,8 °C 1,8 °C 82 % 1016,7 hPa 0,0 mm 0,0 km/h (0 Bft) O-NO 68 ° 0 min 0,000 mm 0,0 UV-I 0 W/m² -0,9 °C 1,8 °C 0,0 km/h (0 Bft)
07.02.2017 19:05 1,8 °C 1,8 °C 82 % 1016,7 hPa 0,0 mm 0,0 km/h (0 Bft) O-NO 68 ° 0 min 0,000 mm 0,0 UV-I 0 W/m² -0,9 °C 1,8 °C 0,0 km/h (0 Bft)
07.02.2017 19:06 1,8 °C 1,8 °C 82 % 1016,7 hPa 0,0 mm 0,0 km/h (0 Bft) O-NO 68 ° 0 min 0,000 mm 0,0 UV-I 0 W/m² -0,9 °C 1,8 °C 0,0 km/h (0 Bft)
07.02.2017 19:07 1,7 °C 1,8 °C 82 % 1016,7 hPa 0,0 mm 0,0 km/h (0 Bft) O-NO 68 ° 0 min 0,000 mm 0,0 UV-I 0 W/m² -1,0 °C 1,7 °C 0,0 km/h (0 Bft)
07.02.2017 19:08 1,7 °C 1,7 °C 82 % 1016,7 hPa 0,0 mm 0,0 km/h (0 Bft) O-NO 68 ° 0 min 0,000 mm 0,0 UV-I 0 W/m² -1,0 °C 1,7 °C 0,0 km/h (0 Bft)
07.02.2017 19:09 1,7 °C 1,7 °C 83 % 1016,7 hPa 0,0 mm 0,0 km/h (0 Bft) O-NO 68 ° 0 min 0,000 mm 0,0 UV-I 0 W/m² -0,9 °C 1,7 °C 0,0 km/h (0 Bft)
07.02.2017 19:10 1,8 °C 1,8 °C 83 % 1016,7 hPa 0,0 mm 0,0 km/h (0 Bft) O-NO 68 ° 0 min 0,000 mm 0,0 UV-I 0 W/m² -0,8 °C 1,8 °C 0,0 km/h (0 Bft)
07.02.2017 19:11 1,7 °C 1,8 °C 83 % 1016,8 hPa 0,0 mm 0,0 km/h (0 Bft) O-NO 68 ° 0 min 0,000 mm 0,0 UV-I 0 W/m² -0,9 °C 1,7 °C 0,0 km/h (0 Bft)
07.02.2017 19:12 1,7 °C 1,7 °C 83 % 1016,7 hPa 0,0 mm 0,0 km/h (0 Bft) O-NO 68 ° 0 min 0,000 mm 0,0 UV-I 0 W/m² -0,9 °C 1,7 °C 0,0 km/h (0 Bft)
07.02.2017 19:13 1,7 °C 1,7 °C 82 % 1016,8 hPa 0,0 mm 0,0 km/h (0 Bft) O-NO 68 ° 0 min 0,000 mm 0,0 UV-I 0 W/m² -1,0 °C 1,7 °C 0,0 km/h (0 Bft)
07.02.2017 19:14 1,7 °C 1,7 °C 82 % 1016,7 hPa 0,0 mm 0,0 km/h (0 Bft) O-NO 68 ° 0 min 0,000 mm 0,0 UV-I 0 W/m² -1,0 °C 1,7 °C 0,0 km/h (0 Bft)
07.02.2017 19:15 1,7 °C 1,7 °C 82 % 1016,8 hPa 0,0 mm 0,0 km/h (0 Bft) O-NO 68 ° 0 min 0,000 mm 0,0 UV-I 0 W/m² -1,0 °C 1,7 °C 0,0 km/h (0 Bft)
07.02.2017 19:16 1,7 °C 1,7 °C 82 % 1016,7 hPa 0,0 mm 0,0 km/h (0 Bft) O-NO 68 ° 0 min 0,000 mm 0,0 UV-I 0 W/m² -1,0 °C 1,7 °C 0,0 km/h (0 Bft)
07.02.2017 19:17 1,7 °C 1,7 °C 82 % 1016,8 hPa 0,0 mm 0,0 km/h (0 Bft) O-NO 68 ° 0 min 0,000 mm 0,0 UV-I 0 W/m² -1,0 °C 1,7 °C 0,0 km/h (0 Bft)
07.02.2017 19:18 1,7 °C 1,7 °C 82 % 1016,8 hPa 0,0 mm 0,0 km/h (0 Bft) O-NO 68 ° 0 min 0,000 mm 0,0 UV-I 0 W/m² -1,0 °C 1,7 °C 0,0 km/h (0 Bft)
07.02.2017 19:19 1,7 °C 1,7 °C 82 % 1016,8 hPa 0,0 mm 0,0 km/h (0 Bft) O-NO 68 ° 0 min 0,000 mm 0,0 UV-I 0 W/m² -1,0 °C 1,7 °C 0,0 km/h (0 Bft)
07.02.2017 19:20 1,7 °C 1,7 °C 83 % 1016,7 hPa 0,0 mm 0,0 km/h (0 Bft) O-NO 68 ° 0 min 0,000 mm 0,0 UV-I 0 W/m² -0,9 °C 1,7 °C 0,0 km/h (0 Bft)
07.02.2017 19:21 1,7 °C 1,7 °C 82 % 1016,8 hPa 0,0 mm 0,0 km/h (0 Bft) O-NO 68 ° 0 min 0,000 mm 0,0 UV-I 0 W/m² -1,0 °C 1,7 °C 0,0 km/h (0 Bft)
07.02.2017 19:22 1,7 °C 1,7 °C 82 % 1016,8 hPa 0,0 mm 0,0 km/h (0 Bft) O-NO 68 ° 0 min 0,000 mm 0,0 UV-I 0 W/m² -1,0 °C 1,7 °C 0,0 km/h (0 Bft)
07.02.2017 19:23 1,7 °C 1,7 °C 82 % 1016,8 hPa 0,0 mm 0,0 km/h (0 Bft) O-NO 68 ° 0 min 0,000 mm 0,0 UV-I 0 W/m² -1,0 °C 1,7 °C 0,0 km/h (0 Bft)
07.02.2017 19:24 1,7 °C 1,7 °C 82 % 1016,8 hPa 0,0 mm 0,0 km/h (0 Bft) O-NO 68 ° 0 min 0,000 mm 0,0 UV-I 0 W/m² -1,0 °C 1,7 °C 0,0 km/h (0 Bft)
07.02.2017 19:25 1,7 °C 1,7 °C 83 % 1016,7 hPa 0,0 mm 0,0 km/h (0 Bft) O-NO 68 ° 0 min 0,000 mm 0,0 UV-I 0 W/m² -0,9 °C 1,7 °C 0,0 km/h (0 Bft)
07.02.2017 19:26 1,7 °C 1,7 °C 83 % 1016,7 hPa 0,0 mm 0,0 km/h (0 Bft) O-NO 68 ° 0 min 0,000 mm 0,0 UV-I 0 W/m² -0,9 °C 1,7 °C 0,0 km/h (0 Bft)
07.02.2017 19:27 1,7 °C 1,7 °C 83 % 1016,7 hPa 0,0 mm 0,0 km/h (0 Bft) O-NO 68 ° 0 min 0,000 mm 0,0 UV-I 0 W/m² -0,9 °C 1,7 °C 0,0 km/h (0 Bft)
07.02.2017 19:28 1,7 °C 1,7 °C 83 % 1016,7 hPa 0,0 mm 0,0 km/h (0 Bft) O-NO 68 ° 0 min 0,000 mm 0,0 UV-I 0 W/m² -0,9 °C 1,7 °C 0,0 km/h (0 Bft)
07.02.2017 19:29 1,7 °C 1,7 °C 83 % 1016,8 hPa 0,0 mm 0,0 km/h (0 Bft) O-NO 68 ° 0 min 0,000 mm 0,0 UV-I 0 W/m² -0,9 °C 1,7 °C 0,0 km/h (0 Bft)
07.02.2017 19:30 1,7 °C 1,7 °C 83 % 1016,8 hPa 0,0 mm 0,0 km/h (0 Bft) O-NO 68 ° 0 min 0,000 mm 0,0 UV-I 0 W/m² -0,9 °C 1,7 °C 0,0 km/h (0 Bft)
07.02.2017 19:31 1,7 °C 1,7 °C 83 % 1016,8 hPa 0,0 mm 0,0 km/h (0 Bft) O-NO 68 ° 0 min 0,000 mm 0,0 UV-I 0 W/m² -0,9 °C 1,7 °C 0,0 km/h (0 Bft)
07.02.2017 19:32 1,7 °C 1,7 °C 83 % 1016,8 hPa 0,0 mm 0,0 km/h (0 Bft) O-NO 68 ° 0 min 0,000 mm 0,0 UV-I 0 W/m² -0,9 °C 1,7 °C 0,0 km/h (0 Bft)
07.02.2017 19:33 1,7 °C 1,7 °C 83 % 1016,8 hPa 0,0 mm 0,0 km/h (0 Bft) O-NO 68 ° 0 min 0,000 mm 0,0 UV-I 0 W/m² -0,9 °C 1,7 °C 0,0 km/h (0 Bft)
07.02.2017 19:34 1,7 °C 1,7 °C 83 % 1016,8 hPa 0,0 mm 0,0 km/h (0 Bft) O-NO 68 ° 0 min 0,000 mm 0,0 UV-I 0 W/m² -0,9 °C 1,7 °C 0,0 km/h (0 Bft)
07.02.2017 19:35 1,6 °C 1,7 °C 83 % 1016,8 hPa 0,0 mm 0,0 km/h (0 Bft) O-NO 68 ° 0 min 0,000 mm 0,0 UV-I 0 W/m² -1,0 °C 1,6 °C 0,0 km/h (0 Bft)
07.02.2017 19:36 1,6 °C 1,7 °C 83 % 1016,8 hPa 0,0 mm 0,0 km/h (0 Bft) O-NO 68 ° 0 min 0,000 mm 0,0 UV-I 0 W/m² -1,0 °C 1,6 °C 0,0 km/h (0 Bft)
07.02.2017 19:37 1,6 °C 1,6 °C 83 % 1016,8 hPa 0,0 mm 0,0 km/h (0 Bft) O-NO 68 ° 0 min 0,000 mm 0,0 UV-I 0 W/m² -1,0 °C 1,6 °C 0,0 km/h (0 Bft)
07.02.2017 19:38 1,6 °C 1,6 °C 83 % 1016,8 hPa 0,0 mm 0,0 km/h (0 Bft) O-NO 68 ° 0 min 0,000 mm 0,0 UV-I 0 W/m² -1,0 °C 1,6 °C 0,0 km/h (0 Bft)
07.02.2017 19:39 1,6 °C 1,6 °C 83 % 1016,8 hPa 0,0 mm 0,0 km/h (0 Bft) O-NO 68 ° 0 min 0,000 mm 0,0 UV-I 0 W/m² -1,0 °C 1,6 °C 0,0 km/h (0 Bft)
07.02.2017 19:40 1,6 °C 1,6 °C 83 % 1016,8 hPa 0,0 mm 0,0 km/h (0 Bft) O-NO 68 ° 0 min 0,000 mm 0,0 UV-I 0 W/m² -1,0 °C 1,6 °C 0,0 km/h (0 Bft)
07.02.2017 19:41 1,6 °C 1,6 °C 83 % 1016,8 hPa 0,0 mm 0,0 km/h (0 Bft) O-NO 68 ° 0 min 0,000 mm 0,0 UV-I 0 W/m² -1,0 °C 1,6 °C 0,0 km/h (0 Bft)
07.02.2017 19:42 1,6 °C 1,6 °C 83 % 1016,8 hPa 0,0 mm 0,0 km/h (0 Bft) O-NO 68 ° 0 min 0,000 mm 0,0 UV-I 0 W/m² -1,0 °C 1,6 °C 0,0 km/h (0 Bft)
07.02.2017 19:43 1,6 °C 1,6 °C 83 % 1016,8 hPa 0,0 mm 0,0 km/h (0 Bft) O-NO 68 ° 0 min 0,000 mm 0,0 UV-I 0 W/m² -1,0 °C 1,6 °C 0,0 km/h (0 Bft)
07.02.2017 19:44 1,6 °C 1,6 °C 83 % 1016,8 hPa 0,0 mm 0,0 km/h (0 Bft) O-NO 68 ° 0 min 0,000 mm 0,0 UV-I 0 W/m² -1,0 °C 1,6 °C 0,0 km/h (0 Bft)
07.02.2017 19:45 1,6 °C 1,6 °C 83 % 1016,8 hPa 0,0 mm 0,0 km/h (0 Bft) O-NO 68 ° 0 min 0,000 mm 0,0 UV-I 0 W/m² -1,0 °C 1,6 °C 0,0 km/h (0 Bft)
07.02.2017 19:46 1,6 °C 1,6 °C 83 % 1016,8 hPa 0,0 mm 0,0 km/h (0 Bft) O-NO 68 ° 0 min 0,000 mm 0,0 UV-I 0 W/m² -1,0 °C 1,6 °C 0,0 km/h (0 Bft)
07.02.2017 19:47 1,6 °C 1,6 °C 84 % 1016,8 hPa 0,0 mm 1,3 km/h (1 Bft) O-NO 68 ° 0 min 0,000 mm 0,0 UV-I 0 W/m² -0,8 °C 1,6 °C 3,2 km/h (1 Bft)
07.02.2017 19:48 1,5 °C 1,6 °C 84 % 1016,8 hPa 0,0 mm 0,4 km/h (0 Bft) O-NO 68 ° 0 min 0,000 mm 0,0 UV-I 0 W/m² -0,9 °C 1,5 °C 1,6 km/h (1 Bft)
07.02.2017 19:49 1,5 °C 1,6 °C 84 % 1016,8 hPa 0,0 mm 0,0 km/h (0 Bft) O-NO 68 ° 0 min 0,000 mm 0,0 UV-I 0 W/m² -0,9 °C 1,5 °C 0,0 km/h (0 Bft)
07.02.2017 19:50 1,4 °C 1,5 °C 84 % 1016,8 hPa 0,0 mm 0,0 km/h (0 Bft) O-NO 68 ° 0 min 0,000 mm 0,0 UV-I 0 W/m² -1,0 °C 1,4 °C 0,0 km/h (0 Bft)
07.02.2017 19:51 1,5 °C 1,5 °C 84 % 1016,8 hPa 0,0 mm 0,0 km/h (0 Bft) O-NO 68 ° 0 min 0,000 mm 0,0 UV-I 0 W/m² -0,9 °C 1,5 °C 0,0 km/h (0 Bft)
07.02.2017 19:52 1,4 °C 1,5 °C 84 % 1016,8 hPa 0,0 mm 0,0 km/h (0 Bft) O-NO 68 ° 0 min 0,000 mm 0,0 UV-I 0 W/m² -1,0 °C 1,4 °C 0,0 km/h (0 Bft)
07.02.2017 19:53 1,4 °C 1,5 °C 84 % 1016,8 hPa 0,0 mm 0,0 km/h (0 Bft) O-NO 68 ° 0 min 0,000 mm 0,0 UV-I 0 W/m² -1,0 °C 1,4 °C 0,0 km/h (0 Bft)
07.02.2017 19:54 1,4 °C 1,4 °C 84 % 1016,8 hPa 0,0 mm 0,0 km/h (0 Bft) O-NO 68 ° 0 min 0,000 mm 0,0 UV-I 0 W/m² -1,0 °C 1,4 °C 0,0 km/h (0 Bft)
07.02.2017 19:55 1,4 °C 1,4 °C 84 % 1016,7 hPa 0,0 mm 0,5 km/h (0 Bft) O-NO 68 ° 0 min 0,000 mm 0,0 UV-I 0 W/m² -1,0 °C 1,4 °C 1,6 km/h (1 Bft)
07.02.2017 19:56 1,4 °C 1,4 °C 84 % 1016,7 hPa 0,0 mm 0,0 km/h (0 Bft) O-NO 68 ° 0 min 0,000 mm 0,0 UV-I 0 W/m² -1,0 °C 1,4 °C 0,0 km/h (0 Bft)
07.02.2017 19:57 1,4 °C 1,4 °C 84 % 1016,7 hPa 0,0 mm 0,0 km/h (0 Bft) O-NO 68 ° 0 min 0,000 mm 0,0 UV-I 0 W/m² -1,0 °C 1,4 °C 0,0 km/h (0 Bft)
07.02.2017 19:58 1,4 °C 1,4 °C 84 % 1016,8 hPa 0,0 mm 0,1 km/h (0 Bft) O-NO 68 ° 0 min 0,000 mm 0,0 UV-I 0 W/m² -1,0 °C 1,4 °C 1,6 km/h (1 Bft)
07.02.2017 19:59 1,4 °C 1,4 °C 84 % 1016,8 hPa 0,0 mm 0,4 km/h (0 Bft) O-NO 68 ° 0 min 0,000 mm 0,0 UV-I 0 W/m² -1,0 °C 1,4 °C 1,6 km/h (1 Bft)
07.02.2017 20:00 1,3 °C 1,4 °C 84 % 1016,8 hPa 0,0 mm 0,0 km/h (0 Bft) O-NO 68 ° 0 min 0,000 mm 0,0 UV-I 0 W/m² -1,1 °C 1,3 °C 0,0 km/h (0 Bft)
07.02.2017 20:01 1,4 °C 1,4 °C 84 % 1016,8 hPa 0,0 mm 0,0 km/h (0 Bft) O-NO 68 ° 0 min 0,000 mm 0,0 UV-I 0 W/m² -1,0 °C 1,4 °C 0,0 km/h (0 Bft)
07.02.2017 20:02 1,3 °C 1,4 °C 84 % 1016,8 hPa 0,0 mm 0,0 km/h (0 Bft) O-NO 68 ° 0 min 0,000 mm 0,0 UV-I 0 W/m² -1,1 °C 1,3 °C 0,0 km/h (0 Bft)
07.02.2017 20:03 1,3 °C 1,4 °C 84 % 1016,8 hPa 0,0 mm 0,0 km/h (0 Bft) O-NO 68 ° 0 min 0,000 mm 0,0 UV-I 0 W/m² -1,1 °C 1,3 °C 0,0 km/h (0 Bft)
07.02.2017 20:04 1,3 °C 1,3 °C 84 % 1016,8 hPa 0,0 mm 0,0 km/h (0 Bft) O-NO 68 ° 0 min 0,000 mm 0,0 UV-I 0 W/m² -1,1 °C 1,3 °C 0,0 km/h (0 Bft)
07.02.2017 20:05 1,3 °C 1,3 °C 84 % 1016,8 hPa 0,0 mm 0,0 km/h (0 Bft) O-NO 68 ° 0 min 0,000 mm 0,0 UV-I 0 W/m² -1,1 °C 1,3 °C 0,0 km/h (0 Bft)
07.02.2017 20:06 1,3 °C 1,3 °C 84 % 1016,8 hPa 0,0 mm 0,0 km/h (0 Bft) O-NO 68 ° 0 min 0,000 mm 0,0 UV-I 0 W/m² -1,1 °C 1,3 °C 0,0 km/h (0 Bft)
07.02.2017 20:07 1,3 °C 1,3 °C 84 % 1016,8 hPa 0,0 mm 0,0 km/h (0 Bft) O-NO 68 ° 0 min 0,000 mm 0,0 UV-I 0 W/m² -1,1 °C 1,3 °C 0,0 km/h (0 Bft)
07.02.2017 20:08 1,3 °C 1,3 °C 84 % 1016,7 hPa 0,0 mm 0,0 km/h (0 Bft) O-NO 68 ° 0 min 0,000 mm 0,0 UV-I 0 W/m² -1,1 °C 1,3 °C 0,0 km/h (0 Bft)
07.02.2017 20:09 1,3 °C 1,3 °C 84 % 1016,8 hPa 0,0 mm 0,0 km/h (0 Bft) O-NO 68 ° 0 min 0,000 mm 0,0 UV-I 0 W/m² -1,1 °C 1,3 °C 0,0 km/h (0 Bft)
07.02.2017 20:10 1,3 °C 1,3 °C 84 % 1016,8 hPa 0,0 mm 0,0 km/h (0 Bft) O-NO 68 ° 0 min 0,000 mm 0,0 UV-I 0 W/m² -1,1 °C 1,3 °C 0,0 km/h (0 Bft)
07.02.2017 20:11 1,3 °C 1,3 °C 84 % 1016,8 hPa 0,0 mm 0,0 km/h (0 Bft) O-NO 68 ° 0 min 0,000 mm 0,0 UV-I 0 W/m² -1,1 °C 1,3 °C 0,0 km/h (0 Bft)
07.02.2017 20:12 1,3 °C 1,3 °C 84 % 1016,8 hPa 0,0 mm 0,0 km/h (0 Bft) O-NO 68 ° 0 min 0,000 mm 0,0 UV-I 0 W/m² -1,1 °C 1,3 °C 0,0 km/h (0 Bft)
07.02.2017 20:13 1,3 °C 1,3 °C 84 % 1016,9 hPa 0,0 mm 0,0 km/h (0 Bft) O-NO 68 ° 0 min 0,000 mm 0,0 UV-I 0 W/m² -1,1 °C 1,3 °C 0,0 km/h (0 Bft)
07.02.2017 20:14 1,3 °C 1,3 °C 84 % 1016,9 hPa 0,0 mm 0,0 km/h (0 Bft) O-NO 68 ° 0 min 0,000 mm 0,0 UV-I 0 W/m² -1,1 °C 1,3 °C 0,0 km/h (0 Bft)
07.02.2017 20:15 1,3 °C 1,3 °C 84 % 1016,8 hPa 0,0 mm 0,0 km/h (0 Bft) O-NO 68 ° 0 min 0,000 mm 0,0 UV-I 0 W/m² -1,1 °C 1,3 °C 0,0 km/h (0 Bft)
07.02.2017 20:16 1,3 °C 1,3 °C 85 % 1016,9 hPa 0,0 mm 0,0 km/h (0 Bft) O-NO 68 ° 0 min 0,000 mm 0,0 UV-I 0 W/m² -0,9 °C 1,3 °C 0,0 km/h (0 Bft)
07.02.2017 20:17 1,3 °C 1,3 °C 85 % 1016,9 hPa 0,0 mm 0,0 km/h (0 Bft) O-NO 68 ° 0 min 0,000 mm 0,0 UV-I 0 W/m² -0,9 °C 1,3 °C 0,0 km/h (0 Bft)
07.02.2017 20:18 1,2 °C 1,3 °C 85 % 1016,9 hPa 0,0 mm 0,0 km/h (0 Bft) O-NO 68 ° 0 min 0,000 mm 0,0 UV-I 0 W/m² -1,0 °C 1,2 °C 0,0 km/h (0 Bft)
07.02.2017 20:19 1,2 °C 1,3 °C 85 % 1016,9 hPa 0,0 mm 0,0 km/h (0 Bft) O-NO 68 ° 0 min 0,000 mm 0,0 UV-I 0 W/m² -1,0 °C 1,2 °C 0,0 km/h (0 Bft)
07.02.2017 20:20 1,2 °C 1,2 °C 85 % 1016,9 hPa 0,0 mm 0,0 km/h (0 Bft) O-NO 68 ° 0 min 0,000 mm 0,0 UV-I 0 W/m² -1,0 °C 1,2 °C 0,0 km/h (0 Bft)
07.02.2017 20:21 1,2 °C 1,2 °C 85 % 1016,9 hPa 0,0 mm 0,0 km/h (0 Bft) O-NO 68 ° 0 min 0,000 mm 0,0 UV-I 0 W/m² -1,0 °C 1,2 °C 0,0 km/h (0 Bft)
07.02.2017 20:22 1,2 °C 1,2 °C 85 % 1016,9 hPa 0,0 mm 0,0 km/h (0 Bft) O-NO 68 ° 0 min 0,000 mm 0,0 UV-I 0 W/m² -1,0 °C 1,2 °C 0,0 km/h (0 Bft)
07.02.2017 20:23 1,2 °C 1,2 °C 85 % 1016,9 hPa 0,0 mm 0,0 km/h (0 Bft) O-NO 68 ° 0 min 0,000 mm 0,0 UV-I 0 W/m² -1,0 °C 1,2 °C 0,0 km/h (0 Bft)
07.02.2017 20:24 1,2 °C 1,2 °C 85 % 1016,9 hPa 0,0 mm 0,0 km/h (0 Bft) O-NO 68 ° 0 min 0,000 mm 0,0 UV-I 0 W/m² -1,0 °C 1,2 °C 0,0 km/h (0 Bft)
07.02.2017 20:25 1,2 °C 1,2 °C 85 % 1016,9 hPa 0,0 mm 0,0 km/h (0 Bft) O-NO 68 ° 0 min 0,000 mm 0,0 UV-I 0 W/m² -1,0 °C 1,2 °C 0,0 km/h (0 Bft)
07.02.2017 20:26 1,2 °C 1,2 °C 85 % 1016,9 hPa 0,0 mm 0,0 km/h (0 Bft) O-NO 68 ° 0 min 0,000 mm 0,0 UV-I 0 W/m² -1,0 °C 1,2 °C 0,0 km/h (0 Bft)
07.02.2017 20:27 1,2 °C 1,2 °C 85 % 1016,9 hPa 0,0 mm 0,0 km/h (0 Bft) O-NO 68 ° 0 min 0,000 mm 0,0 UV-I 0 W/m² -1,0 °C 1,2 °C 0,0 km/h (0 Bft)
07.02.2017 20:28 1,2 °C 1,2 °C 85 % 1016,9 hPa 0,0 mm 0,0 km/h (0 Bft) O-NO 68 ° 0 min 0,000 mm 0,0 UV-I 0 W/m² -1,0 °C 1,2 °C 0,0 km/h (0 Bft)
07.02.2017 20:29 1,2 °C 1,2 °C 85 % 1016,9 hPa 0,0 mm 0,0 km/h (0 Bft) O-NO 68 ° 0 min 0,000 mm 0,0 UV-I 0 W/m² -1,0 °C 1,2 °C 0,0 km/h (0 Bft)
07.02.2017 20:30 1,2 °C 1,2 °C 85 % 1016,9 hPa 0,0 mm 0,0 km/h (0 Bft) O-NO 68 ° 0 min 0,000 mm 0,0 UV-I 0 W/m² -1,0 °C 1,2 °C 0,0 km/h (0 Bft)
07.02.2017 20:31 1,2 °C 1,2 °C 85 % 1016,9 hPa 0,0 mm 0,0 km/h (0 Bft) O-NO 68 ° 0 min 0,000 mm 0,0 UV-I 0 W/m² -1,0 °C 1,2 °C 0,0 km/h (0 Bft)
07.02.2017 20:32 1,2 °C 1,2 °C 85 % 1016,9 hPa 0,0 mm 0,0 km/h (0 Bft) O-NO 68 ° 0 min 0,000 mm 0,0 UV-I 0 W/m² -1,0 °C 1,2 °C 0,0 km/h (0 Bft)
07.02.2017 20:33 1,2 °C 1,2 °C 85 % 1017,0 hPa 0,0 mm 0,0 km/h (0 Bft) O-NO 68 ° 0 min 0,000 mm 0,0 UV-I 0 W/m² -1,0 °C 1,2 °C 0,0 km/h (0 Bft)
07.02.2017 20:34 1,2 °C 1,2 °C 85 % 1017,0 hPa 0,0 mm 0,0 km/h (0 Bft) O-NO 68 ° 0 min 0,000 mm 0,0 UV-I 0 W/m² -1,0 °C 1,2 °C 0,0 km/h (0 Bft)
07.02.2017 20:35 1,2 °C 1,2 °C 85 % 1016,9 hPa 0,0 mm 0,0 km/h (0 Bft) O-NO 68 ° 0 min 0,000 mm 0,0 UV-I 0 W/m² -1,0 °C 1,2 °C 0,0 km/h (0 Bft)
07.02.2017 20:36 1,1 °C 1,2 °C 85 % 1016,9 hPa 0,0 mm 0,0 km/h (0 Bft) O-NO 68 ° 0 min 0,000 mm 0,0 UV-I 0 W/m² -1,1 °C 1,1 °C 0,0 km/h (0 Bft)
07.02.2017 20:37 1,1 °C 1,2 °C 85 % 1016,9 hPa 0,0 mm 0,0 km/h (0 Bft) O-NO 68 ° 0 min 0,000 mm 0,0 UV-I 0 W/m² -1,1 °C 1,1 °C 0,0 km/h (0 Bft)
07.02.2017 20:38 1,1 °C 1,2 °C 85 % 1016,9 hPa 0,0 mm 0,0 km/h (0 Bft) O-NO 68 ° 0 min 0,000 mm 0,0 UV-I 0 W/m² -1,1 °C 1,1 °C 0,0 km/h (0 Bft)
07.02.2017 20:39 1,1 °C 1,1 °C 85 % 1016,9 hPa 0,0 mm 0,0 km/h (0 Bft) O-NO 68 ° 0 min 0,000 mm 0,0 UV-I 0 W/m² -1,1 °C 1,1 °C 0,0 km/h (0 Bft)
07.02.2017 20:40 1,1 °C 1,1 °C 85 % 1016,9 hPa 0,0 mm 0,0 km/h (0 Bft) O-NO 68 ° 0 min 0,000 mm 0,0 UV-I 0 W/m² -1,1 °C 1,1 °C 0,0 km/h (0 Bft)
07.02.2017 20:41 1,1 °C 1,1 °C 85 % 1016,9 hPa 0,0 mm 0,0 km/h (0 Bft) O-NO 68 ° 0 min 0,000 mm 0,0 UV-I 0 W/m² -1,1 °C 1,1 °C 0,0 km/h (0 Bft)
07.02.2017 20:42 1,1 °C 1,1 °C 85 % 1016,9 hPa 0,0 mm 0,0 km/h (0 Bft) O-NO 68 ° 0 min 0,000 mm 0,0 UV-I 0 W/m² -1,1 °C 1,1 °C 0,0 km/h (0 Bft)
07.02.2017 20:43 1,1 °C 1,1 °C 85 % 1016,9 hPa 0,0 mm 0,0 km/h (0 Bft) O-NO 68 ° 0 min 0,000 mm 0,0 UV-I 0 W/m² -1,1 °C 1,1 °C 0,0 km/h (0 Bft)
07.02.2017 20:44 1,1 °C 1,1 °C 85 % 1016,9 hPa 0,0 mm 0,0 km/h (0 Bft) O-NO 68 ° 0 min 0,000 mm 0,0 UV-I 0 W/m² -1,1 °C 1,1 °C 0,0 km/h (0 Bft)
07.02.2017 20:45 1,1 °C 1,1 °C 85 % 1016,9 hPa 0,0 mm 0,0 km/h (0 Bft) O-NO 68 ° 0 min 0,000 mm 0,0 UV-I 0 W/m² -1,1 °C 1,1 °C 0,0 km/h (0 Bft)
07.02.2017 20:46 1,1 °C 1,1 °C 85 % 1016,8 hPa 0,0 mm 0,0 km/h (0 Bft) O-NO 68 ° 0 min 0,000 mm 0,0 UV-I 0 W/m² -1,1 °C 1,1 °C 0,0 km/h (0 Bft)
07.02.2017 20:47 1,1 °C 1,1 °C 85 % 1016,8 hPa 0,0 mm 0,0 km/h (0 Bft) O-NO 68 ° 0 min 0,000 mm 0,0 UV-I 0 W/m² -1,1 °C 1,1 °C 0,0 km/h (0 Bft)
07.02.2017 20:48 1,0 °C 1,1 °C 85 % 1016,8 hPa 0,0 mm 0,0 km/h (0 Bft) O-NO 68 ° 0 min 0,000 mm 0,0 UV-I 0 W/m² -1,2 °C 1,0 °C 0,0 km/h (0 Bft)
07.02.2017 20:49 1,0 °C 1,1 °C 85 % 1016,8 hPa 0,0 mm 0,0 km/h (0 Bft) O-NO 68 ° 0 min 0,000 mm 0,0 UV-I 0 W/m² -1,2 °C 1,0 °C 0,0 km/h (0 Bft)
07.02.2017 20:50 1,0 °C 1,1 °C 85 % 1016,8 hPa 0,0 mm 0,0 km/h (0 Bft) O-NO 68 ° 0 min 0,000 mm 0,0 UV-I 0 W/m² -1,2 °C 1,0 °C 0,0 km/h (0 Bft)
07.02.2017 20:51 1,0 °C 1,0 °C 85 % 1016,8 hPa 0,0 mm 0,0 km/h (0 Bft) O-NO 68 ° 0 min 0,000 mm 0,0 UV-I 0 W/m² -1,2 °C 1,0 °C 0,0 km/h (0 Bft)
07.02.2017 20:52 1,0 °C 1,0 °C 85 % 1016,8 hPa 0,0 mm 0,0 km/h (0 Bft) O-NO 68 ° 0 min 0,000 mm 0,0 UV-I 0 W/m² -1,2 °C 1,0 °C 0,0 km/h (0 Bft)
07.02.2017 20:53 1,0 °C 1,0 °C 85 % 1016,8 hPa 0,0 mm 0,0 km/h (0 Bft) O-NO 68 ° 0 min 0,000 mm 0,0 UV-I 0 W/m² -1,2 °C 1,0 °C 0,0 km/h (0 Bft)
07.02.2017 20:54 0,9 °C 1,0 °C 85 % 1016,8 hPa 0,0 mm 0,0 km/h (0 Bft) O-NO 68 ° 0 min 0,000 mm 0,0 UV-I 0 W/m² -1,3 °C 0,9 °C 0,0 km/h (0 Bft)
07.02.2017 20:55 0,9 °C 1,0 °C 85 % 1016,8 hPa 0,0 mm 0,0 km/h (0 Bft) O-NO 68 ° 0 min 0,000 mm 0,0 UV-I 0 W/m² -1,3 °C 0,9 °C 0,0 km/h (0 Bft)
07.02.2017 20:56 0,9 °C 0,9 °C 86 % 1016,8 hPa 0,0 mm 0,0 km/h (0 Bft) O-NO 68 ° 0 min 0,000 mm 0,0 UV-I 0 W/m² -1,2 °C 0,9 °C 0,0 km/h (0 Bft)
07.02.2017 20:57 0,9 °C 0,9 °C 86 % 1016,8 hPa 0,0 mm 0,0 km/h (0 Bft) O-NO 68 ° 0 min 0,000 mm 0,0 UV-I 0 W/m² -1,2 °C 0,9 °C 0,0 km/h (0 Bft)
07.02.2017 20:58 0,9 °C 0,9 °C 86 % 1016,8 hPa 0,0 mm 0,0 km/h (0 Bft) O-NO 68 ° 0 min 0,000 mm 0,0 UV-I 0 W/m² -1,2 °C 0,9 °C 0,0 km/h (0 Bft)
07.02.2017 20:59 0,9 °C 0,9 °C 86 % 1016,9 hPa 0,0 mm 0,0 km/h (0 Bft) O-NO 68 ° 0 min 0,000 mm 0,0 UV-I 0 W/m² -1,2 °C 0,9 °C 0,0 km/h (0 Bft)
07.02.2017 21:00 0,9 °C 0,9 °C 86 % 1016,9 hPa 0,0 mm 0,0 km/h (0 Bft) O-NO 68 ° 0 min 0,000 mm 0,0 UV-I 0 W/m² -1,2 °C 0,9 °C 0,0 km/h (0 Bft)
07.02.2017 21:01 0,9 °C 0,9 °C 86 % 1016,9 hPa 0,0 mm 0,0 km/h (0 Bft) O-NO 68 ° 0 min 0,000 mm 0,0 UV-I 0 W/m² -1,2 °C 0,9 °C 0,0 km/h (0 Bft)
07.02.2017 21:02 0,9 °C 0,9 °C 86 % 1016,9 hPa 0,0 mm 0,0 km/h (0 Bft) O-NO 68 ° 0 min 0,000 mm 0,0 UV-I 0 W/m² -1,2 °C 0,9 °C 0,0 km/h (0 Bft)
07.02.2017 21:03 0,9 °C 0,9 °C 87 % 1016,9 hPa 0,0 mm 0,0 km/h (0 Bft) O-NO 68 ° 0 min 0,000 mm 0,0 UV-I 0 W/m² -1,0 °C 0,9 °C 0,0 km/h (0 Bft)
07.02.2017 21:04 0,8 °C 0,9 °C 87 % 1016,9 hPa 0,0 mm 0,0 km/h (0 Bft) O-NO 68 ° 0 min 0,000 mm 0,0 UV-I 0 W/m² -1,1 °C 0,8 °C 0,0 km/h (0 Bft)
07.02.2017 21:05 0,9 °C 0,9 °C 87 % 1016,9 hPa 0,0 mm 0,0 km/h (0 Bft) O-NO 68 ° 0 min 0,000 mm 0,0 UV-I 0 W/m² -1,0 °C 0,9 °C 0,0 km/h (0 Bft)
07.02.2017 21:06 0,8 °C 0,9 °C 87 % 1016,9 hPa 0,0 mm 0,0 km/h (0 Bft) O-NO 68 ° 0 min 0,000 mm 0,0 UV-I 0 W/m² -1,1 °C 0,8 °C 0,0 km/h (0 Bft)
07.02.2017 21:07 0,8 °C 0,8 °C 87 % 1017,0 hPa 0,0 mm 0,0 km/h (0 Bft) O-NO 68 ° 0 min 0,000 mm 0,0 UV-I 0 W/m² -1,1 °C 0,8 °C 0,0 km/h (0 Bft)
07.02.2017 21:08 0,8 °C 0,8 °C 87 % 1017,0 hPa 0,0 mm 0,0 km/h (0 Bft) O-NO 68 ° 0 min 0,000 mm 0,0 UV-I 0 W/m² -1,1 °C 0,8 °C 0,0 km/h (0 Bft)
07.02.2017 21:09 0,8 °C 0,8 °C 87 % 1016,9 hPa 0,0 mm 0,0 km/h (0 Bft) O-NO 68 ° 0 min 0,000 mm 0,0 UV-I 0 W/m² -1,1 °C 0,8 °C 0,0 km/h (0 Bft)
07.02.2017 21:10 0,8 °C 0,8 °C 87 % 1016,9 hPa 0,0 mm 0,0 km/h (0 Bft) O-NO 68 ° 0 min 0,000 mm 0,0 UV-I 0 W/m² -1,1 °C 0,8 °C 0,0 km/h (0 Bft)
07.02.2017 21:11 0,8 °C 0,8 °C 87 % 1016,9 hPa 0,0 mm 0,0 km/h (0 Bft) O-NO 68 ° 0 min 0,000 mm 0,0 UV-I 0 W/m² -1,1 °C 0,8 °C 0,0 km/h (0 Bft)
07.02.2017 21:12 0,8 °C 0,8 °C 87 % 1016,9 hPa 0,0 mm 0,0 km/h (0 Bft) O-NO 68 ° 0 min 0,000 mm 0,0 UV-I 0 W/m² -1,1 °C 0,8 °C 0,0 km/h (0 Bft)
07.02.2017 21:13 0,8 °C 0,8 °C 87 % 1016,9 hPa 0,0 mm 0,0 km/h (0 Bft) O-NO 68 ° 0 min 0,000 mm 0,0 UV-I 0 W/m² -1,1 °C 0,8 °C 0,0 km/h (0 Bft)
07.02.2017 21:14 0,8 °C 0,8 °C 87 % 1016,9 hPa 0,0 mm 0,0 km/h (0 Bft) O-NO 68 ° 0 min 0,000 mm 0,0 UV-I 0 W/m² -1,1 °C 0,8 °C 0,0 km/h (0 Bft)
07.02.2017 21:15 0,8 °C 0,8 °C 87 % 1016,9 hPa 0,0 mm 0,0 km/h (0 Bft) O-NO 68 ° 0 min 0,000 mm 0,0 UV-I 0 W/m² -1,1 °C 0,8 °C 0,0 km/h (0 Bft)
07.02.2017 21:16 0,8 °C 0,8 °C 87 % 1016,8 hPa 0,0 mm 0,0 km/h (0 Bft) O-NO 68 ° 0 min 0,000 mm 0,0 UV-I 0 W/m² -1,1 °C 0,8 °C 0,0 km/h (0 Bft)
07.02.2017 21:17 0,8 °C 0,8 °C 87 % 1016,8 hPa 0,0 mm 0,0 km/h (0 Bft) O-NO 68 ° 0 min 0,000 mm 0,0 UV-I 0 W/m² -1,1 °C 0,8 °C 0,0 km/h (0 Bft)
07.02.2017 21:18 0,8 °C 0,8 °C 87 % 1016,9 hPa 0,0 mm 0,0 km/h (0 Bft) O-NO 68 ° 0 min 0,000 mm 0,0 UV-I 0 W/m² -1,1 °C 0,8 °C 0,0 km/h (0 Bft)
07.02.2017 21:19 0,8 °C 0,8 °C 87 % 1016,9 hPa 0,0 mm 0,0 km/h (0 Bft) O-NO 68 ° 0 min 0,000 mm 0,0 UV-I 0 W/m² -1,1 °C 0,8 °C 0,0 km/h (0 Bft)
07.02.2017 21:20 0,8 °C 0,8 °C 87 % 1016,8 hPa 0,0 mm 0,0 km/h (0 Bft) O-NO 68 ° 0 min 0,000 mm 0,0 UV-I 0 W/m² -1,1 °C 0,8 °C 0,0 km/h (0 Bft)
07.02.2017 21:21 0,8 °C 0,8 °C 87 % 1016,8 hPa 0,0 mm 0,0 km/h (0 Bft) O-NO 68 ° 0 min 0,000 mm 0,0 UV-I 0 W/m² -1,1 °C 0,8 °C 0,0 km/h (0 Bft)
07.02.2017 21:22 0,7 °C 0,8 °C 87 % 1016,8 hPa 0,0 mm 0,0 km/h (0 Bft) O-NO 68 ° 0 min 0,000 mm 0,0 UV-I 0 W/m² -1,2 °C 0,7 °C 0,0 km/h (0 Bft)
07.02.2017 21:23 0,7 °C 0,7 °C 87 % 1016,8 hPa 0,0 mm 0,0 km/h (0 Bft) O-NO 68 ° 0 min 0,000 mm 0,0 UV-I 0 W/m² -1,2 °C 0,7 °C 0,0 km/h (0 Bft)
07.02.2017 21:24 0,7 °C 0,7 °C 87 % 1016,8 hPa 0,0 mm 0,0 km/h (0 Bft) O-NO 68 ° 0 min 0,000 mm 0,0 UV-I 0 W/m² -1,2 °C 0,7 °C 0,0 km/h (0 Bft)
07.02.2017 21:25 0,7 °C 0,7 °C 88 % 1016,7 hPa 0,0 mm 0,0 km/h (0 Bft) O-NO 68 ° 0 min 0,000 mm 0,0 UV-I 0 W/m² -1,1 °C 0,7 °C 0,0 km/h (0 Bft)
07.02.2017 21:26 0,7 °C 0,7 °C 88 % 1016,8 hPa 0,0 mm 0,0 km/h (0 Bft) O-NO 68 ° 0 min 0,000 mm 0,0 UV-I 0 W/m² -1,1 °C 0,7 °C 0,0 km/h (0 Bft)
07.02.2017 21:27 0,7 °C 0,7 °C 88 % 1016,8 hPa 0,0 mm 0,0 km/h (0 Bft) O-NO 68 ° 0 min 0,000 mm 0,0 UV-I 0 W/m² -1,1 °C 0,7 °C 0,0 km/h (0 Bft)
07.02.2017 21:28 0,7 °C 0,7 °C 88 % 1016,8 hPa 0,0 mm 0,0 km/h (0 Bft) O-NO 68 ° 0 min 0,000 mm 0,0 UV-I 0 W/m² -1,1 °C 0,7 °C 0,0 km/h (0 Bft)
07.02.2017 21:29 0,7 °C 0,7 °C 88 % 1016,7 hPa 0,0 mm 0,0 km/h (0 Bft) O-NO 68 ° 0 min 0,000 mm 0,0 UV-I 0 W/m² -1,1 °C 0,7 °C 0,0 km/h (0 Bft)
07.02.2017 21:30 0,7 °C 0,7 °C 88 % 1016,7 hPa 0,0 mm 0,0 km/h (0 Bft) O-NO 68 ° 0 min 0,000 mm 0,0 UV-I 0 W/m² -1,1 °C 0,7 °C 0,0 km/h (0 Bft)
07.02.2017 21:31 0,7 °C 0,7 °C 88 % 1016,7 hPa 0,0 mm 0,0 km/h (0 Bft) O-NO 68 ° 0 min 0,000 mm 0,0 UV-I 0 W/m² -1,1 °C 0,7 °C 0,0 km/h (0 Bft)
07.02.2017 21:32 0,7 °C 0,7 °C 88 % 1016,7 hPa 0,0 mm 0,0 km/h (0 Bft) O-NO 68 ° 0 min 0,000 mm 0,0 UV-I 0 W/m² -1,1 °C 0,7 °C 0,0 km/h (0 Bft)
07.02.2017 21:33 0,7 °C 0,7 °C 88 % 1016,8 hPa 0,0 mm 0,0 km/h (0 Bft) O-NO 68 ° 0 min 0,000 mm 0,0 UV-I 0 W/m² -1,1 °C 0,7 °C 0,0 km/h (0 Bft)
07.02.2017 21:34 0,7 °C 0,7 °C 88 % 1016,8 hPa 0,0 mm 0,0 km/h (0 Bft) O-NO 68 ° 0 min 0,000 mm 0,0 UV-I 0 W/m² -1,1 °C 0,7 °C 0,0 km/h (0 Bft)
07.02.2017 21:35 0,7 °C 0,7 °C 88 % 1016,7 hPa 0,0 mm 0,0 km/h (0 Bft) O-NO 68 ° 0 min 0,000 mm 0,0 UV-I 0 W/m² -1,1 °C 0,7 °C 0,0 km/h (0 Bft)
07.02.2017 21:36 0,7 °C 0,7 °C 88 % 1016,8 hPa 0,0 mm 0,0 km/h (0 Bft) O-NO 68 ° 0 min 0,000 mm 0,0 UV-I 0 W/m² -1,1 °C 0,7 °C 0,0 km/h (0 Bft)
07.02.2017 21:37 0,7 °C 0,7 °C 88 % 1016,7 hPa 0,0 mm 0,0 km/h (0 Bft) O-NO 68 ° 0 min 0,000 mm 0,0 UV-I 0 W/m² -1,1 °C 0,7 °C 0,0 km/h (0 Bft)
07.02.2017 21:38 0,7 °C 0,7 °C 88 % 1016,8 hPa 0,0 mm 0,0 km/h (0 Bft) O-NO 68 ° 0 min 0,000 mm 0,0 UV-I 0 W/m² -1,1 °C 0,7 °C 0,0 km/h (0 Bft)
07.02.2017 21:39 0,7 °C 0,7 °C 88 % 1016,8 hPa 0,0 mm 0,0 km/h (0 Bft) O-NO 68 ° 0 min 0,000 mm 0,0 UV-I 0 W/m² -1,1 °C 0,7 °C 0,0 km/h (0 Bft)
07.02.2017 21:40 0,7 °C 0,7 °C 88 % 1016,8 hPa 0,0 mm 0,0 km/h (0 Bft) O-NO 68 ° 0 min 0,000 mm 0,0 UV-I 0 W/m² -1,1 °C 0,7 °C 0,0 km/h (0 Bft)
07.02.2017 21:41 0,7 °C 0,7 °C 88 % 1016,7 hPa 0,0 mm 0,0 km/h (0 Bft) O-NO 68 ° 0 min 0,000 mm 0,0 UV-I 0 W/m² -1,1 °C 0,7 °C 0,0 km/h (0 Bft)
07.02.2017 21:42 0,7 °C 0,7 °C 88 % 1016,8 hPa 0,0 mm 0,0 km/h (0 Bft) O-NO 68 ° 0 min 0,000 mm 0,0 UV-I 0 W/m² -1,1 °C 0,7 °C 0,0 km/h (0 Bft)
07.02.2017 21:43 0,7 °C 0,7 °C 88 % 1016,8 hPa 0,0 mm 0,0 km/h (0 Bft) O-NO 68 ° 0 min 0,000 mm 0,0 UV-I 0 W/m² -1,1 °C 0,7 °C 0,0 km/h (0 Bft)
07.02.2017 21:44 0,7 °C 0,7 °C 88 % 1016,7 hPa 0,0 mm 0,0 km/h (0 Bft) O-NO 68 ° 0 min 0,000 mm 0,0 UV-I 0 W/m² -1,1 °C 0,7 °C 0,0 km/h (0 Bft)
07.02.2017 21:45 0,7 °C 0,7 °C 88 % 1016,8 hPa 0,0 mm 0,0 km/h (0 Bft) O-NO 68 ° 0 min 0,000 mm 0,0 UV-I 0 W/m² -1,1 °C 0,7 °C 0,0 km/h (0 Bft)
07.02.2017 21:46 0,7 °C 0,7 °C 88 % 1016,8 hPa 0,0 mm 0,0 km/h (0 Bft) O-NO 68 ° 0 min 0,000 mm 0,0 UV-I 0 W/m² -1,1 °C 0,7 °C 0,0 km/h (0 Bft)
07.02.2017 21:47 0,7 °C 0,7 °C 88 % 1016,8 hPa 0,0 mm 0,0 km/h (0 Bft) O-NO 68 ° 0 min 0,000 mm 0,0 UV-I 0 W/m² -1,1 °C 0,7 °C 0,0 km/h (0 Bft)
07.02.2017 21:48 0,7 °C 0,7 °C 88 % 1016,8 hPa 0,0 mm 0,0 km/h (0 Bft) O-NO 68 ° 0 min 0,000 mm 0,0 UV-I 0 W/m² -1,1 °C 0,7 °C 0,0 km/h (0 Bft)
07.02.2017 21:49 0,7 °C 0,7 °C 88 % 1016,8 hPa 0,0 mm 0,0 km/h (0 Bft) O-NO 68 ° 0 min 0,000 mm 0,0 UV-I 0 W/m² -1,1 °C 0,7 °C 0,0 km/h (0 Bft)
07.02.2017 21:50 0,7 °C 0,7 °C 88 % 1016,8 hPa 0,0 mm 0,0 km/h (0 Bft) O-NO 68 ° 0 min 0,000 mm 0,0 UV-I 0 W/m² -1,1 °C 0,7 °C 0,0 km/h (0 Bft)
07.02.2017 21:51 0,7 °C 0,7 °C 88 % 1016,8 hPa 0,0 mm 0,0 km/h (0 Bft) O-NO 68 ° 0 min 0,000 mm 0,0 UV-I 0 W/m² -1,1 °C 0,7 °C 0,0 km/h (0 Bft)
07.02.2017 21:52 0,7 °C 0,7 °C 88 % 1016,8 hPa 0,0 mm 0,0 km/h (0 Bft) O-NO 68 ° 0 min 0,000 mm 0,0 UV-I 0 W/m² -1,1 °C 0,7 °C 0,0 km/h (0 Bft)
07.02.2017 21:53 0,7 °C 0,7 °C 88 % 1016,8 hPa 0,0 mm 0,0 km/h (0 Bft) O-NO 68 ° 0 min 0,000 mm 0,0 UV-I 0 W/m² -1,1 °C 0,7 °C 0,0 km/h (0 Bft)
07.02.2017 21:54 0,7 °C 0,7 °C 88 % 1016,8 hPa 0,0 mm 0,0 km/h (0 Bft) O-NO 68 ° 0 min 0,000 mm 0,0 UV-I 0 W/m² -1,1 °C 0,7 °C 0,0 km/h (0 Bft)
07.02.2017 21:55 0,7 °C 0,7 °C 88 % 1016,8 hPa 0,0 mm 0,0 km/h (0 Bft) O-NO 68 ° 0 min 0,000 mm 0,0 UV-I 0 W/m² -1,1 °C 0,7 °C 0,0 km/h (0 Bft)
07.02.2017 21:56 0,7 °C 0,7 °C 88 % 1016,8 hPa 0,0 mm 0,0 km/h (0 Bft) O-NO 68 ° 0 min 0,000 mm 0,0 UV-I 0 W/m² -1,1 °C 0,7 °C 0,0 km/h (0 Bft)
07.02.2017 21:57 0,7 °C 0,7 °C 88 % 1016,9 hPa 0,0 mm 0,0 km/h (0 Bft) O-NO 68 ° 0 min 0,000 mm 0,0 UV-I 0 W/m² -1,1 °C 0,7 °C 0,0 km/h (0 Bft)
07.02.2017 21:58 0,7 °C 0,7 °C 88 % 1016,9 hPa 0,0 mm 0,0 km/h (0 Bft) O-NO 68 ° 0 min 0,000 mm 0,0 UV-I 0 W/m² -1,1 °C 0,7 °C 0,0 km/h (0 Bft)
07.02.2017 21:59 0,7 °C 0,7 °C 88 % 1016,9 hPa 0,0 mm 0,0 km/h (0 Bft) O-NO 68 ° 0 min 0,000 mm 0,0 UV-I 0 W/m² -1,1 °C 0,7 °C 0,0 km/h (0 Bft)
07.02.2017 22:00 0,7 °C 0,7 °C 88 % 1016,9 hPa 0,0 mm 0,0 km/h (0 Bft) O-NO 68 ° 0 min 0,000 mm 0,0 UV-I 0 W/m² -1,1 °C 0,7 °C 0,0 km/h (0 Bft)
07.02.2017 22:01 0,7 °C 0,7 °C 88 % 1016,8 hPa 0,0 mm 0,0 km/h (0 Bft) O-NO 68 ° 0 min 0,000 mm 0,0 UV-I 0 W/m² -1,1 °C 0,7 °C 0,0 km/h (0 Bft)
07.02.2017 22:02 0,6 °C 0,7 °C 88 % 1016,9 hPa 0,0 mm 0,0 km/h (0 Bft) O-NO 68 ° 0 min 0,000 mm 0,0 UV-I 0 W/m² -1,2 °C 0,6 °C 0,0 km/h (0 Bft)
07.02.2017 22:03 0,7 °C 0,7 °C 88 % 1016,9 hPa 0,0 mm 0,0 km/h (0 Bft) O-NO 68 ° 0 min 0,000 mm 0,0 UV-I 0 W/m² -1,1 °C 0,7 °C 0,0 km/h (0 Bft)
07.02.2017 22:04 0,6 °C 0,7 °C 88 % 1016,8 hPa 0,0 mm 0,0 km/h (0 Bft) O-NO 68 ° 0 min 0,000 mm 0,0 UV-I 0 W/m² -1,2 °C 0,6 °C 0,0 km/h (0 Bft)
07.02.2017 22:05 0,6 °C 0,7 °C 88 % 1016,9 hPa 0,0 mm 0,0 km/h (0 Bft) O-NO 68 ° 0 min 0,000 mm 0,0 UV-I 0 W/m² -1,2 °C 0,6 °C 0,0 km/h (0 Bft)
07.02.2017 22:06 0,7 °C 0,7 °C 88 % 1016,9 hPa 0,0 mm 0,0 km/h (0 Bft) O-NO 68 ° 0 min 0,000 mm 0,0 UV-I 0 W/m² -1,1 °C 0,7 °C 0,0 km/h (0 Bft)
07.02.2017 22:07 0,6 °C 0,7 °C 88 % 1016,9 hPa 0,0 mm 0,0 km/h (0 Bft) O-NO 68 ° 0 min 0,000 mm 0,0 UV-I 0 W/m² -1,2 °C 0,6 °C 0,0 km/h (0 Bft)
07.02.2017 22:08 0,7 °C 0,7 °C 88 % 1016,8 hPa 0,0 mm 0,0 km/h (0 Bft) O-NO 68 ° 0 min 0,000 mm 0,0 UV-I 0 W/m² -1,1 °C 0,7 °C 0,0 km/h (0 Bft)
07.02.2017 22:09 0,6 °C 0,7 °C 88 % 1016,8 hPa 0,0 mm 0,0 km/h (0 Bft) O-NO 68 ° 0 min 0,000 mm 0,0 UV-I 0 W/m² -1,2 °C 0,6 °C 0,0 km/h (0 Bft)
07.02.2017 22:10 0,6 °C 0,6 °C 88 % 1016,8 hPa 0,0 mm 0,0 km/h (0 Bft) O-NO 68 ° 0 min 0,000 mm 0,0 UV-I 0 W/m² -1,2 °C 0,6 °C 0,0 km/h (0 Bft)
07.02.2017 22:11 0,6 °C 0,6 °C 88 % 1016,8 hPa 0,0 mm 0,0 km/h (0 Bft) O-NO 68 ° 0 min 0,000 mm 0,0 UV-I 0 W/m² -1,2 °C 0,6 °C 0,0 km/h (0 Bft)
07.02.2017 22:12 0,6 °C 0,6 °C 88 % 1016,8 hPa 0,0 mm 0,0 km/h (0 Bft) O-NO 68 ° 0 min 0,000 mm 0,0 UV-I 0 W/m² -1,2 °C 0,6 °C 0,0 km/h (0 Bft)
07.02.2017 22:13 0,6 °C 0,6 °C 88 % 1016,8 hPa 0,0 mm 0,0 km/h (0 Bft) O-NO 68 ° 0 min 0,000 mm 0,0 UV-I 0 W/m² -1,2 °C 0,6 °C 0,0 km/h (0 Bft)
07.02.2017 22:14 0,6 °C 0,6 °C 88 % 1016,8 hPa 0,0 mm 0,0 km/h (0 Bft) O-NO 68 ° 0 min 0,000 mm 0,0 UV-I 0 W/m² -1,2 °C 0,6 °C 0,0 km/h (0 Bft)
07.02.2017 22:15 0,6 °C 0,6 °C 88 % 1016,8 hPa 0,0 mm 0,0 km/h (0 Bft) O-NO 68 ° 0 min 0,000 mm 0,0 UV-I 0 W/m² -1,2 °C 0,6 °C 0,0 km/h (0 Bft)
07.02.2017 22:16 0,6 °C 0,6 °C 88 % 1016,8 hPa 0,0 mm 0,0 km/h (0 Bft) O-NO 68 ° 0 min 0,000 mm 0,0 UV-I 0 W/m² -1,2 °C 0,6 °C 0,0 km/h (0 Bft)
07.02.2017 22:17 0,6 °C 0,6 °C 88 % 1016,8 hPa 0,0 mm 0,0 km/h (0 Bft) O-NO 68 ° 0 min 0,000 mm 0,0 UV-I 0 W/m² -1,2 °C 0,6 °C 0,0 km/h (0 Bft)
07.02.2017 22:18 0,6 °C 0,6 °C 89 % 1016,7 hPa 0,0 mm 0,0 km/h (0 Bft) O-NO 68 ° 0 min 0,000 mm 0,0 UV-I 0 W/m² -1,0 °C 0,6 °C 0,0 km/h (0 Bft)
07.02.2017 22:19 0,6 °C 0,6 °C 88 % 1016,7 hPa 0,0 mm 0,0 km/h (0 Bft) O-NO 68 ° 0 min 0,000 mm 0,0 UV-I 0 W/m² -1,2 °C 0,6 °C 0,0 km/h (0 Bft)
07.02.2017 22:20 0,6 °C 0,6 °C 88 % 1016,7 hPa 0,0 mm 0,0 km/h (0 Bft) O-NO 68 ° 0 min 0,000 mm 0,0 UV-I 0 W/m² -1,2 °C 0,6 °C 0,0 km/h (0 Bft)
07.02.2017 22:21 0,6 °C 0,6 °C 89 % 1016,7 hPa 0,0 mm 0,0 km/h (0 Bft) O-NO 68 ° 0 min 0,000 mm 0,0 UV-I 0 W/m² -1,0 °C 0,6 °C 0,0 km/h (0 Bft)
07.02.2017 22:22 0,6 °C 0,6 °C 89 % 1016,7 hPa 0,0 mm 0,0 km/h (0 Bft) O-NO 68 ° 0 min 0,000 mm 0,0 UV-I 0 W/m² -1,0 °C 0,6 °C 0,0 km/h (0 Bft)
07.02.2017 22:23 0,6 °C 0,6 °C 89 % 1016,7 hPa 0,0 mm 0,0 km/h (0 Bft) O-NO 68 ° 0 min 0,000 mm 0,0 UV-I 0 W/m² -1,0 °C 0,6 °C 0,0 km/h (0 Bft)
07.02.2017 22:24 0,6 °C 0,6 °C 89 % 1016,7 hPa 0,0 mm 0,0 km/h (0 Bft) O-NO 68 ° 0 min 0,000 mm 0,0 UV-I 0 W/m² -1,0 °C 0,6 °C 0,0 km/h (0 Bft)
07.02.2017 22:25 0,6 °C 0,6 °C 89 % 1016,7 hPa 0,0 mm 0,0 km/h (0 Bft) O-NO 68 ° 0 min 0,000 mm 0,0 UV-I 0 W/m² -1,0 °C 0,6 °C 0,0 km/h (0 Bft)
07.02.2017 22:26 0,6 °C 0,6 °C 89 % 1016,7 hPa 0,0 mm 0,0 km/h (0 Bft) O-NO 68 ° 0 min 0,000 mm 0,0 UV-I 0 W/m² -1,0 °C 0,6 °C 0,0 km/h (0 Bft)
07.02.2017 22:27 0,6 °C 0,6 °C 89 % 1016,7 hPa 0,0 mm 0,0 km/h (0 Bft) O-NO 68 ° 0 min 0,000 mm 0,0 UV-I 0 W/m² -1,0 °C 0,6 °C 0,0 km/h (0 Bft)
07.02.2017 22:28 0,6 °C 0,6 °C 89 % 1016,7 hPa 0,0 mm 0,0 km/h (0 Bft) O-NO 68 ° 0 min 0,000 mm 0,0 UV-I 0 W/m² -1,0 °C 0,6 °C 0,0 km/h (0 Bft)
07.02.2017 22:29 0,6 °C 0,6 °C 89 % 1016,7 hPa 0,0 mm 0,0 km/h (0 Bft) O-NO 68 ° 0 min 0,000 mm 0,0 UV-I 0 W/m² -1,0 °C 0,6 °C 0,0 km/h (0 Bft)
07.02.2017 22:30 0,6 °C 0,6 °C 89 % 1016,8 hPa 0,0 mm 0,0 km/h (0 Bft) O-NO 68 ° 0 min 0,000 mm 0,0 UV-I 0 W/m² -1,0 °C 0,6 °C 0,0 km/h (0 Bft)
07.02.2017 22:31 0,6 °C 0,6 °C 89 % 1016,7 hPa 0,0 mm 0,0 km/h (0 Bft) O-NO 68 ° 0 min 0,000 mm 0,0 UV-I 0 W/m² -1,0 °C 0,6 °C 0,0 km/h (0 Bft)
07.02.2017 22:32 0,6 °C 0,6 °C 89 % 1016,7 hPa 0,0 mm 0,0 km/h (0 Bft) O-NO 68 ° 0 min 0,000 mm 0,0 UV-I 0 W/m² -1,0 °C 0,6 °C 0,0 km/h (0 Bft)
07.02.2017 22:33 0,6 °C 0,6 °C 89 % 1016,7 hPa 0,0 mm 0,0 km/h (0 Bft) O-NO 68 ° 0 min 0,000 mm 0,0 UV-I 0 W/m² -1,0 °C 0,6 °C 0,0 km/h (0 Bft)
07.02.2017 22:34 0,6 °C 0,6 °C 89 % 1016,6 hPa 0,0 mm 0,0 km/h (0 Bft) O-NO 68 ° 0 min 0,000 mm 0,0 UV-I 0 W/m² -1,0 °C 0,6 °C 0,0 km/h (0 Bft)
07.02.2017 22:35 0,6 °C 0,6 °C 89 % 1016,6 hPa 0,0 mm 0,0 km/h (0 Bft) O-NO 68 ° 0 min 0,000 mm 0,0 UV-I 0 W/m² -1,0 °C 0,6 °C 0,0 km/h (0 Bft)
07.02.2017 22:36 0,6 °C 0,6 °C 89 % 1016,6 hPa 0,0 mm 0,0 km/h (0 Bft) O-NO 68 ° 0 min 0,000 mm 0,0 UV-I 0 W/m² -1,0 °C 0,6 °C 0,0 km/h (0 Bft)
07.02.2017 22:37 0,6 °C 0,6 °C 89 % 1016,6 hPa 0,0 mm 0,0 km/h (0 Bft) O-NO 68 ° 0 min 0,000 mm 0,0 UV-I 0 W/m² -1,0 °C 0,6 °C 0,0 km/h (0 Bft)
07.02.2017 22:38 0,6 °C 0,6 °C 89 % 1016,6 hPa 0,0 mm 0,0 km/h (0 Bft) O-NO 68 ° 0 min 0,000 mm 0,0 UV-I 0 W/m² -1,0 °C 0,6 °C 0,0 km/h (0 Bft)
07.02.2017 22:39 0,6 °C 0,6 °C 89 % 1016,6 hPa 0,0 mm 0,0 km/h (0 Bft) O-NO 68 ° 0 min 0,000 mm 0,0 UV-I 0 W/m² -1,0 °C 0,6 °C 0,0 km/h (0 Bft)
07.02.2017 22:40 0,6 °C 0,6 °C 89 % 1016,7 hPa 0,0 mm 0,0 km/h (0 Bft) O-NO 68 ° 0 min 0,000 mm 0,0 UV-I 0 W/m² -1,0 °C 0,6 °C 0,0 km/h (0 Bft)
07.02.2017 22:41 0,6 °C 0,6 °C 89 % 1016,6 hPa 0,0 mm 0,0 km/h (0 Bft) O-NO 68 ° 0 min 0,000 mm 0,0 UV-I 0 W/m² -1,0 °C 0,6 °C 0,0 km/h (0 Bft)
07.02.2017 22:42 0,6 °C 0,6 °C 89 % 1016,6 hPa 0,0 mm 0,0 km/h (0 Bft) O-NO 68 ° 0 min 0,000 mm 0,0 UV-I 0 W/m² -1,0 °C 0,6 °C 0,0 km/h (0 Bft)
07.02.2017 22:43 0,6 °C 0,6 °C 90 % 1016,6 hPa 0,0 mm 0,7 km/h (0 Bft) O-NO 68 ° 0 min 0,000 mm 0,0 UV-I 0 W/m² -0,8 °C 0,6 °C 1,6 km/h (1 Bft)
07.02.2017 22:44 0,6 °C 0,6 °C 90 % 1016,6 hPa 0,0 mm 1,9 km/h (1 Bft) O-NO 68 ° 0 min 0,000 mm 0,0 UV-I 0 W/m² -0,8 °C 0,6 °C 3,2 km/h (1 Bft)
07.02.2017 22:45 0,6 °C 0,6 °C 90 % 1016,6 hPa 0,0 mm 1,6 km/h (1 Bft) O-NO 68 ° 0 min 0,000 mm 0,0 UV-I 0 W/m² -0,8 °C 0,6 °C 1,6 km/h (1 Bft)
07.02.2017 22:46 0,6 °C 0,6 °C 90 % 1016,6 hPa 0,0 mm 1,2 km/h (1 Bft) O-NO 68 ° 0 min 0,000 mm 0,0 UV-I 0 W/m² -0,8 °C 0,6 °C 1,6 km/h (1 Bft)
07.02.2017 22:47 0,6 °C 0,6 °C 90 % 1016,6 hPa 0,0 mm 0,7 km/h (0 Bft) O-NO 68 ° 0 min 0,000 mm 0,0 UV-I 0 W/m² -0,8 °C 0,6 °C 1,6 km/h (1 Bft)
07.02.2017 22:48 0,6 °C 0,6 °C 90 % 1016,6 hPa 0,0 mm 0,1 km/h (0 Bft) O-NO 68 ° 0 min 0,000 mm 0,0 UV-I 0 W/m² -0,8 °C 0,6 °C 1,6 km/h (1 Bft)
07.02.2017 22:49 0,6 °C 0,6 °C 90 % 1016,7 hPa 0,0 mm 0,3 km/h (0 Bft) O-NO 68 ° 0 min 0,000 mm 0,0 UV-I 0 W/m² -0,8 °C 0,6 °C 1,6 km/h (1 Bft)
07.02.2017 22:50 0,6 °C 0,6 °C 90 % 1016,6 hPa 0,0 mm 0,2 km/h (0 Bft) O-NO 68 ° 0 min 0,000 mm 0,0 UV-I 0 W/m² -0,8 °C 0,6 °C 1,6 km/h (1 Bft)
07.02.2017 22:51 0,6 °C 0,6 °C 90 % 1016,6 hPa 0,0 mm 0,0 km/h (0 Bft) O-NO 68 ° 0 min 0,000 mm 0,0 UV-I 0 W/m² -0,8 °C 0,6 °C 0,0 km/h (0 Bft)
07.02.2017 22:52 0,6 °C 0,6 °C 90 % 1016,7 hPa 0,0 mm 0,2 km/h (0 Bft) O-NO 68 ° 0 min 0,000 mm 0,0 UV-I 0 W/m² -0,8 °C 0,6 °C 1,6 km/h (1 Bft)
07.02.2017 22:53 0,6 °C 0,6 °C 90 % 1016,7 hPa 0,0 mm 0,0 km/h (0 Bft) O-NO 68 ° 0 min 0,000 mm 0,0 UV-I 0 W/m² -0,8 °C 0,6 °C 0,0 km/h (0 Bft)
07.02.2017 22:54 0,6 °C 0,6 °C 90 % 1016,8 hPa 0,0 mm 0,0 km/h (0 Bft) O-NO 68 ° 0 min 0,000 mm 0,0 UV-I 0 W/m² -0,8 °C 0,6 °C 0,0 km/h (0 Bft)
07.02.2017 22:55 0,6 °C 0,6 °C 90 % 1016,8 hPa 0,0 mm 0,0 km/h (0 Bft) O-NO 68 ° 0 min 0,000 mm 0,0 UV-I 0 W/m² -0,8 °C 0,6 °C 0,0 km/h (0 Bft)
07.02.2017 22:56 0,6 °C 0,6 °C 90 % 1016,7 hPa 0,0 mm 0,0 km/h (0 Bft) O-NO 68 ° 0 min 0,000 mm 0,0 UV-I 0 W/m² -0,8 °C 0,6 °C 0,0 km/h (0 Bft)
07.02.2017 22:57 0,6 °C 0,6 °C 90 % 1016,7 hPa 0,0 mm 0,0 km/h (0 Bft) O-NO 68 ° 0 min 0,000 mm 0,0 UV-I 0 W/m² -0,8 °C 0,6 °C 0,0 km/h (0 Bft)
07.02.2017 22:58 0,6 °C 0,6 °C 90 % 1016,8 hPa 0,0 mm 0,0 km/h (0 Bft) O-NO 68 ° 0 min 0,000 mm 0,0 UV-I 0 W/m² -0,8 °C 0,6 °C 0,0 km/h (0 Bft)
07.02.2017 22:59 0,6 °C 0,6 °C 90 % 1016,7 hPa 0,0 mm 0,0 km/h (0 Bft) O-NO 68 ° 0 min 0,000 mm 0,0 UV-I 0 W/m² -0,8 °C 0,6 °C 0,0 km/h (0 Bft)
07.02.2017 23:00 0,6 °C 0,6 °C 90 % 1016,7 hPa 0,0 mm 0,0 km/h (0 Bft) O-NO 68 ° 0 min 0,000 mm 0,0 UV-I 0 W/m² -0,8 °C 0,6 °C 0,0 km/h (0 Bft)
07.02.2017 23:01 0,6 °C 0,6 °C 90 % 1016,7 hPa 0,0 mm 0,0 km/h (0 Bft) O-NO 68 ° 0 min 0,000 mm 0,0 UV-I 0 W/m² -0,8 °C 0,6 °C 0,0 km/h (0 Bft)
07.02.2017 23:02 0,6 °C 0,6 °C 90 % 1016,7 hPa 0,0 mm 0,0 km/h (0 Bft) O-NO 68 ° 0 min 0,000 mm 0,0 UV-I 0 W/m² -0,8 °C 0,6 °C 0,0 km/h (0 Bft)
07.02.2017 23:03 0,6 °C 0,6 °C 90 % 1016,7 hPa 0,0 mm 0,0 km/h (0 Bft) O-NO 68 ° 0 min 0,000 mm 0,0 UV-I 0 W/m² -0,8 °C 0,6 °C 0,0 km/h (0 Bft)
07.02.2017 23:04 0,6 °C 0,6 °C 90 % 1016,7 hPa 0,0 mm 0,0 km/h (0 Bft) O-NO 68 ° 0 min 0,000 mm 0,0 UV-I 0 W/m² -0,8 °C 0,6 °C 0,0 km/h (0 Bft)
07.02.2017 23:05 0,6 °C 0,6 °C 90 % 1016,7 hPa 0,0 mm 0,0 km/h (0 Bft) O-NO 68 ° 0 min 0,000 mm 0,0 UV-I 0 W/m² -0,8 °C 0,6 °C 0,0 km/h (0 Bft)
07.02.2017 23:06 0,6 °C 0,6 °C 90 % 1016,7 hPa 0,0 mm 0,0 km/h (0 Bft) O-NO 68 ° 0 min 0,000 mm 0,0 UV-I 0 W/m² -0,8 °C 0,6 °C 0,0 km/h (0 Bft)
07.02.2017 23:07 0,6 °C 0,6 °C 90 % 1016,7 hPa 0,0 mm 0,0 km/h (0 Bft) O-NO 68 ° 0 min 0,000 mm 0,0 UV-I 0 W/m² -0,8 °C 0,6 °C 0,0 km/h (0 Bft)
07.02.2017 23:08 0,6 °C 0,6 °C 90 % 1016,8 hPa 0,0 mm 0,0 km/h (0 Bft) O-NO 68 ° 0 min 0,000 mm 0,0 UV-I 0 W/m² -0,8 °C 0,6 °C 0,0 km/h (0 Bft)
07.02.2017 23:09 0,6 °C 0,6 °C 90 % 1016,8 hPa 0,0 mm 0,0 km/h (0 Bft) O-NO 68 ° 0 min 0,000 mm 0,0 UV-I 0 W/m² -0,8 °C 0,6 °C 0,0 km/h (0 Bft)
07.02.2017 23:10 0,5 °C 0,6 °C 90 % 1016,8 hPa 0,0 mm 0,0 km/h (0 Bft) O-NO 68 ° 0 min 0,000 mm 0,0 UV-I 0 W/m² -0,9 °C 0,5 °C 0,0 km/h (0 Bft)
07.02.2017 23:11 0,6 °C 0,6 °C 90 % 1016,8 hPa 0,0 mm 0,0 km/h (0 Bft) O-NO 68 ° 0 min 0,000 mm 0,0 UV-I 0 W/m² -0,8 °C 0,6 °C 0,0 km/h (0 Bft)
07.02.2017 23:12 0,5 °C 0,6 °C 90 % 1016,8 hPa 0,0 mm 0,0 km/h (0 Bft) O-NO 68 ° 0 min 0,000 mm 0,0 UV-I 0 W/m² -0,9 °C 0,5 °C 0,0 km/h (0 Bft)
07.02.2017 23:13 0,5 °C 0,6 °C 90 % 1016,8 hPa 0,0 mm 0,0 km/h (0 Bft) O-NO 68 ° 0 min 0,000 mm 0,0 UV-I 0 W/m² -0,9 °C 0,5 °C 0,0 km/h (0 Bft)
07.02.2017 23:14 0,5 °C 0,6 °C 90 % 1016,9 hPa 0,0 mm 0,0 km/h (0 Bft) O-NO 68 ° 0 min 0,000 mm 0,0 UV-I 0 W/m² -0,9 °C 0,5 °C 0,0 km/h (0 Bft)
07.02.2017 23:15 0,5 °C 0,6 °C 90 % 1016,9 hPa 0,0 mm 0,0 km/h (0 Bft) O-NO 68 ° 0 min 0,000 mm 0,0 UV-I 0 W/m² -0,9 °C 0,5 °C 0,0 km/h (0 Bft)
07.02.2017 23:16 0,5 °C 0,5 °C 90 % 1016,9 hPa 0,0 mm 0,0 km/h (0 Bft) O-NO 68 ° 0 min 0,000 mm 0,0 UV-I 0 W/m² -0,9 °C 0,5 °C 0,0 km/h (0 Bft)
07.02.2017 23:17 0,5 °C 0,5 °C 90 % 1016,9 hPa 0,0 mm 0,0 km/h (0 Bft) O-NO 68 ° 0 min 0,000 mm 0,0 UV-I 0 W/m² -0,9 °C 0,5 °C 0,0 km/h (0 Bft)
07.02.2017 23:18 0,5 °C 0,5 °C 90 % 1016,9 hPa 0,0 mm 0,0 km/h (0 Bft) O-NO 68 ° 0 min 0,000 mm 0,0 UV-I 0 W/m² -0,9 °C 0,5 °C 0,0 km/h (0 Bft)
07.02.2017 23:19 0,4 °C 0,5 °C 90 % 1016,9 hPa 0,0 mm 0,0 km/h (0 Bft) O-NO 68 ° 0 min 0,000 mm 0,0 UV-I 0 W/m² -1,0 °C 0,4 °C 0,0 km/h (0 Bft)
07.02.2017 23:20 0,4 °C 0,4 °C 90 % 1016,9 hPa 0,0 mm 0,0 km/h (0 Bft) O-NO 68 ° 0 min 0,000 mm 0,0 UV-I 0 W/m² -1,0 °C 0,4 °C 0,0 km/h (0 Bft)
07.02.2017 23:21 0,4 °C 0,4 °C 90 % 1016,9 hPa 0,0 mm 0,0 km/h (0 Bft) O-NO 68 ° 0 min 0,000 mm 0,0 UV-I 0 W/m² -1,0 °C 0,4 °C 0,0 km/h (0 Bft)
07.02.2017 23:22 0,4 °C 0,4 °C 90 % 1016,9 hPa 0,0 mm 0,0 km/h (0 Bft) O-NO 68 ° 0 min 0,000 mm 0,0 UV-I 0 W/m² -1,0 °C 0,4 °C 0,0 km/h (0 Bft)
07.02.2017 23:23 0,4 °C 0,4 °C 90 % 1016,8 hPa 0,0 mm 0,0 km/h (0 Bft) O-NO 68 ° 0 min 0,000 mm 0,0 UV-I 0 W/m² -1,0 °C 0,4 °C 0,0 km/h (0 Bft)
07.02.2017 23:24 0,4 °C 0,4 °C 90 % 1016,9 hPa 0,0 mm 0,0 km/h (0 Bft) O-NO 68 ° 0 min 0,000 mm 0,0 UV-I 0 W/m² -1,0 °C 0,4 °C 0,0 km/h (0 Bft)
07.02.2017 23:25 0,4 °C 0,4 °C 90 % 1016,9 hPa 0,0 mm 0,0 km/h (0 Bft) O-NO 68 ° 0 min 0,000 mm 0,0 UV-I 0 W/m² -1,0 °C 0,4 °C 0,0 km/h (0 Bft)
07.02.2017 23:26 0,4 °C 0,4 °C 90 % 1016,9 hPa 0,0 mm 0,0 km/h (0 Bft) O-NO 68 ° 0 min 0,000 mm 0,0 UV-I 0 W/m² -1,0 °C 0,4 °C 0,0 km/h (0 Bft)
07.02.2017 23:27 0,4 °C 0,4 °C 90 % 1016,8 hPa 0,0 mm 0,0 km/h (0 Bft) O-NO 68 ° 0 min 0,000 mm 0,0 UV-I 0 W/m² -1,0 °C 0,4 °C 0,0 km/h (0 Bft)
07.02.2017 23:28 0,4 °C 0,4 °C 90 % 1016,9 hPa 0,0 mm 0,0 km/h (0 Bft) O-NO 68 ° 0 min 0,000 mm 0,0 UV-I 0 W/m² -1,0 °C 0,4 °C 0,0 km/h (0 Bft)
07.02.2017 23:29 0,4 °C 0,4 °C 90 % 1016,8 hPa 0,0 mm 0,0 km/h (0 Bft) O-NO 68 ° 0 min 0,000 mm 0,0 UV-I 0 W/m² -1,0 °C 0,4 °C 0,0 km/h (0 Bft)
07.02.2017 23:30 0,4 °C 0,4 °C 90 % 1016,9 hPa 0,0 mm 0,0 km/h (0 Bft) O-NO 68 ° 0 min 0,000 mm 0,0 UV-I 0 W/m² -1,0 °C 0,4 °C 0,0 km/h (0 Bft)
07.02.2017 23:31 0,4 °C 0,4 °C 91 % 1016,9 hPa 0,0 mm 0,0 km/h (0 Bft) O-NO 68 ° 0 min 0,000 mm 0,0 UV-I 0 W/m² -0,9 °C 0,4 °C 0,0 km/h (0 Bft)
07.02.2017 23:32 0,3 °C 0,4 °C 91 % 1016,9 hPa 0,0 mm 0,0 km/h (0 Bft) O-NO 68 ° 0 min 0,000 mm 0,0 UV-I 0 W/m² -1,0 °C 0,3 °C 0,0 km/h (0 Bft)
07.02.2017 23:33 0,3 °C 0,4 °C 91 % 1016,9 hPa 0,0 mm 0,0 km/h (0 Bft) O-NO 68 ° 0 min 0,000 mm 0,0 UV-I 0 W/m² -1,0 °C 0,3 °C 0,0 km/h (0 Bft)
07.02.2017 23:34 0,3 °C 0,4 °C 91 % 1016,9 hPa 0,0 mm 0,0 km/h (0 Bft) O-NO 68 ° 0 min 0,000 mm 0,0 UV-I 0 W/m² -1,0 °C 0,3 °C 0,0 km/h (0 Bft)
07.02.2017 23:35 0,4 °C 0,4 °C 91 % 1016,9 hPa 0,0 mm 0,0 km/h (0 Bft) O-NO 68 ° 0 min 0,000 mm 0,0 UV-I 0 W/m² -0,9 °C 0,4 °C 0,0 km/h (0 Bft)
07.02.2017 23:36 0,3 °C 0,4 °C 91 % 1016,9 hPa 0,0 mm 0,0 km/h (0 Bft) O-NO 68 ° 0 min 0,000 mm 0,0 UV-I 0 W/m² -1,0 °C 0,3 °C 0,0 km/h (0 Bft)
07.02.2017 23:37 0,3 °C 0,3 °C 91 % 1016,9 hPa 0,0 mm 0,0 km/h (0 Bft) O-NO 68 ° 0 min 0,000 mm 0,0 UV-I 0 W/m² -1,0 °C 0,3 °C 0,0 km/h (0 Bft)
07.02.2017 23:38 0,3 °C 0,3 °C 91 % 1016,9 hPa 0,0 mm 0,0 km/h (0 Bft) O-NO 68 ° 0 min 0,000 mm 0,0 UV-I 0 W/m² -1,0 °C 0,3 °C 0,0 km/h (0 Bft)
07.02.2017 23:39 0,3 °C 0,3 °C 91 % 1016,9 hPa 0,0 mm 0,0 km/h (0 Bft) O-NO 68 ° 0 min 0,000 mm 0,0 UV-I 0 W/m² -1,0 °C 0,3 °C 0,0 km/h (0 Bft)
07.02.2017 23:40 0,3 °C 0,3 °C 91 % 1016,9 hPa 0,0 mm 0,0 km/h (0 Bft) O-NO 68 ° 0 min 0,000 mm 0,0 UV-I 0 W/m² -1,0 °C 0,3 °C 0,0 km/h (0 Bft)
07.02.2017 23:41 0,3 °C 0,3 °C 91 % 1016,9 hPa 0,0 mm 0,0 km/h (0 Bft) O-NO 68 ° 0 min 0,000 mm 0,0 UV-I 0 W/m² -1,0 °C 0,3 °C 0,0 km/h (0 Bft)
07.02.2017 23:42 0,3 °C 0,3 °C 91 % 1016,8 hPa 0,0 mm 0,0 km/h (0 Bft) O-NO 68 ° 0 min 0,000 mm 0,0 UV-I 0 W/m² -1,0 °C 0,3 °C 0,0 km/h (0 Bft)
07.02.2017 23:43 0,3 °C 0,3 °C 91 % 1016,9 hPa 0,0 mm 0,0 km/h (0 Bft) O-NO 68 ° 0 min 0,000 mm 0,0 UV-I 0 W/m² -1,0 °C 0,3 °C 0,0 km/h (0 Bft)
07.02.2017 23:44 0,3 °C 0,3 °C 91 % 1016,8 hPa 0,0 mm 0,0 km/h (0 Bft) O-NO 68 ° 0 min 0,000 mm 0,0 UV-I 0 W/m² -1,0 °C 0,3 °C 0,0 km/h (0 Bft)
07.02.2017 23:45 0,3 °C 0,3 °C 91 % 1016,8 hPa 0,0 mm 0,0 km/h (0 Bft) O-NO 68 ° 0 min 0,000 mm 0,0 UV-I 0 W/m² -1,0 °C 0,3 °C 0,0 km/h (0 Bft)
07.02.2017 23:46 0,3 °C 0,3 °C 91 % 1016,9 hPa 0,0 mm 0,0 km/h (0 Bft) O-NO 68 ° 0 min 0,000 mm 0,0 UV-I 0 W/m² -1,0 °C 0,3 °C 0,0 km/h (0 Bft)
07.02.2017 23:47 0,3 °C 0,3 °C 91 % 1016,8 hPa 0,0 mm 0,0 km/h (0 Bft) O-NO 68 ° 0 min 0,000 mm 0,0 UV-I 0 W/m² -1,0 °C 0,3 °C 0,0 km/h (0 Bft)
07.02.2017 23:48 0,3 °C 0,3 °C 91 % 1016,9 hPa 0,0 mm 0,0 km/h (0 Bft) O-NO 68 ° 0 min 0,000 mm 0,0 UV-I 0 W/m² -1,0 °C 0,3 °C 0,0 km/h (0 Bft)
07.02.2017 23:49 0,2 °C 0,3 °C 91 % 1016,9 hPa 0,0 mm 0,0 km/h (0 Bft) O-NO 68 ° 0 min 0,000 mm 0,0 UV-I 0 W/m² -1,1 °C 0,2 °C 0,0 km/h (0 Bft)
07.02.2017 23:50 0,3 °C 0,3 °C 91 % 1016,9 hPa 0,0 mm 0,0 km/h (0 Bft) O-NO 68 ° 0 min 0,000 mm 0,0 UV-I 0 W/m² -1,0 °C 0,3 °C 0,0 km/h (0 Bft)
07.02.2017 23:51 0,2 °C 0,3 °C 91 % 1016,9 hPa 0,0 mm 0,0 km/h (0 Bft) O-NO 68 ° 0 min 0,000 mm 0,0 UV-I 0 W/m² -1,1 °C 0,2 °C 0,0 km/h (0 Bft)
07.02.2017 23:52 0,2 °C 0,3 °C 91 % 1017,0 hPa 0,0 mm 0,0 km/h (0 Bft) O-NO 68 ° 0 min 0,000 mm 0,0 UV-I 0 W/m² -1,1 °C 0,2 °C 0,0 km/h (0 Bft)
07.02.2017 23:53 0,3 °C 0,3 °C 91 % 1016,9 hPa 0,0 mm 0,0 km/h (0 Bft) O-NO 68 ° 0 min 0,000 mm 0,0 UV-I 0 W/m² -1,0 °C 0,3 °C 0,0 km/h (0 Bft)
07.02.2017 23:54 0,2 °C 0,3 °C 91 % 1016,9 hPa 0,0 mm 0,0 km/h (0 Bft) O-NO 68 ° 0 min 0,000 mm 0,0 UV-I 0 W/m² -1,1 °C 0,2 °C 0,0 km/h (0 Bft)
07.02.2017 23:55 0,2 °C 0,2 °C 91 % 1017,0 hPa 0,0 mm 0,0 km/h (0 Bft) O-NO 68 ° 0 min 0,000 mm 0,0 UV-I 0 W/m² -1,1 °C 0,2 °C 0,0 km/h (0 Bft)
07.02.2017 23:56 0,2 °C 0,2 °C 91 % 1017,0 hPa 0,0 mm 0,0 km/h (0 Bft) O-NO 68 ° 0 min 0,000 mm 0,0 UV-I 0 W/m² -1,1 °C 0,2 °C 0,0 km/h (0 Bft)
07.02.2017 23:57 0,2 °C 0,2 °C 91 % 1016,9 hPa 0,0 mm 0,0 km/h (0 Bft) O-NO 68 ° 0 min 0,000 mm 0,0 UV-I 0 W/m² -1,1 °C 0,2 °C 0,0 km/h (0 Bft)
07.02.2017 23:58 0,2 °C 0,2 °C 91 % 1017,0 hPa 0,0 mm 0,0 km/h (0 Bft) O-NO 68 ° 0 min 0,000 mm 0,0 UV-I 0 W/m² -1,1 °C 0,2 °C 0,0 km/h (0 Bft)
07.02.2017 23:59 0,2 °C 0,2 °C 91 % 1017,0 hPa 0,0 mm 0,0 km/h (0 Bft) O-NO 68 ° 0 min 0,000 mm 0,0 UV-I 0 W/m² -1,1 °C 0,2 °C 0,0 km/h (0 Bft)
_ Min-Zeit 08:57 08:55 15:01 15:27 - 23:59 - - - - - - 08:48 03:31 23:59
Minimum _ -1,8 °C -1,8 °C 66 % 1015,6 hPa - 0,0 km/h (0 Bft) - - - - - - -3,2 °C -2,2 °C 0,0 km/h (0 Bft)
_ Max-Zeit 14:58 14:59 09:24 00:04 23:59 11:21 - - 15:21 15:01 13:54 13:48 17:44 14:58 12:02
Maximum _ 4,6 °C 4,6 °C 92 % 1018,9 hPa 0,0 mm 10,3 km/h
O-NO (2 Bft)
- - 1 min 0,127 mm 1,9 UV-I 408 W/m² -0,6 °C 4,6 °C 14,5 km/h
NO (3 Bft)
Durchschnitt _ 1,0 °C 1,0 °C 84 % 1017,3 hPa #0,0 mm 1,4 km/h (1 Bft) O-NO - #1:21 h #0,330 mm 1,2 UV-I 35 W/m² -1,4 °C 0,9 °C 2,3 km/h (1 Bft)